<?xml version='1.0' encoding='UTF-8'?><gpx version="1.1" creator="JPX - https://github.com/jenetics/jpx" xmlns="http://www.topografix.com/GPX/1/1"><trk><trkseg><trkpt lat="43.45449050261573" lon="11.791151845197687"><ele>257.0</ele><time>2026-04-16T09:27:18.36Z</time></trkpt><trkpt lat="43.45453582671314" lon="11.791082502780622"><ele>257.0</ele><time>2026-04-16T09:27:21Z</time></trkpt><trkpt lat="43.45460549886635" lon="11.791063517549558"><ele>257.0</ele><time>2026-04-16T09:27:25Z</time></trkpt><trkpt lat="43.45460782382151" lon="11.790971184167157"><ele>257.0</ele><time>2026-04-16T09:27:44Z</time></trkpt><trkpt lat="43.454681780102334" lon="11.790939566736006"><ele>257.0</ele><time>2026-04-16T09:31:19.999Z</time></trkpt><trkpt lat="43.454684860056865" lon="11.791042612787857"><ele>257.0</ele><time>2026-04-16T09:31:25Z</time></trkpt><trkpt lat="43.45466511293944" lon="11.791184490738633"><ele>257.0</ele><time>2026-04-16T09:31:27Z</time></trkpt><trkpt lat="43.454652380441146" lon="11.791269979279976"><ele>257.0</ele><time>2026-04-16T09:31:28Z</time></trkpt><trkpt lat="43.454641013783885" lon="11.791436193126458"><ele>257.0</ele><time>2026-04-16T09:31:30Z</time></trkpt><trkpt lat="43.4545948997764" lon="11.791594140938711"><ele>257.0</ele><time>2026-04-16T09:31:32Z</time></trkpt><trkpt lat="43.454471595618806" lon="11.79159439186194"><ele>257.0</ele><time>2026-04-16T09:31:34Z</time></trkpt><trkpt lat="43.45435968080899" lon="11.791562304916129"><ele>257.0</ele><time>2026-04-16T09:31:36Z</time></trkpt><trkpt lat="43.45426218611977" lon="11.791571462408518"><ele>257.0</ele><time>2026-04-16T09:31:38Z</time></trkpt><trkpt lat="43.45418296905947" lon="11.791555855074286"><ele>257.0</ele><time>2026-04-16T09:31:40Z</time></trkpt><trkpt lat="43.454071476117086" lon="11.791535050093486"><ele>257.0</ele><time>2026-04-16T09:31:42Z</time></trkpt><trkpt lat="43.45400551150011" lon="11.791527634626627"><ele>257.0</ele><time>2026-04-16T09:31:43Z</time></trkpt><trkpt lat="43.453933240789254" lon="11.79151920950474"><ele>257.0</ele><time>2026-04-16T09:31:44Z</time></trkpt><trkpt lat="43.45386724743293" lon="11.791513798746744"><ele>257.0</ele><time>2026-04-16T09:31:45Z</time></trkpt><trkpt lat="43.45380325868192" lon="11.791499794191733"><ele>257.0</ele><time>2026-04-16T09:31:46Z</time></trkpt><trkpt lat="43.453705031233014" lon="11.791472864205371"><ele>257.0</ele><time>2026-04-16T09:31:48Z</time></trkpt><trkpt lat="43.45359478882088" lon="11.79144119202758"><ele>257.0</ele><time>2026-04-16T09:31:50Z</time></trkpt><trkpt lat="43.4534733473102" lon="11.7913893638842"><ele>257.0</ele><time>2026-04-16T09:31:52Z</time></trkpt><trkpt lat="43.45340010042979" lon="11.791365025067366"><ele>257.4</ele><time>2026-04-16T09:31:53Z</time></trkpt><trkpt lat="43.45332807544325" lon="11.791339170561118"><ele>257.79999999999995</ele><time>2026-04-16T09:31:54Z</time></trkpt><trkpt lat="43.453269636803725" lon="11.791291024925968"><ele>258.2</ele><time>2026-04-16T09:31:55Z</time></trkpt><trkpt lat="43.45315425768554" lon="11.791255911081985"><ele>258.59999999999997</ele><time>2026-04-16T09:31:57Z</time></trkpt><trkpt lat="43.4530295035337" lon="11.791182751076159"><ele>259.0</ele><time>2026-04-16T09:31:59Z</time></trkpt><trkpt lat="43.452965462702245" lon="11.79113041943733"><ele>259.0</ele><time>2026-04-16T09:32:00Z</time></trkpt><trkpt lat="43.4529002478921" lon="11.791086607516347"><ele>259.0</ele><time>2026-04-16T09:32:01Z</time></trkpt><trkpt lat="43.452826501823466" lon="11.791028645597459"><ele>259.0</ele><time>2026-04-16T09:32:02Z</time></trkpt><trkpt lat="43.45276489451084" lon="11.790940801514624"><ele>259.0</ele><time>2026-04-16T09:32:03Z</time></trkpt><trkpt lat="43.4526981510416" lon="11.790850117862885"><ele>259.0</ele><time>2026-04-16T09:32:04Z</time></trkpt><trkpt lat="43.45264200012579" lon="11.790756861135357"><ele>259.0</ele><time>2026-04-16T09:32:05Z</time></trkpt><trkpt lat="43.45258980429832" lon="11.79066076770201"><ele>259.0</ele><time>2026-04-16T09:32:06Z</time></trkpt><trkpt lat="43.452539994861446" lon="11.790557950692701"><ele>259.0</ele><time>2026-04-16T09:32:07Z</time></trkpt><trkpt lat="43.45249311088842" lon="11.790456661077595"><ele>259.0</ele><time>2026-04-16T09:32:08Z</time></trkpt><trkpt lat="43.4524504190277" lon="11.790350492347812"><ele>259.0</ele><time>2026-04-16T09:32:09Z</time></trkpt><trkpt lat="43.45242155134499" lon="11.790249848993174"><ele>259.0</ele><time>2026-04-16T09:32:10Z</time></trkpt><trkpt lat="43.452399979279946" lon="11.790152750431892"><ele>259.0</ele><time>2026-04-16T09:32:11Z</time></trkpt><trkpt lat="43.45238277467566" lon="11.790059945547716"><ele>259.4</ele><time>2026-04-16T09:32:12Z</time></trkpt><trkpt lat="43.45237181093536" lon="11.789933584059423"><ele>259.79999999999995</ele><time>2026-04-16T09:32:14Z</time></trkpt><trkpt lat="43.452464256126945" lon="11.789864594453604"><ele>260.20000000000005</ele><time>2026-04-16T09:32:16Z</time></trkpt><trkpt lat="43.45253202933789" lon="11.789801156352523"><ele>260.6</ele><time>2026-04-16T09:32:17Z</time></trkpt><trkpt lat="43.45261070997031" lon="11.789744312276863"><ele>261.0</ele><time>2026-04-16T09:32:17.999Z</time></trkpt><trkpt lat="43.452686133435506" lon="11.789692647028401"><ele>261.0</ele><time>2026-04-16T09:32:18.999Z</time></trkpt><trkpt lat="43.452744651612306" lon="11.78964135411461"><ele>261.0</ele><time>2026-04-16T09:32:19.999Z</time></trkpt><trkpt lat="43.452753386406904" lon="11.789459127762365"><ele>261.0</ele><time>2026-04-16T09:32:21.999Z</time></trkpt><trkpt lat="43.45271072659985" lon="11.78934621526999"><ele>261.0</ele><time>2026-04-16T09:32:22.999Z</time></trkpt><trkpt lat="43.45268161850152" lon="11.789249921274195"><ele>261.0</ele><time>2026-04-16T09:32:23.999Z</time></trkpt><trkpt lat="43.45270185072223" lon="11.789165686672561"><ele>261.0</ele><time>2026-04-16T09:32:24.999Z</time></trkpt><trkpt lat="43.45272823954355" lon="11.789078343943887"><ele>261.2</ele><time>2026-04-16T09:32:25.999Z</time></trkpt><trkpt lat="43.45271980216452" lon="11.788981924699439"><ele>261.40000000000003</ele><time>2026-04-16T09:32:26.999Z</time></trkpt><trkpt lat="43.45270611124805" lon="11.788823986274961"><ele>261.6</ele><time>2026-04-16T09:32:28.999Z</time></trkpt><trkpt lat="43.45264863870827" lon="11.788739529119963"><ele>261.8</ele><time>2026-04-16T09:32:29.999Z</time></trkpt><trkpt lat="43.45257460940677" lon="11.78866382052265"><ele>262.0</ele><time>2026-04-16T09:32:30.999Z</time></trkpt><trkpt lat="43.45249233175646" lon="11.78859266379224"><ele>262.0</ele><time>2026-04-16T09:32:31.999Z</time></trkpt><trkpt lat="43.452417028231004" lon="11.788529886165351"><ele>262.0</ele><time>2026-04-16T09:32:32.999Z</time></trkpt><trkpt lat="43.452343623072025" lon="11.788457482458407"><ele>262.0</ele><time>2026-04-16T09:32:33.999Z</time></trkpt><trkpt lat="43.45227708371605" lon="11.788364664157308"><ele>262.0</ele><time>2026-04-16T09:32:34.999Z</time></trkpt><trkpt lat="43.452228090381446" lon="11.78825828799452"><ele>262.0</ele><time>2026-04-16T09:32:35.999Z</time></trkpt><trkpt lat="43.45217377779867" lon="11.788156577270906"><ele>261.8333333333333</ele><time>2026-04-16T09:32:36.999Z</time></trkpt><trkpt lat="43.45211961237315" lon="11.788073657170685"><ele>261.66666666666663</ele><time>2026-04-16T09:32:37.999Z</time></trkpt><trkpt lat="43.45205296019457" lon="11.787996062819289"><ele>261.5</ele><time>2026-04-16T09:32:38.999Z</time></trkpt><trkpt lat="43.45198416580933" lon="11.787927515266183"><ele>261.3333333333333</ele><time>2026-04-16T09:32:39.999Z</time></trkpt><trkpt lat="43.45191015811453" lon="11.787862605714857"><ele>261.1666666666667</ele><time>2026-04-16T09:32:40.999Z</time></trkpt><trkpt lat="43.45183678079614" lon="11.787818739247355"><ele>261.0</ele><time>2026-04-16T09:32:41.999Z</time></trkpt><trkpt lat="43.45176528849781" lon="11.78778115522625"><ele>261.0</ele><time>2026-04-16T09:32:42.999Z</time></trkpt><trkpt lat="43.45169575158244" lon="11.787740340899791"><ele>261.0</ele><time>2026-04-16T09:32:43.999Z</time></trkpt><trkpt lat="43.451629181494255" lon="11.787664536603456"><ele>261.0</ele><time>2026-04-16T09:32:44.999Z</time></trkpt><trkpt lat="43.451573090368335" lon="11.787563357903307"><ele>261.0</ele><time>2026-04-16T09:32:45.999Z</time></trkpt><trkpt lat="43.451529523742956" lon="11.787450853061479"><ele>261.0</ele><time>2026-04-16T09:32:46.999Z</time></trkpt><trkpt lat="43.45149047072083" lon="11.787327792929435"><ele>261.0</ele><time>2026-04-16T09:32:47.999Z</time></trkpt><trkpt lat="43.45146759637364" lon="11.787199431574601"><ele>261.3333333333333</ele><time>2026-04-16T09:32:48.999Z</time></trkpt><trkpt lat="43.451460471967465" lon="11.787074156662111"><ele>261.6666666666667</ele><time>2026-04-16T09:32:49.999Z</time></trkpt><trkpt lat="43.451470856475645" lon="11.786949109239952"><ele>262.0</ele><time>2026-04-16T09:32:50.999Z</time></trkpt><trkpt lat="43.45148559096762" lon="11.78683949172155"><ele>262.33333333333337</ele><time>2026-04-16T09:32:51.999Z</time></trkpt><trkpt lat="43.451491586844895" lon="11.786719743902461"><ele>262.6666666666667</ele><time>2026-04-16T09:32:52.999Z</time></trkpt><trkpt lat="43.451482468621265" lon="11.786625299611863"><ele>263.0</ele><time>2026-04-16T09:32:53.999Z</time></trkpt><trkpt lat="43.45147960393688" lon="11.786519311350563"><ele>263.33333333333337</ele><time>2026-04-16T09:32:54.999Z</time></trkpt><trkpt lat="43.45147981846247" lon="11.786413618814846"><ele>263.6666666666667</ele><time>2026-04-16T09:32:55.999Z</time></trkpt><trkpt lat="43.45148925594285" lon="11.78630999515048"><ele>264.0</ele><time>2026-04-16T09:32:56.999Z</time></trkpt><trkpt lat="43.45150818944326" lon="11.786196244463168"><ele>264.3333333333333</ele><time>2026-04-16T09:32:57.999Z</time></trkpt><trkpt lat="43.45152123175244" lon="11.786081505569529"><ele>264.66666666666663</ele><time>2026-04-16T09:32:58.999Z</time></trkpt><trkpt lat="43.45153357486687" lon="11.785972917930895"><ele>265.0</ele><time>2026-04-16T09:32:59.999Z</time></trkpt><trkpt lat="43.4515473330605" lon="11.785862385398213"><ele>266.0</ele><time>2026-04-16T09:33:00.999Z</time></trkpt><trkpt lat="43.451562919687284" lon="11.785756377124034"><ele>267.0</ele><time>2026-04-16T09:33:01.999Z</time></trkpt><trkpt lat="43.451577167324615" lon="11.78558412891368"><ele>268.0</ele><time>2026-04-16T09:33:03.999Z</time></trkpt><trkpt lat="43.45153994007243" lon="11.78546327841832"><ele>269.0</ele><time>2026-04-16T09:33:05.999Z</time></trkpt><trkpt lat="43.45143644000572" lon="11.785457333489957"><ele>270.0</ele><time>2026-04-16T09:33:07.999Z</time></trkpt><trkpt lat="43.45137035409255" lon="11.785426044509665"><ele>270.0</ele><time>2026-04-16T09:33:11.999Z</time></trkpt><trkpt lat="43.451246113752305" lon="11.78537948776282"><ele>270.0</ele><time>2026-04-16T09:33:14.999Z</time></trkpt><trkpt lat="43.4511786613473" lon="11.785359760967486"><ele>270.0</ele><time>2026-04-16T09:33:15.999Z</time></trkpt><trkpt lat="43.45109634431434" lon="11.785318317618067"><ele>270.0</ele><time>2026-04-16T09:33:17.999Z</time></trkpt><trkpt lat="43.45106941221893" lon="11.785210613697942"><ele>270.0</ele><time>2026-04-16T09:33:19.999Z</time></trkpt><trkpt lat="43.45101834232197" lon="11.785083115989572"><ele>270.2</ele><time>2026-04-16T09:33:21.999Z</time></trkpt><trkpt lat="43.45094325556698" lon="11.784944377407191"><ele>270.4</ele><time>2026-04-16T09:33:23.999Z</time></trkpt><trkpt lat="43.450925433792925" lon="11.784812493140034"><ele>270.6</ele><time>2026-04-16T09:33:25.999Z</time></trkpt><trkpt lat="43.45088119963705" lon="11.784698272121458"><ele>270.8</ele><time>2026-04-16T09:33:27.999Z</time></trkpt><trkpt lat="43.450896967974884" lon="11.78460906086791"><ele>271.0</ele><time>2026-04-16T09:33:29.999Z</time></trkpt><trkpt lat="43.450925809768464" lon="11.78450008429861"><ele>271.0</ele><time>2026-04-16T09:33:31.999Z</time></trkpt><trkpt lat="43.45097811944115" lon="11.78442414346741"><ele>271.0</ele><time>2026-04-16T09:33:33.999Z</time></trkpt><trkpt lat="43.450986137861534" lon="11.784290536293812"><ele>271.0</ele><time>2026-04-16T09:33:35.999Z</time></trkpt><trkpt lat="43.450966589203105" lon="11.784156459005825"><ele>271.0</ele><time>2026-04-16T09:33:37.999Z</time></trkpt><trkpt lat="43.450896461204465" lon="11.784066336094911"><ele>271.0</ele><time>2026-04-16T09:33:39.999Z</time></trkpt><trkpt lat="43.45086793018526" lon="11.78390968751035"><ele>272.16666666666663</ele><time>2026-04-16T09:33:41.999Z</time></trkpt><trkpt lat="43.45084155108966" lon="11.783758168056073"><ele>273.3333333333333</ele><time>2026-04-16T09:33:43.999Z</time></trkpt><trkpt lat="43.4508180478887" lon="11.783632251843091"><ele>274.5</ele><time>2026-04-16T09:33:45.999Z</time></trkpt><trkpt lat="43.4507609302355" lon="11.78358332196898"><ele>275.6666666666667</ele><time>2026-04-16T09:33:48Z</time></trkpt><trkpt lat="43.45069374344411" lon="11.783494406035887"><ele>276.83333333333337</ele><time>2026-04-16T09:33:51Z</time></trkpt><trkpt lat="43.45061735914355" lon="11.783471325707254"><ele>278.0</ele><time>2026-04-16T09:33:53Z</time></trkpt><trkpt lat="43.45054644803612" lon="11.783357616705214"><ele>280.0</ele><time>2026-04-16T09:33:55Z</time></trkpt><trkpt lat="43.450520933280096" lon="11.783262923852286"><ele>282.0</ele><time>2026-04-16T09:33:57Z</time></trkpt><trkpt lat="43.45049740585882" lon="11.783157607662899"><ele>284.0</ele><time>2026-04-16T09:33:59Z</time></trkpt><trkpt lat="43.45046127496567" lon="11.783029580503628"><ele>286.0</ele><time>2026-04-16T09:34:01Z</time></trkpt><trkpt lat="43.45037804152501" lon="11.782976817359318"><ele>288.0</ele><time>2026-04-16T09:34:03Z</time></trkpt><trkpt lat="43.450301397675226" lon="11.782935045026768"><ele>290.0</ele><time>2026-04-16T09:34:05Z</time></trkpt><trkpt lat="43.450205611885394" lon="11.782931228336045"><ele>293.0</ele><time>2026-04-16T09:34:07Z</time></trkpt><trkpt lat="43.450132020455264" lon="11.783006060008288"><ele>296.0</ele><time>2026-04-16T09:34:09Z</time></trkpt><trkpt lat="43.4500521242208" lon="11.783091089406401"><ele>299.0</ele><time>2026-04-16T09:34:11Z</time></trkpt><trkpt lat="43.44997670904909" lon="11.783149514727414"><ele>302.0</ele><time>2026-04-16T09:34:13Z</time></trkpt><trkpt lat="43.44990442812823" lon="11.783115178387483"><ele>305.0</ele><time>2026-04-16T09:34:15Z</time></trkpt><trkpt lat="43.44988783011248" lon="11.783006962711218"><ele>308.0</ele><time>2026-04-16T09:34:17Z</time></trkpt><trkpt lat="43.44984750270342" lon="11.782927230440189"><ele>308.0</ele><time>2026-04-16T09:34:34.999Z</time></trkpt><trkpt lat="43.44985202160064" lon="11.782802014258985"><ele>308.0</ele><time>2026-04-16T09:34:37.999Z</time></trkpt><trkpt lat="43.449879160859666" lon="11.782663906155577"><ele>308.0</ele><time>2026-04-16T09:34:39.999Z</time></trkpt><trkpt lat="43.44991833713804" lon="11.782516000739191"><ele>308.0</ele><time>2026-04-16T09:34:41.999Z</time></trkpt><trkpt lat="43.44996286635142" lon="11.78238727925544"><ele>308.0</ele><time>2026-04-16T09:34:43.999Z</time></trkpt><trkpt lat="43.4499910103212" lon="11.782306721083335"><ele>310.5</ele><time>2026-04-16T09:34:44.999Z</time></trkpt><trkpt lat="43.450009752663355" lon="11.782212993819241"><ele>313.0</ele><time>2026-04-16T09:34:45.999Z</time></trkpt><trkpt lat="43.44994593959403" lon="11.782189504984197"><ele>315.5</ele><time>2026-04-16T09:34:48.999Z</time></trkpt><trkpt lat="43.44989218058536" lon="11.782273387381965"><ele>318.0</ele><time>2026-04-16T09:34:53.999Z</time></trkpt><trkpt lat="43.449826249009064" lon="11.782273806086108"><ele>320.5</ele><time>2026-04-16T09:34:55.999Z</time></trkpt><trkpt lat="43.44976657537134" lon="11.78220472134415"><ele>323.0</ele><time>2026-04-16T09:34:57.999Z</time></trkpt><trkpt lat="43.44980646536139" lon="11.7820085556669"><ele>323.00000000000006</ele><time>2026-04-16T09:34:59.999Z</time></trkpt><trkpt lat="43.449827731702726" lon="11.781918728351519"><ele>323.0</ele><time>2026-04-16T09:35:01.999Z</time></trkpt><trkpt lat="43.44980489021376" lon="11.78182422760248"><ele>323.0</ele><time>2026-04-16T09:35:04.999Z</time></trkpt><trkpt lat="43.44981600302758" lon="11.781728268896012"><ele>323.0</ele><time>2026-04-16T09:35:06.999Z</time></trkpt><trkpt lat="43.44981828627969" lon="11.781617844442223"><ele>323.0</ele><time>2026-04-16T09:35:08.999Z</time></trkpt><trkpt lat="43.449789735227576" lon="11.781533506979837"><ele>323.00000000000006</ele><time>2026-04-16T09:35:14.999Z</time></trkpt><trkpt lat="43.44978664727313" lon="11.781442210279913"><ele>323.0</ele><time>2026-04-16T09:35:21.999Z</time></trkpt><trkpt lat="43.44972082297757" lon="11.781478429539089"><ele>325.33333333333337</ele><time>2026-04-16T09:35:32.999Z</time></trkpt><trkpt lat="43.449660276468364" lon="11.781516286931117"><ele>327.6666666666667</ele><time>2026-04-16T09:35:35.999Z</time></trkpt><trkpt lat="43.44960043601838" lon="11.781577298839292"><ele>330.0</ele><time>2026-04-16T09:35:37.999Z</time></trkpt><trkpt lat="43.44955034127763" lon="11.781634108278663"><ele>332.3333333333333</ele><time>2026-04-16T09:35:39.999Z</time></trkpt><trkpt lat="43.44950372204071" lon="11.781737292735704"><ele>334.66666666666663</ele><time>2026-04-16T09:35:42.999Z</time></trkpt><trkpt lat="43.44948172895756" lon="11.781851893889337"><ele>337.0</ele><time>2026-04-16T09:35:44.999Z</time></trkpt><trkpt lat="43.44948412508399" lon="11.781992216897665"><ele>339.66666666666663</ele><time>2026-04-16T09:35:46.999Z</time></trkpt><trkpt lat="43.449446660262225" lon="11.782109605030838"><ele>342.3333333333333</ele><time>2026-04-16T09:35:48.999Z</time></trkpt><trkpt lat="43.44937683176876" lon="11.78218114481802"><ele>345.0</ele><time>2026-04-16T09:35:50.999Z</time></trkpt><trkpt lat="43.44934547358045" lon="11.78226596388842"><ele>347.6666666666667</ele><time>2026-04-16T09:35:51.999Z</time></trkpt><trkpt lat="43.44929245143863" lon="11.782396229892889"><ele>350.33333333333337</ele><time>2026-04-16T09:35:53.999Z</time></trkpt><trkpt lat="43.449262553630284" lon="11.782506603357001"><ele>353.0</ele><time>2026-04-16T09:35:55.999Z</time></trkpt><trkpt lat="43.44917845111116" lon="11.782566362958827"><ele>353.0</ele><time>2026-04-16T09:35:58Z</time></trkpt><trkpt lat="43.44911862558624" lon="11.782608817495811"><ele>353.0</ele><time>2026-04-16T09:36:00Z</time></trkpt><trkpt lat="43.44906289026056" lon="11.782681054646023"><ele>353.0</ele><time>2026-04-16T09:36:02Z</time></trkpt><trkpt lat="43.4490353026694" lon="11.782764373592151"><ele>353.0</ele><time>2026-04-16T09:36:03Z</time></trkpt><trkpt lat="43.44899580892056" lon="11.782856975197136"><ele>353.0</ele><time>2026-04-16T09:36:04Z</time></trkpt><trkpt lat="43.4489396695138" lon="11.78294237105918"><ele>353.0</ele><time>2026-04-16T09:36:06Z</time></trkpt><trkpt lat="43.44892321738637" lon="11.783039527980545"><ele>353.0</ele><time>2026-04-16T09:36:08Z</time></trkpt><trkpt lat="43.44884297667641" lon="11.783088121753263"><ele>351.6666666666667</ele><time>2026-04-16T09:36:11Z</time></trkpt><trkpt lat="43.44878645233602" lon="11.783139870325128"><ele>350.33333333333337</ele><time>2026-04-16T09:36:17Z</time></trkpt><trkpt lat="43.44872747663247" lon="11.783189170662546"><ele>349.0</ele><time>2026-04-16T09:36:20Z</time></trkpt><trkpt lat="43.44878036001382" lon="11.783094808759278"><ele>347.6666666666667</ele><time>2026-04-16T09:36:26Z</time></trkpt><trkpt lat="43.448846610749605" lon="11.783018793950887"><ele>346.3333333333333</ele><time>2026-04-16T09:36:27Z</time></trkpt><trkpt lat="43.44890891319882" lon="11.782915820887464"><ele>345.0</ele><time>2026-04-16T09:36:28Z</time></trkpt><trkpt lat="43.448939261243446" lon="11.782836927521657"><ele>346.6</ele><time>2026-04-16T09:36:29Z</time></trkpt><trkpt lat="43.44897477046959" lon="11.782738896252726"><ele>348.2</ele><time>2026-04-16T09:36:30Z</time></trkpt><trkpt lat="43.44901982845596" lon="11.78264503476722"><ele>349.79999999999995</ele><time>2026-04-16T09:36:31Z</time></trkpt><trkpt lat="43.44909596372598" lon="11.782472270628446"><ele>351.4</ele><time>2026-04-16T09:36:32Z</time></trkpt><trkpt lat="43.44917045755927" lon="11.782367803545963"><ele>353.0</ele><time>2026-04-16T09:36:33Z</time></trkpt><trkpt lat="43.4492078290283" lon="11.782279708883227"><ele>353.0</ele><time>2026-04-16T09:36:34Z</time></trkpt><trkpt lat="43.44924625155431" lon="11.782172560414839"><ele>353.0</ele><time>2026-04-16T09:36:35Z</time></trkpt><trkpt lat="43.44932957488697" lon="11.781999449726603"><ele>353.0</ele><time>2026-04-16T09:36:37Z</time></trkpt><trkpt lat="43.44937073989585" lon="11.781859890239572"><ele>353.0</ele><time>2026-04-16T09:36:38Z</time></trkpt><trkpt lat="43.44940483282032" lon="11.781749946387016"><ele>353.0</ele><time>2026-04-16T09:36:39Z</time></trkpt><trkpt lat="43.44946968111609" lon="11.781611192319193"><ele>352.79999999999995</ele><time>2026-04-16T09:36:40Z</time></trkpt><trkpt lat="43.44953149330668" lon="11.781502293069988"><ele>352.6</ele><time>2026-04-16T09:36:41Z</time></trkpt><trkpt lat="43.44960445413905" lon="11.781382303970569"><ele>352.4</ele><time>2026-04-16T09:36:42Z</time></trkpt><trkpt lat="43.449671447086985" lon="11.78125960684841"><ele>352.20000000000005</ele><time>2026-04-16T09:36:43Z</time></trkpt><trkpt lat="43.449723565704524" lon="11.781132303282293"><ele>352.0</ele><time>2026-04-16T09:36:44Z</time></trkpt><trkpt lat="43.449772339583085" lon="11.781007128770128"><ele>352.0</ele><time>2026-04-16T09:36:45Z</time></trkpt><trkpt lat="43.44981782026016" lon="11.78089022179346"><ele>352.0</ele><time>2026-04-16T09:36:46Z</time></trkpt><trkpt lat="43.44984875465503" lon="11.780800121091772"><ele>352.0</ele><time>2026-04-16T09:36:47Z</time></trkpt><trkpt lat="43.449887736543786" lon="11.780686581003131"><ele>352.0</ele><time>2026-04-16T09:36:48Z</time></trkpt><trkpt lat="43.44992158438713" lon="11.780575663786582"><ele>352.0</ele><time>2026-04-16T09:36:49Z</time></trkpt><trkpt lat="43.44996595404839" lon="11.780445622430936"><ele>352.0</ele><time>2026-04-16T09:36:50Z</time></trkpt><trkpt lat="43.45000865479257" lon="11.780315209207101"><ele>352.0</ele><time>2026-04-16T09:36:51Z</time></trkpt><trkpt lat="43.45004380585898" lon="11.780191444436733"><ele>352.0</ele><time>2026-04-16T09:36:52Z</time></trkpt><trkpt lat="43.45007495812811" lon="11.7800942917753"><ele>352.0</ele><time>2026-04-16T09:36:53Z</time></trkpt><trkpt lat="43.450113397846984" lon="11.779976688245924"><ele>352.0</ele><time>2026-04-16T09:36:54Z</time></trkpt><trkpt lat="43.45017027417268" lon="11.77982224045717"><ele>354.0</ele><time>2026-04-16T09:36:55Z</time></trkpt><trkpt lat="43.45021966295423" lon="11.779694680276622"><ele>356.0</ele><time>2026-04-16T09:36:56Z</time></trkpt><trkpt lat="43.45027542533725" lon="11.77956175837422"><ele>358.0</ele><time>2026-04-16T09:36:57Z</time></trkpt><trkpt lat="43.450311054643024" lon="11.779481301163228"><ele>360.0</ele><time>2026-04-16T09:36:58Z</time></trkpt><trkpt lat="43.45035256280843" lon="11.779384636225366"><ele>362.0</ele><time>2026-04-16T09:36:59Z</time></trkpt><trkpt lat="43.45040943986076" lon="11.779285506201099"><ele>360.1428571428571</ele><time>2026-04-16T09:37:00Z</time></trkpt><trkpt lat="43.4504588248195" lon="11.7792065435889"><ele>358.2857142857143</ele><time>2026-04-16T09:37:01Z</time></trkpt><trkpt lat="43.45050764186836" lon="11.7791110584691"><ele>356.42857142857144</ele><time>2026-04-16T09:37:02Z</time></trkpt><trkpt lat="43.450553043637235" lon="11.779030666970417"><ele>354.57142857142856</ele><time>2026-04-16T09:37:03Z</time></trkpt><trkpt lat="43.450596008977904" lon="11.778950147033111"><ele>352.7142857142857</ele><time>2026-04-16T09:37:04Z</time></trkpt><trkpt lat="43.45064917897533" lon="11.77887719546611"><ele>350.85714285714283</ele><time>2026-04-16T09:37:05Z</time></trkpt><trkpt lat="43.45068196985006" lon="11.7787986438935"><ele>349.0</ele><time>2026-04-16T09:37:06Z</time></trkpt><trkpt lat="43.45071179250156" lon="11.77872085382905"><ele>349.0</ele><time>2026-04-16T09:37:07Z</time></trkpt><trkpt lat="43.4507566221374" lon="11.778594041175909"><ele>349.0</ele><time>2026-04-16T09:37:09Z</time></trkpt><trkpt lat="43.45079122554089" lon="11.778497360690505"><ele>349.0</ele><time>2026-04-16T09:37:13Z</time></trkpt><trkpt lat="43.45082225664994" lon="11.778416421198234"><ele>349.0</ele><time>2026-04-16T09:37:16Z</time></trkpt><trkpt lat="43.45078015435778" lon="11.778268704124507"><ele>349.0</ele><time>2026-04-16T09:37:19Z</time></trkpt><trkpt lat="43.450773685772404" lon="11.778161492633924"><ele>349.0</ele><time>2026-04-16T09:37:21Z</time></trkpt><trkpt lat="43.45075838477535" lon="11.7780478685993"><ele>350.8333333333333</ele><time>2026-04-16T09:37:23Z</time></trkpt><trkpt lat="43.450748601718445" lon="11.777913048765644"><ele>352.66666666666663</ele><time>2026-04-16T09:37:25Z</time></trkpt><trkpt lat="43.45074799582032" lon="11.777816560660744"><ele>354.5</ele><time>2026-04-16T09:37:26Z</time></trkpt><trkpt lat="43.45086140069962" lon="11.777731663047312"><ele>356.3333333333333</ele><time>2026-04-16T09:37:28Z</time></trkpt><trkpt lat="43.45093738898651" lon="11.777708405596753"><ele>358.1666666666667</ele><time>2026-04-16T09:37:29Z</time></trkpt><trkpt lat="43.451003898247784" lon="11.777682536420809"><ele>360.0</ele><time>2026-04-16T09:37:30Z</time></trkpt><trkpt lat="43.45112516291093" lon="11.77763039745272"><ele>360.0</ele><time>2026-04-16T09:37:31.999Z</time></trkpt><trkpt lat="43.45118344056113" lon="11.77759228939019"><ele>360.0</ele><time>2026-04-16T09:37:32.999Z</time></trkpt><trkpt lat="43.451275083327786" lon="11.77753299004656"><ele>360.0</ele><time>2026-04-16T09:37:34.999Z</time></trkpt><trkpt lat="43.45127177157899" lon="11.777426381013255"><ele>360.0</ele><time>2026-04-16T09:37:36.999Z</time></trkpt><trkpt lat="43.45115885057991" lon="11.777449836486044"><ele>360.0</ele><time>2026-04-16T09:37:38.999Z</time></trkpt><trkpt lat="43.4511127851219" lon="11.777510496944759"><ele>360.0</ele><time>2026-04-16T09:37:39.999Z</time></trkpt><trkpt lat="43.4510535047723" lon="11.777588668158852"><ele>360.0</ele><time>2026-04-16T09:37:40.999Z</time></trkpt><trkpt lat="43.45099743865019" lon="11.777669578667997"><ele>360.0</ele><time>2026-04-16T09:37:41.999Z</time></trkpt><trkpt lat="43.4509465885634" lon="11.77772571974193"><ele>360.0</ele><time>2026-04-16T09:37:42.999Z</time></trkpt><trkpt lat="43.45086843869386" lon="11.777778633423315"><ele>360.0</ele><time>2026-04-16T09:37:44.999Z</time></trkpt><trkpt lat="43.45087346001263" lon="11.777659497938885"><ele>360.0</ele><time>2026-04-16T09:37:46.999Z</time></trkpt><trkpt lat="43.45099087706016" lon="11.777605503217325"><ele>360.0</ele><time>2026-04-16T09:37:48.999Z</time></trkpt><trkpt lat="43.451065289157135" lon="11.777582855755538"><ele>360.0</ele><time>2026-04-16T09:37:50Z</time></trkpt><trkpt lat="43.45113545747516" lon="11.777560513156407"><ele>360.0</ele><time>2026-04-16T09:37:51Z</time></trkpt><trkpt lat="43.45120250844186" lon="11.777542256918304"><ele>360.0</ele><time>2026-04-16T09:37:52Z</time></trkpt><trkpt lat="43.4512825031397" lon="11.77750036220987"><ele>360.0</ele><time>2026-04-16T09:37:54Z</time></trkpt><trkpt lat="43.451252035213194" lon="11.777401950312534"><ele>360.0</ele><time>2026-04-16T09:37:56Z</time></trkpt><trkpt lat="43.45115885310367" lon="11.777476768497705"><ele>360.0</ele><time>2026-04-16T09:37:58Z</time></trkpt><trkpt lat="43.451124474883336" lon="11.777564796998957"><ele>360.0</ele><time>2026-04-16T09:37:59Z</time></trkpt><trkpt lat="43.45107460948807" lon="11.777627426289456"><ele>360.0</ele><time>2026-04-16T09:38:00Z</time></trkpt><trkpt lat="43.451010846572316" lon="11.777675352271588"><ele>360.0</ele><time>2026-04-16T09:38:01Z</time></trkpt><trkpt lat="43.450946570521275" lon="11.77772115828904"><ele>360.0</ele><time>2026-04-16T09:38:02Z</time></trkpt><trkpt lat="43.45088242143712" lon="11.777757551753242"><ele>360.0</ele><time>2026-04-16T09:38:03Z</time></trkpt><trkpt lat="43.450786640286644" lon="11.777826590197382"><ele>360.0</ele><time>2026-04-16T09:38:05Z</time></trkpt><trkpt lat="43.45075208592955" lon="11.777748330655308"><ele>360.0</ele><time>2026-04-16T09:38:07Z</time></trkpt><trkpt lat="43.45083045206372" lon="11.7776845298668"><ele>360.0</ele><time>2026-04-16T09:38:09Z</time></trkpt><trkpt lat="43.45091423691821" lon="11.77769149310083"><ele>360.0</ele><time>2026-04-16T09:38:10Z</time></trkpt><trkpt lat="43.45100371692112" lon="11.77765682209172"><ele>360.0</ele><time>2026-04-16T09:38:11Z</time></trkpt><trkpt lat="43.45108474444726" lon="11.777595920521282"><ele>360.0</ele><time>2026-04-16T09:38:12Z</time></trkpt><trkpt lat="43.45115677526479" lon="11.77755805337882"><ele>360.0</ele><time>2026-04-16T09:38:13Z</time></trkpt><trkpt lat="43.45125430807544" lon="11.777528241504053"><ele>360.0</ele><time>2026-04-16T09:38:15Z</time></trkpt><trkpt lat="43.45126298527246" lon="11.777408725349295"><ele>360.0</ele><time>2026-04-16T09:38:17Z</time></trkpt><trkpt lat="43.45114843352687" lon="11.777432852740802"><ele>360.0</ele><time>2026-04-16T09:38:19Z</time></trkpt><trkpt lat="43.451119647786015" lon="11.777531219512497"><ele>360.0</ele><time>2026-04-16T09:38:20Z</time></trkpt><trkpt lat="43.451056659259955" lon="11.777593673865733"><ele>360.0</ele><time>2026-04-16T09:38:21Z</time></trkpt><trkpt lat="43.45097830614625" lon="11.777674383004493"><ele>360.0</ele><time>2026-04-16T09:38:22Z</time></trkpt><trkpt lat="43.450907711985714" lon="11.777734081769983"><ele>360.0</ele><time>2026-04-16T09:38:23Z</time></trkpt><trkpt lat="43.45084586805436" lon="11.77779518017016"><ele>360.0</ele><time>2026-04-16T09:38:24Z</time></trkpt><trkpt lat="43.450758098989134" lon="11.777854267771588"><ele>360.0</ele><time>2026-04-16T09:38:26Z</time></trkpt><trkpt lat="43.4507349703656" lon="11.777772858010696"><ele>360.0</ele><time>2026-04-16T09:38:28Z</time></trkpt><trkpt lat="43.4508042763069" lon="11.777732077924293"><ele>360.0</ele><time>2026-04-16T09:38:30Z</time></trkpt><trkpt lat="43.45089591737636" lon="11.777725376823692"><ele>360.0</ele><time>2026-04-16T09:38:31Z</time></trkpt><trkpt lat="43.45102666617411" lon="11.777652482790579"><ele>360.0</ele><time>2026-04-16T09:38:32Z</time></trkpt><trkpt lat="43.45111806994227" lon="11.777603251772378"><ele>360.0</ele><time>2026-04-16T09:38:33Z</time></trkpt><trkpt lat="43.45119203111638" lon="11.777564811014663"><ele>360.0</ele><time>2026-04-16T09:38:34Z</time></trkpt><trkpt lat="43.45128627166492" lon="11.777503838038491"><ele>360.0</ele><time>2026-04-16T09:38:36Z</time></trkpt><trkpt lat="43.451264657774004" lon="11.777409282238343"><ele>360.0</ele><time>2026-04-16T09:38:38Z</time></trkpt><trkpt lat="43.451191980819836" lon="11.777417785237127"><ele>360.0</ele><time>2026-04-16T09:38:39Z</time></trkpt><trkpt lat="43.451143131791184" lon="11.777486830975805"><ele>360.0</ele><time>2026-04-16T09:38:40Z</time></trkpt><trkpt lat="43.45110027236962" lon="11.777590545416123"><ele>360.0</ele><time>2026-04-16T09:38:41Z</time></trkpt><trkpt lat="43.451025422241464" lon="11.777642589255887"><ele>360.0</ele><time>2026-04-16T09:38:42Z</time></trkpt><trkpt lat="43.45092949790542" lon="11.77772190073646"><ele>360.0</ele><time>2026-04-16T09:38:43Z</time></trkpt><trkpt lat="43.450875937999825" lon="11.77778365961174"><ele>360.0</ele><time>2026-04-16T09:38:44Z</time></trkpt><trkpt lat="43.45077402171442" lon="11.777850443109804"><ele>360.0</ele><time>2026-04-16T09:38:46Z</time></trkpt><trkpt lat="43.45071607444605" lon="11.777760448913225"><ele>360.0</ele><time>2026-04-16T09:38:48Z</time></trkpt><trkpt lat="43.45083811812028" lon="11.77767164108412"><ele>360.0</ele><time>2026-04-16T09:38:50Z</time></trkpt><trkpt lat="43.45092239527802" lon="11.777698181781085"><ele>360.0</ele><time>2026-04-16T09:38:51Z</time></trkpt><trkpt lat="43.45104236297878" lon="11.777646264231809"><ele>360.0</ele><time>2026-04-16T09:38:52Z</time></trkpt><trkpt lat="43.45113137162437" lon="11.77759901136505"><ele>360.0</ele><time>2026-04-16T09:38:53Z</time></trkpt><trkpt lat="43.45120477636694" lon="11.777551898497867"><ele>360.0</ele><time>2026-04-16T09:38:54Z</time></trkpt><trkpt lat="43.451288990250625" lon="11.777485609194708"><ele>360.0</ele><time>2026-04-16T09:38:56Z</time></trkpt><trkpt lat="43.45126280842872" lon="11.777391582147564"><ele>360.0</ele><time>2026-04-16T09:38:58Z</time></trkpt><trkpt lat="43.451194653929136" lon="11.777397721000519"><ele>360.0</ele><time>2026-04-16T09:38:59Z</time></trkpt><trkpt lat="43.45111681282516" lon="11.777519371558427"><ele>360.0</ele><time>2026-04-16T09:39:01Z</time></trkpt><trkpt lat="43.45106135753903" lon="11.777596405359661"><ele>360.0</ele><time>2026-04-16T09:39:02Z</time></trkpt><trkpt lat="43.451013101900834" lon="11.77766532998266"><ele>360.0</ele><time>2026-04-16T09:39:03Z</time></trkpt><trkpt lat="43.45094651047947" lon="11.77771609668881"><ele>360.0</ele><time>2026-04-16T09:39:04Z</time></trkpt><trkpt lat="43.45086309198528" lon="11.777780149231008"><ele>360.0</ele><time>2026-04-16T09:39:06Z</time></trkpt><trkpt lat="43.450830630025884" lon="11.777697599044387"><ele>360.0</ele><time>2026-04-16T09:39:08Z</time></trkpt><trkpt lat="43.450954919953986" lon="11.777631865401855"><ele>360.0</ele><time>2026-04-16T09:39:10Z</time></trkpt><trkpt lat="43.45106803590715" lon="11.77762429737417"><ele>360.0</ele><time>2026-04-16T09:39:11Z</time></trkpt><trkpt lat="43.451164762229276" lon="11.777589745905951"><ele>360.0</ele><time>2026-04-16T09:39:12Z</time></trkpt><trkpt lat="43.45123413455692" lon="11.777559854271415"><ele>360.0</ele><time>2026-04-16T09:39:13Z</time></trkpt><trkpt lat="43.45131539501141" lon="11.777491505711604"><ele>360.0</ele><time>2026-04-16T09:39:15Z</time></trkpt><trkpt lat="43.45126438605401" lon="11.777399270245096"><ele>360.0</ele><time>2026-04-16T09:39:17Z</time></trkpt><trkpt lat="43.45119471735373" lon="11.777423820459632"><ele>360.0</ele><time>2026-04-16T09:39:18Z</time></trkpt><trkpt lat="43.4511139831557" lon="11.777518306306941"><ele>360.0</ele><time>2026-04-16T09:39:20Z</time></trkpt><trkpt lat="43.45103366489786" lon="11.777596529662866"><ele>360.0</ele><time>2026-04-16T09:39:21Z</time></trkpt><trkpt lat="43.450979593657074" lon="11.777679640043456"><ele>360.0</ele><time>2026-04-16T09:39:22Z</time></trkpt><trkpt lat="43.45093621349988" lon="11.777753148055343"><ele>360.0</ele><time>2026-04-16T09:39:23Z</time></trkpt><trkpt lat="43.45086487763012" lon="11.777711865447074"><ele>360.0</ele><time>2026-04-16T09:39:25Z</time></trkpt><trkpt lat="43.45093772492575" lon="11.777645344238387"><ele>360.0</ele><time>2026-04-16T09:39:27Z</time></trkpt><trkpt lat="43.45104363496954" lon="11.777622117474765"><ele>360.0</ele><time>2026-04-16T09:39:28Z</time></trkpt><trkpt lat="43.45116567473132" lon="11.77758244941226"><ele>360.0</ele><time>2026-04-16T09:39:29Z</time></trkpt><trkpt lat="43.451234647492875" lon="11.777555922207206"><ele>360.0</ele><time>2026-04-16T09:39:30Z</time></trkpt><trkpt lat="43.45129781985544" lon="11.77747628984052"><ele>360.0</ele><time>2026-04-16T09:39:32Z</time></trkpt><trkpt lat="43.45123308757299" lon="11.777398914370217"><ele>360.0</ele><time>2026-04-16T09:39:34Z</time></trkpt><trkpt lat="43.45110913996522" lon="11.777566116021891"><ele>360.0</ele><time>2026-04-16T09:39:36Z</time></trkpt><trkpt lat="43.451004621590116" lon="11.77766954673399"><ele>360.0</ele><time>2026-04-16T09:39:37Z</time></trkpt><trkpt lat="43.45090994245294" lon="11.777755373344585"><ele>360.0</ele><time>2026-04-16T09:39:37.999Z</time></trkpt><trkpt lat="43.45086202596968" lon="11.777813656445305"><ele>360.0</ele><time>2026-04-16T09:39:38.999Z</time></trkpt><trkpt lat="43.450782200446326" lon="11.777830651489051"><ele>360.0</ele><time>2026-04-16T09:39:40.999Z</time></trkpt><trkpt lat="43.450802999216165" lon="11.777735770399492"><ele>360.0</ele><time>2026-04-16T09:39:42.999Z</time></trkpt><trkpt lat="43.45088004155408" lon="11.777686573069722"><ele>360.0</ele><time>2026-04-16T09:39:43.999Z</time></trkpt><trkpt lat="43.451012206138614" lon="11.777636113938808"><ele>360.0</ele><time>2026-04-16T09:39:44.999Z</time></trkpt><trkpt lat="43.451134666652095" lon="11.777615718520577"><ele>360.0</ele><time>2026-04-16T09:39:45.999Z</time></trkpt><trkpt lat="43.45120798213765" lon="11.777581844589877"><ele>360.0</ele><time>2026-04-16T09:39:46.999Z</time></trkpt><trkpt lat="43.451293894436816" lon="11.777512703901454"><ele>360.0</ele><time>2026-04-16T09:39:48.999Z</time></trkpt><trkpt lat="43.45126932272369" lon="11.77742899713066"><ele>360.0</ele><time>2026-04-16T09:39:50.999Z</time></trkpt><trkpt lat="43.451190246948016" lon="11.77748509655467"><ele>360.0</ele><time>2026-04-16T09:39:51.999Z</time></trkpt><trkpt lat="43.45113812639946" lon="11.777546049322662"><ele>360.0</ele><time>2026-04-16T09:39:52.999Z</time></trkpt><trkpt lat="43.45108748854123" lon="11.777674694899313"><ele>360.0</ele><time>2026-04-16T09:39:53.999Z</time></trkpt><trkpt lat="43.4509810080497" lon="11.777768844891737"><ele>360.0</ele><time>2026-04-16T09:39:54.999Z</time></trkpt><trkpt lat="43.45089467638325" lon="11.7778322641173"><ele>360.0</ele><time>2026-04-16T09:39:55.999Z</time></trkpt><trkpt lat="43.450833056005386" lon="11.777879849894846"><ele>360.0</ele><time>2026-04-16T09:39:57Z</time></trkpt><trkpt lat="43.45076370247154" lon="11.777850415070219"><ele>360.0</ele><time>2026-04-16T09:39:59Z</time></trkpt><trkpt lat="43.450793150643094" lon="11.777744406680267"><ele>360.0</ele><time>2026-04-16T09:40:01Z</time></trkpt><trkpt lat="43.450883928398206" lon="11.777693328364435"><ele>360.0</ele><time>2026-04-16T09:40:02Z</time></trkpt><trkpt lat="43.45098826108896" lon="11.777673689217247"><ele>360.0</ele><time>2026-04-16T09:40:03Z</time></trkpt><trkpt lat="43.451059510768836" lon="11.777655982696942"><ele>360.0</ele><time>2026-04-16T09:40:04Z</time></trkpt><trkpt lat="43.451124331638574" lon="11.777614123082156"><ele>360.0</ele><time>2026-04-16T09:40:05Z</time></trkpt><trkpt lat="43.45118730727712" lon="11.777582023797937"><ele>360.0</ele><time>2026-04-16T09:40:06Z</time></trkpt><trkpt lat="43.45124651744392" lon="11.777543742197702"><ele>360.0</ele><time>2026-04-16T09:40:07Z</time></trkpt><trkpt lat="43.45130978477577" lon="11.777428672855716"><ele>360.0</ele><time>2026-04-16T09:40:09Z</time></trkpt><trkpt lat="43.45127635565982" lon="11.77731847508162"><ele>360.0</ele><time>2026-04-16T09:40:11Z</time></trkpt><trkpt lat="43.45125996549785" lon="11.777185097470658"><ele>360.0</ele><time>2026-04-16T09:40:13Z</time></trkpt><trkpt lat="43.45123202191818" lon="11.77709502131786"><ele>360.0</ele><time>2026-04-16T09:40:14Z</time></trkpt><trkpt lat="43.45124661852932" lon="11.776987065175037"><ele>360.0</ele><time>2026-04-16T09:40:16Z</time></trkpt><trkpt lat="43.451317800357494" lon="11.776874251157375"><ele>359.6666666666667</ele><time>2026-04-16T09:40:18Z</time></trkpt><trkpt lat="43.45137576346362" lon="11.77675478487959"><ele>359.3333333333333</ele><time>2026-04-16T09:40:20Z</time></trkpt><trkpt lat="43.45143030618063" lon="11.776658046383542"><ele>359.0</ele><time>2026-04-16T09:40:22Z</time></trkpt><trkpt lat="43.451478479667195" lon="11.776585168139622"><ele>358.66666666666663</ele><time>2026-04-16T09:40:24Z</time></trkpt><trkpt lat="43.451522381065665" lon="11.776493642350554"><ele>358.3333333333333</ele><time>2026-04-16T09:40:26Z</time></trkpt><trkpt lat="43.45157761474009" lon="11.776435027691322"><ele>358.0</ele><time>2026-04-16T09:40:28Z</time></trkpt><trkpt lat="43.45166635803304" lon="11.776340349935928"><ele>358.0</ele><time>2026-04-16T09:40:30Z</time></trkpt><trkpt lat="43.45175161284626" lon="11.77625083601137"><ele>358.0</ele><time>2026-04-16T09:40:32Z</time></trkpt><trkpt lat="43.451852696899444" lon="11.776187992983456"><ele>358.0</ele><time>2026-04-16T09:40:34Z</time></trkpt><trkpt lat="43.45196846116017" lon="11.776208568125998"><ele>358.0</ele><time>2026-04-16T09:40:36Z</time></trkpt><trkpt lat="43.45204565220525" lon="11.776190131743595"><ele>358.0</ele><time>2026-04-16T09:40:37Z</time></trkpt><trkpt lat="43.45212109266866" lon="11.77618849989089"><ele>358.0</ele><time>2026-04-16T09:40:38Z</time></trkpt><trkpt lat="43.45218969371236" lon="11.776181809390875"><ele>358.0</ele><time>2026-04-16T09:40:39Z</time></trkpt><trkpt lat="43.45226033540329" lon="11.776220679769237"><ele>358.0</ele><time>2026-04-16T09:40:40Z</time></trkpt><trkpt lat="43.452323771437065" lon="11.776247023976126"><ele>358.0</ele><time>2026-04-16T09:40:41Z</time></trkpt><trkpt lat="43.452405728454075" lon="11.776275648555593"><ele>358.0</ele><time>2026-04-16T09:40:42Z</time></trkpt><trkpt lat="43.452485880950206" lon="11.77633742354415"><ele>358.0</ele><time>2026-04-16T09:40:44Z</time></trkpt><trkpt lat="43.45255953062351" lon="11.776287432877016"><ele>358.0</ele><time>2026-04-16T09:40:45Z</time></trkpt><trkpt lat="43.45259255573753" lon="11.776211907637206"><ele>358.0</ele><time>2026-04-16T09:40:46Z</time></trkpt><trkpt lat="43.452671546907695" lon="11.776113317610767"><ele>358.0</ele><time>2026-04-16T09:40:48Z</time></trkpt><trkpt lat="43.45274475346617" lon="11.776062651905944"><ele>358.0</ele><time>2026-04-16T09:40:50Z</time></trkpt><trkpt lat="43.45282794381665" lon="11.775940963255312"><ele>358.0</ele><time>2026-04-16T09:40:52Z</time></trkpt><trkpt lat="43.45288188831654" lon="11.775850691054831"><ele>355.66666666666663</ele><time>2026-04-16T09:40:53Z</time></trkpt><trkpt lat="43.45291060221088" lon="11.775761183848495"><ele>353.3333333333333</ele><time>2026-04-16T09:40:54Z</time></trkpt><trkpt lat="43.452920480006696" lon="11.775659536552162"><ele>351.0</ele><time>2026-04-16T09:40:55Z</time></trkpt><trkpt lat="43.45293786000059" lon="11.775563648163095"><ele>348.6666666666667</ele><time>2026-04-16T09:40:56Z</time></trkpt><trkpt lat="43.452928630559164" lon="11.775458522303161"><ele>346.33333333333337</ele><time>2026-04-16T09:40:57Z</time></trkpt><trkpt lat="43.452895875745625" lon="11.775330612486748"><ele>344.0</ele><time>2026-04-16T09:40:58Z</time></trkpt><trkpt lat="43.45284508966601" lon="11.775223907950357"><ele>341.6</ele><time>2026-04-16T09:40:59Z</time></trkpt><trkpt lat="43.45281438532077" lon="11.775067249597628"><ele>339.2</ele><time>2026-04-16T09:41:01Z</time></trkpt><trkpt lat="43.45280461653594" lon="11.77494705265953"><ele>336.8</ele><time>2026-04-16T09:41:02Z</time></trkpt><trkpt lat="43.45282521345481" lon="11.774832357571459"><ele>334.40000000000003</ele><time>2026-04-16T09:41:03Z</time></trkpt><trkpt lat="43.45283678125314" lon="11.77474562166307"><ele>332.0</ele><time>2026-04-16T09:41:04Z</time></trkpt><trkpt lat="43.45290311422619" lon="11.7745949931379"><ele>332.0</ele><time>2026-04-16T09:41:06Z</time></trkpt><trkpt lat="43.452952316510306" lon="11.774515312518538"><ele>332.0</ele><time>2026-04-16T09:41:07Z</time></trkpt><trkpt lat="43.452987616332216" lon="11.774407542785411"><ele>332.0</ele><time>2026-04-16T09:41:08Z</time></trkpt><trkpt lat="43.453027725912726" lon="11.774312815244334"><ele>332.0</ele><time>2026-04-16T09:41:09Z</time></trkpt><trkpt lat="43.45304929727937" lon="11.774215712551666"><ele>332.0</ele><time>2026-04-16T09:41:10Z</time></trkpt><trkpt lat="43.45308012697333" lon="11.774115639303261"><ele>332.0</ele><time>2026-04-16T09:41:11Z</time></trkpt><trkpt lat="43.453079522047496" lon="11.774015512686724"><ele>335.0</ele><time>2026-04-16T09:41:12Z</time></trkpt><trkpt lat="43.453090601889464" lon="11.77385413573004"><ele>338.0</ele><time>2026-04-16T09:41:14Z</time></trkpt><trkpt lat="43.45313954607969" lon="11.773706776508932"><ele>341.0</ele><time>2026-04-16T09:41:16Z</time></trkpt><trkpt lat="43.45317627359283" lon="11.773611247573328"><ele>344.0</ele><time>2026-04-16T09:41:17Z</time></trkpt><trkpt lat="43.45318800016018" lon="11.773503577047071"><ele>347.0</ele><time>2026-04-16T09:41:18Z</time></trkpt><trkpt lat="43.45319387627928" lon="11.773407491152023"><ele>347.0</ele><time>2026-04-16T09:41:19Z</time></trkpt><trkpt lat="43.45321657477343" lon="11.773299035564474"><ele>347.0</ele><time>2026-04-16T09:41:20Z</time></trkpt><trkpt lat="43.453247812600594" lon="11.773181360150861"><ele>347.0</ele><time>2026-04-16T09:41:21Z</time></trkpt><trkpt lat="43.45323641046912" lon="11.773057006459899"><ele>347.0</ele><time>2026-04-16T09:41:22Z</time></trkpt><trkpt lat="43.45323062313069" lon="11.772953077147438"><ele>347.0</ele><time>2026-04-16T09:41:23Z</time></trkpt><trkpt lat="43.45324298702282" lon="11.772845208543984"><ele>347.0</ele><time>2026-04-16T09:41:24Z</time></trkpt><trkpt lat="43.453267447913106" lon="11.772747911138007"><ele>345.0</ele><time>2026-04-16T09:41:25Z</time></trkpt><trkpt lat="43.45329800164117" lon="11.77264301031475"><ele>343.0</ele><time>2026-04-16T09:41:26Z</time></trkpt><trkpt lat="43.453319858420556" lon="11.772533182258545"><ele>341.0</ele><time>2026-04-16T09:41:27Z</time></trkpt><trkpt lat="43.453329092312345" lon="11.772446375929297"><ele>339.0</ele><time>2026-04-16T09:41:28Z</time></trkpt><trkpt lat="43.453373804765754" lon="11.772359086768093"><ele>337.0</ele><time>2026-04-16T09:41:29Z</time></trkpt><trkpt lat="43.45341081456989" lon="11.772188945741423"><ele>335.0</ele><time>2026-04-16T09:41:31Z</time></trkpt><trkpt lat="43.453438906539255" lon="11.772078914245714"><ele>335.0</ele><time>2026-04-16T09:41:32Z</time></trkpt><trkpt lat="43.453486896935864" lon="11.771992281989787"><ele>335.0</ele><time>2026-04-16T09:41:33Z</time></trkpt><trkpt lat="43.45352276536815" lon="11.771903991310433"><ele>335.0</ele><time>2026-04-16T09:41:34Z</time></trkpt><trkpt lat="43.45354803381554" lon="11.771813096662443"><ele>335.0</ele><time>2026-04-16T09:41:35Z</time></trkpt><trkpt lat="43.45357115128104" lon="11.771657921374286"><ele>335.0</ele><time>2026-04-16T09:41:37Z</time></trkpt><trkpt lat="43.45361170749365" lon="11.77157860907255"><ele>335.0</ele><time>2026-04-16T09:41:38Z</time></trkpt><trkpt lat="43.45365159874229" lon="11.771495593434457"><ele>336.83333333333337</ele><time>2026-04-16T09:41:39Z</time></trkpt><trkpt lat="43.45369914140791" lon="11.77141930703098"><ele>338.6666666666667</ele><time>2026-04-16T09:41:40Z</time></trkpt><trkpt lat="43.45380231131883" lon="11.771301801268688"><ele>340.5</ele><time>2026-04-16T09:41:42Z</time></trkpt><trkpt lat="43.4538858747826" lon="11.771257569357893"><ele>342.3333333333333</ele><time>2026-04-16T09:41:43Z</time></trkpt><trkpt lat="43.45395438380336" lon="11.771230008855412"><ele>344.16666666666663</ele><time>2026-04-16T09:41:43.999Z</time></trkpt><trkpt lat="43.45401537797686" lon="11.771189868988802"><ele>346.0</ele><time>2026-04-16T09:41:44.999Z</time></trkpt><trkpt lat="43.454120604278536" lon="11.771072017958163"><ele>342.0</ele><time>2026-04-16T09:41:46.999Z</time></trkpt><trkpt lat="43.45418860556714" lon="11.771023165498862"><ele>338.0</ele><time>2026-04-16T09:41:47.999Z</time></trkpt><trkpt lat="43.454259334468894" lon="11.770963165420346"><ele>334.0</ele><time>2026-04-16T09:41:48.999Z</time></trkpt><trkpt lat="43.45432561329543" lon="11.770910494506552"><ele>330.0</ele><time>2026-04-16T09:41:49.999Z</time></trkpt><trkpt lat="43.45438705015044" lon="11.770859172806434"><ele>326.0</ele><time>2026-04-16T09:41:50.999Z</time></trkpt><trkpt lat="43.45451252879223" lon="11.77081107192156"><ele>322.0</ele><time>2026-04-16T09:41:52.999Z</time></trkpt><trkpt lat="43.4545728477429" lon="11.770782956891104"><ele>324.66666666666663</ele><time>2026-04-16T09:41:53.999Z</time></trkpt><trkpt lat="43.454643081561095" lon="11.770813569641522"><ele>327.3333333333333</ele><time>2026-04-16T09:41:54.999Z</time></trkpt><trkpt lat="43.454731414799184" lon="11.770777745492659"><ele>330.0</ele><time>2026-04-16T09:41:55.999Z</time></trkpt><trkpt lat="43.45479612043424" lon="11.77061241466148"><ele>332.6666666666667</ele><time>2026-04-16T09:41:58Z</time></trkpt><trkpt lat="43.45484269837067" lon="11.770547383889589"><ele>335.33333333333337</ele><time>2026-04-16T09:41:59Z</time></trkpt><trkpt lat="43.45491451762025" lon="11.7705039100294"><ele>338.0</ele><time>2026-04-16T09:42:00Z</time></trkpt><trkpt lat="43.45498960461176" lon="11.770464743159573"><ele>338.0</ele><time>2026-04-16T09:42:01Z</time></trkpt><trkpt lat="43.455020198369155" lon="11.77037817168726"><ele>338.0</ele><time>2026-04-16T09:42:02Z</time></trkpt><trkpt lat="43.45504006388587" lon="11.770287255893207"><ele>338.0</ele><time>2026-04-16T09:42:03Z</time></trkpt><trkpt lat="43.455129201836165" lon="11.77020491680587"><ele>338.0</ele><time>2026-04-16T09:42:05Z</time></trkpt><trkpt lat="43.45520087330274" lon="11.770144508068904"><ele>338.0</ele><time>2026-04-16T09:42:06Z</time></trkpt><trkpt lat="43.45527739140502" lon="11.770062284221032"><ele>338.0</ele><time>2026-04-16T09:42:07Z</time></trkpt><trkpt lat="43.455342905589056" lon="11.769995033784355"><ele>337.0</ele><time>2026-04-16T09:42:08Z</time></trkpt><trkpt lat="43.45543433589145" lon="11.769886981775283"><ele>336.0</ele><time>2026-04-16T09:42:10Z</time></trkpt><trkpt lat="43.455495308348425" lon="11.769828483085002"><ele>335.0</ele><time>2026-04-16T09:42:11Z</time></trkpt><trkpt lat="43.45558041731765" lon="11.769805343488818"><ele>334.0</ele><time>2026-04-16T09:42:12Z</time></trkpt><trkpt lat="43.45568974479106" lon="11.769799698800433"><ele>333.0</ele><time>2026-04-16T09:42:13Z</time></trkpt><trkpt lat="43.45575417633762" lon="11.769761206329436"><ele>333.0</ele><time>2026-04-16T09:42:14Z</time></trkpt><trkpt lat="43.45580470688199" lon="11.76969847603055"><ele>333.0</ele><time>2026-04-16T09:42:15Z</time></trkpt><trkpt lat="43.455878965944734" lon="11.769652456614631"><ele>333.0</ele><time>2026-04-16T09:42:16Z</time></trkpt><trkpt lat="43.45597959770347" lon="11.769587782916632"><ele>333.0</ele><time>2026-04-16T09:42:17Z</time></trkpt><trkpt lat="43.45604867675879" lon="11.769519050830382"><ele>333.0</ele><time>2026-04-16T09:42:18Z</time></trkpt><trkpt lat="43.45614470405189" lon="11.769473218323798"><ele>333.0</ele><time>2026-04-16T09:42:19Z</time></trkpt><trkpt lat="43.45620227289057" lon="11.769396626427284"><ele>332.3333333333333</ele><time>2026-04-16T09:42:20Z</time></trkpt><trkpt lat="43.45627586769297" lon="11.769318424202622"><ele>331.6666666666667</ele><time>2026-04-16T09:42:21Z</time></trkpt><trkpt lat="43.456346708727956" lon="11.769276342782675"><ele>331.0</ele><time>2026-04-16T09:42:22Z</time></trkpt><trkpt lat="43.4563937857023" lon="11.769206882960198"><ele>330.33333333333337</ele><time>2026-04-16T09:42:24Z</time></trkpt><trkpt lat="43.456328636775666" lon="11.769154799113405"><ele>329.6666666666667</ele><time>2026-04-16T09:42:26Z</time></trkpt><trkpt lat="43.456274753081296" lon="11.769207963612011"><ele>329.0</ele><time>2026-04-16T09:42:27Z</time></trkpt><trkpt lat="43.45621741784526" lon="11.76928616627218"><ele>328.7142857142857</ele><time>2026-04-16T09:42:28Z</time></trkpt><trkpt lat="43.4561482001508" lon="11.769347517401586"><ele>328.42857142857144</ele><time>2026-04-16T09:42:29Z</time></trkpt><trkpt lat="43.45607776238096" lon="11.769382215706026"><ele>328.1428571428571</ele><time>2026-04-16T09:42:30Z</time></trkpt><trkpt lat="43.45602033329339" lon="11.769420671742234"><ele>327.8571428571429</ele><time>2026-04-16T09:42:31Z</time></trkpt><trkpt lat="43.45595728819049" lon="11.769455141450372"><ele>327.57142857142856</ele><time>2026-04-16T09:42:32Z</time></trkpt><trkpt lat="43.45588732376823" lon="11.769488130508927"><ele>327.2857142857143</ele><time>2026-04-16T09:42:33Z</time></trkpt><trkpt lat="43.45581769057036" lon="11.769498124661562"><ele>327.0</ele><time>2026-04-16T09:42:34Z</time></trkpt><trkpt lat="43.4557286017638" lon="11.769514530957164"><ele>326.6666666666667</ele><time>2026-04-16T09:42:36Z</time></trkpt><trkpt lat="43.45565939542318" lon="11.769519993411965"><ele>326.3333333333333</ele><time>2026-04-16T09:42:38Z</time></trkpt><trkpt lat="43.455595135031835" lon="11.76943563776654"><ele>326.0</ele><time>2026-04-16T09:42:40Z</time></trkpt><trkpt lat="43.45552269476531" lon="11.76942336999023"><ele>325.66666666666663</ele><time>2026-04-16T09:42:42Z</time></trkpt><trkpt lat="43.455410085998835" lon="11.769362996938119"><ele>325.3333333333333</ele><time>2026-04-16T09:42:47Z</time></trkpt><trkpt lat="43.455327048538365" lon="11.769371217021392"><ele>325.0</ele><time>2026-04-16T09:42:51Z</time></trkpt><trkpt lat="43.45525314081691" lon="11.769322328314134"><ele>325.0</ele><time>2026-04-16T09:42:53Z</time></trkpt><trkpt lat="43.45518201670526" lon="11.769318271951882"><ele>325.0</ele><time>2026-04-16T09:42:55Z</time></trkpt><trkpt lat="43.45507375405123" lon="11.769340566270847"><ele>325.0</ele><time>2026-04-16T09:42:57Z</time></trkpt><trkpt lat="43.45498430716126" lon="11.769356252095228"><ele>325.0</ele><time>2026-04-16T09:42:58Z</time></trkpt><trkpt lat="43.45488584221887" lon="11.769395071345368"><ele>325.0</ele><time>2026-04-16T09:42:59Z</time></trkpt><trkpt lat="43.4547860433842" lon="11.769452298309176"><ele>325.0</ele><time>2026-04-16T09:43:00Z</time></trkpt><trkpt lat="43.45462558193411" lon="11.769455089175578"><ele>325.0</ele><time>2026-04-16T09:43:02Z</time></trkpt><trkpt lat="43.454501632154496" lon="11.769447832856406"><ele>325.0</ele><time>2026-04-16T09:43:03Z</time></trkpt><trkpt lat="43.45440464553146" lon="11.769462358088129"><ele>325.0</ele><time>2026-04-16T09:43:04Z</time></trkpt><trkpt lat="43.45432296993642" lon="11.769436414809046"><ele>325.4</ele><time>2026-04-16T09:43:05Z</time></trkpt><trkpt lat="43.45423170392138" lon="11.769372591033902"><ele>325.8</ele><time>2026-04-16T09:43:06Z</time></trkpt><trkpt lat="43.454141426789185" lon="11.76935147087395"><ele>326.20000000000005</ele><time>2026-04-16T09:43:07Z</time></trkpt><trkpt lat="43.45405969797599" lon="11.769370499097466"><ele>326.6</ele><time>2026-04-16T09:43:08Z</time></trkpt><trkpt lat="43.453966237318326" lon="11.769390456564793"><ele>327.0</ele><time>2026-04-16T09:43:09Z</time></trkpt><trkpt lat="43.45379060090271" lon="11.769338825840954"><ele>328.8333333333333</ele><time>2026-04-16T09:43:13Z</time></trkpt><trkpt lat="43.453704937129864" lon="11.769339841471798"><ele>330.6666666666667</ele><time>2026-04-16T09:43:14Z</time></trkpt><trkpt lat="43.4535999531188" lon="11.769305707860177"><ele>332.5</ele><time>2026-04-16T09:43:15Z</time></trkpt><trkpt lat="43.453537054078105" lon="11.76927504843791"><ele>334.33333333333337</ele><time>2026-04-16T09:43:16Z</time></trkpt><trkpt lat="43.45343611814272" lon="11.769228076946563"><ele>336.1666666666667</ele><time>2026-04-16T09:43:18Z</time></trkpt><trkpt lat="43.45347879177087" lon="11.769148592413563"><ele>338.0</ele><time>2026-04-16T09:43:21Z</time></trkpt><trkpt lat="43.453544502245705" lon="11.769099696707288"><ele>338.0</ele><time>2026-04-16T09:43:23Z</time></trkpt><trkpt lat="43.45351326521335" lon="11.769014805748233"><ele>338.0</ele><time>2026-04-16T09:43:25Z</time></trkpt><trkpt lat="43.45341830335008" lon="11.768975864910797"><ele>338.0</ele><time>2026-04-16T09:43:27Z</time></trkpt><trkpt lat="43.45338869005929" lon="11.768864645799534"><ele>338.0</ele><time>2026-04-16T09:43:29Z</time></trkpt><trkpt lat="43.45333462591359" lon="11.768808246298763"><ele>338.0</ele><time>2026-04-16T09:43:30Z</time></trkpt><trkpt lat="43.45328077868881" lon="11.768757180548205"><ele>338.0</ele><time>2026-04-16T09:43:31Z</time></trkpt><trkpt lat="43.45322720126728" lon="11.768707006701742"><ele>338.0</ele><time>2026-04-16T09:43:32Z</time></trkpt><trkpt lat="43.453162633343275" lon="11.768661221644862"><ele>338.0</ele><time>2026-04-16T09:43:33Z</time></trkpt><trkpt lat="43.453093159707656" lon="11.768639973482323"><ele>338.0</ele><time>2026-04-16T09:43:34Z</time></trkpt><trkpt lat="43.4530406940313" lon="11.768588570135607"><ele>338.0</ele><time>2026-04-16T09:43:35Z</time></trkpt><trkpt lat="43.45296931149972" lon="11.768552884917858"><ele>338.0</ele><time>2026-04-16T09:43:36Z</time></trkpt><trkpt lat="43.45291056216881" lon="11.768514556546856"><ele>338.0</ele><time>2026-04-16T09:43:37Z</time></trkpt><trkpt lat="43.45286756021635" lon="11.768438252798493"><ele>338.0</ele><time>2026-04-16T09:43:38Z</time></trkpt><trkpt lat="43.45280629250006" lon="11.768392022091321"><ele>339.79999999999995</ele><time>2026-04-16T09:43:39Z</time></trkpt><trkpt lat="43.452720309679044" lon="11.768338749990129"><ele>341.6</ele><time>2026-04-16T09:43:40Z</time></trkpt><trkpt lat="43.45266005705584" lon="11.76825397549401"><ele>343.4</ele><time>2026-04-16T09:43:41Z</time></trkpt><trkpt lat="43.45259210589892" lon="11.768181396538651"><ele>345.20000000000005</ele><time>2026-04-16T09:43:42Z</time></trkpt><trkpt lat="43.4525116061632" lon="11.768088782113796"><ele>347.0</ele><time>2026-04-16T09:43:43Z</time></trkpt><trkpt lat="43.4524391442221" lon="11.768044381096233"><ele>347.0</ele><time>2026-04-16T09:43:44Z</time></trkpt><trkpt lat="43.452378477148834" lon="11.767988314196218"><ele>347.0</ele><time>2026-04-16T09:43:45Z</time></trkpt><trkpt lat="43.452322042350914" lon="11.767942230978598"><ele>347.0</ele><time>2026-04-16T09:43:46Z</time></trkpt><trkpt lat="43.452359984842694" lon="11.768110016061046"><ele>347.0</ele><time>2026-04-16T09:44:41Z</time></trkpt><trkpt lat="43.452391373288535" lon="11.768194522379396"><ele>347.0</ele><time>2026-04-16T09:44:42Z</time></trkpt><trkpt lat="43.452406806102" lon="11.768319824763205"><ele>347.0</ele><time>2026-04-16T09:44:43Z</time></trkpt><trkpt lat="43.452463301376746" lon="11.768477325519086"><ele>345.6</ele><time>2026-04-16T09:44:45Z</time></trkpt><trkpt lat="43.45249658508527" lon="11.768633454576243"><ele>344.20000000000005</ele><time>2026-04-16T09:44:47Z</time></trkpt><trkpt lat="43.45256352442702" lon="11.768737244716574"><ele>342.8</ele><time>2026-04-16T09:44:49Z</time></trkpt><trkpt lat="43.4526137945656" lon="11.768883664979517"><ele>341.4</ele><time>2026-04-16T09:44:51Z</time></trkpt><trkpt lat="43.452617100043184" lon="11.768987125341384"><ele>340.0</ele><time>2026-04-16T09:44:52Z</time></trkpt><trkpt lat="43.45269917844347" lon="11.769083120001612"><ele>340.0</ele><time>2026-04-16T09:44:54Z</time></trkpt><trkpt lat="43.45277422046833" lon="11.76914256153471"><ele>340.0</ele><time>2026-04-16T09:44:55Z</time></trkpt><trkpt lat="43.452811260429925" lon="11.769229985355516"><ele>340.0</ele><time>2026-04-16T09:44:56Z</time></trkpt><trkpt lat="43.452842898913595" lon="11.769319118776709"><ele>340.0</ele><time>2026-04-16T09:44:57Z</time></trkpt><trkpt lat="43.45280209159043" lon="11.769490271316544"><ele>340.0</ele><time>2026-04-16T09:44:59Z</time></trkpt><trkpt lat="43.452797603484456" lon="11.769609823176895"><ele>338.6</ele><time>2026-04-16T09:45:00Z</time></trkpt><trkpt lat="43.45282227154267" lon="11.76973765685261"><ele>337.2</ele><time>2026-04-16T09:45:01Z</time></trkpt><trkpt lat="43.452885454452506" lon="11.769903122257622"><ele>335.79999999999995</ele><time>2026-04-16T09:45:03Z</time></trkpt><trkpt lat="43.45291499824096" lon="11.769999860103475"><ele>334.4</ele><time>2026-04-16T09:45:04Z</time></trkpt><trkpt lat="43.45291442768316" lon="11.770100820407734"><ele>333.0</ele><time>2026-04-16T09:45:05Z</time></trkpt><trkpt lat="43.45290863887213" lon="11.770223385035093"><ele>330.79999999999995</ele><time>2026-04-16T09:45:06Z</time></trkpt><trkpt lat="43.45294306754937" lon="11.770327388133019"><ele>328.6</ele><time>2026-04-16T09:45:07Z</time></trkpt><trkpt lat="43.45295233367267" lon="11.770468600074905"><ele>326.4</ele><time>2026-04-16T09:45:09Z</time></trkpt><trkpt lat="43.45302664244626" lon="11.770576142837275"><ele>324.20000000000005</ele><time>2026-04-16T09:45:11Z</time></trkpt><trkpt lat="43.45298440113311" lon="11.770715443349436"><ele>322.0</ele><time>2026-04-16T09:45:14Z</time></trkpt><trkpt lat="43.452961688849626" lon="11.770825924868324"><ele>322.0</ele><time>2026-04-16T09:45:15Z</time></trkpt><trkpt lat="43.452939930213695" lon="11.770910274495057"><ele>322.0</ele><time>2026-04-16T09:45:16Z</time></trkpt><trkpt lat="43.452904562252485" lon="11.770990446602898"><ele>322.0</ele><time>2026-04-16T09:45:17Z</time></trkpt><trkpt lat="43.45285554090661" lon="11.771099402563207"><ele>322.0</ele><time>2026-04-16T09:45:18Z</time></trkpt><trkpt lat="43.45279073492588" lon="11.771194269166807"><ele>322.0</ele><time>2026-04-16T09:45:19Z</time></trkpt><trkpt lat="43.45272682435463" lon="11.771298720324392"><ele>322.0</ele><time>2026-04-16T09:45:20Z</time></trkpt><trkpt lat="43.45265470057215" lon="11.771385153967593"><ele>320.5</ele><time>2026-04-16T09:45:21Z</time></trkpt><trkpt lat="43.45267463334535" lon="11.771494256326415"><ele>319.0</ele><time>2026-04-16T09:45:22Z</time></trkpt><trkpt lat="43.45268595549333" lon="11.771618793160012"><ele>317.5</ele><time>2026-04-16T09:45:23Z</time></trkpt><trkpt lat="43.45265835014005" lon="11.771718986441561"><ele>316.0</ele><time>2026-04-16T09:45:24Z</time></trkpt><trkpt lat="43.4525743818153" lon="11.771781327755688"><ele>314.5</ele><time>2026-04-16T09:45:26Z</time></trkpt><trkpt lat="43.4524989396805" lon="11.771798993580262"><ele>313.0</ele><time>2026-04-16T09:45:27Z</time></trkpt><trkpt lat="43.45242861653666" lon="11.77183388862677"><ele>312.6</ele><time>2026-04-16T09:45:28Z</time></trkpt><trkpt lat="43.452351059456696" lon="11.771917591158026"><ele>312.20000000000005</ele><time>2026-04-16T09:45:29Z</time></trkpt><trkpt lat="43.452333157888404" lon="11.772040047927794"><ele>311.8</ele><time>2026-04-16T09:45:30Z</time></trkpt><trkpt lat="43.45231229630271" lon="11.772152110667692"><ele>311.40000000000003</ele><time>2026-04-16T09:45:31Z</time></trkpt><trkpt lat="43.45224368684958" lon="11.772250777769468"><ele>311.0</ele><time>2026-04-16T09:45:32Z</time></trkpt><trkpt lat="43.45219324247149" lon="11.772357136482311"><ele>311.0</ele><time>2026-04-16T09:45:33Z</time></trkpt><trkpt lat="43.452154548801744" lon="11.772475438752789"><ele>311.0</ele><time>2026-04-16T09:45:34Z</time></trkpt><trkpt lat="43.45212026588461" lon="11.772606934961347"><ele>311.0</ele><time>2026-04-16T09:45:35Z</time></trkpt><trkpt lat="43.452100523149745" lon="11.772733293889356"><ele>311.0</ele><time>2026-04-16T09:45:36Z</time></trkpt><trkpt lat="43.45210348499102" lon="11.772865236739129"><ele>311.0</ele><time>2026-04-16T09:45:38Z</time></trkpt><trkpt lat="43.45213431461552" lon="11.77300161676281"><ele>311.0</ele><time>2026-04-16T09:45:40Z</time></trkpt><trkpt lat="43.45211322274841" lon="11.773110458240595"><ele>311.0</ele><time>2026-04-16T09:45:42Z</time></trkpt><trkpt lat="43.45208173933785" lon="11.773229726931145"><ele>311.0</ele><time>2026-04-16T09:45:43Z</time></trkpt><trkpt lat="43.45206034057306" lon="11.773325003762935"><ele>311.0</ele><time>2026-04-16T09:45:44Z</time></trkpt><trkpt lat="43.45198692670727" lon="11.77343651081061"><ele>311.0</ele><time>2026-04-16T09:45:45Z</time></trkpt><trkpt lat="43.45192272459171" lon="11.773542280671712"><ele>310.0</ele><time>2026-04-16T09:45:46Z</time></trkpt><trkpt lat="43.45186010475517" lon="11.773623564733654"><ele>309.0</ele><time>2026-04-16T09:45:47Z</time></trkpt><trkpt lat="43.451778979818734" lon="11.773694741411468"><ele>308.0</ele><time>2026-04-16T09:45:49Z</time></trkpt><trkpt lat="43.45171244344042" lon="11.773744965502894"><ele>307.0</ele><time>2026-04-16T09:45:51Z</time></trkpt><trkpt lat="43.451654128405416" lon="11.773811246193379"><ele>306.0</ele><time>2026-04-16T09:46:02Z</time></trkpt><trkpt lat="43.45162022268684" lon="11.773910445191255"><ele>305.0</ele><time>2026-04-16T09:46:04Z</time></trkpt><trkpt lat="43.45155846718746" lon="11.774004391544139"><ele>305.0</ele><time>2026-04-16T09:46:10Z</time></trkpt><trkpt lat="43.45149492219207" lon="11.774091939411061"><ele>305.0</ele><time>2026-04-16T09:46:12Z</time></trkpt><trkpt lat="43.45142966782417" lon="11.774183650994877"><ele>305.0</ele><time>2026-04-16T09:46:14Z</time></trkpt><trkpt lat="43.45138362042393" lon="11.774251448317345"><ele>305.0</ele><time>2026-04-16T09:46:16Z</time></trkpt><trkpt lat="43.45128660391912" lon="11.77435600078307"><ele>305.0</ele><time>2026-04-16T09:46:18Z</time></trkpt><trkpt lat="43.451227051693074" lon="11.774395880081423"><ele>305.0</ele><time>2026-04-16T09:46:19Z</time></trkpt><trkpt lat="43.45109932214385" lon="11.774452287954304"><ele>304.8</ele><time>2026-04-16T09:46:21Z</time></trkpt><trkpt lat="43.45102559387381" lon="11.774510946612237"><ele>304.6</ele><time>2026-04-16T09:46:22Z</time></trkpt><trkpt lat="43.45098377889521" lon="11.774588839025059"><ele>304.4</ele><time>2026-04-16T09:46:23Z</time></trkpt><trkpt lat="43.45089740624458" lon="11.774699857801181"><ele>304.2</ele><time>2026-04-16T09:46:24Z</time></trkpt><trkpt lat="43.45084950853955" lon="11.774799862024295"><ele>304.0</ele><time>2026-04-16T09:46:25Z</time></trkpt><trkpt lat="43.45078676747789" lon="11.774901411972433"><ele>304.0</ele><time>2026-04-16T09:46:26Z</time></trkpt><trkpt lat="43.45066968123153" lon="11.774944148146922"><ele>304.0</ele><time>2026-04-16T09:46:28Z</time></trkpt><trkpt lat="43.45059537664362" lon="11.774950621684479"><ele>304.0</ele><time>2026-04-16T09:46:29Z</time></trkpt><trkpt lat="43.45050915077218" lon="11.77497345342059"><ele>304.0</ele><time>2026-04-16T09:46:30Z</time></trkpt><trkpt lat="43.450426757747195" lon="11.775028490855243"><ele>304.0</ele><time>2026-04-16T09:46:31Z</time></trkpt><trkpt lat="43.4503189736822" lon="11.775065448823158"><ele>302.59999999999997</ele><time>2026-04-16T09:46:32Z</time></trkpt><trkpt lat="43.450227581804505" lon="11.77509652280692"><ele>301.2</ele><time>2026-04-16T09:46:33Z</time></trkpt><trkpt lat="43.45013477425301" lon="11.775126741927219"><ele>299.79999999999995</ele><time>2026-04-16T09:46:34Z</time></trkpt><trkpt lat="43.45005339438214" lon="11.775170971234997"><ele>298.4</ele><time>2026-04-16T09:46:35Z</time></trkpt><trkpt lat="43.44995443559784" lon="11.77515400142912"><ele>297.0</ele><time>2026-04-16T09:46:37Z</time></trkpt><trkpt lat="43.449863570823794" lon="11.775037135737604"><ele>297.0</ele><time>2026-04-16T09:46:39Z</time></trkpt><trkpt lat="43.4499393409339" lon="11.774989358407664"><ele>297.0</ele><time>2026-04-16T09:46:42Z</time></trkpt><trkpt lat="43.45000434459144" lon="11.774944242248337"><ele>297.0</ele><time>2026-04-16T09:46:43Z</time></trkpt><trkpt lat="43.450060850041204" lon="11.774891347150836"><ele>297.0</ele><time>2026-04-16T09:46:44Z</time></trkpt><trkpt lat="43.4501191612422" lon="11.77481022773103"><ele>297.0</ele><time>2026-04-16T09:46:45Z</time></trkpt><trkpt lat="43.450193811107674" lon="11.774710370781738"><ele>297.0</ele><time>2026-04-16T09:46:47Z</time></trkpt><trkpt lat="43.45027386889472" lon="11.774649799256654"><ele>297.0</ele><time>2026-04-16T09:46:49Z</time></trkpt><trkpt lat="43.45033586565534" lon="11.774631891926221"><ele>297.0</ele><time>2026-04-16T09:46:50Z</time></trkpt><trkpt lat="43.45041261939423" lon="11.774614683901325"><ele>297.0</ele><time>2026-04-16T09:46:51Z</time></trkpt><trkpt lat="43.45048693158322" lon="11.774588502012465"><ele>297.0</ele><time>2026-04-16T09:46:52Z</time></trkpt><trkpt lat="43.45055133989346" lon="11.774543039629819"><ele>297.0</ele><time>2026-04-16T09:46:53Z</time></trkpt><trkpt lat="43.45061405352254" lon="11.774488975431966"><ele>297.0</ele><time>2026-04-16T09:46:54Z</time></trkpt><trkpt lat="43.450666905543805" lon="11.774426603584718"><ele>297.0</ele><time>2026-04-16T09:46:55Z</time></trkpt><trkpt lat="43.450750318755006" lon="11.774266958780954"><ele>299.3333333333333</ele><time>2026-04-16T09:46:57Z</time></trkpt><trkpt lat="43.45080048202651" lon="11.774172449250111"><ele>301.6666666666667</ele><time>2026-04-16T09:46:58Z</time></trkpt><trkpt lat="43.450849725684414" lon="11.774095285979483"><ele>304.0</ele><time>2026-04-16T09:46:59Z</time></trkpt><trkpt lat="43.45088801946762" lon="11.774015992282829"><ele>306.33333333333337</ele><time>2026-04-16T09:47:00Z</time></trkpt><trkpt lat="43.450969149643946" lon="11.773922388606277"><ele>308.6666666666667</ele><time>2026-04-16T09:47:02Z</time></trkpt><trkpt lat="43.45103869274607" lon="11.773854484197644"><ele>311.0</ele><time>2026-04-16T09:47:03Z</time></trkpt><trkpt lat="43.45110392737906" lon="11.773781512534864"><ele>311.0</ele><time>2026-04-16T09:47:04Z</time></trkpt><trkpt lat="43.451181743459145" lon="11.77371151276715"><ele>311.0</ele><time>2026-04-16T09:47:05Z</time></trkpt><trkpt lat="43.45125258460807" lon="11.773648941145105"><ele>311.0</ele><time>2026-04-16T09:47:06Z</time></trkpt><trkpt lat="43.451311858882285" lon="11.773586021120181"><ele>311.0</ele><time>2026-04-16T09:47:07Z</time></trkpt><trkpt lat="43.45131706563673" lon="11.773490321753211"><ele>311.0</ele><time>2026-04-16T09:47:09Z</time></trkpt><trkpt lat="43.45136511135924" lon="11.773406153670951"><ele>311.0</ele><time>2026-04-16T09:47:11Z</time></trkpt><trkpt lat="43.451377009493804" lon="11.77331507387933"><ele>311.0</ele><time>2026-04-16T09:47:12Z</time></trkpt><trkpt lat="43.45132938844812" lon="11.773243496060916"><ele>311.0</ele><time>2026-04-16T09:47:13Z</time></trkpt><trkpt lat="43.45125945190271" lon="11.773076791490466"><ele>311.0</ele><time>2026-04-16T09:47:15Z</time></trkpt><trkpt lat="43.451251791492275" lon="11.77293968256526"><ele>311.0</ele><time>2026-04-16T09:47:16Z</time></trkpt><trkpt lat="43.45126694463758" lon="11.772813531473439"><ele>311.0</ele><time>2026-04-16T09:47:17Z</time></trkpt><trkpt lat="43.45128252936509" lon="11.77269206375013"><ele>312.8</ele><time>2026-04-16T09:47:18Z</time></trkpt><trkpt lat="43.45132187677025" lon="11.772584890007568"><ele>314.6</ele><time>2026-04-16T09:47:19Z</time></trkpt><trkpt lat="43.451401442670004" lon="11.772474268156207"><ele>316.4</ele><time>2026-04-16T09:47:20Z</time></trkpt><trkpt lat="43.451488832482916" lon="11.77237362733678"><ele>318.2</ele><time>2026-04-16T09:47:21Z</time></trkpt><trkpt lat="43.45156220685148" lon="11.772292408491884"><ele>320.0</ele><time>2026-04-16T09:47:22Z</time></trkpt><trkpt lat="43.45163142545903" lon="11.7722031635708"><ele>320.0</ele><time>2026-04-16T09:47:23Z</time></trkpt><trkpt lat="43.45169730135536" lon="11.772085960520622"><ele>320.0</ele><time>2026-04-16T09:47:24Z</time></trkpt><trkpt lat="43.451770617650666" lon="11.771961846800888"><ele>320.0</ele><time>2026-04-16T09:47:25Z</time></trkpt><trkpt lat="43.451851110652385" lon="11.771830682618127"><ele>320.0</ele><time>2026-04-16T09:47:26Z</time></trkpt><trkpt lat="43.451900499738926" lon="11.771714320827197"><ele>320.0</ele><time>2026-04-16T09:47:27Z</time></trkpt><trkpt lat="43.451953089655895" lon="11.771606878183272"><ele>318.6</ele><time>2026-04-16T09:47:28Z</time></trkpt><trkpt lat="43.45198418486647" lon="11.771462241515957"><ele>317.2</ele><time>2026-04-16T09:47:29Z</time></trkpt><trkpt lat="43.451985987236874" lon="11.77134612993809"><ele>315.8</ele><time>2026-04-16T09:47:30Z</time></trkpt><trkpt lat="43.452028384252536" lon="11.771263281040127"><ele>314.4</ele><time>2026-04-16T09:47:31Z</time></trkpt><trkpt lat="43.452108987616356" lon="11.771184791768203"><ele>313.0</ele><time>2026-04-16T09:47:33Z</time></trkpt><trkpt lat="43.45214663180833" lon="11.771073698864377"><ele>315.25</ele><time>2026-04-16T09:47:43.001Z</time></trkpt><trkpt lat="43.45219446939801" lon="11.770924966291481"><ele>317.5</ele><time>2026-04-16T09:47:44.001Z</time></trkpt><trkpt lat="43.45226040207144" lon="11.770799007943344"><ele>319.75</ele><time>2026-04-16T09:47:45.001Z</time></trkpt><trkpt lat="43.45229580795247" lon="11.770666501212819"><ele>322.0</ele><time>2026-04-16T09:47:46.001Z</time></trkpt><trkpt lat="43.45233477617329" lon="11.770509990950629"><ele>322.0</ele><time>2026-04-16T09:47:47.001Z</time></trkpt><trkpt lat="43.4523784730128" lon="11.770353404696346"><ele>322.0</ele><time>2026-04-16T09:47:48.001Z</time></trkpt><trkpt lat="43.4523809865687" lon="11.770219076723334"><ele>322.0</ele><time>2026-04-16T09:47:49.001Z</time></trkpt><trkpt lat="43.4523879192241" lon="11.770088858129794"><ele>322.0</ele><time>2026-04-16T09:47:50.001Z</time></trkpt><trkpt lat="43.452361827013185" lon="11.769965093243748"><ele>322.0</ele><time>2026-04-16T09:47:51.001Z</time></trkpt><trkpt lat="43.45236107309428" lon="11.769835077973186"><ele>324.20000000000005</ele><time>2026-04-16T09:47:52.001Z</time></trkpt><trkpt lat="43.45234701105941" lon="11.76971131445856"><ele>326.4</ele><time>2026-04-16T09:47:53.001Z</time></trkpt><trkpt lat="43.45230665892973" lon="11.769541136820333"><ele>328.6</ele><time>2026-04-16T09:47:56.001Z</time></trkpt><trkpt lat="43.452315415079056" lon="11.769383849987326"><ele>330.79999999999995</ele><time>2026-04-16T09:47:57.001Z</time></trkpt><trkpt lat="43.45228623751074" lon="11.769235171756504"><ele>333.0</ele><time>2026-04-16T09:47:58.001Z</time></trkpt><trkpt lat="43.45225255613668" lon="11.769086151728567"><ele>334.4</ele><time>2026-04-16T09:47:59.001Z</time></trkpt><trkpt lat="43.45224606659195" lon="11.768956244018078"><ele>335.79999999999995</ele><time>2026-04-16T09:48:00.001Z</time></trkpt><trkpt lat="43.45226305059439" lon="11.768813198193795"><ele>337.2</ele><time>2026-04-16T09:48:01.001Z</time></trkpt><trkpt lat="43.45225281297182" lon="11.768677424429068"><ele>338.6</ele><time>2026-04-16T09:48:01.999Z</time></trkpt><trkpt lat="43.45222278159483" lon="11.768554544381697"><ele>340.0</ele><time>2026-04-16T09:48:02.999Z</time></trkpt><trkpt lat="43.452182901452105" lon="11.768444457200463"><ele>341.4</ele><time>2026-04-16T09:48:03.999Z</time></trkpt><trkpt lat="43.452183619367155" lon="11.768333838258235"><ele>342.8</ele><time>2026-04-16T09:48:04.999Z</time></trkpt><trkpt lat="43.45220483769248" lon="11.768203206863149"><ele>344.20000000000005</ele><time>2026-04-16T09:48:05.999Z</time></trkpt><trkpt lat="43.45219600814126" lon="11.76808662332281"><ele>345.6</ele><time>2026-04-16T09:48:06.999Z</time></trkpt><trkpt lat="43.452177061951474" lon="11.76798834274298"><ele>347.0</ele><time>2026-04-16T09:48:07.999Z</time></trkpt><trkpt lat="43.45229463492463" lon="11.768033711252464"><ele>347.0</ele><time>2026-04-16T09:48:40Z</time></trkpt><trkpt lat="43.45239057283711" lon="11.768093954766117"><ele>347.0</ele><time>2026-04-16T09:48:41Z</time></trkpt><trkpt lat="43.45246626136209" lon="11.768155858329692"><ele>347.0</ele><time>2026-04-16T09:48:42Z</time></trkpt><trkpt lat="43.45255185269166" lon="11.768246740625406"><ele>347.0</ele><time>2026-04-16T09:48:43Z</time></trkpt><trkpt lat="43.45264267279314" lon="11.768334616317963"><ele>347.0</ele><time>2026-04-16T09:48:44Z</time></trkpt><trkpt lat="43.452729095137244" lon="11.768404559989776"><ele>347.0</ele><time>2026-04-16T09:48:45Z</time></trkpt><trkpt lat="43.45281416972328" lon="11.768471687620647"><ele>347.0</ele><time>2026-04-16T09:48:46Z</time></trkpt><trkpt lat="43.452908859690446" lon="11.768514444786552"><ele>347.0</ele><time>2026-04-16T09:48:47Z</time></trkpt><trkpt lat="43.45299334023117" lon="11.768562757929757"><ele>347.0</ele><time>2026-04-16T09:48:48Z</time></trkpt><trkpt lat="43.45309286867702" lon="11.768631033544231"><ele>347.0</ele><time>2026-04-16T09:48:49Z</time></trkpt><trkpt lat="43.45317462465117" lon="11.768731068993443"><ele>345.20000000000005</ele><time>2026-04-16T09:48:50Z</time></trkpt><trkpt lat="43.453249377674204" lon="11.768768866473494"><ele>343.4</ele><time>2026-04-16T09:48:51Z</time></trkpt><trkpt lat="43.453353376185106" lon="11.768845869543163"><ele>341.6</ele><time>2026-04-16T09:48:53Z</time></trkpt><trkpt lat="43.453427462270525" lon="11.768953711516982"><ele>339.79999999999995</ele><time>2026-04-16T09:48:55Z</time></trkpt><trkpt lat="43.453514223237" lon="11.769019039900751"><ele>338.0</ele><time>2026-04-16T09:48:57Z</time></trkpt><trkpt lat="43.45351064463528" lon="11.769118978790537"><ele>338.0</ele><time>2026-04-16T09:49:00Z</time></trkpt><trkpt lat="43.45343825180321" lon="11.76915078373138"><ele>338.0</ele><time>2026-04-16T09:49:02Z</time></trkpt><trkpt lat="43.453440255273705" lon="11.769240633138525"><ele>338.0</ele><time>2026-04-16T09:49:04Z</time></trkpt><trkpt lat="43.453552889897686" lon="11.769314627609845"><ele>338.0</ele><time>2026-04-16T09:49:06Z</time></trkpt><trkpt lat="43.453615898462814" lon="11.769343356960226"><ele>338.0</ele><time>2026-04-16T09:49:07Z</time></trkpt><trkpt lat="43.453694763886084" lon="11.76938792051572"><ele>338.0</ele><time>2026-04-16T09:49:08Z</time></trkpt><trkpt lat="43.453774715452596" lon="11.769418607568165"><ele>336.1666666666667</ele><time>2026-04-16T09:49:09Z</time></trkpt><trkpt lat="43.45383393504316" lon="11.769480875715761"><ele>334.33333333333337</ele><time>2026-04-16T09:49:12Z</time></trkpt><trkpt lat="43.45392821962112" lon="11.769443221315424"><ele>332.5</ele><time>2026-04-16T09:49:14Z</time></trkpt><trkpt lat="43.45401017550992" lon="11.769433182607719"><ele>330.6666666666667</ele><time>2026-04-16T09:49:15Z</time></trkpt><trkpt lat="43.45409757661843" lon="11.769455301233172"><ele>328.8333333333333</ele><time>2026-04-16T09:49:16Z</time></trkpt><trkpt lat="43.4541588245236" lon="11.769493258191602"><ele>327.0</ele><time>2026-04-16T09:49:17Z</time></trkpt><trkpt lat="43.45422144639671" lon="11.769519533642455"><ele>327.0</ele><time>2026-04-16T09:49:18Z</time></trkpt><trkpt lat="43.45429993623542" lon="11.769522521627895"><ele>327.0</ele><time>2026-04-16T09:49:19Z</time></trkpt><trkpt lat="43.45438481531484" lon="11.769509145980937"><ele>327.0</ele><time>2026-04-16T09:49:20Z</time></trkpt><trkpt lat="43.45444893490496" lon="11.769531991685366"><ele>327.0</ele><time>2026-04-16T09:49:21Z</time></trkpt><trkpt lat="43.45456049033572" lon="11.769458475467761"><ele>327.0</ele><time>2026-04-16T09:49:23Z</time></trkpt><trkpt lat="43.454682387736796" lon="11.769410703156153"><ele>326.6666666666667</ele><time>2026-04-16T09:49:25Z</time></trkpt><trkpt lat="43.45478249519253" lon="11.769417536767792"><ele>326.3333333333333</ele><time>2026-04-16T09:49:27Z</time></trkpt><trkpt lat="43.454896753558316" lon="11.769436723998881"><ele>326.0</ele><time>2026-04-16T09:49:29Z</time></trkpt><trkpt lat="43.45496787934321" lon="11.769435450200952"><ele>325.66666666666663</ele><time>2026-04-16T09:49:30Z</time></trkpt><trkpt lat="43.45503788698891" lon="11.769436078812825"><ele>325.3333333333333</ele><time>2026-04-16T09:49:31Z</time></trkpt><trkpt lat="43.455122638107575" lon="11.769452465920367"><ele>325.0</ele><time>2026-04-16T09:49:32Z</time></trkpt><trkpt lat="43.45519901170621" lon="11.769448746846146"><ele>325.0</ele><time>2026-04-16T09:49:33Z</time></trkpt><trkpt lat="43.455266797876874" lon="11.769417942726331"><ele>325.0</ele><time>2026-04-16T09:49:34Z</time></trkpt><trkpt lat="43.45534408492732" lon="11.769399821420627"><ele>325.0</ele><time>2026-04-16T09:49:35Z</time></trkpt><trkpt lat="43.455411392739535" lon="11.769419200334376"><ele>325.0</ele><time>2026-04-16T09:49:36Z</time></trkpt><trkpt lat="43.45551674941665" lon="11.769461866221544"><ele>325.0</ele><time>2026-04-16T09:49:38.001Z</time></trkpt><trkpt lat="43.45561556383008" lon="11.769485684973112"><ele>325.0</ele><time>2026-04-16T09:49:40.001Z</time></trkpt><trkpt lat="43.45568321226092" lon="11.769558622453575"><ele>325.5</ele><time>2026-04-16T09:49:42.001Z</time></trkpt><trkpt lat="43.4558579021011" lon="11.769521553383141"><ele>326.0</ele><time>2026-04-16T09:49:47.001Z</time></trkpt><trkpt lat="43.455960632695245" lon="11.769463097701324"><ele>326.5</ele><time>2026-04-16T09:49:49.001Z</time></trkpt><trkpt lat="43.45603507891994" lon="11.769406579024269"><ele>327.0</ele><time>2026-04-16T09:49:50.001Z</time></trkpt><trkpt lat="43.45612755409779" lon="11.769342443328407"><ele>327.0</ele><time>2026-04-16T09:49:51.001Z</time></trkpt><trkpt lat="43.45619416371765" lon="11.769287830141018"><ele>327.0</ele><time>2026-04-16T09:49:52.001Z</time></trkpt><trkpt lat="43.45626062344305" lon="11.76923924732123"><ele>327.0</ele><time>2026-04-16T09:49:53.001Z</time></trkpt><trkpt lat="43.45631657948949" lon="11.769178398971473"><ele>327.0</ele><time>2026-04-16T09:49:54.001Z</time></trkpt><trkpt lat="43.45632708428673" lon="11.76927357034959"><ele>327.0</ele><time>2026-04-16T09:49:58.001Z</time></trkpt><trkpt lat="43.4562505019093" lon="11.769363842635418"><ele>327.0</ele><time>2026-04-16T09:50:02.001Z</time></trkpt><trkpt lat="43.45616977947692" lon="11.769393793727748"><ele>328.20000000000005</ele><time>2026-04-16T09:50:04.001Z</time></trkpt><trkpt lat="43.456091396928315" lon="11.769478331551275"><ele>329.4</ele><time>2026-04-16T09:50:06.001Z</time></trkpt><trkpt lat="43.455989188933195" lon="11.769562254772946"><ele>330.6</ele><time>2026-04-16T09:50:07.001Z</time></trkpt><trkpt lat="43.455913598170135" lon="11.769624864158635"><ele>331.79999999999995</ele><time>2026-04-16T09:50:07.999Z</time></trkpt><trkpt lat="43.45581885370024" lon="11.76966852156443"><ele>333.0</ele><time>2026-04-16T09:50:08.999Z</time></trkpt><trkpt lat="43.45570562979452" lon="11.76964804637596"><ele>333.0</ele><time>2026-04-16T09:50:10.999Z</time></trkpt><trkpt lat="43.455642780480616" lon="11.769711788438043"><ele>333.0</ele><time>2026-04-16T09:50:11.999Z</time></trkpt><trkpt lat="43.455579736146696" lon="11.769815801104638"><ele>333.0</ele><time>2026-04-16T09:50:12.999Z</time></trkpt><trkpt lat="43.455511271532835" lon="11.769894763650914"><ele>333.0</ele><time>2026-04-16T09:50:13.999Z</time></trkpt><trkpt lat="43.45543027306003" lon="11.769968964768642"><ele>333.0</ele><time>2026-04-16T09:50:14.999Z</time></trkpt><trkpt lat="43.45536893640681" lon="11.770006706177908"><ele>333.0</ele><time>2026-04-16T09:50:18.999Z</time></trkpt><trkpt lat="43.4553030264637" lon="11.770037408196405"><ele>331.8571428571429</ele><time>2026-04-16T09:50:28.999Z</time></trkpt><trkpt lat="43.455235170463645" lon="11.770022962872114"><ele>330.71428571428567</ele><time>2026-04-16T09:50:49Z</time></trkpt><trkpt lat="43.45519310053128" lon="11.76991711166849"><ele>329.57142857142856</ele><time>2026-04-16T09:51:00Z</time></trkpt><trkpt lat="43.45512115876715" lon="11.769914504361601"><ele>328.42857142857144</ele><time>2026-04-16T09:51:02Z</time></trkpt><trkpt lat="43.45505722653502" lon="11.769962396223281"><ele>327.28571428571433</ele><time>2026-04-16T09:51:04Z</time></trkpt><trkpt lat="43.455018137809" lon="11.770031053403436"><ele>326.1428571428571</ele><time>2026-04-16T09:51:06Z</time></trkpt><trkpt lat="43.45499855397662" lon="11.770117881182308"><ele>325.0</ele><time>2026-04-16T09:51:09Z</time></trkpt><trkpt lat="43.454919779033226" lon="11.770136479593987"><ele>325.0</ele><time>2026-04-16T09:51:12Z</time></trkpt><trkpt lat="43.45484797260524" lon="11.770150201743773"><ele>325.0</ele><time>2026-04-16T09:51:13Z</time></trkpt><trkpt lat="43.45478272233404" lon="11.770180952538832"><ele>325.0</ele><time>2026-04-16T09:51:14Z</time></trkpt><trkpt lat="43.45472780234636" lon="11.770234692492904"><ele>325.0</ele><time>2026-04-16T09:51:15Z</time></trkpt><trkpt lat="43.45467047525734" lon="11.770299764186607"><ele>325.0</ele><time>2026-04-16T09:51:16Z</time></trkpt><trkpt lat="43.45461577338586" lon="11.770365667693902"><ele>325.0</ele><time>2026-04-16T09:51:17Z</time></trkpt><trkpt lat="43.45454829652998" lon="11.770403461566577"><ele>325.0</ele><time>2026-04-16T09:51:18Z</time></trkpt><trkpt lat="43.454462832845024" lon="11.770360932519047"><ele>324.4</ele><time>2026-04-16T09:51:20Z</time></trkpt><trkpt lat="43.45436067046921" lon="11.770371500972825"><ele>323.8</ele><time>2026-04-16T09:51:22Z</time></trkpt><trkpt lat="43.4542402941081" lon="11.770417840034213"><ele>323.20000000000005</ele><time>2026-04-16T09:51:24Z</time></trkpt><trkpt lat="43.4541284015719" lon="11.770516421815277"><ele>322.6</ele><time>2026-04-16T09:51:26Z</time></trkpt><trkpt lat="43.454065717670176" lon="11.770530454723763"><ele>322.0</ele><time>2026-04-16T09:51:27Z</time></trkpt><trkpt lat="43.4539873617014" lon="11.770528487167962"><ele>322.0</ele><time>2026-04-16T09:51:28Z</time></trkpt><trkpt lat="43.45391909548236" lon="11.770546588553785"><ele>322.0</ele><time>2026-04-16T09:51:29Z</time></trkpt><trkpt lat="43.45381043760598" lon="11.770671554403942"><ele>322.0</ele><time>2026-04-16T09:51:31Z</time></trkpt><trkpt lat="43.45374062519157" lon="11.770723074217027"><ele>322.0</ele><time>2026-04-16T09:51:32Z</time></trkpt><trkpt lat="43.453674962847685" lon="11.77076412158414"><ele>322.0</ele><time>2026-04-16T09:51:33Z</time></trkpt><trkpt lat="43.453601571281844" lon="11.770790705063872"><ele>322.0</ele><time>2026-04-16T09:51:34Z</time></trkpt><trkpt lat="43.453537819151094" lon="11.770797256734866"><ele>321.5</ele><time>2026-04-16T09:51:35.001Z</time></trkpt><trkpt lat="43.45347279988463" lon="11.770815028039896"><ele>321.0</ele><time>2026-04-16T09:51:36.001Z</time></trkpt><trkpt lat="43.45339557341056" lon="11.770863172178506"><ele>320.5</ele><time>2026-04-16T09:51:37.001Z</time></trkpt><trkpt lat="43.45333664668067" lon="11.770927720079436"><ele>320.0</ele><time>2026-04-16T09:51:38.001Z</time></trkpt><trkpt lat="43.453272705349725" lon="11.77099371467166"><ele>319.5</ele><time>2026-04-16T09:51:39.001Z</time></trkpt><trkpt lat="43.45320866065262" lon="11.77105218032834"><ele>319.0</ele><time>2026-04-16T09:51:40.001Z</time></trkpt><trkpt lat="43.453137306860135" lon="11.77111318728674"><ele>319.0</ele><time>2026-04-16T09:51:41.001Z</time></trkpt><trkpt lat="43.453065493207596" lon="11.771162396787544"><ele>319.0</ele><time>2026-04-16T09:51:42.001Z</time></trkpt><trkpt lat="43.452999539744866" lon="11.771227048038519"><ele>319.0</ele><time>2026-04-16T09:51:43.001Z</time></trkpt><trkpt lat="43.45293293334044" lon="11.771274695436933"><ele>319.0</ele><time>2026-04-16T09:51:44.001Z</time></trkpt><trkpt lat="43.452839201921904" lon="11.771377028821654"><ele>319.0</ele><time>2026-04-16T09:51:46.001Z</time></trkpt><trkpt lat="43.45278583737733" lon="11.771457044209077"><ele>319.0</ele><time>2026-04-16T09:51:48.001Z</time></trkpt><trkpt lat="43.45269993594305" lon="11.771542843255839"><ele>318.0</ele><time>2026-04-16T09:51:51.001Z</time></trkpt><trkpt lat="43.45269483264931" lon="11.771638166849332"><ele>317.0</ele><time>2026-04-16T09:51:53.001Z</time></trkpt><trkpt lat="43.45261745767561" lon="11.771696720683199"><ele>316.0</ele><time>2026-04-16T09:51:56.001Z</time></trkpt><trkpt lat="43.452512129529325" lon="11.77176780020314"><ele>315.0</ele><time>2026-04-16T09:51:59.001Z</time></trkpt><trkpt lat="43.4524550592153" lon="11.771809335087465"><ele>314.0</ele><time>2026-04-16T09:52:00.001Z</time></trkpt><trkpt lat="43.45238355272639" lon="11.771923383398914"><ele>313.0</ele><time>2026-04-16T09:52:02.001Z</time></trkpt><trkpt lat="43.45233316430095" lon="11.77207102394927"><ele>312.6</ele><time>2026-04-16T09:52:04.001Z</time></trkpt><trkpt lat="43.45229327345043" lon="11.772153200908615"><ele>312.20000000000005</ele><time>2026-04-16T09:52:05.001Z</time></trkpt><trkpt lat="43.45220792353964" lon="11.772288245763434"><ele>311.8</ele><time>2026-04-16T09:52:07.001Z</time></trkpt><trkpt lat="43.452162614717224" lon="11.772472077997522"><ele>311.40000000000003</ele><time>2026-04-16T09:52:09.001Z</time></trkpt><trkpt lat="43.452150439751925" lon="11.772571707293869"><ele>311.0</ele><time>2026-04-16T09:52:10.001Z</time></trkpt><trkpt lat="43.45211797896324" lon="11.772671532475474"><ele>311.0</ele><time>2026-04-16T09:52:11.001Z</time></trkpt><trkpt lat="43.45209910251268" lon="11.772765336058539"><ele>311.0</ele><time>2026-04-16T09:52:12.001Z</time></trkpt><trkpt lat="43.45210203878435" lon="11.772852220098464"><ele>311.0</ele><time>2026-04-16T09:52:13.001Z</time></trkpt><trkpt lat="43.452140213087596" lon="11.772968171400343"><ele>311.0</ele><time>2026-04-16T09:52:14.999Z</time></trkpt><trkpt lat="43.45212118685289" lon="11.773066365217712"><ele>311.0</ele><time>2026-04-16T09:52:16.999Z</time></trkpt><trkpt lat="43.452052144339035" lon="11.773215532068633"><ele>311.0</ele><time>2026-04-16T09:52:18.999Z</time></trkpt><trkpt lat="43.451973004271636" lon="11.773296396864744"><ele>311.0</ele><time>2026-04-16T09:52:20.999Z</time></trkpt><trkpt lat="43.45191702122174" lon="11.773426370774265"><ele>311.0</ele><time>2026-04-16T09:52:22.999Z</time></trkpt><trkpt lat="43.451900669724964" lon="11.773520133800355"><ele>311.0</ele><time>2026-04-16T09:52:25.999Z</time></trkpt><trkpt lat="43.45200417652016" lon="11.773563960287854"><ele>311.0</ele><time>2026-04-16T09:52:52Z</time></trkpt><trkpt lat="43.45199014797967" lon="11.773663833639691"><ele>311.0</ele><time>2026-04-16T09:52:54Z</time></trkpt><trkpt lat="43.45197349380049" lon="11.77375647882729"><ele>311.0</ele><time>2026-04-16T09:52:56Z</time></trkpt><trkpt lat="43.45191835846178" lon="11.773866519205457"><ele>310.0</ele><time>2026-04-16T09:52:58Z</time></trkpt><trkpt lat="43.45187064984643" lon="11.773965581131058"><ele>309.0</ele><time>2026-04-16T09:53:00Z</time></trkpt><trkpt lat="43.45181027052287" lon="11.774038180135248"><ele>308.0</ele><time>2026-04-16T09:53:01Z</time></trkpt><trkpt lat="43.45174182157769" lon="11.774060612994479"><ele>307.0</ele><time>2026-04-16T09:53:03Z</time></trkpt><trkpt lat="43.451647434684624" lon="11.774071103242672"><ele>306.0</ele><time>2026-04-16T09:53:05Z</time></trkpt><trkpt lat="43.45160807140479" lon="11.774145596225354"><ele>305.0</ele><time>2026-04-16T09:53:09Z</time></trkpt><trkpt lat="43.45155064000656" lon="11.774189906115579"><ele>305.0</ele><time>2026-04-16T09:53:14Z</time></trkpt><trkpt lat="43.45157699614378" lon="11.774281378715177"><ele>305.0</ele><time>2026-04-16T09:53:18Z</time></trkpt><trkpt lat="43.45157236859494" lon="11.774177364599158"><ele>305.0</ele><time>2026-04-16T09:53:35.001Z</time></trkpt><trkpt lat="43.45155993373136" lon="11.774080974376686"><ele>305.0</ele><time>2026-04-16T09:53:39.001Z</time></trkpt><trkpt lat="43.45150480428775" lon="11.774145612751774"><ele>305.0</ele><time>2026-04-16T09:53:46.001Z</time></trkpt><trkpt lat="43.45144932524774" lon="11.774206380737155"><ele>305.0</ele><time>2026-04-16T09:53:48.001Z</time></trkpt><trkpt lat="43.451405725189986" lon="11.774308797031042"><ele>305.0</ele><time>2026-04-16T09:53:50.001Z</time></trkpt><trkpt lat="43.451340446980915" lon="11.774367542013307"><ele>304.8</ele><time>2026-04-16T09:53:52.001Z</time></trkpt><trkpt lat="43.45127426545905" lon="11.774414193787628"><ele>304.6</ele><time>2026-04-16T09:53:53.001Z</time></trkpt><trkpt lat="43.451191732655985" lon="11.774472842979776"><ele>304.4</ele><time>2026-04-16T09:53:55.001Z</time></trkpt><trkpt lat="43.45107377956937" lon="11.774573214560512"><ele>304.2</ele><time>2026-04-16T09:53:57.001Z</time></trkpt><trkpt lat="43.45099747747365" lon="11.774654899824975"><ele>304.0</ele><time>2026-04-16T09:53:58.001Z</time></trkpt><trkpt lat="43.45093661846162" lon="11.774747541074417"><ele>304.0</ele><time>2026-04-16T09:53:59.001Z</time></trkpt><trkpt lat="43.45087340928837" lon="11.77477455707875"><ele>304.0</ele><time>2026-04-16T09:54:01.001Z</time></trkpt><trkpt lat="43.45082586768552" lon="11.774838509247694"><ele>304.0</ele><time>2026-04-16T09:54:02.001Z</time></trkpt><trkpt lat="43.45073718331721" lon="11.774894106818863"><ele>304.0</ele><time>2026-04-16T09:54:03.001Z</time></trkpt><trkpt lat="43.45064222935666" lon="11.774948244288035"><ele>304.0</ele><time>2026-04-16T09:54:04.001Z</time></trkpt><trkpt lat="43.45057967190658" lon="11.77500171637725"><ele>304.0</ele><time>2026-04-16T09:54:05.001Z</time></trkpt><trkpt lat="43.45047364050317" lon="11.775032750302017"><ele>302.8333333333333</ele><time>2026-04-16T09:54:06.001Z</time></trkpt><trkpt lat="43.450369437184776" lon="11.775070869859183"><ele>301.66666666666663</ele><time>2026-04-16T09:54:07.001Z</time></trkpt><trkpt lat="43.45030658524733" lon="11.775035370180742"><ele>300.5</ele><time>2026-04-16T09:54:08.001Z</time></trkpt><trkpt lat="43.45024620322267" lon="11.775068789821777"><ele>299.3333333333333</ele><time>2026-04-16T09:54:09.001Z</time></trkpt><trkpt lat="43.45018939278101" lon="11.775122356118416"><ele>298.1666666666667</ele><time>2026-04-16T09:54:10.001Z</time></trkpt><trkpt lat="43.45007577487258" lon="11.775063413205912"><ele>297.0</ele><time>2026-04-16T09:54:13.001Z</time></trkpt><trkpt lat="43.45000018073925" lon="11.775053050925969"><ele>297.0</ele><time>2026-04-16T09:54:15.001Z</time></trkpt><trkpt lat="43.45005041991135" lon="11.77498304192592"><ele>297.0</ele><time>2026-04-16T09:54:18.001Z</time></trkpt><trkpt lat="43.450115705082226" lon="11.774894454371719"><ele>297.0</ele><time>2026-04-16T09:54:19.999Z</time></trkpt><trkpt lat="43.45017414212436" lon="11.774789947529507"><ele>297.0</ele><time>2026-04-16T09:54:21.999Z</time></trkpt><trkpt lat="43.45027966558399" lon="11.774696795266802"><ele>297.0</ele><time>2026-04-16T09:54:23.999Z</time></trkpt><trkpt lat="43.45035264365911" lon="11.77467415659741"><ele>297.0</ele><time>2026-04-16T09:54:24.999Z</time></trkpt><trkpt lat="43.45043205087192" lon="11.774647950416705"><ele>297.0</ele><time>2026-04-16T09:54:25.999Z</time></trkpt><trkpt lat="43.45050157354201" lon="11.774611708251948"><ele>297.0</ele><time>2026-04-16T09:54:26.999Z</time></trkpt><trkpt lat="43.45056930790506" lon="11.77450970578355"><ele>297.0</ele><time>2026-04-16T09:54:28.999Z</time></trkpt><trkpt lat="43.45061275234737" lon="11.774440884661356"><ele>297.0</ele><time>2026-04-16T09:54:29.999Z</time></trkpt><trkpt lat="43.450672985587204" lon="11.77432523104203"><ele>297.0</ele><time>2026-04-16T09:54:31.999Z</time></trkpt><trkpt lat="43.4507348170653" lon="11.774266213982585"><ele>299.3333333333333</ele><time>2026-04-16T09:54:32.999Z</time></trkpt><trkpt lat="43.4507927977702" lon="11.774162130205532"><ele>301.6666666666667</ele><time>2026-04-16T09:54:33.999Z</time></trkpt><trkpt lat="43.45084158759718" lon="11.774092279218129"><ele>304.0</ele><time>2026-04-16T09:54:34.999Z</time></trkpt><trkpt lat="43.45089593425608" lon="11.774028760357561"><ele>306.33333333333337</ele><time>2026-04-16T09:54:36.999Z</time></trkpt><trkpt lat="43.450953271055184" lon="11.773980783755558"><ele>308.6666666666667</ele><time>2026-04-16T09:54:37.999Z</time></trkpt><trkpt lat="43.45105000726709" lon="11.77384272900091"><ele>311.0</ele><time>2026-04-16T09:54:39.999Z</time></trkpt><trkpt lat="43.451129621476134" lon="11.773748672881453"><ele>311.0</ele><time>2026-04-16T09:54:40.999Z</time></trkpt><trkpt lat="43.45118825493114" lon="11.773656251426893"><ele>311.0</ele><time>2026-04-16T09:54:42.999Z</time></trkpt><trkpt lat="43.45123769460149" lon="11.773555502110682"><ele>311.0</ele><time>2026-04-16T09:54:47Z</time></trkpt><trkpt lat="43.45126648161033" lon="11.773429259745305"><ele>311.0</ele><time>2026-04-16T09:54:50Z</time></trkpt><trkpt lat="43.451226375418614" lon="11.773334269114521"><ele>311.0</ele><time>2026-04-16T09:54:51Z</time></trkpt><trkpt lat="43.45122796378938" lon="11.773242487196574"><ele>311.0</ele><time>2026-04-16T09:54:52Z</time></trkpt><trkpt lat="43.45122567483699" lon="11.77308441431701"><ele>312.8</ele><time>2026-04-16T09:54:54Z</time></trkpt><trkpt lat="43.45123675959348" lon="11.772873090988632"><ele>314.6</ele><time>2026-04-16T09:54:56Z</time></trkpt><trkpt lat="43.45126486361969" lon="11.772766022054956"><ele>316.4</ele><time>2026-04-16T09:54:57Z</time></trkpt><trkpt lat="43.45130097016897" lon="11.772675101921648"><ele>318.2</ele><time>2026-04-16T09:54:58Z</time></trkpt><trkpt lat="43.451381273307774" lon="11.772594878873747"><ele>320.0</ele><time>2026-04-16T09:54:59Z</time></trkpt><trkpt lat="43.451446663496014" lon="11.772506189979138"><ele>320.0</ele><time>2026-04-16T09:55:00Z</time></trkpt><trkpt lat="43.45153646970323" lon="11.772396793738508"><ele>320.0</ele><time>2026-04-16T09:55:01Z</time></trkpt><trkpt lat="43.451585745072094" lon="11.772324524392364"><ele>320.0</ele><time>2026-04-16T09:55:03Z</time></trkpt><trkpt lat="43.45103869274607" lon="11.773854484197644"><ele>318.5</ele><time>2026-04-16T09:47:03Z</time></trkpt><trkpt lat="43.45110392737906" lon="11.773781512534864"><ele>317.0</ele><time>2026-04-16T09:47:04Z</time></trkpt><trkpt lat="43.451181743459145" lon="11.77371151276715"><ele>315.5</ele><time>2026-04-16T09:47:05Z</time></trkpt><trkpt lat="43.45125258460807" lon="11.773648941145105"><ele>314.0</ele><time>2026-04-16T09:47:06Z</time></trkpt><trkpt lat="43.451311858882285" lon="11.773586021120181"><ele>312.5</ele><time>2026-04-16T09:47:07Z</time></trkpt><trkpt lat="43.45131706563673" lon="11.773490321753211"><ele>311.0</ele><time>2026-04-16T09:47:09Z</time></trkpt><trkpt lat="43.45136511135924" lon="11.773406153670951"><ele>311.0</ele><time>2026-04-16T09:47:11Z</time></trkpt><trkpt lat="43.451377009493804" lon="11.77331507387933"><ele>311.0</ele><time>2026-04-16T09:47:12Z</time></trkpt><trkpt lat="43.45132938844812" lon="11.773243496060916"><ele>311.0</ele><time>2026-04-16T09:47:13Z</time></trkpt><trkpt lat="43.45125945190271" lon="11.773076791490466"><ele>311.0</ele><time>2026-04-16T09:47:15Z</time></trkpt><trkpt lat="43.451251791492275" lon="11.77293968256526"><ele>311.0</ele><time>2026-04-16T09:47:16Z</time></trkpt><trkpt lat="43.45126694463758" lon="11.772813531473439"><ele>312.8</ele><time>2026-04-16T09:47:17Z</time></trkpt><trkpt lat="43.45128252936509" lon="11.77269206375013"><ele>314.6</ele><time>2026-04-16T09:47:18Z</time></trkpt><trkpt lat="43.45132187677025" lon="11.772584890007568"><ele>316.4</ele><time>2026-04-16T09:47:19Z</time></trkpt><trkpt lat="43.451401442670004" lon="11.772474268156207"><ele>318.2</ele><time>2026-04-16T09:47:20Z</time></trkpt><trkpt lat="43.451488832482916" lon="11.77237362733678"><ele>320.0</ele><time>2026-04-16T09:47:21Z</time></trkpt><trkpt lat="43.45156220685148" lon="11.772292408491884"><ele>320.0</ele><time>2026-04-16T09:47:22Z</time></trkpt><trkpt lat="43.45163142545903" lon="11.7722031635708"><ele>320.0</ele><time>2026-04-16T09:47:23Z</time></trkpt><trkpt lat="43.45169730135536" lon="11.772085960520622"><ele>320.0</ele><time>2026-04-16T09:47:24Z</time></trkpt><trkpt lat="43.451770617650666" lon="11.771961846800888"><ele>320.0</ele><time>2026-04-16T09:47:25Z</time></trkpt><trkpt lat="43.451851110652385" lon="11.771830682618127"><ele>320.0</ele><time>2026-04-16T09:47:26Z</time></trkpt><trkpt lat="43.451900499738926" lon="11.771714320827197"><ele>323.4</ele><time>2026-04-16T09:47:27Z</time></trkpt><trkpt lat="43.451953089655895" lon="11.771606878183272"><ele>326.8</ele><time>2026-04-16T09:47:28Z</time></trkpt><trkpt lat="43.45198418486647" lon="11.771462241515957"><ele>330.20000000000005</ele><time>2026-04-16T09:47:29Z</time></trkpt><trkpt lat="43.451985987236874" lon="11.77134612993809"><ele>333.6</ele><time>2026-04-16T09:47:30Z</time></trkpt><trkpt lat="43.452028384252536" lon="11.771263281040127"><ele>337.0</ele><time>2026-04-16T09:47:31Z</time></trkpt><trkpt lat="43.452108987616356" lon="11.771184791768203"><ele>334.0</ele><time>2026-04-16T09:47:33Z</time></trkpt><trkpt lat="43.45214663180833" lon="11.771073698864377"><ele>331.0</ele><time>2026-04-16T09:47:43.001Z</time></trkpt><trkpt lat="43.45219446939801" lon="11.770924966291481"><ele>328.0</ele><time>2026-04-16T09:47:44.001Z</time></trkpt><trkpt lat="43.45226040207144" lon="11.770799007943344"><ele>325.0</ele><time>2026-04-16T09:47:45.001Z</time></trkpt><trkpt lat="43.45229580795247" lon="11.770666501212819"><ele>322.0</ele><time>2026-04-16T09:47:46.001Z</time></trkpt><trkpt lat="43.45233477617329" lon="11.770509990950629"><ele>322.0</ele><time>2026-04-16T09:47:47.001Z</time></trkpt><trkpt lat="43.4523784730128" lon="11.770353404696346"><ele>322.0</ele><time>2026-04-16T09:47:48.001Z</time></trkpt><trkpt lat="43.4523809865687" lon="11.770219076723334"><ele>322.0</ele><time>2026-04-16T09:47:49.001Z</time></trkpt><trkpt lat="43.4523879192241" lon="11.770088858129794"><ele>322.0</ele><time>2026-04-16T09:47:50.001Z</time></trkpt><trkpt lat="43.452361827013185" lon="11.769965093243748"><ele>322.0</ele><time>2026-04-16T09:47:51.001Z</time></trkpt><trkpt lat="43.45236107309428" lon="11.769835077973186"><ele>324.20000000000005</ele><time>2026-04-16T09:47:52.001Z</time></trkpt><trkpt lat="43.45234701105941" lon="11.76971131445856"><ele>326.4</ele><time>2026-04-16T09:47:53.001Z</time></trkpt><trkpt lat="43.45230665892973" lon="11.769541136820333"><ele>328.6</ele><time>2026-04-16T09:47:56.001Z</time></trkpt><trkpt lat="43.452315415079056" lon="11.769383849987326"><ele>330.79999999999995</ele><time>2026-04-16T09:47:57.001Z</time></trkpt><trkpt lat="43.45228623751074" lon="11.769235171756504"><ele>333.0</ele><time>2026-04-16T09:47:58.001Z</time></trkpt><trkpt lat="43.45225255613668" lon="11.769086151728567"><ele>334.4</ele><time>2026-04-16T09:47:59.001Z</time></trkpt><trkpt lat="43.45224606659195" lon="11.768956244018078"><ele>335.79999999999995</ele><time>2026-04-16T09:48:00.001Z</time></trkpt><trkpt lat="43.45226305059439" lon="11.768813198193795"><ele>337.2</ele><time>2026-04-16T09:48:01.001Z</time></trkpt><trkpt lat="43.45225281297182" lon="11.768677424429068"><ele>338.6</ele><time>2026-04-16T09:48:01.999Z</time></trkpt><trkpt lat="43.45222278159483" lon="11.768554544381697"><ele>340.0</ele><time>2026-04-16T09:48:02.999Z</time></trkpt><trkpt lat="43.452182901452105" lon="11.768444457200463"><ele>341.4</ele><time>2026-04-16T09:48:03.999Z</time></trkpt><trkpt lat="43.452183619367155" lon="11.768333838258235"><ele>342.8</ele><time>2026-04-16T09:48:04.999Z</time></trkpt><trkpt lat="43.45220483769248" lon="11.768203206863149"><ele>344.20000000000005</ele><time>2026-04-16T09:48:05.999Z</time></trkpt><trkpt lat="43.45219600814126" lon="11.76808662332281"><ele>345.6</ele><time>2026-04-16T09:48:06.999Z</time></trkpt><trkpt lat="43.452177061951474" lon="11.76798834274298"><ele>347.0</ele><time>2026-04-16T09:48:07.999Z</time></trkpt><trkpt lat="43.45229463492463" lon="11.768033711252464"><ele>347.0</ele><time>2026-04-16T09:48:40Z</time></trkpt><trkpt lat="43.45239057283711" lon="11.768093954766117"><ele>347.0</ele><time>2026-04-16T09:48:41Z</time></trkpt><trkpt lat="43.45246626136209" lon="11.768155858329692"><ele>347.0</ele><time>2026-04-16T09:48:42Z</time></trkpt><trkpt lat="43.45255185269166" lon="11.768246740625406"><ele>347.0</ele><time>2026-04-16T09:48:43Z</time></trkpt><trkpt lat="43.45264267279314" lon="11.768334616317963"><ele>347.0</ele><time>2026-04-16T09:48:44Z</time></trkpt><trkpt lat="43.452729095137244" lon="11.768404559989776"><ele>347.0</ele><time>2026-04-16T09:48:45Z</time></trkpt><trkpt lat="43.45281416972328" lon="11.768471687620647"><ele>347.0</ele><time>2026-04-16T09:48:46Z</time></trkpt><trkpt lat="43.452908859690446" lon="11.768514444786552"><ele>347.0</ele><time>2026-04-16T09:48:47Z</time></trkpt><trkpt lat="43.45299334023117" lon="11.768562757929757"><ele>347.0</ele><time>2026-04-16T09:48:48Z</time></trkpt><trkpt lat="43.45309286867702" lon="11.768631033544231"><ele>347.0</ele><time>2026-04-16T09:48:49Z</time></trkpt><trkpt lat="43.45317462465117" lon="11.768731068993443"><ele>345.20000000000005</ele><time>2026-04-16T09:48:50Z</time></trkpt><trkpt lat="43.453249377674204" lon="11.768768866473494"><ele>343.4</ele><time>2026-04-16T09:48:51Z</time></trkpt><trkpt lat="43.453353376185106" lon="11.768845869543163"><ele>341.6</ele><time>2026-04-16T09:48:53Z</time></trkpt><trkpt lat="43.453427462270525" lon="11.768953711516982"><ele>339.79999999999995</ele><time>2026-04-16T09:48:55Z</time></trkpt><trkpt lat="43.453514223237" lon="11.769019039900751"><ele>338.0</ele><time>2026-04-16T09:48:57Z</time></trkpt><trkpt lat="43.45351064463528" lon="11.769118978790537"><ele>338.0</ele><time>2026-04-16T09:49:00Z</time></trkpt><trkpt lat="43.45343825180321" lon="11.76915078373138"><ele>338.0</ele><time>2026-04-16T09:49:02Z</time></trkpt><trkpt lat="43.453440255273705" lon="11.769240633138525"><ele>338.0</ele><time>2026-04-16T09:49:04Z</time></trkpt><trkpt lat="43.453552889897686" lon="11.769314627609845"><ele>338.0</ele><time>2026-04-16T09:49:06Z</time></trkpt><trkpt lat="43.453615898462814" lon="11.769343356960226"><ele>338.0</ele><time>2026-04-16T09:49:07Z</time></trkpt><trkpt lat="43.453694763886084" lon="11.76938792051572"><ele>338.0</ele><time>2026-04-16T09:49:08Z</time></trkpt><trkpt lat="43.453774715452596" lon="11.769418607568165"><ele>336.1666666666667</ele><time>2026-04-16T09:49:09Z</time></trkpt><trkpt lat="43.45383393504316" lon="11.769480875715761"><ele>334.33333333333337</ele><time>2026-04-16T09:49:12Z</time></trkpt><trkpt lat="43.45392821962112" lon="11.769443221315424"><ele>332.5</ele><time>2026-04-16T09:49:14Z</time></trkpt><trkpt lat="43.45401017550992" lon="11.769433182607719"><ele>330.6666666666667</ele><time>2026-04-16T09:49:15Z</time></trkpt><trkpt lat="43.45409757661843" lon="11.769455301233172"><ele>328.8333333333333</ele><time>2026-04-16T09:49:16Z</time></trkpt><trkpt lat="43.4541588245236" lon="11.769493258191602"><ele>327.0</ele><time>2026-04-16T09:49:17Z</time></trkpt><trkpt lat="43.45422144639671" lon="11.769519533642455"><ele>327.0</ele><time>2026-04-16T09:49:18Z</time></trkpt><trkpt lat="43.45429993623542" lon="11.769522521627895"><ele>327.0</ele><time>2026-04-16T09:49:19Z</time></trkpt><trkpt lat="43.45438481531484" lon="11.769509145980937"><ele>327.0</ele><time>2026-04-16T09:49:20Z</time></trkpt><trkpt lat="43.45444893490496" lon="11.769531991685366"><ele>327.0</ele><time>2026-04-16T09:49:21Z</time></trkpt><trkpt lat="43.45456049033572" lon="11.769458475467761"><ele>327.0</ele><time>2026-04-16T09:49:23Z</time></trkpt><trkpt lat="43.454682387736796" lon="11.769410703156153"><ele>326.6666666666667</ele><time>2026-04-16T09:49:25Z</time></trkpt><trkpt lat="43.45478249519253" lon="11.769417536767792"><ele>326.3333333333333</ele><time>2026-04-16T09:49:27Z</time></trkpt><trkpt lat="43.454896753558316" lon="11.769436723998881"><ele>326.0</ele><time>2026-04-16T09:49:29Z</time></trkpt><trkpt lat="43.45496787934321" lon="11.769435450200952"><ele>325.66666666666663</ele><time>2026-04-16T09:49:30Z</time></trkpt><trkpt lat="43.45503788698891" lon="11.769436078812825"><ele>325.3333333333333</ele><time>2026-04-16T09:49:31Z</time></trkpt><trkpt lat="43.455122638107575" lon="11.769452465920367"><ele>325.0</ele><time>2026-04-16T09:49:32Z</time></trkpt><trkpt lat="43.45519901170621" lon="11.769448746846146"><ele>325.0</ele><time>2026-04-16T09:49:33Z</time></trkpt><trkpt lat="43.455266797876874" lon="11.769417942726331"><ele>325.0</ele><time>2026-04-16T09:49:34Z</time></trkpt><trkpt lat="43.45534408492732" lon="11.769399821420627"><ele>325.0</ele><time>2026-04-16T09:49:35Z</time></trkpt><trkpt lat="43.455411392739535" lon="11.769419200334376"><ele>325.0</ele><time>2026-04-16T09:49:36Z</time></trkpt><trkpt lat="43.45551674941665" lon="11.769461866221544"><ele>325.0</ele><time>2026-04-16T09:49:38.001Z</time></trkpt><trkpt lat="43.45561556383008" lon="11.769485684973112"><ele>325.0</ele><time>2026-04-16T09:49:40.001Z</time></trkpt><trkpt lat="43.45568321226092" lon="11.769558622453575"><ele>325.5</ele><time>2026-04-16T09:49:42.001Z</time></trkpt><trkpt lat="43.4558579021011" lon="11.769521553383141"><ele>326.0</ele><time>2026-04-16T09:49:47.001Z</time></trkpt><trkpt lat="43.455960632695245" lon="11.769463097701324"><ele>326.5</ele><time>2026-04-16T09:49:49.001Z</time></trkpt><trkpt lat="43.45603507891994" lon="11.769406579024269"><ele>327.0</ele><time>2026-04-16T09:49:50.001Z</time></trkpt><trkpt lat="43.45612755409779" lon="11.769342443328407"><ele>327.0</ele><time>2026-04-16T09:49:51.001Z</time></trkpt><trkpt lat="43.45619416371765" lon="11.769287830141018"><ele>327.0</ele><time>2026-04-16T09:49:52.001Z</time></trkpt><trkpt lat="43.45626062344305" lon="11.76923924732123"><ele>327.0</ele><time>2026-04-16T09:49:53.001Z</time></trkpt><trkpt lat="43.45631657948949" lon="11.769178398971473"><ele>327.0</ele><time>2026-04-16T09:49:54.001Z</time></trkpt><trkpt lat="43.45632708428673" lon="11.76927357034959"><ele>327.0</ele><time>2026-04-16T09:49:58.001Z</time></trkpt><trkpt lat="43.4562505019093" lon="11.769363842635418"><ele>327.0</ele><time>2026-04-16T09:50:02.001Z</time></trkpt><trkpt lat="43.45616977947692" lon="11.769393793727748"><ele>328.20000000000005</ele><time>2026-04-16T09:50:04.001Z</time></trkpt><trkpt lat="43.456091396928315" lon="11.769478331551275"><ele>329.4</ele><time>2026-04-16T09:50:06.001Z</time></trkpt><trkpt lat="43.455989188933195" lon="11.769562254772946"><ele>330.6</ele><time>2026-04-16T09:50:07.001Z</time></trkpt><trkpt lat="43.455913598170135" lon="11.769624864158635"><ele>331.79999999999995</ele><time>2026-04-16T09:50:07.999Z</time></trkpt><trkpt lat="43.45581885370024" lon="11.76966852156443"><ele>333.0</ele><time>2026-04-16T09:50:08.999Z</time></trkpt><trkpt lat="43.45570562979452" lon="11.76964804637596"><ele>333.0</ele><time>2026-04-16T09:50:10.999Z</time></trkpt><trkpt lat="43.455642780480616" lon="11.769711788438043"><ele>333.0</ele><time>2026-04-16T09:50:11.999Z</time></trkpt><trkpt lat="43.455579736146696" lon="11.769815801104638"><ele>333.0</ele><time>2026-04-16T09:50:12.999Z</time></trkpt><trkpt lat="43.455511271532835" lon="11.769894763650914"><ele>333.0</ele><time>2026-04-16T09:50:13.999Z</time></trkpt><trkpt lat="43.45543027306003" lon="11.769968964768642"><ele>333.0</ele><time>2026-04-16T09:50:14.999Z</time></trkpt><trkpt lat="43.45536893640681" lon="11.770006706177908"><ele>333.0</ele><time>2026-04-16T09:50:18.999Z</time></trkpt><trkpt lat="43.4553030264637" lon="11.770037408196405"><ele>331.8571428571429</ele><time>2026-04-16T09:50:28.999Z</time></trkpt><trkpt lat="43.455235170463645" lon="11.770022962872114"><ele>330.71428571428567</ele><time>2026-04-16T09:50:49Z</time></trkpt><trkpt lat="43.45519310053128" lon="11.76991711166849"><ele>329.57142857142856</ele><time>2026-04-16T09:51:00Z</time></trkpt><trkpt lat="43.45512115876715" lon="11.769914504361601"><ele>328.42857142857144</ele><time>2026-04-16T09:51:02Z</time></trkpt><trkpt lat="43.45505722653502" lon="11.769962396223281"><ele>327.28571428571433</ele><time>2026-04-16T09:51:04Z</time></trkpt><trkpt lat="43.455018137809" lon="11.770031053403436"><ele>326.1428571428571</ele><time>2026-04-16T09:51:06Z</time></trkpt><trkpt lat="43.45499855397662" lon="11.770117881182308"><ele>325.0</ele><time>2026-04-16T09:51:09Z</time></trkpt><trkpt lat="43.454919779033226" lon="11.770136479593987"><ele>325.0</ele><time>2026-04-16T09:51:12Z</time></trkpt><trkpt lat="43.45484797260524" lon="11.770150201743773"><ele>325.0</ele><time>2026-04-16T09:51:13Z</time></trkpt><trkpt lat="43.45478272233404" lon="11.770180952538832"><ele>325.0</ele><time>2026-04-16T09:51:14Z</time></trkpt><trkpt lat="43.45472780234636" lon="11.770234692492904"><ele>325.0</ele><time>2026-04-16T09:51:15Z</time></trkpt><trkpt lat="43.45467047525734" lon="11.770299764186607"><ele>325.0</ele><time>2026-04-16T09:51:16Z</time></trkpt><trkpt lat="43.45461577338586" lon="11.770365667693902"><ele>325.0</ele><time>2026-04-16T09:51:17Z</time></trkpt><trkpt lat="43.45454829652998" lon="11.770403461566577"><ele>325.0</ele><time>2026-04-16T09:51:18Z</time></trkpt><trkpt lat="43.454462832845024" lon="11.770360932519047"><ele>324.4</ele><time>2026-04-16T09:51:20Z</time></trkpt><trkpt lat="43.45436067046921" lon="11.770371500972825"><ele>323.8</ele><time>2026-04-16T09:51:22Z</time></trkpt><trkpt lat="43.4542402941081" lon="11.770417840034213"><ele>323.20000000000005</ele><time>2026-04-16T09:51:24Z</time></trkpt><trkpt lat="43.4541284015719" lon="11.770516421815277"><ele>322.6</ele><time>2026-04-16T09:51:26Z</time></trkpt><trkpt lat="43.454065717670176" lon="11.770530454723763"><ele>322.0</ele><time>2026-04-16T09:51:27Z</time></trkpt><trkpt lat="43.4539873617014" lon="11.770528487167962"><ele>322.0</ele><time>2026-04-16T09:51:28Z</time></trkpt><trkpt lat="43.45391909548236" lon="11.770546588553785"><ele>322.0</ele><time>2026-04-16T09:51:29Z</time></trkpt><trkpt lat="43.45381043760598" lon="11.770671554403942"><ele>322.0</ele><time>2026-04-16T09:51:31Z</time></trkpt><trkpt lat="43.45374062519157" lon="11.770723074217027"><ele>322.0</ele><time>2026-04-16T09:51:32Z</time></trkpt><trkpt lat="43.453674962847685" lon="11.77076412158414"><ele>322.0</ele><time>2026-04-16T09:51:33Z</time></trkpt><trkpt lat="43.453601571281844" lon="11.770790705063872"><ele>322.0</ele><time>2026-04-16T09:51:34Z</time></trkpt><trkpt lat="43.453537819151094" lon="11.770797256734866"><ele>321.5</ele><time>2026-04-16T09:51:35.001Z</time></trkpt><trkpt lat="43.45347279988463" lon="11.770815028039896"><ele>321.0</ele><time>2026-04-16T09:51:36.001Z</time></trkpt><trkpt lat="43.45339557341056" lon="11.770863172178506"><ele>320.5</ele><time>2026-04-16T09:51:37.001Z</time></trkpt><trkpt lat="43.45333664668067" lon="11.770927720079436"><ele>320.0</ele><time>2026-04-16T09:51:38.001Z</time></trkpt><trkpt lat="43.453272705349725" lon="11.77099371467166"><ele>319.5</ele><time>2026-04-16T09:51:39.001Z</time></trkpt><trkpt lat="43.45320866065262" lon="11.77105218032834"><ele>319.0</ele><time>2026-04-16T09:51:40.001Z</time></trkpt><trkpt lat="43.453137306860135" lon="11.77111318728674"><ele>319.0</ele><time>2026-04-16T09:51:41.001Z</time></trkpt><trkpt lat="43.453065493207596" lon="11.771162396787544"><ele>319.0</ele><time>2026-04-16T09:51:42.001Z</time></trkpt><trkpt lat="43.452999539744866" lon="11.771227048038519"><ele>319.0</ele><time>2026-04-16T09:51:43.001Z</time></trkpt><trkpt lat="43.45293293334044" lon="11.771274695436933"><ele>319.0</ele><time>2026-04-16T09:51:44.001Z</time></trkpt><trkpt lat="43.452839201921904" lon="11.771377028821654"><ele>319.0</ele><time>2026-04-16T09:51:46.001Z</time></trkpt><trkpt lat="43.45278583737733" lon="11.771457044209077"><ele>319.0</ele><time>2026-04-16T09:51:48.001Z</time></trkpt><trkpt lat="43.45269993594305" lon="11.771542843255839"><ele>318.0</ele><time>2026-04-16T09:51:51.001Z</time></trkpt><trkpt lat="43.45269483264931" lon="11.771638166849332"><ele>317.0</ele><time>2026-04-16T09:51:53.001Z</time></trkpt><trkpt lat="43.45261745767561" lon="11.771696720683199"><ele>316.0</ele><time>2026-04-16T09:51:56.001Z</time></trkpt><trkpt lat="43.452512129529325" lon="11.77176780020314"><ele>315.0</ele><time>2026-04-16T09:51:59.001Z</time></trkpt><trkpt lat="43.4524550592153" lon="11.771809335087465"><ele>314.0</ele><time>2026-04-16T09:52:00.001Z</time></trkpt><trkpt lat="43.45238355272639" lon="11.771923383398914"><ele>313.0</ele><time>2026-04-16T09:52:02.001Z</time></trkpt><trkpt lat="43.45233316430095" lon="11.77207102394927"><ele>312.6</ele><time>2026-04-16T09:52:04.001Z</time></trkpt><trkpt lat="43.45229327345043" lon="11.772153200908615"><ele>312.20000000000005</ele><time>2026-04-16T09:52:05.001Z</time></trkpt><trkpt lat="43.45220792353964" lon="11.772288245763434"><ele>311.8</ele><time>2026-04-16T09:52:07.001Z</time></trkpt><trkpt lat="43.452162614717224" lon="11.772472077997522"><ele>311.40000000000003</ele><time>2026-04-16T09:52:09.001Z</time></trkpt><trkpt lat="43.452150439751925" lon="11.772571707293869"><ele>311.0</ele><time>2026-04-16T09:52:10.001Z</time></trkpt><trkpt lat="43.45211797896324" lon="11.772671532475474"><ele>311.0</ele><time>2026-04-16T09:52:11.001Z</time></trkpt><trkpt lat="43.45209910251268" lon="11.772765336058539"><ele>311.0</ele><time>2026-04-16T09:52:12.001Z</time></trkpt><trkpt lat="43.45210203878435" lon="11.772852220098464"><ele>311.0</ele><time>2026-04-16T09:52:13.001Z</time></trkpt><trkpt lat="43.452140213087596" lon="11.772968171400343"><ele>311.0</ele><time>2026-04-16T09:52:14.999Z</time></trkpt><trkpt lat="43.45212118685289" lon="11.773066365217712"><ele>311.0</ele><time>2026-04-16T09:52:16.999Z</time></trkpt><trkpt lat="43.452052144339035" lon="11.773215532068633"><ele>311.0</ele><time>2026-04-16T09:52:18.999Z</time></trkpt><trkpt lat="43.451973004271636" lon="11.773296396864744"><ele>311.0</ele><time>2026-04-16T09:52:20.999Z</time></trkpt><trkpt lat="43.45191702122174" lon="11.773426370774265"><ele>311.0</ele><time>2026-04-16T09:52:22.999Z</time></trkpt><trkpt lat="43.451900669724964" lon="11.773520133800355"><ele>311.0</ele><time>2026-04-16T09:52:25.999Z</time></trkpt><trkpt lat="43.45200417652016" lon="11.773563960287854"><ele>311.0</ele><time>2026-04-16T09:52:52Z</time></trkpt><trkpt lat="43.45199014797967" lon="11.773663833639691"><ele>311.0</ele><time>2026-04-16T09:52:54Z</time></trkpt><trkpt lat="43.45197349380049" lon="11.77375647882729"><ele>311.0</ele><time>2026-04-16T09:52:56Z</time></trkpt><trkpt lat="43.45191835846178" lon="11.773866519205457"><ele>310.0</ele><time>2026-04-16T09:52:58Z</time></trkpt><trkpt lat="43.45187064984643" lon="11.773965581131058"><ele>309.0</ele><time>2026-04-16T09:53:00Z</time></trkpt><trkpt lat="43.45181027052287" lon="11.774038180135248"><ele>308.0</ele><time>2026-04-16T09:53:01Z</time></trkpt><trkpt lat="43.45174182157769" lon="11.774060612994479"><ele>307.0</ele><time>2026-04-16T09:53:03Z</time></trkpt><trkpt lat="43.451647434684624" lon="11.774071103242672"><ele>306.0</ele><time>2026-04-16T09:53:05Z</time></trkpt><trkpt lat="43.45160807140479" lon="11.774145596225354"><ele>305.0</ele><time>2026-04-16T09:53:09Z</time></trkpt><trkpt lat="43.45155064000656" lon="11.774189906115579"><ele>305.0</ele><time>2026-04-16T09:53:14Z</time></trkpt><trkpt lat="43.45157699614378" lon="11.774281378715177"><ele>305.0</ele><time>2026-04-16T09:53:18Z</time></trkpt><trkpt lat="43.45157236859494" lon="11.774177364599158"><ele>305.0</ele><time>2026-04-16T09:53:35.001Z</time></trkpt><trkpt lat="43.45155993373136" lon="11.774080974376686"><ele>305.0</ele><time>2026-04-16T09:53:39.001Z</time></trkpt><trkpt lat="43.45150480428775" lon="11.774145612751774"><ele>305.0</ele><time>2026-04-16T09:53:46.001Z</time></trkpt><trkpt lat="43.45144932524774" lon="11.774206380737155"><ele>305.0</ele><time>2026-04-16T09:53:48.001Z</time></trkpt><trkpt lat="43.451405725189986" lon="11.774308797031042"><ele>305.0</ele><time>2026-04-16T09:53:50.001Z</time></trkpt><trkpt lat="43.451340446980915" lon="11.774367542013307"><ele>304.8</ele><time>2026-04-16T09:53:52.001Z</time></trkpt><trkpt lat="43.45127426545905" lon="11.774414193787628"><ele>304.6</ele><time>2026-04-16T09:53:53.001Z</time></trkpt><trkpt lat="43.451191732655985" lon="11.774472842979776"><ele>304.4</ele><time>2026-04-16T09:53:55.001Z</time></trkpt><trkpt lat="43.45107377956937" lon="11.774573214560512"><ele>304.2</ele><time>2026-04-16T09:53:57.001Z</time></trkpt><trkpt lat="43.45099747747365" lon="11.774654899824975"><ele>304.0</ele><time>2026-04-16T09:53:58.001Z</time></trkpt><trkpt lat="43.45093661846162" lon="11.774747541074417"><ele>304.0</ele><time>2026-04-16T09:53:59.001Z</time></trkpt><trkpt lat="43.45087340928837" lon="11.77477455707875"><ele>304.0</ele><time>2026-04-16T09:54:01.001Z</time></trkpt><trkpt lat="43.45082586768552" lon="11.774838509247694"><ele>304.0</ele><time>2026-04-16T09:54:02.001Z</time></trkpt><trkpt lat="43.45073718331721" lon="11.774894106818863"><ele>304.0</ele><time>2026-04-16T09:54:03.001Z</time></trkpt><trkpt lat="43.45064222935666" lon="11.774948244288035"><ele>304.0</ele><time>2026-04-16T09:54:04.001Z</time></trkpt><trkpt lat="43.45057967190658" lon="11.77500171637725"><ele>304.0</ele><time>2026-04-16T09:54:05.001Z</time></trkpt><trkpt lat="43.45047364050317" lon="11.775032750302017"><ele>302.8333333333333</ele><time>2026-04-16T09:54:06.001Z</time></trkpt><trkpt lat="43.450369437184776" lon="11.775070869859183"><ele>301.66666666666663</ele><time>2026-04-16T09:54:07.001Z</time></trkpt><trkpt lat="43.45030658524733" lon="11.775035370180742"><ele>300.5</ele><time>2026-04-16T09:54:08.001Z</time></trkpt><trkpt lat="43.45024620322267" lon="11.775068789821777"><ele>299.3333333333333</ele><time>2026-04-16T09:54:09.001Z</time></trkpt><trkpt lat="43.45018939278101" lon="11.775122356118416"><ele>298.1666666666667</ele><time>2026-04-16T09:54:10.001Z</time></trkpt><trkpt lat="43.45007577487258" lon="11.775063413205912"><ele>297.0</ele><time>2026-04-16T09:54:13.001Z</time></trkpt><trkpt lat="43.45000018073925" lon="11.775053050925969"><ele>297.0</ele><time>2026-04-16T09:54:15.001Z</time></trkpt><trkpt lat="43.45005041991135" lon="11.77498304192592"><ele>297.0</ele><time>2026-04-16T09:54:18.001Z</time></trkpt><trkpt lat="43.450115705082226" lon="11.774894454371719"><ele>297.0</ele><time>2026-04-16T09:54:19.999Z</time></trkpt><trkpt lat="43.45017414212436" lon="11.774789947529507"><ele>297.0</ele><time>2026-04-16T09:54:21.999Z</time></trkpt><trkpt lat="43.45027966558399" lon="11.774696795266802"><ele>297.0</ele><time>2026-04-16T09:54:23.999Z</time></trkpt><trkpt lat="43.45035264365911" lon="11.77467415659741"><ele>297.0</ele><time>2026-04-16T09:54:24.999Z</time></trkpt><trkpt lat="43.45043205087192" lon="11.774647950416705"><ele>297.0</ele><time>2026-04-16T09:54:25.999Z</time></trkpt><trkpt lat="43.45050157354201" lon="11.774611708251948"><ele>297.0</ele><time>2026-04-16T09:54:26.999Z</time></trkpt><trkpt lat="43.45056930790506" lon="11.77450970578355"><ele>297.0</ele><time>2026-04-16T09:54:28.999Z</time></trkpt><trkpt lat="43.45061275234737" lon="11.774440884661356"><ele>297.0</ele><time>2026-04-16T09:54:29.999Z</time></trkpt><trkpt lat="43.450672985587204" lon="11.77432523104203"><ele>297.0</ele><time>2026-04-16T09:54:31.999Z</time></trkpt><trkpt lat="43.4507348170653" lon="11.774266213982585"><ele>299.3333333333333</ele><time>2026-04-16T09:54:32.999Z</time></trkpt><trkpt lat="43.4507927977702" lon="11.774162130205532"><ele>301.6666666666667</ele><time>2026-04-16T09:54:33.999Z</time></trkpt><trkpt lat="43.45084158759718" lon="11.774092279218129"><ele>304.0</ele><time>2026-04-16T09:54:34.999Z</time></trkpt><trkpt lat="43.45089593425608" lon="11.774028760357561"><ele>306.33333333333337</ele><time>2026-04-16T09:54:36.999Z</time></trkpt><trkpt lat="43.450953271055184" lon="11.773980783755558"><ele>308.6666666666667</ele><time>2026-04-16T09:54:37.999Z</time></trkpt><trkpt lat="43.45105000726709" lon="11.77384272900091"><ele>311.0</ele><time>2026-04-16T09:54:39.999Z</time></trkpt><trkpt lat="43.451129621476134" lon="11.773748672881453"><ele>311.0</ele><time>2026-04-16T09:54:40.999Z</time></trkpt><trkpt lat="43.45118825493114" lon="11.773656251426893"><ele>311.0</ele><time>2026-04-16T09:54:42.999Z</time></trkpt><trkpt lat="43.45123769460149" lon="11.773555502110682"><ele>311.0</ele><time>2026-04-16T09:54:47Z</time></trkpt><trkpt lat="43.45126648161033" lon="11.773429259745305"><ele>311.0</ele><time>2026-04-16T09:54:50Z</time></trkpt><trkpt lat="43.451226375418614" lon="11.773334269114521"><ele>311.0</ele><time>2026-04-16T09:54:51Z</time></trkpt><trkpt lat="43.45122796378938" lon="11.773242487196574"><ele>311.0</ele><time>2026-04-16T09:54:52Z</time></trkpt><trkpt lat="43.45122567483699" lon="11.77308441431701"><ele>312.8</ele><time>2026-04-16T09:54:54Z</time></trkpt><trkpt lat="43.45123675959348" lon="11.772873090988632"><ele>314.6</ele><time>2026-04-16T09:54:56Z</time></trkpt><trkpt lat="43.45126486361969" lon="11.772766022054956"><ele>316.4</ele><time>2026-04-16T09:54:57Z</time></trkpt><trkpt lat="43.45130097016897" lon="11.772675101921648"><ele>318.2</ele><time>2026-04-16T09:54:58Z</time></trkpt><trkpt lat="43.451381273307774" lon="11.772594878873747"><ele>320.0</ele><time>2026-04-16T09:54:59Z</time></trkpt><trkpt lat="43.451446663496014" lon="11.772506189979138"><ele>320.0</ele><time>2026-04-16T09:55:00Z</time></trkpt><trkpt lat="43.45153646970323" lon="11.772396793738508"><ele>320.0</ele><time>2026-04-16T09:55:01Z</time></trkpt><trkpt lat="43.451585745072094" lon="11.772324524392364"><ele>320.0</ele><time>2026-04-16T09:55:03Z</time></trkpt><trkpt lat="43.45136099659109" lon="11.772444391893684"><ele>320.0</ele><time>2026-04-16T10:00:15.002Z</time></trkpt><trkpt lat="43.451289358047866" lon="11.77250216636532"><ele>320.1666666666667</ele><time>2026-04-16T10:00:16.002Z</time></trkpt><trkpt lat="43.45122579937485" lon="11.77256588016358"><ele>320.33333333333337</ele><time>2026-04-16T10:00:17.002Z</time></trkpt><trkpt lat="43.451163623941056" lon="11.772601020788136"><ele>320.5</ele><time>2026-04-16T10:00:18.002Z</time></trkpt><trkpt lat="43.45111786467308" lon="11.772669010015115"><ele>320.6666666666667</ele><time>2026-04-16T10:00:21.002Z</time></trkpt><trkpt lat="43.451028489683935" lon="11.772709987974528"><ele>320.8333333333333</ele><time>2026-04-16T10:00:23.002Z</time></trkpt><trkpt lat="43.4509728491247" lon="11.772771758521424"><ele>321.0</ele><time>2026-04-16T10:00:24.002Z</time></trkpt><trkpt lat="43.45090522959348" lon="11.772854503350764"><ele>321.0</ele><time>2026-04-16T10:00:25.002Z</time></trkpt><trkpt lat="43.450835882098545" lon="11.772927704667364"><ele>321.0</ele><time>2026-04-16T10:00:26.002Z</time></trkpt><trkpt lat="43.45080816165965" lon="11.773065357189886"><ele>321.0</ele><time>2026-04-16T10:00:28.002Z</time></trkpt><trkpt lat="43.4507663537139" lon="11.773135710853172"><ele>321.0</ele><time>2026-04-16T10:00:29.002Z</time></trkpt><trkpt lat="43.45065256768113" lon="11.773099187390947"><ele>321.0</ele><time>2026-04-16T10:00:32.002Z</time></trkpt><trkpt lat="43.45057904488766" lon="11.77310903362171"><ele>321.0</ele><time>2026-04-16T10:00:33.002Z</time></trkpt><trkpt lat="43.45051303045476" lon="11.773142126319287"><ele>320.8333333333333</ele><time>2026-04-16T10:00:34.002Z</time></trkpt><trkpt lat="43.45040549047215" lon="11.773201264151849"><ele>320.6666666666667</ele><time>2026-04-16T10:00:35.002Z</time></trkpt><trkpt lat="43.450334173696724" lon="11.773175722356418"><ele>320.5</ele><time>2026-04-16T10:00:36.002Z</time></trkpt><trkpt lat="43.45024857525606" lon="11.77312966904341"><ele>320.33333333333337</ele><time>2026-04-16T10:00:37.002Z</time></trkpt><trkpt lat="43.45017868631484" lon="11.773102376610577"><ele>320.1666666666667</ele><time>2026-04-16T10:00:38Z</time></trkpt><trkpt lat="43.450109860286034" lon="11.773125551079291"><ele>320.0</ele><time>2026-04-16T10:00:39Z</time></trkpt><trkpt lat="43.450046025616125" lon="11.773155005695639"><ele>320.0</ele><time>2026-04-16T10:00:40Z</time></trkpt><trkpt lat="43.44998070502877" lon="11.77319871810358"><ele>320.0</ele><time>2026-04-16T10:00:41Z</time></trkpt><trkpt lat="43.449914774818254" lon="11.773235047903981"><ele>320.0</ele><time>2026-04-16T10:00:42Z</time></trkpt><trkpt lat="43.44980445112195" lon="11.773300941805156"><ele>320.0</ele><time>2026-04-16T10:00:44Z</time></trkpt><trkpt lat="43.44971359094025" lon="11.773371455829977"><ele>320.0</ele><time>2026-04-16T10:00:46Z</time></trkpt><trkpt lat="43.449648393555435" lon="11.773347510035869"><ele>320.0</ele><time>2026-04-16T10:00:47Z</time></trkpt><trkpt lat="43.44949534802734" lon="11.773391704271866"><ele>320.4</ele><time>2026-04-16T10:00:49Z</time></trkpt><trkpt lat="43.449415674565365" lon="11.773435603743666"><ele>320.8</ele><time>2026-04-16T10:00:50Z</time></trkpt><trkpt lat="43.44931532743024" lon="11.773478890298223"><ele>321.20000000000005</ele><time>2026-04-16T10:00:52Z</time></trkpt><trkpt lat="43.44924042711788" lon="11.773600507960818"><ele>321.6</ele><time>2026-04-16T10:00:54Z</time></trkpt><trkpt lat="43.44918382453735" lon="11.773656399918522"><ele>322.0</ele><time>2026-04-16T10:00:55Z</time></trkpt><trkpt lat="43.44906618106842" lon="11.773733743918172"><ele>318.8333333333333</ele><time>2026-04-16T10:00:57Z</time></trkpt><trkpt lat="43.449002462578214" lon="11.773764048752005"><ele>315.66666666666663</ele><time>2026-04-16T10:00:58Z</time></trkpt><trkpt lat="43.448925903629565" lon="11.773716474086637"><ele>312.5</ele><time>2026-04-16T10:00:59Z</time></trkpt><trkpt lat="43.44885751799799" lon="11.773739733049212"><ele>309.3333333333333</ele><time>2026-04-16T10:01:00Z</time></trkpt><trkpt lat="43.4487501476508" lon="11.773744315510998"><ele>306.1666666666667</ele><time>2026-04-16T10:01:01Z</time></trkpt><trkpt lat="43.448645968747186" lon="11.773767085167755"><ele>303.0</ele><time>2026-04-16T10:01:02Z</time></trkpt><trkpt lat="43.44856674254458" lon="11.773788102055295"><ele>302.6</ele><time>2026-04-16T10:01:03Z</time></trkpt><trkpt lat="43.448501924297034" lon="11.773767123607298"><ele>302.20000000000005</ele><time>2026-04-16T10:01:04Z</time></trkpt><trkpt lat="43.44837045509947" lon="11.773689768750701"><ele>301.8</ele><time>2026-04-16T10:01:06Z</time></trkpt><trkpt lat="43.44828929141644" lon="11.773658092080813"><ele>301.40000000000003</ele><time>2026-04-16T10:01:07Z</time></trkpt><trkpt lat="43.4481927915041" lon="11.773632151204508"><ele>301.0</ele><time>2026-04-16T10:01:08Z</time></trkpt><trkpt lat="43.448126638481654" lon="11.773606535606532"><ele>301.0</ele><time>2026-04-16T10:01:09Z</time></trkpt><trkpt lat="43.448034505931744" lon="11.77358047248436"><ele>301.0</ele><time>2026-04-16T10:01:10Z</time></trkpt><trkpt lat="43.4479627067067" lon="11.77354645862655"><ele>301.0</ele><time>2026-04-16T10:01:11Z</time></trkpt><trkpt lat="43.44788296884668" lon="11.773489677362743"><ele>301.0</ele><time>2026-04-16T10:01:12Z</time></trkpt><trkpt lat="43.4478181810771" lon="11.773470422030233"><ele>301.0</ele><time>2026-04-16T10:01:13Z</time></trkpt><trkpt lat="43.447718001031795" lon="11.77347343892468"><ele>301.0</ele><time>2026-04-16T10:01:15Z</time></trkpt><trkpt lat="43.44766152003023" lon="11.773416962142559"><ele>304.0</ele><time>2026-04-16T10:01:18Z</time></trkpt><trkpt lat="43.44762029336992" lon="11.773282295542083"><ele>307.0</ele><time>2026-04-16T10:01:20.001Z</time></trkpt><trkpt lat="43.44756198892621" lon="11.773212322353158"><ele>310.0</ele><time>2026-04-16T10:01:21.001Z</time></trkpt><trkpt lat="43.44750464939994" lon="11.773173472764755"><ele>313.0</ele><time>2026-04-16T10:01:22.001Z</time></trkpt><trkpt lat="43.447406146041445" lon="11.773124806362356"><ele>316.0</ele><time>2026-04-16T10:01:24.001Z</time></trkpt><trkpt lat="43.44732150838373" lon="11.77303754860024"><ele>316.0</ele><time>2026-04-16T10:01:26.001Z</time></trkpt><trkpt lat="43.44730789119589" lon="11.772940421064897"><ele>316.0</ele><time>2026-04-16T10:01:28.001Z</time></trkpt><trkpt lat="43.447352635966084" lon="11.772859597261334"><ele>316.0</ele><time>2026-04-16T10:01:31.001Z</time></trkpt><trkpt lat="43.44742722656649" lon="11.772867264554202"><ele>316.0</ele><time>2026-04-16T10:01:33.001Z</time></trkpt><trkpt lat="43.447527175046076" lon="11.77288745640974"><ele>316.0</ele><time>2026-04-16T10:01:35.001Z</time></trkpt><trkpt lat="43.44765982423189" lon="11.772847356036861"><ele>316.0</ele><time>2026-04-16T10:01:37.001Z</time></trkpt><trkpt lat="43.44773583302742" lon="11.772839909840059"><ele>316.0</ele><time>2026-04-16T10:01:38.001Z</time></trkpt><trkpt lat="43.447867500417374" lon="11.772845598481561"><ele>316.0</ele><time>2026-04-16T10:01:40.001Z</time></trkpt><trkpt lat="43.44795185483619" lon="11.772841341300829"><ele>316.0</ele><time>2026-04-16T10:01:41.001Z</time></trkpt><trkpt lat="43.44806017252497" lon="11.772822449641158"><ele>316.0</ele><time>2026-04-16T10:01:42.001Z</time></trkpt><trkpt lat="43.44814098243024" lon="11.77277959649667"><ele>316.8</ele><time>2026-04-16T10:01:43.001Z</time></trkpt><trkpt lat="43.44821378785849" lon="11.772753804615304"><ele>317.6</ele><time>2026-04-16T10:01:44.001Z</time></trkpt><trkpt lat="43.448288006876474" lon="11.77274051755721"><ele>318.4</ele><time>2026-04-16T10:01:45.001Z</time></trkpt><trkpt lat="43.44835977078283" lon="11.772764330961373"><ele>319.2</ele><time>2026-04-16T10:01:46.001Z</time></trkpt><trkpt lat="43.44851767439297" lon="11.772758500140787"><ele>320.0</ele><time>2026-04-16T10:01:48.001Z</time></trkpt><trkpt lat="43.44860003811833" lon="11.77277855701847"><ele>320.0</ele><time>2026-04-16T10:01:49.001Z</time></trkpt><trkpt lat="43.4486662358314" lon="11.772809693896983"><ele>320.0</ele><time>2026-04-16T10:01:50.001Z</time></trkpt><trkpt lat="43.448731247458" lon="11.772846629590106"><ele>320.0</ele><time>2026-04-16T10:01:51.001Z</time></trkpt><trkpt lat="43.448800044209854" lon="11.772894133203406"><ele>320.0</ele><time>2026-04-16T10:01:52.001Z</time></trkpt><trkpt lat="43.44892007383379" lon="11.772852338229328"><ele>320.0</ele><time>2026-04-16T10:01:54.001Z</time></trkpt><trkpt lat="43.44900775241708" lon="11.772836232324092"><ele>320.0</ele><time>2026-04-16T10:01:55.001Z</time></trkpt><trkpt lat="43.44907678205578" lon="11.772836710471825"><ele>320.4</ele><time>2026-04-16T10:01:56.001Z</time></trkpt><trkpt lat="43.44918386814284" lon="11.772736321187635"><ele>320.8</ele><time>2026-04-16T10:01:58.001Z</time></trkpt><trkpt lat="43.44924773526763" lon="11.772727335666886"><ele>321.20000000000005</ele><time>2026-04-16T10:01:59.001Z</time></trkpt><trkpt lat="43.44935483854708" lon="11.77268181649165"><ele>321.6</ele><time>2026-04-16T10:02:01.001Z</time></trkpt><trkpt lat="43.44943058633402" lon="11.772717189570223"><ele>322.0</ele><time>2026-04-16T10:02:02.001Z</time></trkpt><trkpt lat="43.44947026247396" lon="11.772648371954956"><ele>324.5</ele><time>2026-04-16T10:02:03.001Z</time></trkpt><trkpt lat="43.449529315468865" lon="11.772606300981504"><ele>327.0</ele><time>2026-04-16T10:02:06.001Z</time></trkpt><trkpt lat="43.449575109592836" lon="11.772529803180806"><ele>329.5</ele><time>2026-04-16T10:02:08.001Z</time></trkpt><trkpt lat="43.44964758809648" lon="11.772464213278017"><ele>332.0</ele><time>2026-04-16T10:02:10.001Z</time></trkpt><trkpt lat="43.449701670007" lon="11.772400560978758"><ele>334.5</ele><time>2026-04-16T10:02:12.001Z</time></trkpt><trkpt lat="43.449761987472044" lon="11.772357895939047"><ele>337.0</ele><time>2026-04-16T10:02:13.001Z</time></trkpt><trkpt lat="43.449814087650566" lon="11.772245118806177"><ele>337.0</ele><time>2026-04-16T10:02:14.001Z</time></trkpt><trkpt lat="43.449895493954315" lon="11.772140521485277"><ele>337.0</ele><time>2026-04-16T10:02:15.001Z</time></trkpt><trkpt lat="43.449963997094116" lon="11.772086032177802"><ele>337.0</ele><time>2026-04-16T10:02:16.001Z</time></trkpt><trkpt lat="43.45004843335988" lon="11.77201221257442"><ele>337.0</ele><time>2026-04-16T10:02:18.002Z</time></trkpt><trkpt lat="43.45014396130623" lon="11.77200843818444"><ele>337.0</ele><time>2026-04-16T10:02:19.002Z</time></trkpt><trkpt lat="43.45024453820385" lon="11.771998701019788"><ele>337.0</ele><time>2026-04-16T10:02:20.002Z</time></trkpt><trkpt lat="43.450332525250296" lon="11.771983569328837"><ele>337.0</ele><time>2026-04-16T10:02:21.002Z</time></trkpt><trkpt lat="43.450399552845916" lon="11.771952844057415"><ele>337.0</ele><time>2026-04-16T10:02:22.002Z</time></trkpt><trkpt lat="43.45045651022465" lon="11.771886254874746"><ele>337.0</ele><time>2026-04-16T10:02:23.002Z</time></trkpt><trkpt lat="43.450555443485975" lon="11.771844692161094"><ele>337.0</ele><time>2026-04-16T10:02:24.002Z</time></trkpt><trkpt lat="43.450642161662515" lon="11.771837510815905"><ele>337.0</ele><time>2026-04-16T10:02:25.002Z</time></trkpt><trkpt lat="43.45071714830862" lon="11.771851627125374"><ele>336.40000000000003</ele><time>2026-04-16T10:02:26.002Z</time></trkpt><trkpt lat="43.450800549337444" lon="11.771863095040661"><ele>335.8</ele><time>2026-04-16T10:02:27.002Z</time></trkpt><trkpt lat="43.45088051205226" lon="11.771842450095283"><ele>335.2</ele><time>2026-04-16T10:02:28.002Z</time></trkpt><trkpt lat="43.45101285370675" lon="11.771721171842959"><ele>334.6</ele><time>2026-04-16T10:02:30.002Z</time></trkpt><trkpt lat="43.45107852667148" lon="11.771630086105176"><ele>334.0</ele><time>2026-04-16T10:02:31.002Z</time></trkpt><trkpt lat="43.4511291762386" lon="11.771544079228258"><ele>334.6</ele><time>2026-04-16T10:02:32.002Z</time></trkpt><trkpt lat="43.45120570298994" lon="11.77146410604156"><ele>335.2</ele><time>2026-04-16T10:02:33.002Z</time></trkpt><trkpt lat="43.45126800161416" lon="11.771407151201275"><ele>335.8</ele><time>2026-04-16T10:02:34.002Z</time></trkpt><trkpt lat="43.45133430001439" lon="11.771320935705884"><ele>336.40000000000003</ele><time>2026-04-16T10:02:35.002Z</time></trkpt><trkpt lat="43.451413135245986" lon="11.771213302702838"><ele>337.0</ele><time>2026-04-16T10:02:36.002Z</time></trkpt><trkpt lat="43.45148340936357" lon="11.771104545563233"><ele>340.6</ele><time>2026-04-16T10:02:37.002Z</time></trkpt><trkpt lat="43.45154372707122" lon="11.770973293302978"><ele>344.20000000000005</ele><time>2026-04-16T10:02:38.002Z</time></trkpt><trkpt lat="43.45159888988977" lon="11.770845517700405"><ele>347.8</ele><time>2026-04-16T10:02:39.002Z</time></trkpt><trkpt lat="43.45164954267386" lon="11.770772137942949"><ele>351.4</ele><time>2026-04-16T10:02:40.002Z</time></trkpt><trkpt lat="43.451699422036164" lon="11.770668073013372"><ele>355.0</ele><time>2026-04-16T10:02:41.002Z</time></trkpt><trkpt lat="43.45174461821416" lon="11.770584428306625"><ele>355.0</ele><time>2026-04-16T10:02:42.002Z</time></trkpt><trkpt lat="43.45180179335742" lon="11.770371845803718"><ele>355.0</ele><time>2026-04-16T10:02:44Z</time></trkpt><trkpt lat="43.451815423008625" lon="11.770251356578237"><ele>355.0</ele><time>2026-04-16T10:02:45Z</time></trkpt><trkpt lat="43.45178765496883" lon="11.770094581448555"><ele>355.0</ele><time>2026-04-16T10:02:47Z</time></trkpt><trkpt lat="43.45177238855272" lon="11.769975672191874"><ele>357.4</ele><time>2026-04-16T10:02:48Z</time></trkpt><trkpt lat="43.45176028005727" lon="11.769847948494716"><ele>359.8</ele><time>2026-04-16T10:02:49Z</time></trkpt><trkpt lat="43.45176500767087" lon="11.769670868672057"><ele>362.20000000000005</ele><time>2026-04-16T10:02:50Z</time></trkpt><trkpt lat="43.45177350978762" lon="11.769512406401189"><ele>364.6</ele><time>2026-04-16T10:02:51Z</time></trkpt><trkpt lat="43.451769032373875" lon="11.769393793481996"><ele>367.0</ele><time>2026-04-16T10:02:52Z</time></trkpt><trkpt lat="43.45175130544519" lon="11.76928852113051"><ele>368.25</ele><time>2026-04-16T10:02:53Z</time></trkpt><trkpt lat="43.451764900650986" lon="11.769129821244649"><ele>369.5</ele><time>2026-04-16T10:02:54Z</time></trkpt><trkpt lat="43.45175554146682" lon="11.768971409534378"><ele>370.75</ele><time>2026-04-16T10:02:55Z</time></trkpt><trkpt lat="43.45172599836532" lon="11.768787344579474"><ele>372.0</ele><time>2026-04-16T10:02:56Z</time></trkpt><trkpt lat="43.45170775001504" lon="11.768634233911481"><ele>371.3333333333333</ele><time>2026-04-16T10:02:57Z</time></trkpt><trkpt lat="43.45165478741445" lon="11.768525621122075"><ele>370.6666666666667</ele><time>2026-04-16T10:02:58Z</time></trkpt><trkpt lat="43.451628987738374" lon="11.76844652010915"><ele>370.0</ele><time>2026-04-16T10:02:59Z</time></trkpt><trkpt lat="43.45158342566553" lon="11.768329762311943"><ele>369.33333333333337</ele><time>2026-04-16T10:03:00Z</time></trkpt><trkpt lat="43.45151195015788" lon="11.768229093613604"><ele>368.6666666666667</ele><time>2026-04-16T10:03:01Z</time></trkpt><trkpt lat="43.45149633790269" lon="11.768119428636195"><ele>368.0</ele><time>2026-04-16T10:03:02Z</time></trkpt><trkpt lat="43.45142275846255" lon="11.768028716524915"><ele>368.0</ele><time>2026-04-16T10:03:03Z</time></trkpt><trkpt lat="43.451368680015634" lon="11.767943477330801"><ele>368.0</ele><time>2026-04-16T10:03:04Z</time></trkpt><trkpt lat="43.45127626105882" lon="11.76783986638932"><ele>368.0</ele><time>2026-04-16T10:03:05Z</time></trkpt><trkpt lat="43.45122394380984" lon="11.767723900272523"><ele>368.0</ele><time>2026-04-16T10:03:06Z</time></trkpt><trkpt lat="43.45117020707321" lon="11.767631316088384"><ele>368.0</ele><time>2026-04-16T10:03:07Z</time></trkpt><trkpt lat="43.451132944546586" lon="11.767515049314403"><ele>371.0</ele><time>2026-04-16T10:03:08Z</time></trkpt><trkpt lat="43.45109129196443" lon="11.767408060498989"><ele>374.0</ele><time>2026-04-16T10:03:09Z</time></trkpt><trkpt lat="43.45102809579479" lon="11.76734604382052"><ele>377.0</ele><time>2026-04-16T10:03:10Z</time></trkpt><trkpt lat="43.45102072116496" lon="11.767172273425707"><ele>380.0</ele><time>2026-04-16T10:03:12Z</time></trkpt><trkpt lat="43.45099533372719" lon="11.767075241453652"><ele>383.0</ele><time>2026-04-16T10:03:13Z</time></trkpt><trkpt lat="43.45092449293034" lon="11.766948831396364"><ele>381.2</ele><time>2026-04-16T10:03:17Z</time></trkpt><trkpt lat="43.450945798680394" lon="11.766817302252369"><ele>379.4</ele><time>2026-04-16T10:03:18Z</time></trkpt><trkpt lat="43.45097899306721" lon="11.766712993545237"><ele>377.59999999999997</ele><time>2026-04-16T10:03:19Z</time></trkpt><trkpt lat="43.45103726111433" lon="11.766594955241969"><ele>375.79999999999995</ele><time>2026-04-16T10:03:20Z</time></trkpt><trkpt lat="43.45109235213027" lon="11.766470448381424"><ele>374.0</ele><time>2026-04-16T10:03:23Z</time></trkpt><trkpt lat="43.45113628969999" lon="11.766339888932393"><ele>374.0</ele><time>2026-04-16T10:03:25Z</time></trkpt><trkpt lat="43.45118019916417" lon="11.766268108507647"><ele>374.0</ele><time>2026-04-16T10:03:26Z</time></trkpt><trkpt lat="43.45122067596434" lon="11.766198386687922"><ele>374.0</ele><time>2026-04-16T10:03:27Z</time></trkpt><trkpt lat="43.45127950943139" lon="11.766148677463734"><ele>374.0</ele><time>2026-04-16T10:03:28Z</time></trkpt><trkpt lat="43.45139525220699" lon="11.766070851419144"><ele>374.0</ele><time>2026-04-16T10:03:30Z</time></trkpt><trkpt lat="43.4514707650301" lon="11.766004599464432"><ele>374.0</ele><time>2026-04-16T10:03:31Z</time></trkpt><trkpt lat="43.451549473097856" lon="11.765965121857008"><ele>374.0</ele><time>2026-04-16T10:03:32Z</time></trkpt><trkpt lat="43.45164674763186" lon="11.765930519495996"><ele>374.0</ele><time>2026-04-16T10:03:33Z</time></trkpt><trkpt lat="43.451734488376346" lon="11.765912739682538"><ele>374.0</ele><time>2026-04-16T10:03:34.001Z</time></trkpt><trkpt lat="43.45179899737678" lon="11.765871705307251"><ele>374.0</ele><time>2026-04-16T10:03:35.001Z</time></trkpt><trkpt lat="43.451878137863915" lon="11.765880575949884"><ele>374.0</ele><time>2026-04-16T10:03:37.001Z</time></trkpt><trkpt lat="43.45194418771134" lon="11.765865635495034"><ele>374.0</ele><time>2026-04-16T10:03:38.001Z</time></trkpt><trkpt lat="43.45202619808551" lon="11.765832875967245"><ele>374.0</ele><time>2026-04-16T10:03:39.001Z</time></trkpt><trkpt lat="43.45211724272007" lon="11.7658001127747"><ele>374.0</ele><time>2026-04-16T10:03:40.001Z</time></trkpt><trkpt lat="43.45217459673766" lon="11.765759952002815"><ele>374.0</ele><time>2026-04-16T10:03:41.001Z</time></trkpt><trkpt lat="43.452258925478716" lon="11.76570407774415"><ele>374.0</ele><time>2026-04-16T10:03:42.001Z</time></trkpt><trkpt lat="43.45234783318181" lon="11.7656926668459"><ele>374.0</ele><time>2026-04-16T10:03:43.001Z</time></trkpt><trkpt lat="43.45241491232163" lon="11.765703356553429"><ele>374.0</ele><time>2026-04-16T10:03:44.001Z</time></trkpt><trkpt lat="43.45251210007982" lon="11.765653212136941"><ele>374.6666666666667</ele><time>2026-04-16T10:03:46.001Z</time></trkpt><trkpt lat="43.45257566883367" lon="11.765637246754908"><ele>375.33333333333337</ele><time>2026-04-16T10:03:47.001Z</time></trkpt><trkpt lat="43.45264029610049" lon="11.765639064641677"><ele>376.0</ele><time>2026-04-16T10:03:48.001Z</time></trkpt><trkpt lat="43.45271329865497" lon="11.765627156816716"><ele>376.6666666666667</ele><time>2026-04-16T10:03:49.001Z</time></trkpt><trkpt lat="43.45283598369325" lon="11.765625088771415"><ele>377.3333333333333</ele><time>2026-04-16T10:03:51.001Z</time></trkpt><trkpt lat="43.45291578703733" lon="11.765623421765069"><ele>378.0</ele><time>2026-04-16T10:03:52.001Z</time></trkpt><trkpt lat="43.45300668267446" lon="11.765616804862312"><ele>381.79999999999995</ele><time>2026-04-16T10:03:53.001Z</time></trkpt><trkpt lat="43.453089976857314" lon="11.765612852342915"><ele>385.6</ele><time>2026-04-16T10:03:54.001Z</time></trkpt><trkpt lat="43.453112873760624" lon="11.765750861067005"><ele>389.4</ele><time>2026-04-16T10:03:56.001Z</time></trkpt><trkpt lat="43.4531170411587" lon="11.765839560219648"><ele>393.20000000000005</ele><time>2026-04-16T10:03:57.001Z</time></trkpt><trkpt lat="43.453273710552" lon="11.765905790731884"><ele>397.0</ele><time>2026-04-16T10:04:02.001Z</time></trkpt><trkpt lat="43.45334254621638" lon="11.765966410285252"><ele>397.0</ele><time>2026-04-16T10:04:04.001Z</time></trkpt><trkpt lat="43.453450907162136" lon="11.76602128097225"><ele>397.0</ele><time>2026-04-16T10:04:06.001Z</time></trkpt><trkpt lat="43.45354105214625" lon="11.766063326302472"><ele>397.0</ele><time>2026-04-16T10:04:08.001Z</time></trkpt><trkpt lat="43.45361122600587" lon="11.766154882096082"><ele>397.0</ele><time>2026-04-16T10:04:10.001Z</time></trkpt><trkpt lat="43.453691699798185" lon="11.766061508434142"><ele>397.0</ele><time>2026-04-16T10:04:12.001Z</time></trkpt><trkpt lat="43.45376329268423" lon="11.765975421917194"><ele>400.25</ele><time>2026-04-16T10:04:14.001Z</time></trkpt><trkpt lat="43.453884524064826" lon="11.765944205234794"><ele>403.5</ele><time>2026-04-16T10:04:16.001Z</time></trkpt><trkpt lat="43.454025339339346" lon="11.765959464583611"><ele>406.75</ele><time>2026-04-16T10:04:18.001Z</time></trkpt><trkpt lat="43.45410350024612" lon="11.765952474139826"><ele>410.0</ele><time>2026-04-16T10:04:19.001Z</time></trkpt><trkpt lat="43.45422619201764" lon="11.765902520690542"><ele>410.0</ele><time>2026-04-16T10:04:21.001Z</time></trkpt><trkpt lat="43.45430610031718" lon="11.765849574542822"><ele>410.0</ele><time>2026-04-16T10:04:22.001Z</time></trkpt><trkpt lat="43.454386969082556" lon="11.765816225907198"><ele>410.0</ele><time>2026-04-16T10:04:23.001Z</time></trkpt><trkpt lat="43.454457623540335" lon="11.765773314565042"><ele>410.0</ele><time>2026-04-16T10:04:25.001Z</time></trkpt><trkpt lat="43.454523020857216" lon="11.765818567964205"><ele>410.0</ele><time>2026-04-16T10:05:39.001Z</time></trkpt><trkpt lat="43.45470998613515" lon="11.766052402179783"><ele>408.16666666666663</ele><time>2026-04-16T10:05:48.001Z</time></trkpt><trkpt lat="43.45470162479712" lon="11.76617750768685"><ele>406.3333333333333</ele><time>2026-04-16T10:05:50.001Z</time></trkpt><trkpt lat="43.45461859440074" lon="11.766278243578487"><ele>404.5</ele><time>2026-04-16T10:05:52.001Z</time></trkpt><trkpt lat="43.45461394800926" lon="11.766388248094351"><ele>402.66666666666663</ele><time>2026-04-16T10:05:54.001Z</time></trkpt><trkpt lat="43.45467814157451" lon="11.766403799940473"><ele>400.8333333333333</ele><time>2026-04-16T10:06:08.001Z</time></trkpt><trkpt lat="43.45470220563138" lon="11.766487795330724"><ele>399.0</ele><time>2026-04-16T10:06:11.001Z</time></trkpt><trkpt lat="43.454674038519265" lon="11.76658716599589"><ele>398.6666666666667</ele><time>2026-04-16T10:06:15.001Z</time></trkpt><trkpt lat="43.45466786800082" lon="11.76669970604481"><ele>398.33333333333337</ele><time>2026-04-16T10:06:17.001Z</time></trkpt><trkpt lat="43.45467188312109" lon="11.766804344000702"><ele>398.0</ele><time>2026-04-16T10:06:19.001Z</time></trkpt><trkpt lat="43.45465898378755" lon="11.76690609339233"><ele>397.6666666666667</ele><time>2026-04-16T10:06:21.001Z</time></trkpt><trkpt lat="43.45468981154811" lon="11.766982176456562"><ele>397.33333333333337</ele><time>2026-04-16T10:06:24.001Z</time></trkpt><trkpt lat="43.454748078930734" lon="11.767087039910427"><ele>397.0</ele><time>2026-04-16T10:06:26.001Z</time></trkpt><trkpt lat="43.45478152494242" lon="11.767200962191305"><ele>393.40000000000003</ele><time>2026-04-16T10:06:28.002Z</time></trkpt><trkpt lat="43.45482981287778" lon="11.767295094264627"><ele>389.8</ele><time>2026-04-16T10:06:32.002Z</time></trkpt><trkpt lat="43.454780144791336" lon="11.76744213340255"><ele>386.2</ele><time>2026-04-16T10:06:35.002Z</time></trkpt><trkpt lat="43.45480536710978" lon="11.767533196960308"><ele>382.6</ele><time>2026-04-16T10:06:37.002Z</time></trkpt><trkpt lat="43.45479745223191" lon="11.767743188969668"><ele>379.0</ele><time>2026-04-16T10:06:39.002Z</time></trkpt><trkpt lat="43.45477555709172" lon="11.767837263407442"><ele>376.8333333333333</ele><time>2026-04-16T10:06:40.002Z</time></trkpt><trkpt lat="43.45472705374944" lon="11.767914500244991"><ele>374.66666666666663</ele><time>2026-04-16T10:06:41.002Z</time></trkpt><trkpt lat="43.454680651264674" lon="11.767995322947648"><ele>372.5</ele><time>2026-04-16T10:06:42.002Z</time></trkpt><trkpt lat="43.45462715334705" lon="11.768057662370035"><ele>370.3333333333333</ele><time>2026-04-16T10:06:43.002Z</time></trkpt><trkpt lat="43.45454741667484" lon="11.768117730468909"><ele>368.1666666666667</ele><time>2026-04-16T10:06:44.002Z</time></trkpt><trkpt lat="43.45447352649842" lon="11.768165423887393"><ele>366.0</ele><time>2026-04-16T10:06:45.002Z</time></trkpt><trkpt lat="43.45437147655124" lon="11.768246214366675"><ele>366.0</ele><time>2026-04-16T10:06:47.002Z</time></trkpt><trkpt lat="43.454319258204535" lon="11.768306317763448"><ele>366.0</ele><time>2026-04-16T10:06:48.002Z</time></trkpt><trkpt lat="43.454261344609584" lon="11.768368126647623"><ele>366.0</ele><time>2026-04-16T10:06:49.002Z</time></trkpt><trkpt lat="43.45420428205641" lon="11.768417709274765"><ele>366.0</ele><time>2026-04-16T10:06:50.002Z</time></trkpt><trkpt lat="43.45415344305098" lon="11.768532512371667"><ele>366.0</ele><time>2026-04-16T10:06:51.002Z</time></trkpt><trkpt lat="43.45409023475684" lon="11.768548405155057"><ele>366.0</ele><time>2026-04-16T10:06:52.002Z</time></trkpt><trkpt lat="43.454020765675054" lon="11.768571893738022"><ele>366.0</ele><time>2026-04-16T10:06:53.002Z</time></trkpt><trkpt lat="43.453943124222185" lon="11.7686210177731"><ele>361.8</ele><time>2026-04-16T10:06:54.002Z</time></trkpt><trkpt lat="43.45387973403781" lon="11.768674139215202"><ele>357.6</ele><time>2026-04-16T10:06:55.002Z</time></trkpt><trkpt lat="43.453817160904535" lon="11.76872909595895"><ele>353.4</ele><time>2026-04-16T10:06:56Z</time></trkpt><trkpt lat="43.453701956186706" lon="11.76874712643878"><ele>349.2</ele><time>2026-04-16T10:06:58Z</time></trkpt><trkpt lat="43.45359353874965" lon="11.768788071079431"><ele>345.0</ele><time>2026-04-16T10:07:00Z</time></trkpt><trkpt lat="43.45347680488469" lon="11.768826983541635"><ele>343.8333333333333</ele><time>2026-04-16T10:07:02Z</time></trkpt><trkpt lat="43.45341370770186" lon="11.768835496093924"><ele>342.6666666666667</ele><time>2026-04-16T10:07:03Z</time></trkpt><trkpt lat="43.453448926102105" lon="11.768952312674223"><ele>341.5</ele><time>2026-04-16T10:10:08.001Z</time></trkpt><trkpt lat="43.453541673975266" lon="11.76902593941927"><ele>340.33333333333337</ele><time>2026-04-16T10:10:12.001Z</time></trkpt><trkpt lat="43.45349711071169" lon="11.76909947320105"><ele>339.1666666666667</ele><time>2026-04-16T10:10:15.001Z</time></trkpt><trkpt lat="43.45342114264502" lon="11.769115192811206"><ele>338.0</ele><time>2026-04-16T10:10:17.001Z</time></trkpt><trkpt lat="43.45341668834959" lon="11.769203590024462"><ele>338.0</ele><time>2026-04-16T10:10:19.001Z</time></trkpt><trkpt lat="43.45346375602215" lon="11.76926270966865"><ele>338.0</ele><time>2026-04-16T10:10:20.001Z</time></trkpt><trkpt lat="43.453562171084684" lon="11.76934279226008"><ele>338.0</ele><time>2026-04-16T10:10:22.001Z</time></trkpt><trkpt lat="43.45362617577757" lon="11.769380985883013"><ele>338.0</ele><time>2026-04-16T10:10:23.001Z</time></trkpt><trkpt lat="43.453698537299815" lon="11.769399306672103"><ele>338.0</ele><time>2026-04-16T10:10:24.001Z</time></trkpt><trkpt lat="43.45379139871467" lon="11.769413032574514"><ele>338.0</ele><time>2026-04-16T10:10:26.001Z</time></trkpt><trkpt lat="43.4538588937969" lon="11.769449589399786"><ele>336.1666666666667</ele><time>2026-04-16T10:10:30.002Z</time></trkpt><trkpt lat="43.45392271759927" lon="11.769468454350575"><ele>334.33333333333337</ele><time>2026-04-16T10:10:33.002Z</time></trkpt><trkpt lat="43.45399498526579" lon="11.769451977444035"><ele>332.5</ele><time>2026-04-16T10:10:34.002Z</time></trkpt><trkpt lat="43.454046719419395" lon="11.769549481051394"><ele>330.6666666666667</ele><time>2026-04-16T10:10:36.002Z</time></trkpt><trkpt lat="43.4540862133103" lon="11.769637443983589"><ele>328.8333333333333</ele><time>2026-04-16T10:10:38.002Z</time></trkpt><trkpt lat="43.45419865561294" lon="11.769585595776046"><ele>327.0</ele><time>2026-04-16T10:10:39.002Z</time></trkpt><trkpt lat="43.45429029897724" lon="11.769547792567352"><ele>327.0</ele><time>2026-04-16T10:10:40.002Z</time></trkpt><trkpt lat="43.454408586734864" lon="11.769507946032059"><ele>327.0</ele><time>2026-04-16T10:10:42.002Z</time></trkpt><trkpt lat="43.45450463309669" lon="11.769525034346026"><ele>327.0</ele><time>2026-04-16T10:10:43.002Z</time></trkpt><trkpt lat="43.45457030829756" lon="11.769510213313255"><ele>327.0</ele><time>2026-04-16T10:10:44.002Z</time></trkpt><trkpt lat="43.45472410902398" lon="11.769473626152838"><ele>327.0</ele><time>2026-04-16T10:10:45.002Z</time></trkpt><trkpt lat="43.45484346977563" lon="11.769467941345312"><ele>326.6</ele><time>2026-04-16T10:10:46.002Z</time></trkpt><trkpt lat="43.454932743558366" lon="11.769474357938043"><ele>326.20000000000005</ele><time>2026-04-16T10:10:47.002Z</time></trkpt><trkpt lat="43.45500721155365" lon="11.76947134195815"><ele>325.8</ele><time>2026-04-16T10:10:48.002Z</time></trkpt><trkpt lat="43.45509228447745" lon="11.769485821129422"><ele>325.4</ele><time>2026-04-16T10:10:49.002Z</time></trkpt><trkpt lat="43.455177021533906" lon="11.769453282946367"><ele>325.0</ele><time>2026-04-16T10:10:50.002Z</time></trkpt><trkpt lat="43.45530349402593" lon="11.769423238978495"><ele>327.0</ele><time>2026-04-16T10:10:52.002Z</time></trkpt><trkpt lat="43.45549054513648" lon="11.769457330283613"><ele>329.0</ele><time>2026-04-16T10:11:18.001Z</time></trkpt><trkpt lat="43.45558997943815" lon="11.769506158144663"><ele>331.0</ele><time>2026-04-16T10:11:20.001Z</time></trkpt><trkpt lat="43.45566019891277" lon="11.769546083308912"><ele>333.0</ele><time>2026-04-16T10:11:22.001Z</time></trkpt><trkpt lat="43.45582832580428" lon="11.769506101801017"><ele>333.0</ele><time>2026-04-16T10:11:26.001Z</time></trkpt><trkpt lat="43.45589222936897" lon="11.76947812605632"><ele>333.0</ele><time>2026-04-16T10:11:27.001Z</time></trkpt><trkpt lat="43.455986951086885" lon="11.769417268333694"><ele>333.0</ele><time>2026-04-16T10:11:28.001Z</time></trkpt><trkpt lat="43.456068241552366" lon="11.769360767330591"><ele>333.0</ele><time>2026-04-16T10:11:29.001Z</time></trkpt><trkpt lat="43.45614117728113" lon="11.769312610727347"><ele>333.0</ele><time>2026-04-16T10:11:30.001Z</time></trkpt><trkpt lat="43.45620057265415" lon="11.769262147561571"><ele>333.0</ele><time>2026-04-16T10:11:31.001Z</time></trkpt><trkpt lat="43.456264892586404" lon="11.769210582188807"><ele>333.0</ele><time>2026-04-16T10:11:32.001Z</time></trkpt><trkpt lat="43.45631642111446" lon="11.769144294762496"><ele>333.0</ele><time>2026-04-16T10:11:33.001Z</time></trkpt><trkpt lat="43.456368596994615" lon="11.769231616176356"><ele>333.0</ele><time>2026-04-16T10:11:36.001Z</time></trkpt><trkpt lat="43.45629679307008" lon="11.76930256591088"><ele>333.0</ele><time>2026-04-16T10:11:38.001Z</time></trkpt><trkpt lat="43.456219729725206" lon="11.769341247301659"><ele>333.0</ele><time>2026-04-16T10:11:39.001Z</time></trkpt><trkpt lat="43.45615622678752" lon="11.769374677991092"><ele>333.0</ele><time>2026-04-16T10:11:40.001Z</time></trkpt><trkpt lat="43.45609099262321" lon="11.769417631523394"><ele>333.0</ele><time>2026-04-16T10:11:41.001Z</time></trkpt><trkpt lat="43.45602344495551" lon="11.769478539132718"><ele>333.0</ele><time>2026-04-16T10:11:42.001Z</time></trkpt><trkpt lat="43.455945524715055" lon="11.769525288535572"><ele>333.0</ele><time>2026-04-16T10:11:43.001Z</time></trkpt><trkpt lat="43.45587649817331" lon="11.76955942363986"><ele>333.0</ele><time>2026-04-16T10:11:44.001Z</time></trkpt><trkpt lat="43.45579854147045" lon="11.769603327435977"><ele>333.0</ele><time>2026-04-16T10:11:45.001Z</time></trkpt><trkpt lat="43.45571788417203" lon="11.769652428049714"><ele>333.0</ele><time>2026-04-16T10:11:46.001Z</time></trkpt><trkpt lat="43.4556721770521" lon="11.769729428518996"><ele>333.0</ele><time>2026-04-16T10:11:47.001Z</time></trkpt><trkpt lat="43.4556062779049" lon="11.769752222635192"><ele>333.0</ele><time>2026-04-16T10:11:48.001Z</time></trkpt><trkpt lat="43.45552867742405" lon="11.769756534808012"><ele>333.0</ele><time>2026-04-16T10:11:49.001Z</time></trkpt><trkpt lat="43.45545575396003" lon="11.769759111508577"><ele>333.0</ele><time>2026-04-16T10:11:50.001Z</time></trkpt><trkpt lat="43.45539094639995" lon="11.7698020654732"><ele>333.0</ele><time>2026-04-16T10:11:52.001Z</time></trkpt><trkpt lat="43.455324964742225" lon="11.769929134876175"><ele>333.0</ele><time>2026-04-16T10:11:54.001Z</time></trkpt><trkpt lat="43.455254417628495" lon="11.769947088261745"><ele>331.6666666666667</ele><time>2026-04-16T10:11:57.001Z</time></trkpt><trkpt lat="43.45519422081469" lon="11.769875119447295"><ele>330.3333333333333</ele><time>2026-04-16T10:11:59.001Z</time></trkpt><trkpt lat="43.45510599494245" lon="11.769902641845096"><ele>329.0</ele><time>2026-04-16T10:12:01.001Z</time></trkpt><trkpt lat="43.45504997830616" lon="11.769943005790255"><ele>327.66666666666663</ele><time>2026-04-16T10:12:03.001Z</time></trkpt><trkpt lat="43.454997641178494" lon="11.770055025663575"><ele>326.3333333333333</ele><time>2026-04-16T10:12:05.001Z</time></trkpt><trkpt lat="43.45489255046644" lon="11.770080227142028"><ele>325.0</ele><time>2026-04-16T10:12:08.001Z</time></trkpt><trkpt lat="43.45482135945609" lon="11.770100495817674"><ele>325.0</ele><time>2026-04-16T10:12:09.001Z</time></trkpt><trkpt lat="43.45475781577517" lon="11.770128849533993"><ele>325.0</ele><time>2026-04-16T10:12:10.001Z</time></trkpt><trkpt lat="43.45463270258561" lon="11.770258040152443"><ele>325.0</ele><time>2026-04-16T10:12:12.001Z</time></trkpt><trkpt lat="43.454578166544685" lon="11.770317433579907"><ele>325.0</ele><time>2026-04-16T10:12:13.001Z</time></trkpt><trkpt lat="43.45446259048164" lon="11.77031982816628"><ele>325.0</ele><time>2026-04-16T10:12:15.001Z</time></trkpt><trkpt lat="43.45439408535415" lon="11.770294492621598"><ele>324.4</ele><time>2026-04-16T10:12:16.001Z</time></trkpt><trkpt lat="43.45427189503253" lon="11.770295463651696"><ele>323.8</ele><time>2026-04-16T10:12:18.001Z</time></trkpt><trkpt lat="43.45418686246428" lon="11.770355484817639"><ele>323.20000000000005</ele><time>2026-04-16T10:12:19.001Z</time></trkpt><trkpt lat="43.454117384160675" lon="11.770410501986005"><ele>322.6</ele><time>2026-04-16T10:12:20.001Z</time></trkpt><trkpt lat="43.45405531935154" lon="11.770458280397634"><ele>322.0</ele><time>2026-04-16T10:12:21.001Z</time></trkpt><trkpt lat="43.453929378664405" lon="11.77048333214318"><ele>322.0</ele><time>2026-04-16T10:12:23.001Z</time></trkpt><trkpt lat="43.453810251685425" lon="11.77051650917329"><ele>322.0</ele><time>2026-04-16T10:12:25.001Z</time></trkpt><trkpt lat="43.45373281652732" lon="11.770613668400214"><ele>322.0</ele><time>2026-04-16T10:12:26.001Z</time></trkpt><trkpt lat="43.453645774588324" lon="11.77069371992127"><ele>322.0</ele><time>2026-04-16T10:12:27.001Z</time></trkpt><trkpt lat="43.45356641726627" lon="11.770726481096451"><ele>322.0</ele><time>2026-04-16T10:12:28.001Z</time></trkpt><trkpt lat="43.45350201010617" lon="11.770744589678532"><ele>321.5</ele><time>2026-04-16T10:12:29.001Z</time></trkpt><trkpt lat="43.45343283552637" lon="11.770763915410946"><ele>321.0</ele><time>2026-04-16T10:12:30.001Z</time></trkpt><trkpt lat="43.45336468507892" lon="11.770806626292806"><ele>320.5</ele><time>2026-04-16T10:12:31.001Z</time></trkpt><trkpt lat="43.45330073490174" lon="11.770877828487668"><ele>320.0</ele><time>2026-04-16T10:12:32.001Z</time></trkpt><trkpt lat="43.45324266706047" lon="11.770950401555915"><ele>319.5</ele><time>2026-04-16T10:12:33.001Z</time></trkpt><trkpt lat="43.45319110124891" lon="11.7710203726436"><ele>319.0</ele><time>2026-04-16T10:12:34.001Z</time></trkpt><trkpt lat="43.45311978695093" lon="11.771061212046398"><ele>319.0</ele><time>2026-04-16T10:12:35.001Z</time></trkpt><trkpt lat="43.45304763366048" lon="11.771130202580391"><ele>319.0</ele><time>2026-04-16T10:12:36.001Z</time></trkpt><trkpt lat="43.45297834214424" lon="11.771213482598126"><ele>319.0</ele><time>2026-04-16T10:12:37.001Z</time></trkpt><trkpt lat="43.45290924152368" lon="11.771278996104641"><ele>319.0</ele><time>2026-04-16T10:12:38.001Z</time></trkpt><trkpt lat="43.45285433705886" lon="11.771332157791035"><ele>319.0</ele><time>2026-04-16T10:12:39.001Z</time></trkpt><trkpt lat="43.45281401377652" lon="11.771472277425012"><ele>319.0</ele><time>2026-04-16T10:12:41.001Z</time></trkpt><trkpt lat="43.45274464510882" lon="11.77150240433821"><ele>317.8</ele><time>2026-04-16T10:12:43.001Z</time></trkpt><trkpt lat="43.45267513799459" lon="11.771556053818811"><ele>316.59999999999997</ele><time>2026-04-16T10:12:45.001Z</time></trkpt><trkpt lat="43.4526468233231" lon="11.771647042470477"><ele>315.4</ele><time>2026-04-16T10:12:46.001Z</time></trkpt><trkpt lat="43.452540680157796" lon="11.771738334188504"><ele>314.2</ele><time>2026-04-16T10:12:48.001Z</time></trkpt><trkpt lat="43.452456962777" lon="11.771762079383771"><ele>313.0</ele><time>2026-04-16T10:12:49.001Z</time></trkpt><trkpt lat="43.45237105431797" lon="11.771799304260371"><ele>312.6</ele><time>2026-04-16T10:12:50.001Z</time></trkpt><trkpt lat="43.45233513901908" lon="11.771889171073632"><ele>312.20000000000005</ele><time>2026-04-16T10:12:51.001Z</time></trkpt><trkpt lat="43.45231121044969" lon="11.772030652205663"><ele>311.8</ele><time>2026-04-16T10:12:52.002Z</time></trkpt><trkpt lat="43.45227748677039" lon="11.772145609444513"><ele>311.40000000000003</ele><time>2026-04-16T10:12:53.002Z</time></trkpt><trkpt lat="43.45221444852465" lon="11.77226363803889"><ele>311.0</ele><time>2026-04-16T10:12:54.002Z</time></trkpt><trkpt lat="43.45216684309397" lon="11.772374542104904"><ele>311.0</ele><time>2026-04-16T10:12:55.002Z</time></trkpt><trkpt lat="43.45213115740586" lon="11.772495996455802"><ele>311.0</ele><time>2026-04-16T10:12:56.002Z</time></trkpt><trkpt lat="43.45211157654055" lon="11.772615578934579"><ele>311.0</ele><time>2026-04-16T10:12:57.002Z</time></trkpt><trkpt lat="43.45208178175584" lon="11.772728304579216"><ele>311.0</ele><time>2026-04-16T10:12:58.002Z</time></trkpt><trkpt lat="43.452063703988394" lon="11.772820561302268"><ele>311.0</ele><time>2026-04-16T10:12:59.002Z</time></trkpt><trkpt lat="43.45206046139181" lon="11.772973524464904"><ele>311.0</ele><time>2026-04-16T10:13:01.002Z</time></trkpt><trkpt lat="43.452107969008956" lon="11.773036207601542"><ele>311.0</ele><time>2026-04-16T10:13:02.002Z</time></trkpt><trkpt lat="43.45208800991134" lon="11.773152345126256"><ele>311.0</ele><time>2026-04-16T10:13:04.002Z</time></trkpt><trkpt lat="43.45202392266424" lon="11.773259691155612"><ele>311.0</ele><time>2026-04-16T10:13:05.002Z</time></trkpt><trkpt lat="43.4519720480351" lon="11.773374862625776"><ele>311.0</ele><time>2026-04-16T10:13:06.002Z</time></trkpt><trkpt lat="43.45191228644115" lon="11.773486901184834"><ele>311.0</ele><time>2026-04-16T10:13:07.002Z</time></trkpt><trkpt lat="43.45185374852471" lon="11.773566966471169"><ele>311.0</ele><time>2026-04-16T10:13:08.002Z</time></trkpt><trkpt lat="43.45180027480718" lon="11.773626526927588"><ele>311.0</ele><time>2026-04-16T10:13:09.002Z</time></trkpt><trkpt lat="43.45188011407785" lon="11.773640259904877"><ele>311.0</ele><time>2026-04-16T10:13:17Z</time></trkpt><trkpt lat="43.45198591056118" lon="11.773558079031234"><ele>311.0</ele><time>2026-04-16T10:13:19Z</time></trkpt><trkpt lat="43.452067678084724" lon="11.773458414526996"><ele>311.5</ele><time>2026-04-16T10:13:20Z</time></trkpt><trkpt lat="43.45213141161163" lon="11.773406891096942"><ele>312.0</ele><time>2026-04-16T10:13:21Z</time></trkpt><trkpt lat="43.45220329094887" lon="11.773404950451216"><ele>312.5</ele><time>2026-04-16T10:13:25Z</time></trkpt><trkpt lat="43.45209779313253" lon="11.773547387663227"><ele>313.0</ele><time>2026-04-16T10:13:29Z</time></trkpt><trkpt lat="43.45208149345439" lon="11.773634894199962"><ele>313.5</ele><time>2026-04-16T10:13:31Z</time></trkpt><trkpt lat="43.45204414748211" lon="11.77374631355731"><ele>314.0</ele><time>2026-04-16T10:13:34Z</time></trkpt><trkpt lat="43.45196926927765" lon="11.77379239245948"><ele>312.5</ele><time>2026-04-16T10:13:35Z</time></trkpt><trkpt lat="43.45189740116973" lon="11.773811236295638"><ele>311.0</ele><time>2026-04-16T10:13:36Z</time></trkpt><trkpt lat="43.45184407309081" lon="11.773891557757244"><ele>309.5</ele><time>2026-04-16T10:13:37Z</time></trkpt><trkpt lat="43.45177767176981" lon="11.773991286551357"><ele>308.0</ele><time>2026-04-16T10:13:38Z</time></trkpt><trkpt lat="43.45167655404645" lon="11.774006456998793"><ele>306.5</ele><time>2026-04-16T10:13:40Z</time></trkpt><trkpt lat="43.451610621820265" lon="11.774026217313725"><ele>305.0</ele><time>2026-04-16T10:13:41Z</time></trkpt><trkpt lat="43.45152974295729" lon="11.774089557041156"><ele>305.0</ele><time>2026-04-16T10:13:42Z</time></trkpt><trkpt lat="43.451521213574075" lon="11.774212058092578"><ele>305.0</ele><time>2026-04-16T10:13:47Z</time></trkpt><trkpt lat="43.451538437572154" lon="11.774308081599413"><ele>305.0</ele><time>2026-04-16T10:13:49Z</time></trkpt><trkpt lat="43.45146626409655" lon="11.774286017062206"><ele>305.0</ele><time>2026-04-16T10:13:56Z</time></trkpt><trkpt lat="43.45151285771168" lon="11.77418734419242"><ele>305.0</ele><time>2026-04-16T10:13:59Z</time></trkpt><trkpt lat="43.451524230926424" lon="11.77407846050781"><ele>305.0</ele><time>2026-04-16T10:14:02Z</time></trkpt><trkpt lat="43.45156775398668" lon="11.774000776454974"><ele>305.0</ele><time>2026-04-16T10:14:05Z</time></trkpt><trkpt lat="43.45150594056321" lon="11.774039038855518"><ele>305.0</ele><time>2026-04-16T10:14:12Z</time></trkpt><trkpt lat="43.451450145994116" lon="11.774091940260234"><ele>305.0</ele><time>2026-04-16T10:14:15Z</time></trkpt><trkpt lat="43.45140700648139" lon="11.77419210953001"><ele>305.0</ele><time>2026-04-16T10:14:18.001Z</time></trkpt><trkpt lat="43.4513379441512" lon="11.77423680790343"><ele>305.0</ele><time>2026-04-16T10:14:20.001Z</time></trkpt><trkpt lat="43.451287157767844" lon="11.77429940978582"><ele>305.0</ele><time>2026-04-16T10:14:22.001Z</time></trkpt><trkpt lat="43.451003225199095" lon="11.774647505114444"><ele>304.8</ele><time>2026-04-16T10:14:26.001Z</time></trkpt><trkpt lat="43.45094858882275" lon="11.774761219584367"><ele>304.6</ele><time>2026-04-16T10:14:27.001Z</time></trkpt><trkpt lat="43.45085643292653" lon="11.774868247727559"><ele>304.4</ele><time>2026-04-16T10:14:28.001Z</time></trkpt><trkpt lat="43.4507606671282" lon="11.774912434082156"><ele>304.2</ele><time>2026-04-16T10:14:29.001Z</time></trkpt><trkpt lat="43.45064865952851" lon="11.774945361601826"><ele>304.0</ele><time>2026-04-16T10:14:30.001Z</time></trkpt><trkpt lat="43.45052386009551" lon="11.774955538116147"><ele>302.59999999999997</ele><time>2026-04-16T10:14:31.001Z</time></trkpt><trkpt lat="43.450419591828066" lon="11.774988992572704"><ele>301.2</ele><time>2026-04-16T10:14:32.001Z</time></trkpt><trkpt lat="43.45031440674139" lon="11.775034232231485"><ele>299.79999999999995</ele><time>2026-04-16T10:14:33.001Z</time></trkpt><trkpt lat="43.45020165796201" lon="11.775073814153236"><ele>298.4</ele><time>2026-04-16T10:14:34.001Z</time></trkpt><trkpt lat="43.45010636554431" lon="11.775144168657315"><ele>297.0</ele><time>2026-04-16T10:14:35.001Z</time></trkpt><trkpt lat="43.450041092895965" lon="11.775170876950723"><ele>297.0</ele><time>2026-04-16T10:14:36.001Z</time></trkpt><trkpt lat="43.44994129430158" lon="11.775168082853389"><ele>297.0</ele><time>2026-04-16T10:14:38.001Z</time></trkpt><trkpt lat="43.44989727693712" lon="11.775089388952885"><ele>297.0</ele><time>2026-04-16T10:14:39.001Z</time></trkpt><trkpt lat="43.4499059098828" lon="11.774986570461841"><ele>297.0</ele><time>2026-04-16T10:14:43.001Z</time></trkpt><trkpt lat="43.45001868403894" lon="11.77491798373526"><ele>297.0</ele><time>2026-04-16T10:14:45.001Z</time></trkpt><trkpt lat="43.45007967308179" lon="11.774875960456098"><ele>297.0</ele><time>2026-04-16T10:14:46.001Z</time></trkpt><trkpt lat="43.45016320468922" lon="11.774781710926497"><ele>297.0</ele><time>2026-04-16T10:14:48.001Z</time></trkpt><trkpt lat="43.45022040792397" lon="11.774708628130439"><ele>297.0</ele><time>2026-04-16T10:14:50.001Z</time></trkpt><trkpt lat="43.4503275854378" lon="11.774648694033933"><ele>297.0</ele><time>2026-04-16T10:14:52.001Z</time></trkpt><trkpt lat="43.450456806381936" lon="11.774613637401474"><ele>297.0</ele><time>2026-04-16T10:14:54.001Z</time></trkpt><trkpt lat="43.45055977586084" lon="11.774544084025358"><ele>297.0</ele><time>2026-04-16T10:14:56.001Z</time></trkpt><trkpt lat="43.4506501860162" lon="11.77446285591044"><ele>298.1666666666667</ele><time>2026-04-16T10:14:58.001Z</time></trkpt><trkpt lat="43.450690563615666" lon="11.774394283771159"><ele>299.3333333333333</ele><time>2026-04-16T10:14:59.001Z</time></trkpt><trkpt lat="43.450717533436546" lon="11.774305137657716"><ele>300.5</ele><time>2026-04-16T10:15:00.001Z</time></trkpt><trkpt lat="43.45077985832274" lon="11.7742009230309"><ele>301.66666666666663</ele><time>2026-04-16T10:15:01.001Z</time></trkpt><trkpt lat="43.450844546624566" lon="11.77412536976886"><ele>302.8333333333333</ele><time>2026-04-16T10:15:02.001Z</time></trkpt><trkpt lat="43.45088788576829" lon="11.774056191598905"><ele>304.0</ele><time>2026-04-16T10:15:03.001Z</time></trkpt><trkpt lat="43.45093216539746" lon="11.773972641407543"><ele>304.16666666666663</ele><time>2026-04-16T10:15:04.001Z</time></trkpt><trkpt lat="43.450983889686206" lon="11.773890086703762"><ele>304.3333333333333</ele><time>2026-04-16T10:15:05.001Z</time></trkpt><trkpt lat="43.45105937390634" lon="11.773822011439053"><ele>304.5</ele><time>2026-04-16T10:15:06.001Z</time></trkpt><trkpt lat="43.451122331904486" lon="11.773757604412035"><ele>304.6666666666667</ele><time>2026-04-16T10:15:07.001Z</time></trkpt><trkpt lat="43.451206669957216" lon="11.773689267404503"><ele>304.83333333333337</ele><time>2026-04-16T10:15:08.001Z</time></trkpt><trkpt lat="43.45127580470032" lon="11.773615882795971"><ele>305.0</ele><time>2026-04-16T10:15:09.001Z</time></trkpt><trkpt lat="43.451326802215" lon="11.77356356082503"><ele>305.8571428571429</ele><time>2026-04-16T10:15:10.001Z</time></trkpt><trkpt lat="43.451360904907844" lon="11.773481958757912"><ele>306.71428571428567</ele><time>2026-04-16T10:15:13.001Z</time></trkpt><trkpt lat="43.45139146688476" lon="11.773378887600941"><ele>307.57142857142856</ele><time>2026-04-16T10:15:15.001Z</time></trkpt><trkpt lat="43.45135522203346" lon="11.773284437409924"><ele>308.42857142857144</ele><time>2026-04-16T10:15:16.001Z</time></trkpt><trkpt lat="43.451305427370826" lon="11.77319619615872"><ele>309.28571428571433</ele><time>2026-04-16T10:15:17.001Z</time></trkpt><trkpt lat="43.45127431503857" lon="11.773119141016602"><ele>310.1428571428571</ele><time>2026-04-16T10:15:18.001Z</time></trkpt><trkpt lat="43.45126437732916" lon="11.77302701096805"><ele>311.0</ele><time>2026-04-16T10:15:19.001Z</time></trkpt><trkpt lat="43.451263220767125" lon="11.772819295325625"><ele>312.8</ele><time>2026-04-16T10:15:20.999Z</time></trkpt><trkpt lat="43.45128872105574" lon="11.772711792451743"><ele>314.6</ele><time>2026-04-16T10:15:21.999Z</time></trkpt><trkpt lat="43.451333594280186" lon="11.772609752465621"><ele>316.4</ele><time>2026-04-16T10:15:22.999Z</time></trkpt><trkpt lat="43.451427546509194" lon="11.7725053843405"><ele>318.2</ele><time>2026-04-16T10:15:23.999Z</time></trkpt><trkpt lat="43.45150287894425" lon="11.772394134703562"><ele>320.0</ele><time>2026-04-16T10:15:24.999Z</time></trkpt><trkpt lat="43.451580593062566" lon="11.772275555365011"><ele>320.0</ele><time>2026-04-16T10:15:25.999Z</time></trkpt><trkpt lat="43.451654936390625" lon="11.772185950388675"><ele>320.0</ele><time>2026-04-16T10:15:26.999Z</time></trkpt><trkpt lat="43.451728043834926" lon="11.7720729453558"><ele>320.0</ele><time>2026-04-16T10:15:27.999Z</time></trkpt><trkpt lat="43.451797400196604" lon="11.771969004307758"><ele>320.0</ele><time>2026-04-16T10:15:28.999Z</time></trkpt><trkpt lat="43.45186227291685" lon="11.771850885610347"><ele>320.0</ele><time>2026-04-16T10:15:29.999Z</time></trkpt><trkpt lat="43.45192350940933" lon="11.771740049799387"><ele>318.6</ele><time>2026-04-16T10:15:30.999Z</time></trkpt><trkpt lat="43.4519633027925" lon="11.771639124160917"><ele>317.2</ele><time>2026-04-16T10:15:31.999Z</time></trkpt><trkpt lat="43.451987991560905" lon="11.771512820262334"><ele>315.8</ele><time>2026-04-16T10:15:32.999Z</time></trkpt><trkpt lat="43.452017735397156" lon="11.771383758819745"><ele>314.4</ele><time>2026-04-16T10:15:33.999Z</time></trkpt><trkpt lat="43.45205745096389" lon="11.771301547672142"><ele>313.0</ele><time>2026-04-16T10:15:34.999Z</time></trkpt><trkpt lat="43.45220605526644" lon="11.771234426918479"><ele>313.0</ele><time>2026-04-16T10:15:52Z</time></trkpt><trkpt lat="43.45226617011068" lon="11.771182287057208"><ele>313.0</ele><time>2026-04-16T10:15:53Z</time></trkpt><trkpt lat="43.452313578718424" lon="11.77111962525122"><ele>313.0</ele><time>2026-04-16T10:15:54Z</time></trkpt><trkpt lat="43.45236679596693" lon="11.771034736685486"><ele>313.0</ele><time>2026-04-16T10:15:55Z</time></trkpt><trkpt lat="43.45244690772386" lon="11.770971884772479"><ele>313.0</ele><time>2026-04-16T10:15:56Z</time></trkpt><trkpt lat="43.452510756561416" lon="11.770915518251373"><ele>313.0</ele><time>2026-04-16T10:15:57Z</time></trkpt><trkpt lat="43.45256356306326" lon="11.770851019835197"><ele>314.8</ele><time>2026-04-16T10:15:59Z</time></trkpt><trkpt lat="43.45262720285912" lon="11.77083769170583"><ele>316.6</ele><time>2026-04-16T10:16:00Z</time></trkpt><trkpt lat="43.45272228719178" lon="11.770700272495715"><ele>318.40000000000003</ele><time>2026-04-16T10:16:02Z</time></trkpt><trkpt lat="43.45279980915103" lon="11.770637726876542"><ele>320.20000000000005</ele><time>2026-04-16T10:16:03Z</time></trkpt><trkpt lat="43.45287660392439" lon="11.770542914377101"><ele>322.0</ele><time>2026-04-16T10:16:05Z</time></trkpt><trkpt lat="43.452901752300434" lon="11.770448104770928"><ele>322.0</ele><time>2026-04-16T10:16:08Z</time></trkpt><trkpt lat="43.452918289409176" lon="11.770358328756215"><ele>322.0</ele><time>2026-04-16T10:16:13Z</time></trkpt><trkpt lat="43.45293155817956" lon="11.7702527479672"><ele>322.0</ele><time>2026-04-16T10:16:15Z</time></trkpt><trkpt lat="43.45290457838773" lon="11.77011065908183"><ele>322.0</ele><time>2026-04-16T10:16:17Z</time></trkpt><trkpt lat="43.45286172688017" lon="11.769964798691891"><ele>322.0</ele><time>2026-04-16T10:16:19Z</time></trkpt><trkpt lat="43.45284240649553" lon="11.769855076991451"><ele>322.0</ele><time>2026-04-16T10:16:20Z</time></trkpt><trkpt lat="43.45285221221473" lon="11.769694845531175"><ele>323.8333333333333</ele><time>2026-04-16T10:16:22Z</time></trkpt><trkpt lat="43.45281480686845" lon="11.769565490954319"><ele>325.66666666666663</ele><time>2026-04-16T10:16:24Z</time></trkpt><trkpt lat="43.45280169576108" lon="11.769469434992548"><ele>327.5</ele><time>2026-04-16T10:16:25Z</time></trkpt><trkpt lat="43.45278550229782" lon="11.769379329030558"><ele>329.3333333333333</ele><time>2026-04-16T10:16:26Z</time></trkpt><trkpt lat="43.45275855515811" lon="11.769266247329092"><ele>331.1666666666667</ele><time>2026-04-16T10:16:27Z</time></trkpt><trkpt lat="43.45271635405928" lon="11.769177967708043"><ele>333.0</ele><time>2026-04-16T10:16:28Z</time></trkpt><trkpt lat="43.45269766705296" lon="11.769088533201337"><ele>334.1666666666667</ele><time>2026-04-16T10:16:30Z</time></trkpt><trkpt lat="43.452681127421904" lon="11.76895182350521"><ele>335.3333333333333</ele><time>2026-04-16T10:16:32Z</time></trkpt><trkpt lat="43.452651685124906" lon="11.768839298041286"><ele>336.5</ele><time>2026-04-16T10:16:33Z</time></trkpt><trkpt lat="43.45260421945318" lon="11.76876051386217"><ele>337.66666666666663</ele><time>2026-04-16T10:16:34Z</time></trkpt><trkpt lat="43.45255095500649" lon="11.76870939333835"><ele>338.8333333333333</ele><time>2026-04-16T10:16:35Z</time></trkpt><trkpt lat="43.45252309736173" lon="11.768619227914892"><ele>340.0</ele><time>2026-04-16T10:16:37Z</time></trkpt><trkpt lat="43.45248577032858" lon="11.768547654176068"><ele>341.16666666666663</ele><time>2026-04-16T10:16:39.001Z</time></trkpt><trkpt lat="43.45243360848507" lon="11.768463898636124"><ele>342.3333333333333</ele><time>2026-04-16T10:16:40.001Z</time></trkpt><trkpt lat="43.45235529019745" lon="11.768380512502556"><ele>343.5</ele><time>2026-04-16T10:16:41.001Z</time></trkpt><trkpt lat="43.45229516765151" lon="11.76833653829929"><ele>344.6666666666667</ele><time>2026-04-16T10:16:43.001Z</time></trkpt><trkpt lat="43.45227633539608" lon="11.768234335164617"><ele>345.83333333333337</ele><time>2026-04-16T10:16:45.001Z</time></trkpt><trkpt lat="43.45226941061918" lon="11.768132245324619"><ele>347.0</ele><time>2026-04-16T10:16:49.001Z</time></trkpt><trkpt lat="43.452260392941376" lon="11.76803966097436"><ele>347.0</ele><time>2026-04-16T10:24:48.001Z</time></trkpt><trkpt lat="43.45224635252688" lon="11.76794633655859"><ele>347.0</ele><time>2026-04-16T10:24:51.001Z</time></trkpt><trkpt lat="43.45219722719336" lon="11.767864299208595"><ele>347.0</ele><time>2026-04-16T10:24:53.001Z</time></trkpt><trkpt lat="43.45213869468741" lon="11.76776248016916"><ele>347.0</ele><time>2026-04-16T10:24:57.001Z</time></trkpt><trkpt lat="43.45206116644414" lon="11.767742960112066"><ele>347.0</ele><time>2026-04-16T10:24:59.001Z</time></trkpt><trkpt lat="43.45200548754151" lon="11.767679948912997"><ele>347.0</ele><time>2026-04-16T10:25:03.001Z</time></trkpt><trkpt lat="43.45195546183248" lon="11.767580276511229"><ele>349.83333333333337</ele><time>2026-04-16T10:25:07.001Z</time></trkpt><trkpt lat="43.45188150980875" lon="11.76753343860157"><ele>352.6666666666667</ele><time>2026-04-16T10:25:09.001Z</time></trkpt><trkpt lat="43.45179499963111" lon="11.767511953785691"><ele>355.5</ele><time>2026-04-16T10:25:11.001Z</time></trkpt><trkpt lat="43.451692273723786" lon="11.7674784808592"><ele>358.3333333333333</ele><time>2026-04-16T10:25:13.002Z</time></trkpt><trkpt lat="43.45162131780035" lon="11.76744864480838"><ele>361.16666666666663</ele><time>2026-04-16T10:25:14.002Z</time></trkpt><trkpt lat="43.451560718521804" lon="11.767405859864963"><ele>364.0</ele><time>2026-04-16T10:25:16.002Z</time></trkpt><trkpt lat="43.45149032412247" lon="11.7674093105838"><ele>364.0</ele><time>2026-04-16T10:25:18.002Z</time></trkpt><trkpt lat="43.45140788869676" lon="11.767347641151616"><ele>364.0</ele><time>2026-04-16T10:25:20.002Z</time></trkpt><trkpt lat="43.45135508397777" lon="11.767295602606403"><ele>364.0</ele><time>2026-04-16T10:25:21.002Z</time></trkpt><trkpt lat="43.45127913530448" lon="11.76727103622688"><ele>364.0</ele><time>2026-04-16T10:25:23.002Z</time></trkpt><trkpt lat="43.45119725352215" lon="11.76721771990803"><ele>364.0</ele><time>2026-04-16T10:25:25.002Z</time></trkpt><trkpt lat="43.451123104213536" lon="11.767214773971446"><ele>364.0</ele><time>2026-04-16T10:25:28.002Z</time></trkpt><trkpt lat="43.45105148155316" lon="11.767171943831855"><ele>365.66666666666663</ele><time>2026-04-16T10:25:31.002Z</time></trkpt><trkpt lat="43.45100685023577" lon="11.767066276968364"><ele>367.3333333333333</ele><time>2026-04-16T10:26:03Z</time></trkpt><trkpt lat="43.4510501468135" lon="11.76694468967641"><ele>369.0</ele><time>2026-04-16T10:26:06Z</time></trkpt><trkpt lat="43.451058116800596" lon="11.766825603421763"><ele>370.6666666666667</ele><time>2026-04-16T10:26:08Z</time></trkpt><trkpt lat="43.45105635973088" lon="11.766728998935157"><ele>372.33333333333337</ele><time>2026-04-16T10:26:09Z</time></trkpt><trkpt lat="43.45107180873986" lon="11.76659411859957"><ele>374.0</ele><time>2026-04-16T10:26:11Z</time></trkpt><trkpt lat="43.45108808098891" lon="11.766491598341679"><ele>374.0</ele><time>2026-04-16T10:26:13Z</time></trkpt><trkpt lat="43.451105407219586" lon="11.766404950472642"><ele>374.0</ele><time>2026-04-16T10:26:21Z</time></trkpt><trkpt lat="43.45117944637814" lon="11.766199548223375"><ele>374.0</ele><time>2026-04-16T10:26:50.001Z</time></trkpt><trkpt lat="43.45121500835399" lon="11.766126946663528"><ele>374.0</ele><time>2026-04-16T10:26:51.001Z</time></trkpt><trkpt lat="43.45128688828075" lon="11.766102084353005"><ele>374.0</ele><time>2026-04-16T10:26:52.001Z</time></trkpt><trkpt lat="43.45134713127945" lon="11.766070423483583"><ele>374.0</ele><time>2026-04-16T10:26:53.001Z</time></trkpt><trkpt lat="43.45145868538232" lon="11.766003528437384"><ele>374.0</ele><time>2026-04-16T10:26:55.001Z</time></trkpt><trkpt lat="43.451527138546474" lon="11.765960474123393"><ele>374.0</ele><time>2026-04-16T10:26:56.001Z</time></trkpt><trkpt lat="43.45160435123622" lon="11.76592211280004"><ele>374.0</ele><time>2026-04-16T10:26:57.001Z</time></trkpt><trkpt lat="43.4516842687467" lon="11.765901529516174"><ele>374.0</ele><time>2026-04-16T10:26:58.001Z</time></trkpt><trkpt lat="43.45175446921699" lon="11.765879114570863"><ele>374.0</ele><time>2026-04-16T10:26:59.001Z</time></trkpt><trkpt lat="43.45182137066735" lon="11.765853144600886"><ele>374.0</ele><time>2026-04-16T10:27:00.001Z</time></trkpt><trkpt lat="43.45189086183214" lon="11.765847841647648"><ele>374.0</ele><time>2026-04-16T10:27:01.001Z</time></trkpt><trkpt lat="43.45195777007601" lon="11.765832738839304"><ele>374.0</ele><time>2026-04-16T10:27:02.001Z</time></trkpt><trkpt lat="43.45202882052045" lon="11.76581546464525"><ele>374.0</ele><time>2026-04-16T10:27:03.001Z</time></trkpt><trkpt lat="43.452103814354" lon="11.765783318360224"><ele>374.0</ele><time>2026-04-16T10:27:04.001Z</time></trkpt><trkpt lat="43.45217063020149" lon="11.765735465759406"><ele>374.0</ele><time>2026-04-16T10:27:05.001Z</time></trkpt><trkpt lat="43.45225042820646" lon="11.765678248551536"><ele>374.0</ele><time>2026-04-16T10:27:06.001Z</time></trkpt><trkpt lat="43.45232835892877" lon="11.765670041695694"><ele>374.6666666666667</ele><time>2026-04-16T10:27:07.001Z</time></trkpt><trkpt lat="43.452397577213084" lon="11.765687078291117"><ele>375.33333333333337</ele><time>2026-04-16T10:27:08.001Z</time></trkpt><trkpt lat="43.45249764939376" lon="11.765632783010942"><ele>376.0</ele><time>2026-04-16T10:27:10.001Z</time></trkpt><trkpt lat="43.45260365380401" lon="11.765621360766268"><ele>376.6666666666667</ele><time>2026-04-16T10:27:12.001Z</time></trkpt><trkpt lat="43.45267877056547" lon="11.76561523142931"><ele>377.3333333333333</ele><time>2026-04-16T10:27:13.001Z</time></trkpt><trkpt lat="43.45274978475825" lon="11.765613471350262"><ele>378.0</ele><time>2026-04-16T10:27:14.001Z</time></trkpt><trkpt lat="43.452818798325836" lon="11.76561273439008"><ele>378.0</ele><time>2026-04-16T10:27:15.001Z</time></trkpt><trkpt lat="43.45289403680027" lon="11.765593564093122"><ele>378.0</ele><time>2026-04-16T10:27:16.001Z</time></trkpt><trkpt lat="43.45297268701044" lon="11.765601337229468"><ele>378.0</ele><time>2026-04-16T10:27:17.001Z</time></trkpt><trkpt lat="43.45305668461067" lon="11.765593360714993"><ele>378.0</ele><time>2026-04-16T10:27:18.001Z</time></trkpt><trkpt lat="43.45310978077459" lon="11.765661957584527"><ele>378.0</ele><time>2026-04-16T10:27:20.001Z</time></trkpt><trkpt lat="43.453104836267826" lon="11.765753294830347"><ele>378.0</ele><time>2026-04-16T10:27:21.001Z</time></trkpt><trkpt lat="43.45314693286132" lon="11.765847976937701"><ele>380.0</ele><time>2026-04-16T10:27:23.001Z</time></trkpt><trkpt lat="43.453215583208" lon="11.765844581790626"><ele>382.0</ele><time>2026-04-16T10:27:25.001Z</time></trkpt><trkpt lat="43.4532960786379" lon="11.765886207743034"><ele>384.0</ele><time>2026-04-16T10:27:27.001Z</time></trkpt><trkpt lat="43.45336112042873" lon="11.765941089059513"><ele>386.0</ele><time>2026-04-16T10:27:29.001Z</time></trkpt><trkpt lat="43.453472043660675" lon="11.765998908760045"><ele>388.0</ele><time>2026-04-16T10:27:31.001Z</time></trkpt><trkpt lat="43.453534894842676" lon="11.766026425816879"><ele>390.0</ele><time>2026-04-16T10:27:32.001Z</time></trkpt><trkpt lat="43.453582147186616" lon="11.766090924157487"><ele>390.0</ele><time>2026-04-16T10:27:33.001Z</time></trkpt><trkpt lat="43.453660944262786" lon="11.766118030233102"><ele>390.0</ele><time>2026-04-16T10:27:35.001Z</time></trkpt><trkpt lat="43.453704010414405" lon="11.766035209046603"><ele>390.0</ele><time>2026-04-16T10:27:36.001Z</time></trkpt><trkpt lat="43.45373777073233" lon="11.765958808244353"><ele>390.0</ele><time>2026-04-16T10:27:37.001Z</time></trkpt><trkpt lat="43.45383446924578" lon="11.765937505778448"><ele>390.0</ele><time>2026-04-16T10:27:39.001Z</time></trkpt><trkpt lat="43.453918946081494" lon="11.765943033505918"><ele>390.0</ele><time>2026-04-16T10:27:40.001Z</time></trkpt><trkpt lat="43.4539978654926" lon="11.765932913853007"><ele>394.0</ele><time>2026-04-16T10:27:41.002Z</time></trkpt><trkpt lat="43.454084224798954" lon="11.76592875253968"><ele>398.0</ele><time>2026-04-16T10:27:42.002Z</time></trkpt><trkpt lat="43.45415393762136" lon="11.765923582926467"><ele>402.0</ele><time>2026-04-16T10:27:43.002Z</time></trkpt><trkpt lat="43.454283660490425" lon="11.765838033928377"><ele>406.0</ele><time>2026-04-16T10:27:45.002Z</time></trkpt><trkpt lat="43.45436973400954" lon="11.765799291720109"><ele>410.0</ele><time>2026-04-16T10:27:46.002Z</time></trkpt><trkpt lat="43.454458427183205" lon="11.765756891926253"><ele>410.0</ele><time>2026-04-16T10:27:48.002Z</time></trkpt><trkpt lat="43.45456367901797" lon="11.765823698366493"><ele>410.0</ele><time>2026-04-16T10:27:56Z</time></trkpt><trkpt lat="43.454640172042346" lon="11.765795289872996"><ele>410.0</ele><time>2026-04-16T10:27:58Z</time></trkpt><trkpt lat="43.45468101195759" lon="11.76590384636963"><ele>410.0</ele><time>2026-04-16T10:28:01Z</time></trkpt><trkpt lat="43.45469619085626" lon="11.76600563514597"><ele>410.0</ele><time>2026-04-16T10:28:02Z</time></trkpt><trkpt lat="43.45469340909677" lon="11.766148517271967"><ele>408.16666666666663</ele><time>2026-04-16T10:28:04Z</time></trkpt><trkpt lat="43.45461329768729" lon="11.766243734971427"><ele>406.3333333333333</ele><time>2026-04-16T10:28:06Z</time></trkpt><trkpt lat="43.45462104693566" lon="11.76634432205825"><ele>404.5</ele><time>2026-04-16T10:28:08Z</time></trkpt><trkpt lat="43.45468667235079" lon="11.766421263786961"><ele>402.66666666666663</ele><time>2026-04-16T10:28:14Z</time></trkpt><trkpt lat="43.454641509619535" lon="11.7665310934294"><ele>400.8333333333333</ele><time>2026-04-16T10:28:18Z</time></trkpt><trkpt lat="43.45462973679419" lon="11.766631394429117"><ele>399.0</ele><time>2026-04-16T10:28:20Z</time></trkpt><trkpt lat="43.45463786035257" lon="11.76671758279305"><ele>398.6666666666667</ele><time>2026-04-16T10:28:22Z</time></trkpt><trkpt lat="43.45467650009391" lon="11.766786592996734"><ele>398.33333333333337</ele><time>2026-04-16T10:28:23Z</time></trkpt><trkpt lat="43.45469673353964" lon="11.766909132242924"><ele>398.0</ele><time>2026-04-16T10:28:25Z</time></trkpt><trkpt lat="43.454744441987785" lon="11.766966214811807"><ele>397.6666666666667</ele><time>2026-04-16T10:28:27Z</time></trkpt><trkpt lat="43.45479405551145" lon="11.767063934155162"><ele>397.33333333333337</ele><time>2026-04-16T10:28:29Z</time></trkpt><trkpt lat="43.45482493686908" lon="11.767141557592277"><ele>397.0</ele><time>2026-04-16T10:28:30Z</time></trkpt><trkpt lat="43.45483561237503" lon="11.767256764933924"><ele>394.00000000000006</ele><time>2026-04-16T10:28:32Z</time></trkpt><trkpt lat="43.45479831999935" lon="11.767337989249656"><ele>391.0</ele><time>2026-04-16T10:28:34Z</time></trkpt><trkpt lat="43.454768648916705" lon="11.767433954753612"><ele>388.0</ele><time>2026-04-16T10:28:36Z</time></trkpt><trkpt lat="43.454790855332945" lon="11.767557548494711"><ele>385.0</ele><time>2026-04-16T10:28:37Z</time></trkpt><trkpt lat="43.454801900887624" lon="11.767683558695904"><ele>382.0</ele><time>2026-04-16T10:28:38Z</time></trkpt><trkpt lat="43.4547785662188" lon="11.767775458232986"><ele>379.0</ele><time>2026-04-16T10:28:39Z</time></trkpt><trkpt lat="43.454768721762306" lon="11.767877933845185"><ele>376.8333333333333</ele><time>2026-04-16T10:28:40Z</time></trkpt><trkpt lat="43.45471744554228" lon="11.767971442397027"><ele>374.66666666666663</ele><time>2026-04-16T10:28:41Z</time></trkpt><trkpt lat="43.45466218686433" lon="11.768050083396528"><ele>372.5</ele><time>2026-04-16T10:28:42Z</time></trkpt><trkpt lat="43.454590401510664" lon="11.768109759770828"><ele>370.3333333333333</ele><time>2026-04-16T10:28:43Z</time></trkpt><trkpt lat="43.454511911325135" lon="11.768159981259267"><ele>368.1666666666667</ele><time>2026-04-16T10:28:44Z</time></trkpt><trkpt lat="43.45443846372679" lon="11.768199917131442"><ele>366.0</ele><time>2026-04-16T10:28:45Z</time></trkpt><trkpt lat="43.45437286580006" lon="11.768243262719137"><ele>366.0</ele><time>2026-04-16T10:28:46Z</time></trkpt><trkpt lat="43.45430589622207" lon="11.768305663560351"><ele>366.0</ele><time>2026-04-16T10:28:47.001Z</time></trkpt><trkpt lat="43.45423535741901" lon="11.768364299864908"><ele>366.0</ele><time>2026-04-16T10:28:48.001Z</time></trkpt><trkpt lat="43.45412568006729" lon="11.768462387798646"><ele>366.0</ele><time>2026-04-16T10:28:50.001Z</time></trkpt><trkpt lat="43.454065816408516" lon="11.768526636458505"><ele>366.0</ele><time>2026-04-16T10:28:51.001Z</time></trkpt><trkpt lat="43.45400147812723" lon="11.76856741789034"><ele>366.0</ele><time>2026-04-16T10:28:52.001Z</time></trkpt><trkpt lat="43.453922770398904" lon="11.768620720859024"><ele>361.8</ele><time>2026-04-16T10:28:53.001Z</time></trkpt><trkpt lat="43.45384444034587" lon="11.768683722611566"><ele>357.6</ele><time>2026-04-16T10:28:54.001Z</time></trkpt><trkpt lat="43.45378591591045" lon="11.768737381056615"><ele>353.4</ele><time>2026-04-16T10:28:55.001Z</time></trkpt><trkpt lat="43.45366861400844" lon="11.768742148181444"><ele>349.2</ele><time>2026-04-16T10:28:57.001Z</time></trkpt><trkpt lat="43.45359240257117" lon="11.76877200840621"><ele>345.0</ele><time>2026-04-16T10:28:58.001Z</time></trkpt><trkpt lat="43.45349467408933" lon="11.7688113371457"><ele>343.8333333333333</ele><time>2026-04-16T10:29:00.001Z</time></trkpt><trkpt lat="43.453400813921654" lon="11.768807126044626"><ele>342.6666666666667</ele><time>2026-04-16T10:29:02.001Z</time></trkpt><trkpt lat="43.453440172112934" lon="11.768931738322056"><ele>341.5</ele><time>2026-04-16T10:29:05.001Z</time></trkpt><trkpt lat="43.45350725483198" lon="11.768997514245005"><ele>340.33333333333337</ele><time>2026-04-16T10:29:07.001Z</time></trkpt><trkpt lat="43.453560467908225" lon="11.769063567067857"><ele>339.1666666666667</ele><time>2026-04-16T10:29:10.001Z</time></trkpt><trkpt lat="43.453498052031605" lon="11.769118149667044"><ele>338.0</ele><time>2026-04-16T10:29:12.001Z</time></trkpt><trkpt lat="43.453434524218636" lon="11.769133057324831"><ele>338.0</ele><time>2026-04-16T10:29:14.001Z</time></trkpt><trkpt lat="43.45347264702713" lon="11.769250124220918"><ele>338.0</ele><time>2026-04-16T10:29:16.001Z</time></trkpt><trkpt lat="43.45358100006711" lon="11.769304195900585"><ele>338.0</ele><time>2026-04-16T10:29:18.001Z</time></trkpt><trkpt lat="43.45370196483259" lon="11.769339872323854"><ele>338.0</ele><time>2026-04-16T10:29:20.001Z</time></trkpt><trkpt lat="43.45380247857028" lon="11.769391506094907"><ele>338.0</ele><time>2026-04-16T10:29:22.001Z</time></trkpt><trkpt lat="43.453861214166324" lon="11.769442911962969"><ele>336.1666666666667</ele><time>2026-04-16T10:29:25.001Z</time></trkpt><trkpt lat="43.45399887674573" lon="11.769396315305524"><ele>334.33333333333337</ele><time>2026-04-16T10:29:27.001Z</time></trkpt><trkpt lat="43.45407978904928" lon="11.769416396107768"><ele>332.5</ele><time>2026-04-16T10:29:28.001Z</time></trkpt><trkpt lat="43.45413982548034" lon="11.769472716144026"><ele>330.6666666666667</ele><time>2026-04-16T10:29:29.001Z</time></trkpt><trkpt lat="43.45419636559626" lon="11.769511205568632"><ele>328.8333333333333</ele><time>2026-04-16T10:29:30.001Z</time></trkpt><trkpt lat="43.454264670074785" lon="11.76951624870101"><ele>327.0</ele><time>2026-04-16T10:29:31.001Z</time></trkpt><trkpt lat="43.45433532710609" lon="11.769508220143194"><ele>327.0</ele><time>2026-04-16T10:29:32.001Z</time></trkpt><trkpt lat="43.45440582777541" lon="11.769517560885564"><ele>327.0</ele><time>2026-04-16T10:29:33.001Z</time></trkpt><trkpt lat="43.45451467728901" lon="11.769496574171727"><ele>327.0</ele><time>2026-04-16T10:29:35.001Z</time></trkpt><trkpt lat="43.4546123626708" lon="11.769433998545823"><ele>327.0</ele><time>2026-04-16T10:29:37.001Z</time></trkpt><trkpt lat="43.45469224923774" lon="11.769416948952735"><ele>327.0</ele><time>2026-04-16T10:29:38.001Z</time></trkpt><trkpt lat="43.45483243482457" lon="11.76941116301077"><ele>326.6666666666667</ele><time>2026-04-16T10:29:40.001Z</time></trkpt><trkpt lat="43.45495884239828" lon="11.76944272146134"><ele>326.3333333333333</ele><time>2026-04-16T10:29:42.001Z</time></trkpt><trkpt lat="43.45503190055084" lon="11.769450648876939"><ele>326.0</ele><time>2026-04-16T10:29:43.002Z</time></trkpt><trkpt lat="43.45510408980774" lon="11.769467950709126"><ele>325.66666666666663</ele><time>2026-04-16T10:29:44.002Z</time></trkpt><trkpt lat="43.45516961037513" lon="11.769463682179047"><ele>325.3333333333333</ele><time>2026-04-16T10:29:45.002Z</time></trkpt><trkpt lat="43.45524482729519" lon="11.769429723631614"><ele>325.0</ele><time>2026-04-16T10:29:46.002Z</time></trkpt><trkpt lat="43.455312437881915" lon="11.76941570532471"><ele>325.0</ele><time>2026-04-16T10:29:47.002Z</time></trkpt><trkpt lat="43.45542708097949" lon="11.769436376262094"><ele>325.0</ele><time>2026-04-16T10:29:49.002Z</time></trkpt><trkpt lat="43.45552657983169" lon="11.769466682798614"><ele>325.0</ele><time>2026-04-16T10:29:51.002Z</time></trkpt><trkpt lat="43.455594234966426" lon="11.769470781639912"><ele>325.0</ele><time>2026-04-16T10:29:52.002Z</time></trkpt><trkpt lat="43.45566872588106" lon="11.769548570163172"><ele>325.0</ele><time>2026-04-16T10:29:54.002Z</time></trkpt><trkpt lat="43.455768163922386" lon="11.769507911366212"><ele>325.3333333333333</ele><time>2026-04-16T10:29:57.002Z</time></trkpt><trkpt lat="43.4558802589401" lon="11.769480706823362"><ele>325.66666666666663</ele><time>2026-04-16T10:29:59.002Z</time></trkpt><trkpt lat="43.45593445268586" lon="11.76943245201991"><ele>326.0</ele><time>2026-04-16T10:30:01.002Z</time></trkpt><trkpt lat="43.45599868319308" lon="11.769400516375217"><ele>326.3333333333333</ele><time>2026-04-16T10:30:01.998Z</time></trkpt><trkpt lat="43.45607341775381" lon="11.76934990966864"><ele>326.6666666666667</ele><time>2026-04-16T10:30:02.998Z</time></trkpt><trkpt lat="43.456150359686305" lon="11.769314932391982"><ele>327.0</ele><time>2026-04-16T10:30:03.998Z</time></trkpt><trkpt lat="43.456204528687664" lon="11.769267564632894"><ele>327.0</ele><time>2026-04-16T10:30:04.998Z</time></trkpt><trkpt lat="43.456268278153985" lon="11.76921064061044"><ele>327.0</ele><time>2026-04-16T10:30:05.998Z</time></trkpt><trkpt lat="43.45632346309418" lon="11.769126440549798"><ele>327.0</ele><time>2026-04-16T10:30:06.999Z</time></trkpt><trkpt lat="43.45636311322304" lon="11.769232986361352"><ele>327.0</ele><time>2026-04-16T10:30:09.999Z</time></trkpt><trkpt lat="43.456249491708505" lon="11.769318894196418"><ele>327.0</ele><time>2026-04-16T10:30:11.999Z</time></trkpt><trkpt lat="43.456169877044964" lon="11.76937090816291"><ele>328.0</ele><time>2026-04-16T10:30:12.999Z</time></trkpt><trkpt lat="43.45609562678894" lon="11.769418094544926"><ele>329.0</ele><time>2026-04-16T10:30:13.999Z</time></trkpt><trkpt lat="43.45603758366286" lon="11.76947605678684"><ele>330.0</ele><time>2026-04-16T10:30:14.999Z</time></trkpt><trkpt lat="43.45598601525008" lon="11.769534981640117"><ele>331.0</ele><time>2026-04-16T10:30:15.999Z</time></trkpt><trkpt lat="43.455902055750634" lon="11.769559827996307"><ele>332.0</ele><time>2026-04-16T10:30:16.999Z</time></trkpt><trkpt lat="43.45584036044245" lon="11.769597937076105"><ele>333.0</ele><time>2026-04-16T10:30:17.999Z</time></trkpt><trkpt lat="43.45575815946575" lon="11.76965373881645"><ele>333.0</ele><time>2026-04-16T10:30:18.999Z</time></trkpt><trkpt lat="43.45567818365994" lon="11.76971879485228"><ele>333.0</ele><time>2026-04-16T10:30:19.999Z</time></trkpt><trkpt lat="43.45561636948164" lon="11.769763562573807"><ele>333.0</ele><time>2026-04-16T10:30:20.999Z</time></trkpt><trkpt lat="43.45549614169078" lon="11.769767221711177"><ele>333.0</ele><time>2026-04-16T10:30:22.999Z</time></trkpt><trkpt lat="43.455429901826086" lon="11.769786256619044"><ele>333.0</ele><time>2026-04-16T10:30:23.999Z</time></trkpt><trkpt lat="43.45535590411393" lon="11.76983992251639"><ele>333.0</ele><time>2026-04-16T10:30:24.999Z</time></trkpt><trkpt lat="43.45530680184748" lon="11.769915797540513"><ele>331.8571428571429</ele><time>2026-04-16T10:30:25.999Z</time></trkpt><trkpt lat="43.455266245673776" lon="11.76998514686381"><ele>330.71428571428567</ele><time>2026-04-16T10:30:26.999Z</time></trkpt><trkpt lat="43.45519640389127" lon="11.769886324275328"><ele>329.57142857142856</ele><time>2026-04-16T10:30:30Z</time></trkpt><trkpt lat="43.455130045617224" lon="11.769901064750114"><ele>328.42857142857144</ele><time>2026-04-16T10:30:32Z</time></trkpt><trkpt lat="43.45505581997066" lon="11.769934174811723"><ele>327.28571428571433</ele><time>2026-04-16T10:30:34Z</time></trkpt><trkpt lat="43.45500446695502" lon="11.77000602031028"><ele>326.1428571428571</ele><time>2026-04-16T10:30:36Z</time></trkpt><trkpt lat="43.4549799087598" lon="11.77008780460754"><ele>325.0</ele><time>2026-04-16T10:30:38Z</time></trkpt><trkpt lat="43.45486062353977" lon="11.770095232064397"><ele>325.0</ele><time>2026-04-16T10:30:41Z</time></trkpt><trkpt lat="43.454799830692906" lon="11.770127056328324"><ele>325.0</ele><time>2026-04-16T10:30:42Z</time></trkpt><trkpt lat="43.45472952964248" lon="11.770156382539767"><ele>325.0</ele><time>2026-04-16T10:30:43Z</time></trkpt><trkpt lat="43.45464725307641" lon="11.7702757254544"><ele>325.0</ele><time>2026-04-16T10:30:45Z</time></trkpt><trkpt lat="43.454594626209044" lon="11.770327011358717"><ele>325.0</ele><time>2026-04-16T10:30:46Z</time></trkpt><trkpt lat="43.4545233953756" lon="11.770368447959024"><ele>325.0</ele><time>2026-04-16T10:30:47Z</time></trkpt><trkpt lat="43.45440895563239" lon="11.770311932934163"><ele>324.4</ele><time>2026-04-16T10:30:49Z</time></trkpt><trkpt lat="43.4543043208374" lon="11.77034886298618"><ele>323.8</ele><time>2026-04-16T10:30:51Z</time></trkpt><trkpt lat="43.45422962927271" lon="11.770382040590171"><ele>323.20000000000005</ele><time>2026-04-16T10:30:52Z</time></trkpt><trkpt lat="43.45415340576087" lon="11.770399341463367"><ele>322.6</ele><time>2026-04-16T10:30:53Z</time></trkpt><trkpt lat="43.45409125460009" lon="11.770464619153122"><ele>322.0</ele><time>2026-04-16T10:30:54Z</time></trkpt><trkpt lat="43.45397998111359" lon="11.770482108551287"><ele>322.0</ele><time>2026-04-16T10:30:56Z</time></trkpt><trkpt lat="43.4539136519247" lon="11.77049007269855"><ele>322.0</ele><time>2026-04-16T10:30:57Z</time></trkpt><trkpt lat="43.4538483823509" lon="11.770539070749475"><ele>322.0</ele><time>2026-04-16T10:30:58Z</time></trkpt><trkpt lat="43.4537863664697" lon="11.770611476514071"><ele>322.0</ele><time>2026-04-16T10:30:59Z</time></trkpt><trkpt lat="43.453719451231706" lon="11.770667920272533"><ele>322.0</ele><time>2026-04-16T10:31:00Z</time></trkpt><trkpt lat="43.453647522992064" lon="11.770711819299493"><ele>322.0</ele><time>2026-04-16T10:31:01Z</time></trkpt><trkpt lat="43.45357264674199" lon="11.770739756470524"><ele>321.5</ele><time>2026-04-16T10:31:02Z</time></trkpt><trkpt lat="43.4534991290854" lon="11.770746954167729"><ele>321.0</ele><time>2026-04-16T10:31:03Z</time></trkpt><trkpt lat="43.45342852746741" lon="11.770771875821053"><ele>320.5</ele><time>2026-04-16T10:31:04Z</time></trkpt><trkpt lat="43.453358911343194" lon="11.770826065757836"><ele>320.0</ele><time>2026-04-16T10:31:05.001Z</time></trkpt><trkpt lat="43.45329609119292" lon="11.77089857241418"><ele>319.5</ele><time>2026-04-16T10:31:06.001Z</time></trkpt><trkpt lat="43.453234915127155" lon="11.770974390128256"><ele>319.0</ele><time>2026-04-16T10:31:07.001Z</time></trkpt><trkpt lat="43.45317715145512" lon="11.771033187380679"><ele>319.0</ele><time>2026-04-16T10:31:08.001Z</time></trkpt><trkpt lat="43.45310433759524" lon="11.771070579082572"><ele>319.0</ele><time>2026-04-16T10:31:09.001Z</time></trkpt><trkpt lat="43.4530327278674" lon="11.771130157546791"><ele>319.0</ele><time>2026-04-16T10:31:10.001Z</time></trkpt><trkpt lat="43.45297239964369" lon="11.771197701991714"><ele>319.0</ele><time>2026-04-16T10:31:11.001Z</time></trkpt><trkpt lat="43.45291563180297" lon="11.771251026991726"><ele>319.0</ele><time>2026-04-16T10:31:12.001Z</time></trkpt><trkpt lat="43.45285828898828" lon="11.771326791680151"><ele>319.0</ele><time>2026-04-16T10:31:13.001Z</time></trkpt><trkpt lat="43.452801458401886" lon="11.771464001622489"><ele>317.8</ele><time>2026-04-16T10:31:15.001Z</time></trkpt><trkpt lat="43.45270869706827" lon="11.77150184137678"><ele>316.59999999999997</ele><time>2026-04-16T10:31:18.001Z</time></trkpt><trkpt lat="43.452649170380056" lon="11.771638669317671"><ele>315.4</ele><time>2026-04-16T10:31:20.001Z</time></trkpt><trkpt lat="43.45259944101877" lon="11.77171509301853"><ele>314.2</ele><time>2026-04-16T10:31:21.001Z</time></trkpt><trkpt lat="43.452520981790926" lon="11.771745930044872"><ele>313.0</ele><time>2026-04-16T10:31:22.001Z</time></trkpt><trkpt lat="43.45238885896947" lon="11.771801906141377"><ele>312.66666666666663</ele><time>2026-04-16T10:31:24.001Z</time></trkpt><trkpt lat="43.452345953959146" lon="11.771883841558294"><ele>312.3333333333333</ele><time>2026-04-16T10:31:25.001Z</time></trkpt><trkpt lat="43.45231676353749" lon="11.772010578652312"><ele>312.0</ele><time>2026-04-16T10:31:26.001Z</time></trkpt><trkpt lat="43.4522950629757" lon="11.77211248021555"><ele>311.6666666666667</ele><time>2026-04-16T10:31:27.001Z</time></trkpt><trkpt lat="43.452227760337486" lon="11.772204492505423"><ele>311.33333333333337</ele><time>2026-04-16T10:31:28.001Z</time></trkpt><trkpt lat="43.45218804184945" lon="11.772294750364884"><ele>311.0</ele><time>2026-04-16T10:31:29.001Z</time></trkpt><trkpt lat="43.45215732209482" lon="11.772421035209192"><ele>311.0</ele><time>2026-04-16T10:31:30.001Z</time></trkpt><trkpt lat="43.45212510698701" lon="11.772537678875876"><ele>311.0</ele><time>2026-04-16T10:31:31.001Z</time></trkpt><trkpt lat="43.45210356780343" lon="11.772654431550906"><ele>311.0</ele><time>2026-04-16T10:31:32.001Z</time></trkpt><trkpt lat="43.45208225190447" lon="11.772748938990237"><ele>311.0</ele><time>2026-04-16T10:31:33.001Z</time></trkpt><trkpt lat="43.45209416659265" lon="11.772878243957736"><ele>311.0</ele><time>2026-04-16T10:31:35.001Z</time></trkpt><trkpt lat="43.45211581827277" lon="11.772960596641495"><ele>311.0</ele><time>2026-04-16T10:31:36.001Z</time></trkpt><trkpt lat="43.45210387357097" lon="11.773069888075703"><ele>311.0</ele><time>2026-04-16T10:31:38.001Z</time></trkpt><trkpt lat="43.45203616389871" lon="11.773178719274785"><ele>311.0</ele><time>2026-04-16T10:31:39.001Z</time></trkpt><trkpt lat="43.451988880179215" lon="11.773281806244162"><ele>311.0</ele><time>2026-04-16T10:31:40.001Z</time></trkpt><trkpt lat="43.45195996742573" lon="11.773364107478145"><ele>311.0</ele><time>2026-04-16T10:31:41.001Z</time></trkpt><trkpt lat="43.45192647490241" lon="11.773448986157023"><ele>311.0</ele><time>2026-04-16T10:31:42.001Z</time></trkpt><trkpt lat="43.45187765402737" lon="11.773531245520942"><ele>311.0</ele><time>2026-04-16T10:31:43.001Z</time></trkpt><trkpt lat="43.451822659286634" lon="11.773577786258427"><ele>311.0</ele><time>2026-04-16T10:31:44.001Z</time></trkpt><trkpt lat="43.45195242985528" lon="11.77354098100484"><ele>311.0</ele><time>2026-04-16T10:31:50.002Z</time></trkpt><trkpt lat="43.45201358166329" lon="11.773484377798662"><ele>311.0</ele><time>2026-04-16T10:31:51.002Z</time></trkpt><trkpt lat="43.45207529865247" lon="11.773406309119178"><ele>311.0</ele><time>2026-04-16T10:31:52.002Z</time></trkpt><trkpt lat="43.452142299295915" lon="11.77340192685278"><ele>311.0</ele><time>2026-04-16T10:31:54.002Z</time></trkpt><trkpt lat="43.45205946161436" lon="11.773561121260697"><ele>309.8</ele><time>2026-04-16T10:32:02.002Z</time></trkpt><trkpt lat="43.452028676231116" lon="11.773658108752176"><ele>308.6</ele><time>2026-04-16T10:32:03.002Z</time></trkpt><trkpt lat="43.45201808136996" lon="11.773829053448075"><ele>307.4</ele><time>2026-04-16T10:32:05.002Z</time></trkpt><trkpt lat="43.45195857006457" lon="11.773954708365626"><ele>306.2</ele><time>2026-04-16T10:32:07.002Z</time></trkpt><trkpt lat="43.45185243868018" lon="11.773972373194923"><ele>305.0</ele><time>2026-04-16T10:32:08.999Z</time></trkpt><trkpt lat="43.451794578609785" lon="11.774046029144806"><ele>305.0</ele><time>2026-04-16T10:32:09.999Z</time></trkpt><trkpt lat="43.45171884297659" lon="11.774103154034487"><ele>305.0</ele><time>2026-04-16T10:32:11.999Z</time></trkpt><trkpt lat="43.45159949596618" lon="11.774099664403247"><ele>305.0</ele><time>2026-04-16T10:32:13.999Z</time></trkpt><trkpt lat="43.451531766844525" lon="11.774129583667"><ele>305.0</ele><time>2026-04-16T10:32:15.999Z</time></trkpt><trkpt lat="43.45153712345968" lon="11.774258199598695"><ele>305.0</ele><time>2026-04-16T10:32:18.999Z</time></trkpt><trkpt lat="43.451553111909284" lon="11.774345919816055"><ele>305.0</ele><time>2026-04-16T10:32:21.999Z</time></trkpt><trkpt lat="43.45147572670958" lon="11.77426381620807"><ele>305.0</ele><time>2026-04-16T10:32:29Z</time></trkpt><trkpt lat="43.45156407097558" lon="11.774091187627278"><ele>305.0</ele><time>2026-04-16T10:32:32Z</time></trkpt><trkpt lat="43.45158767838485" lon="11.773992734239473"><ele>305.0</ele><time>2026-04-16T10:32:34Z</time></trkpt><trkpt lat="43.451598442715785" lon="11.773890204302534"><ele>305.0</ele><time>2026-04-16T10:32:38Z</time></trkpt><trkpt lat="43.45155919500329" lon="11.773966392691738"><ele>305.0</ele><time>2026-04-16T10:32:41Z</time></trkpt><trkpt lat="43.451510829621554" lon="11.774057290469091"><ele>305.0</ele><time>2026-04-16T10:32:43Z</time></trkpt><trkpt lat="43.45141816400896" lon="11.774115228549293"><ele>305.0</ele><time>2026-04-16T10:32:46Z</time></trkpt><trkpt lat="43.451354622352376" lon="11.774216449108291"><ele>305.0</ele><time>2026-04-16T10:32:48Z</time></trkpt><trkpt lat="43.45130695469553" lon="11.77429668558576"><ele>305.0</ele><time>2026-04-16T10:32:50Z</time></trkpt><trkpt lat="43.45125876750283" lon="11.774353422605353"><ele>305.0</ele><time>2026-04-16T10:32:51Z</time></trkpt><trkpt lat="43.45118409177992" lon="11.774426202029161"><ele>305.0</ele><time>2026-04-16T10:32:54Z</time></trkpt><trkpt lat="43.45113710065196" lon="11.774503800600593"><ele>304.5</ele><time>2026-04-16T10:32:56Z</time></trkpt><trkpt lat="43.450791242718815" lon="11.774832197183184"><ele>304.0</ele><time>2026-04-16T10:32:58Z</time></trkpt><trkpt lat="43.45073072047287" lon="11.774919636230363"><ele>304.0</ele><time>2026-04-16T10:32:59.001Z</time></trkpt><trkpt lat="43.45065013124097" lon="11.774928492137644"><ele>304.0</ele><time>2026-04-16T10:33:00.001Z</time></trkpt><trkpt lat="43.45052857190341" lon="11.774945145136332"><ele>304.0</ele><time>2026-04-16T10:33:02.001Z</time></trkpt><trkpt lat="43.450394709830405" lon="11.774996791023684"><ele>304.0</ele><time>2026-04-16T10:33:03.001Z</time></trkpt><trkpt lat="43.450309913017485" lon="11.775063639817853"><ele>304.0</ele><time>2026-04-16T10:33:04.001Z</time></trkpt><trkpt lat="43.45022473902121" lon="11.775071444053467"><ele>305.0</ele><time>2026-04-16T10:33:05.001Z</time></trkpt><trkpt lat="43.450148284634935" lon="11.775077376226111"><ele>306.0</ele><time>2026-04-16T10:33:06.001Z</time></trkpt><trkpt lat="43.45009358287687" lon="11.77515544033039"><ele>307.0</ele><time>2026-04-16T10:33:07.001Z</time></trkpt><trkpt lat="43.45002431890868" lon="11.775189962471124"><ele>308.0</ele><time>2026-04-16T10:33:08.001Z</time></trkpt><trkpt lat="43.449948377680585" lon="11.775117594332405"><ele>309.0</ele><time>2026-04-16T10:33:10.001Z</time></trkpt><trkpt lat="43.44984917611142" lon="11.77504475347826"><ele>310.0</ele><time>2026-04-16T10:33:14.001Z</time></trkpt><trkpt lat="43.44977729423577" lon="11.775062823575093"><ele>308.66666666666663</ele><time>2026-04-16T10:33:16.001Z</time></trkpt><trkpt lat="43.449697146514225" lon="11.775070959046149"><ele>307.3333333333333</ele><time>2026-04-16T10:33:18.001Z</time></trkpt><trkpt lat="43.449612899076826" lon="11.77509435927931"><ele>306.0</ele><time>2026-04-16T10:33:20.001Z</time></trkpt><trkpt lat="43.44955622759793" lon="11.775136366620313"><ele>304.6666666666667</ele><time>2026-04-16T10:33:22.001Z</time></trkpt><trkpt lat="43.44948567658903" lon="11.77520982986217"><ele>303.33333333333337</ele><time>2026-04-16T10:33:25.001Z</time></trkpt><trkpt lat="43.449423423200344" lon="11.775259486291537"><ele>302.0</ele><time>2026-04-16T10:33:27.001Z</time></trkpt><trkpt lat="43.44933155341612" lon="11.775272126824044"><ele>302.0</ele><time>2026-04-16T10:33:29.001Z</time></trkpt><trkpt lat="43.44922884680192" lon="11.775294333660225"><ele>302.0</ele><time>2026-04-16T10:33:31.001Z</time></trkpt><trkpt lat="43.44916464913313" lon="11.775337366404436"><ele>302.0</ele><time>2026-04-16T10:33:32.001Z</time></trkpt><trkpt lat="43.449102043244174" lon="11.775362465969776"><ele>302.0</ele><time>2026-04-16T10:33:33.001Z</time></trkpt><trkpt lat="43.4489825162643" lon="11.775392645049426"><ele>302.0</ele><time>2026-04-16T10:33:35.001Z</time></trkpt><trkpt lat="43.44885275030752" lon="11.775403763611767"><ele>300.0</ele><time>2026-04-16T10:33:37.001Z</time></trkpt><trkpt lat="43.448746556011024" lon="11.775454502636567"><ele>298.0</ele><time>2026-04-16T10:33:39.001Z</time></trkpt><trkpt lat="43.4486622234265" lon="11.775475785385453"><ele>296.0</ele><time>2026-04-16T10:33:41.002Z</time></trkpt><trkpt lat="43.44853382645641" lon="11.77547566191761"><ele>294.0</ele><time>2026-04-16T10:33:43.002Z</time></trkpt><trkpt lat="43.448438770574754" lon="11.77548499321461"><ele>292.0</ele><time>2026-04-16T10:33:45.002Z</time></trkpt><trkpt lat="43.44832550736762" lon="11.775527174521995"><ele>292.0</ele><time>2026-04-16T10:33:47.002Z</time></trkpt><trkpt lat="43.448243459011564" lon="11.775532639621023"><ele>292.0</ele><time>2026-04-16T10:33:48.002Z</time></trkpt><trkpt lat="43.44817782403916" lon="11.775560410746461"><ele>292.0</ele><time>2026-04-16T10:33:49.002Z</time></trkpt><trkpt lat="43.44806940587562" lon="11.775588255661116"><ele>292.0</ele><time>2026-04-16T10:33:51.002Z</time></trkpt><trkpt lat="43.44797257870382" lon="11.775585955614444"><ele>292.0</ele><time>2026-04-16T10:33:53.002Z</time></trkpt><trkpt lat="43.44788835547902" lon="11.775601330748382"><ele>292.0</ele><time>2026-04-16T10:33:56.002Z</time></trkpt><trkpt lat="43.44778789365951" lon="11.775658225107405"><ele>290.66666666666663</ele><time>2026-04-16T10:34:00.002Z</time></trkpt><trkpt lat="43.44768237937831" lon="11.775689766909636"><ele>289.3333333333333</ele><time>2026-04-16T10:34:02.002Z</time></trkpt><trkpt lat="43.447616606550625" lon="11.775738536276226"><ele>288.0</ele><time>2026-04-16T10:34:04.002Z</time></trkpt><trkpt lat="43.447530524590285" lon="11.775762324712804"><ele>286.6666666666667</ele><time>2026-04-16T10:34:07.002Z</time></trkpt><trkpt lat="43.44746123859781" lon="11.775783600724207"><ele>285.33333333333337</ele><time>2026-04-16T10:34:09.002Z</time></trkpt><trkpt lat="43.44737920718558" lon="11.775782586347933"><ele>284.0</ele><time>2026-04-16T10:34:11.002Z</time></trkpt><trkpt lat="43.4473109593783" lon="11.775788349926886"><ele>284.0</ele><time>2026-04-16T10:34:12.002Z</time></trkpt><trkpt lat="43.447223618359565" lon="11.775826990231828"><ele>284.0</ele><time>2026-04-16T10:34:13.999Z</time></trkpt><trkpt lat="43.44712798243174" lon="11.775845604871074"><ele>284.0</ele><time>2026-04-16T10:34:19.999Z</time></trkpt><trkpt lat="43.447044046811534" lon="11.775842623692425"><ele>284.0</ele><time>2026-04-16T10:34:21.999Z</time></trkpt><trkpt lat="43.44696123757084" lon="11.775855047997316"><ele>284.0</ele><time>2026-04-16T10:34:23.999Z</time></trkpt><trkpt lat="43.446871272669995" lon="11.775868884540321"><ele>284.0</ele><time>2026-04-16T10:34:25.999Z</time></trkpt><trkpt lat="43.44678653196926" lon="11.775901734442312"><ele>282.83333333333337</ele><time>2026-04-16T10:34:27.999Z</time></trkpt><trkpt lat="43.44670094978137" lon="11.775916731321685"><ele>281.6666666666667</ele><time>2026-04-16T10:34:30Z</time></trkpt><trkpt lat="43.44664729083275" lon="11.775963898586188"><ele>280.5</ele><time>2026-04-16T10:34:38Z</time></trkpt><trkpt lat="43.44671504508074" lon="11.775913273567735"><ele>279.3333333333333</ele><time>2026-04-16T10:34:46Z</time></trkpt><trkpt lat="43.446807062965206" lon="11.775887484681954"><ele>278.16666666666663</ele><time>2026-04-16T10:34:48Z</time></trkpt><trkpt lat="43.44688649001376" lon="11.775857581636387"><ele>277.0</ele><time>2026-04-16T10:34:50Z</time></trkpt><trkpt lat="43.44696605286845" lon="11.775854582717036"><ele>277.0</ele><time>2026-04-16T10:34:52Z</time></trkpt><trkpt lat="43.4470536750848" lon="11.775849206056817"><ele>277.0</ele><time>2026-04-16T10:34:54Z</time></trkpt><trkpt lat="43.447128120386765" lon="11.77584068741989"><ele>277.0</ele><time>2026-04-16T10:34:56Z</time></trkpt><trkpt lat="43.447245822101195" lon="11.775817969630344"><ele>277.0</ele><time>2026-04-16T10:34:58Z</time></trkpt><trkpt lat="43.447331779537244" lon="11.775796418533263"><ele>277.0</ele><time>2026-04-16T10:35:00.001Z</time></trkpt><trkpt lat="43.44743384511229" lon="11.775778707595178"><ele>278.16666666666663</ele><time>2026-04-16T10:35:02.001Z</time></trkpt><trkpt lat="43.44752100849831" lon="11.775767157131027"><ele>279.3333333333333</ele><time>2026-04-16T10:35:05.001Z</time></trkpt><trkpt lat="43.44761039599496" lon="11.775744699384354"><ele>280.5</ele><time>2026-04-16T10:38:09.003Z</time></trkpt><trkpt lat="43.447692818871936" lon="11.775732631625395"><ele>281.6666666666667</ele><time>2026-04-16T10:38:11.003Z</time></trkpt><trkpt lat="43.4477827238399" lon="11.775686665914792"><ele>282.83333333333337</ele><time>2026-04-16T10:38:13.003Z</time></trkpt><trkpt lat="43.447846084714314" lon="11.775700677634632"><ele>284.0</ele><time>2026-04-16T10:38:15.003Z</time></trkpt><trkpt lat="43.44791027395255" lon="11.775710595479927"><ele>285.59999999999997</ele><time>2026-04-16T10:38:16.003Z</time></trkpt><trkpt lat="43.44802372554325" lon="11.775699163253023"><ele>287.2</ele><time>2026-04-16T10:38:18.003Z</time></trkpt><trkpt lat="43.44809251878155" lon="11.775731366398238"><ele>288.79999999999995</ele><time>2026-04-16T10:38:19.003Z</time></trkpt><trkpt lat="43.4481585923601" lon="11.775745685160292"><ele>290.4</ele><time>2026-04-16T10:38:20.003Z</time></trkpt><trkpt lat="43.4482819281321" lon="11.775747200578657"><ele>292.0</ele><time>2026-04-16T10:38:22.003Z</time></trkpt><trkpt lat="43.44836017937624" lon="11.77573205669097"><ele>292.0</ele><time>2026-04-16T10:38:23.003Z</time></trkpt><trkpt lat="43.448452543245" lon="11.775703525605236"><ele>292.0</ele><time>2026-04-16T10:38:24.003Z</time></trkpt><trkpt lat="43.44854157028313" lon="11.77570121302928"><ele>292.0</ele><time>2026-04-16T10:38:25.003Z</time></trkpt><trkpt lat="43.44860694633673" lon="11.775690137330173"><ele>292.0</ele><time>2026-04-16T10:38:26.002Z</time></trkpt><trkpt lat="43.44867355893412" lon="11.775719210050399"><ele>292.0</ele><time>2026-04-16T10:38:27.002Z</time></trkpt><trkpt lat="43.44877183132059" lon="11.775745322689467"><ele>292.0</ele><time>2026-04-16T10:38:29.002Z</time></trkpt><trkpt lat="43.44882014492404" lon="11.77567685162132"><ele>294.0</ele><time>2026-04-16T10:38:30.002Z</time></trkpt><trkpt lat="43.448964502730874" lon="11.775677074799342"><ele>296.0</ele><time>2026-04-16T10:38:32.002Z</time></trkpt><trkpt lat="43.4490498520812" lon="11.775709505775543"><ele>298.0</ele><time>2026-04-16T10:38:33.002Z</time></trkpt><trkpt lat="43.44913852702327" lon="11.775707333797753"><ele>300.0</ele><time>2026-04-16T10:38:34.002Z</time></trkpt><trkpt lat="43.449215846094006" lon="11.775703538068331"><ele>302.0</ele><time>2026-04-16T10:38:35.002Z</time></trkpt><trkpt lat="43.44929110657964" lon="11.775712842305305"><ele>302.0</ele><time>2026-04-16T10:38:36.001Z</time></trkpt><trkpt lat="43.44936868348237" lon="11.775705935352418"><ele>302.0</ele><time>2026-04-16T10:38:37.001Z</time></trkpt><trkpt lat="43.44948777497949" lon="11.775752393411123"><ele>302.0</ele><time>2026-04-16T10:38:39.001Z</time></trkpt><trkpt lat="43.44958451026384" lon="11.775765064315477"><ele>302.0</ele><time>2026-04-16T10:38:41.001Z</time></trkpt><trkpt lat="43.4496569408993" lon="11.775750226044533"><ele>302.0</ele><time>2026-04-16T10:38:42.001Z</time></trkpt><trkpt lat="43.449735296155765" lon="11.775772189989377"><ele>303.6</ele><time>2026-04-16T10:38:43.001Z</time></trkpt><trkpt lat="43.44981552259823" lon="11.775811064241765"><ele>305.2</ele><time>2026-04-16T10:38:44.001Z</time></trkpt><trkpt lat="43.44990723938432" lon="11.775810617865341"><ele>306.8</ele><time>2026-04-16T10:38:45.001Z</time></trkpt><trkpt lat="43.449997110667304" lon="11.77579045608152"><ele>308.4</ele><time>2026-04-16T10:38:46.001Z</time></trkpt><trkpt lat="43.450071584714756" lon="11.775799178082455"><ele>310.0</ele><time>2026-04-16T10:38:47.001Z</time></trkpt><trkpt lat="43.450188810453945" lon="11.775720277888881"><ele>310.0</ele><time>2026-04-16T10:38:49.001Z</time></trkpt><trkpt lat="43.45027044846468" lon="11.775663948173138"><ele>310.0</ele><time>2026-04-16T10:38:50.001Z</time></trkpt><trkpt lat="43.450339201690895" lon="11.775609159263636"><ele>310.0</ele><time>2026-04-16T10:38:51.001Z</time></trkpt><trkpt lat="43.450403266597135" lon="11.775584352279127"><ele>310.0</ele><time>2026-04-16T10:38:52.001Z</time></trkpt><trkpt lat="43.45048665021334" lon="11.775572325030467"><ele>310.0</ele><time>2026-04-16T10:38:54.001Z</time></trkpt><trkpt lat="43.45061116223682" lon="11.775528200048987"><ele>312.3333333333333</ele><time>2026-04-16T10:38:56.001Z</time></trkpt><trkpt lat="43.45067926831356" lon="11.775502153880126"><ele>314.66666666666663</ele><time>2026-04-16T10:38:57.001Z</time></trkpt><trkpt lat="43.45079303215763" lon="11.775518569783339"><ele>317.0</ele><time>2026-04-16T10:38:59.001Z</time></trkpt><trkpt lat="43.45085939103519" lon="11.775506920649576"><ele>319.3333333333333</ele><time>2026-04-16T10:39:00.001Z</time></trkpt><trkpt lat="43.45092945814942" lon="11.775504951976975"><ele>321.6666666666667</ele><time>2026-04-16T10:39:01.001Z</time></trkpt><trkpt lat="43.450993598894954" lon="11.775490421195096"><ele>324.0</ele><time>2026-04-16T10:39:02.001Z</time></trkpt><trkpt lat="43.45111150167922" lon="11.775470395573043"><ele>324.0</ele><time>2026-04-16T10:39:04.001Z</time></trkpt><trkpt lat="43.4511823908947" lon="11.775454037102657"><ele>324.0</ele><time>2026-04-16T10:39:05.001Z</time></trkpt><trkpt lat="43.45125328848336" lon="11.775440544604745"><ele>324.0</ele><time>2026-04-16T10:39:06.001Z</time></trkpt><trkpt lat="43.451326280102066" lon="11.775423171063968"><ele>324.0</ele><time>2026-04-16T10:39:07.001Z</time></trkpt><trkpt lat="43.45138938145319" lon="11.775422795403147"><ele>324.0</ele><time>2026-04-16T10:39:08.001Z</time></trkpt><trkpt lat="43.45148251146641" lon="11.775431755257122"><ele>324.0</ele><time>2026-04-16T10:39:10.001Z</time></trkpt><trkpt lat="43.45155915776744" lon="11.775435645567493"><ele>326.79999999999995</ele><time>2026-04-16T10:39:12.001Z</time></trkpt><trkpt lat="43.45165417483964" lon="11.775471962696678"><ele>329.59999999999997</ele><time>2026-04-16T10:39:14.001Z</time></trkpt><trkpt lat="43.451785028802476" lon="11.775497822186574"><ele>332.4</ele><time>2026-04-16T10:39:16.001Z</time></trkpt><trkpt lat="43.45185051823915" lon="11.775519713403646"><ele>335.2</ele><time>2026-04-16T10:39:17.001Z</time></trkpt><trkpt lat="43.4519599644637" lon="11.775572806723899"><ele>338.0</ele><time>2026-04-16T10:39:19.002Z</time></trkpt><trkpt lat="43.4520407788604" lon="11.775612650881376"><ele>338.0</ele><time>2026-04-16T10:39:20.002Z</time></trkpt><trkpt lat="43.452102929662836" lon="11.77563395338172"><ele>338.0</ele><time>2026-04-16T10:39:21.002Z</time></trkpt><trkpt lat="43.45218424280232" lon="11.775701909110497"><ele>338.0</ele><time>2026-04-16T10:39:22.002Z</time></trkpt><trkpt lat="43.45229984770193" lon="11.775771423055225"><ele>338.0</ele><time>2026-04-16T10:39:24.002Z</time></trkpt><trkpt lat="43.45237583894847" lon="11.775796629551454"><ele>338.0</ele><time>2026-04-16T10:39:25.002Z</time></trkpt><trkpt lat="43.45244763289707" lon="11.775870304618419"><ele>339.0</ele><time>2026-04-16T10:39:26.002Z</time></trkpt><trkpt lat="43.45254284531334" lon="11.775875490594553"><ele>340.0</ele><time>2026-04-16T10:39:28.002Z</time></trkpt><trkpt lat="43.45260407351096" lon="11.775844957864738"><ele>341.0</ele><time>2026-04-16T10:39:29.002Z</time></trkpt><trkpt lat="43.45269970075383" lon="11.775768808282457"><ele>342.0</ele><time>2026-04-16T10:39:31.002Z</time></trkpt><trkpt lat="43.45274936750337" lon="11.775696872682698"><ele>343.0</ele><time>2026-04-16T10:39:32.002Z</time></trkpt><trkpt lat="43.4527912165545" lon="11.775608441404675"><ele>344.0</ele><time>2026-04-16T10:39:33.002Z</time></trkpt><trkpt lat="43.45283064457293" lon="11.775490451249434"><ele>344.0</ele><time>2026-04-16T10:39:35.002Z</time></trkpt><trkpt lat="43.45285832251697" lon="11.775389867911112"><ele>344.0</ele><time>2026-04-16T10:39:37.002Z</time></trkpt><trkpt lat="43.452900503852355" lon="11.775620923688077"><ele>344.0</ele><time>2026-04-16T10:39:41.002Z</time></trkpt><trkpt lat="43.45289452357216" lon="11.775723648366249"><ele>344.0</ele><time>2026-04-16T10:39:42.002Z</time></trkpt><trkpt lat="43.45286831373314" lon="11.77583891456678"><ele>344.0</ele><time>2026-04-16T10:39:43.002Z</time></trkpt><trkpt lat="43.45279635352975" lon="11.775982955728825"><ele>346.33333333333337</ele><time>2026-04-16T10:39:45.002Z</time></trkpt><trkpt lat="43.45272211188792" lon="11.776076489579857"><ele>348.6666666666667</ele><time>2026-04-16T10:39:47.002Z</time></trkpt><trkpt lat="43.45266740274509" lon="11.776121059404064"><ele>351.0</ele><time>2026-04-16T10:39:48.002Z</time></trkpt><trkpt lat="43.452599116299496" lon="11.776174538122845"><ele>353.3333333333333</ele><time>2026-04-16T10:39:50.002Z</time></trkpt><trkpt lat="43.45261048364442" lon="11.776263597910484"><ele>355.66666666666663</ele><time>2026-04-16T10:39:53.002Z</time></trkpt><trkpt lat="43.45252877083477" lon="11.776328779829862"><ele>358.0</ele><time>2026-04-16T10:39:55.002Z</time></trkpt><trkpt lat="43.45244503402406" lon="11.776336219723305"><ele>358.0</ele><time>2026-04-16T10:39:56.002Z</time></trkpt><trkpt lat="43.45236842329947" lon="11.776367988776872"><ele>358.0</ele><time>2026-04-16T10:39:58.002Z</time></trkpt><trkpt lat="43.452307131145744" lon="11.776459764216733"><ele>358.0</ele><time>2026-04-16T10:40:00.002Z</time></trkpt><trkpt lat="43.45226315568963" lon="11.776531234119897"><ele>358.0</ele><time>2026-04-16T10:40:01.002Z</time></trkpt><trkpt lat="43.45219923589141" lon="11.77654399161097"><ele>358.0</ele><time>2026-04-16T10:40:02.002Z</time></trkpt><trkpt lat="43.452095351152884" lon="11.776633325496004"><ele>358.0</ele><time>2026-04-16T10:40:04.002Z</time></trkpt><trkpt lat="43.45201313294022" lon="11.776682124995993"><ele>358.0</ele><time>2026-04-16T10:40:05.002Z</time></trkpt><trkpt lat="43.451945714757336" lon="11.776751665522783"><ele>358.0</ele><time>2026-04-16T10:40:06.002Z</time></trkpt><trkpt lat="43.45190232370264" lon="11.77683979252266"><ele>358.0</ele><time>2026-04-16T10:40:07.002Z</time></trkpt><trkpt lat="43.45185863293044" lon="11.776927836310497"><ele>358.0</ele><time>2026-04-16T10:40:08.002Z</time></trkpt><trkpt lat="43.45181237436134" lon="11.776989686319064"><ele>358.0</ele><time>2026-04-16T10:40:09.002Z</time></trkpt><trkpt lat="43.45174122299495" lon="11.77705755889851"><ele>358.0</ele><time>2026-04-16T10:40:10.002Z</time></trkpt><trkpt lat="43.45170925039063" lon="11.77714175096763"><ele>358.28571428571433</ele><time>2026-04-16T10:40:11.003Z</time></trkpt><trkpt lat="43.451674646507094" lon="11.777220523289103"><ele>358.57142857142856</ele><time>2026-04-16T10:40:12.003Z</time></trkpt><trkpt lat="43.451640624590524" lon="11.777308521423487"><ele>358.8571428571429</ele><time>2026-04-16T10:40:13.003Z</time></trkpt><trkpt lat="43.451598670248586" lon="11.777433614041195"><ele>359.14285714285717</ele><time>2026-04-16T10:40:15.003Z</time></trkpt><trkpt lat="43.45161128906503" lon="11.777526588118674"><ele>359.42857142857144</ele><time>2026-04-16T10:40:16.003Z</time></trkpt><trkpt lat="43.45158504261712" lon="11.77761328348103"><ele>359.7142857142857</ele><time>2026-04-16T10:40:18.003Z</time></trkpt><trkpt lat="43.45152500949831" lon="11.777659151899083"><ele>360.0</ele><time>2026-04-16T10:40:19.003Z</time></trkpt><trkpt lat="43.451451855746456" lon="11.777728781129426"><ele>360.0</ele><time>2026-04-16T10:40:20.003Z</time></trkpt><trkpt lat="43.45139184397325" lon="11.777806175016458"><ele>360.0</ele><time>2026-04-16T10:40:21.003Z</time></trkpt><trkpt lat="43.4512795305057" lon="11.777870755622097"><ele>360.0</ele><time>2026-04-16T10:40:22.003Z</time></trkpt><trkpt lat="43.451186856708624" lon="11.777930591752622"><ele>360.0</ele><time>2026-04-16T10:40:23.003Z</time></trkpt><trkpt lat="43.45111036923378" lon="11.777998377532187"><ele>360.0</ele><time>2026-04-16T10:40:24.003Z</time></trkpt><trkpt lat="43.45102189726475" lon="11.778067380091004"><ele>360.0</ele><time>2026-04-16T10:40:25.003Z</time></trkpt><trkpt lat="43.450945915846795" lon="11.778150200703424"><ele>360.0</ele><time>2026-04-16T10:40:26.003Z</time></trkpt><trkpt lat="43.45088957218169" lon="11.778243210297436"><ele>360.0</ele><time>2026-04-16T10:40:27.003Z</time></trkpt><trkpt lat="43.45082440334061" lon="11.778399409616778"><ele>360.0</ele><time>2026-04-16T10:40:28.003Z</time></trkpt><trkpt lat="43.4507338537129" lon="11.778574317140077"><ele>357.25</ele><time>2026-04-16T10:40:29.003Z</time></trkpt><trkpt lat="43.45067783892849" lon="11.778706052013016"><ele>354.5</ele><time>2026-04-16T10:40:30.003Z</time></trkpt><trkpt lat="43.450624391636744" lon="11.77883758674417"><ele>351.75</ele><time>2026-04-16T10:40:31.003Z</time></trkpt><trkpt lat="43.45058001286127" lon="11.778973076001895"><ele>349.0</ele><time>2026-04-16T10:40:32.001Z</time></trkpt><trkpt lat="43.45050691851732" lon="11.779120990774336"><ele>352.25</ele><time>2026-04-16T10:40:33.001Z</time></trkpt><trkpt lat="43.4504160686917" lon="11.77926244218329"><ele>355.5</ele><time>2026-04-16T10:40:34.001Z</time></trkpt><trkpt lat="43.450333139383986" lon="11.779388146959056"><ele>358.75</ele><time>2026-04-16T10:40:35.001Z</time></trkpt><trkpt lat="43.450254058613375" lon="11.779551531030341"><ele>362.0</ele><time>2026-04-16T10:40:36.001Z</time></trkpt><trkpt lat="43.45016849610345" lon="11.779728656585458"><ele>362.0</ele><time>2026-04-16T10:40:37.001Z</time></trkpt><trkpt lat="43.45010261011897" lon="11.779903475473683"><ele>362.0</ele><time>2026-04-16T10:40:38.001Z</time></trkpt><trkpt lat="43.45003560043584" lon="11.780104740801608"><ele>362.0</ele><time>2026-04-16T10:40:39.001Z</time></trkpt><trkpt lat="43.44998347908094" lon="11.780274573208963"><ele>362.0</ele><time>2026-04-16T10:40:40.001Z</time></trkpt><trkpt lat="43.44992191253907" lon="11.780474693668298"><ele>359.5</ele><time>2026-04-16T10:40:41.001Z</time></trkpt><trkpt lat="43.44986287763017" lon="11.780651761256872"><ele>357.0</ele><time>2026-04-16T10:40:42.001Z</time></trkpt><trkpt lat="43.4497878685622" lon="11.780870235477945"><ele>354.5</ele><time>2026-04-16T10:40:43.001Z</time></trkpt><trkpt lat="43.449738233201344" lon="11.78100926933946"><ele>352.0</ele><time>2026-04-16T10:40:44.001Z</time></trkpt><trkpt lat="43.44967568427424" lon="11.781175848694165"><ele>356.0</ele><time>2026-04-16T10:40:45.001Z</time></trkpt><trkpt lat="43.449610385742" lon="11.781338703596342"><ele>360.0</ele><time>2026-04-16T10:40:46.001Z</time></trkpt><trkpt lat="43.44953686019176" lon="11.781510257007305"><ele>364.0</ele><time>2026-04-16T10:40:47.001Z</time></trkpt><trkpt lat="43.449465749630825" lon="11.781672485263774"><ele>368.0</ele><time>2026-04-16T10:40:48.001Z</time></trkpt><trkpt lat="43.44939179768581" lon="11.781837160521693"><ele>364.25</ele><time>2026-04-16T10:40:49.001Z</time></trkpt><trkpt lat="43.44932410796605" lon="11.781986157584804"><ele>360.5</ele><time>2026-04-16T10:40:50.001Z</time></trkpt><trkpt lat="43.44924967096375" lon="11.782148785197517"><ele>356.75</ele><time>2026-04-16T10:40:51.001Z</time></trkpt><trkpt lat="43.44917187329841" lon="11.782318448092468"><ele>353.0</ele><time>2026-04-16T10:40:52.001Z</time></trkpt><trkpt lat="43.44910454874016" lon="11.782488509386596"><ele>353.0</ele><time>2026-04-16T10:40:53.001Z</time></trkpt><trkpt lat="43.449047232407686" lon="11.782610589689686"><ele>353.0</ele><time>2026-04-16T10:40:54.001Z</time></trkpt><trkpt lat="43.44899106332072" lon="11.782736879962332"><ele>353.0</ele><time>2026-04-16T10:40:55.001Z</time></trkpt><trkpt lat="43.44890719619532" lon="11.78284700919634"><ele>353.0</ele><time>2026-04-16T10:40:56.001Z</time></trkpt><trkpt lat="43.4488367300955" lon="11.782947703400408"><ele>353.0</ele><time>2026-04-16T10:40:57.001Z</time></trkpt><trkpt lat="43.448768267556446" lon="11.783020768591129"><ele>351.4</ele><time>2026-04-16T10:40:58.001Z</time></trkpt><trkpt lat="43.44871023507685" lon="11.78307721104762"><ele>349.79999999999995</ele><time>2026-04-16T10:40:59.001Z</time></trkpt><trkpt lat="43.44863217867862" lon="11.783139942694055"><ele>348.2</ele><time>2026-04-16T10:41:02.001Z</time></trkpt><trkpt lat="43.44849516570727" lon="11.783197823921222"><ele>346.6</ele><time>2026-04-16T10:41:05.001Z</time></trkpt><trkpt lat="43.448390229102145" lon="11.783209703116547"><ele>345.0</ele><time>2026-04-16T10:41:07.001Z</time></trkpt><trkpt lat="43.4483054984097" lon="11.783195848230182"><ele>345.0</ele><time>2026-04-16T10:41:10.001Z</time></trkpt><trkpt lat="43.44824746199849" lon="11.783502172716169"><ele>345.0</ele><time>2026-04-16T10:41:11.001Z</time></trkpt><trkpt lat="43.448171018257" lon="11.783616514509875"><ele>345.0</ele><time>2026-04-16T10:41:13.001Z</time></trkpt><trkpt lat="43.44819111997346" lon="11.78379340054252"><ele>342.3333333333333</ele><time>2026-04-16T10:41:15.001Z</time></trkpt><trkpt lat="43.44817438708759" lon="11.783885557212768"><ele>339.6666666666667</ele><time>2026-04-16T10:41:16.001Z</time></trkpt><trkpt lat="43.44812629679246" lon="11.783980890431707"><ele>337.0</ele><time>2026-04-16T10:41:17.001Z</time></trkpt><trkpt lat="43.448096454892976" lon="11.784087982595143"><ele>334.33333333333337</ele><time>2026-04-16T10:41:18.001Z</time></trkpt><trkpt lat="43.44809706762861" lon="11.784248890748188"><ele>331.6666666666667</ele><time>2026-04-16T10:41:20.001Z</time></trkpt><trkpt lat="43.448120226874615" lon="11.784374066080863"><ele>329.0</ele><time>2026-04-16T10:41:22.001Z</time></trkpt><trkpt lat="43.44815656516574" lon="11.784468014759335"><ele>326.1666666666667</ele><time>2026-04-16T10:41:23.001Z</time></trkpt><trkpt lat="43.44817321573107" lon="11.78456372222056"><ele>323.33333333333337</ele><time>2026-04-16T10:41:24.001Z</time></trkpt><trkpt lat="43.44818523001425" lon="11.784677503507394"><ele>320.5</ele><time>2026-04-16T10:41:25.001Z</time></trkpt><trkpt lat="43.44814925910742" lon="11.784764198676925"><ele>317.6666666666667</ele><time>2026-04-16T10:41:26.001Z</time></trkpt><trkpt lat="43.4481589002033" lon="11.784850392347844"><ele>314.8333333333333</ele><time>2026-04-16T10:41:27.001Z</time></trkpt><trkpt lat="43.44811219605599" lon="11.784998391358899"><ele>312.0</ele><time>2026-04-16T10:41:29.001Z</time></trkpt><trkpt lat="43.44805934322389" lon="11.78509821235669"><ele>312.0</ele><time>2026-04-16T10:41:31.001Z</time></trkpt><trkpt lat="43.44800633097498" lon="11.785178420742158"><ele>312.0</ele><time>2026-04-16T10:41:32.001Z</time></trkpt><trkpt lat="43.447971547356175" lon="11.785263191114117"><ele>312.0</ele><time>2026-04-16T10:41:33.001Z</time></trkpt><trkpt lat="43.44793180238872" lon="11.785337985045702"><ele>312.0</ele><time>2026-04-16T10:41:34.001Z</time></trkpt><trkpt lat="43.4478696466911" lon="11.785392244917714"><ele>312.0</ele><time>2026-04-16T10:41:36.001Z</time></trkpt><trkpt lat="43.44776055459509" lon="11.785356975319072"><ele>312.0</ele><time>2026-04-16T10:41:38.001Z</time></trkpt><trkpt lat="43.447681262471114" lon="11.785293060422207"><ele>309.6666666666667</ele><time>2026-04-16T10:41:39.001Z</time></trkpt><trkpt lat="43.44761186683719" lon="11.78528742004571"><ele>307.3333333333333</ele><time>2026-04-16T10:41:40.001Z</time></trkpt><trkpt lat="43.44753376843707" lon="11.785341175942982"><ele>305.0</ele><time>2026-04-16T10:41:41.001Z</time></trkpt><trkpt lat="43.44745930407165" lon="11.785404247867369"><ele>302.66666666666663</ele><time>2026-04-16T10:41:42.001Z</time></trkpt><trkpt lat="43.44739718414838" lon="11.785445641603758"><ele>300.3333333333333</ele><time>2026-04-16T10:41:43.001Z</time></trkpt><trkpt lat="43.44730296688881" lon="11.785447847241299"><ele>298.0</ele><time>2026-04-16T10:41:45.001Z</time></trkpt><trkpt lat="43.447246894311455" lon="11.785395025871683"><ele>298.0</ele><time>2026-04-16T10:41:46.001Z</time></trkpt><trkpt lat="43.44717264570043" lon="11.785343502898112"><ele>298.0</ele><time>2026-04-16T10:41:47.001Z</time></trkpt><trkpt lat="43.44708535710491" lon="11.785353331163057"><ele>298.0</ele><time>2026-04-16T10:41:49.001Z</time></trkpt><trkpt lat="43.44706341987533" lon="11.785448753942655"><ele>298.0</ele><time>2026-04-16T10:41:50.001Z</time></trkpt><trkpt lat="43.44704815851038" lon="11.785574291730915"><ele>298.0</ele><time>2026-04-16T10:41:51.001Z</time></trkpt><trkpt lat="43.447024279385985" lon="11.785702003371611"><ele>298.0</ele><time>2026-04-16T10:41:52.001Z</time></trkpt><trkpt lat="43.446996509560506" lon="11.785814589652423"><ele>297.0</ele><time>2026-04-16T10:41:53.001Z</time></trkpt><trkpt lat="43.4469757519472" lon="11.785940447629114"><ele>296.0</ele><time>2026-04-16T10:41:54.002Z</time></trkpt><trkpt lat="43.44694544154295" lon="11.786077403058759"><ele>295.0</ele><time>2026-04-16T10:41:55.002Z</time></trkpt><trkpt lat="43.44692589597143" lon="11.786201668768141"><ele>294.0</ele><time>2026-04-16T10:41:56.002Z</time></trkpt><trkpt lat="43.446902313015414" lon="11.786326267322115"><ele>293.0</ele><time>2026-04-16T10:41:57.002Z</time></trkpt><trkpt lat="43.44687557656327" lon="11.786411645110617"><ele>291.8</ele><time>2026-04-16T10:41:58.002Z</time></trkpt><trkpt lat="43.446955262298594" lon="11.786487580912596"><ele>290.6</ele><time>2026-04-16T10:42:01.002Z</time></trkpt><trkpt lat="43.44704353970668" lon="11.786508071293799"><ele>289.4</ele><time>2026-04-16T10:42:02.002Z</time></trkpt><trkpt lat="43.44713782962238" lon="11.786566916630871"><ele>288.2</ele><time>2026-04-16T10:42:03.002Z</time></trkpt><trkpt lat="43.44722542207616" lon="11.786604798306675"><ele>287.0</ele><time>2026-04-16T10:42:04.002Z</time></trkpt><trkpt lat="43.44728703695899" lon="11.78665198318901"><ele>287.0</ele><time>2026-04-16T10:42:05.002Z</time></trkpt><trkpt lat="43.447369201849625" lon="11.786764741060576"><ele>287.0</ele><time>2026-04-16T10:42:07.002Z</time></trkpt><trkpt lat="43.44737971841481" lon="11.78690089063572"><ele>287.0</ele><time>2026-04-16T10:42:09.002Z</time></trkpt><trkpt lat="43.44735347398455" lon="11.786997419915364"><ele>287.0</ele><time>2026-04-16T10:42:10.002Z</time></trkpt><trkpt lat="43.4473106970118" lon="11.787099855716223"><ele>287.0</ele><time>2026-04-16T10:42:11.002Z</time></trkpt><trkpt lat="43.44729099333462" lon="11.787196374014636"><ele>287.0</ele><time>2026-04-16T10:42:12.002Z</time></trkpt><trkpt lat="43.44726465641929" lon="11.787285262585785"><ele>285.2</ele><time>2026-04-16T10:42:13.002Z</time></trkpt><trkpt lat="43.44722620081657" lon="11.787398957832256"><ele>283.4</ele><time>2026-04-16T10:42:14.002Z</time></trkpt><trkpt lat="43.44719059409412" lon="11.787529832136986"><ele>281.6</ele><time>2026-04-16T10:42:15.002Z</time></trkpt><trkpt lat="43.44716630720245" lon="11.787656230572008"><ele>279.8</ele><time>2026-04-16T10:42:16.002Z</time></trkpt><trkpt lat="43.447132622559366" lon="11.7877832568296"><ele>278.0</ele><time>2026-04-16T10:42:17.002Z</time></trkpt><trkpt lat="43.44709151903017" lon="11.787907065064609"><ele>277.0</ele><time>2026-04-16T10:42:18.002Z</time></trkpt><trkpt lat="43.44704200987466" lon="11.788029434711342"><ele>276.0</ele><time>2026-04-16T10:42:19.002Z</time></trkpt><trkpt lat="43.44699878043971" lon="11.788149970558335"><ele>275.0</ele><time>2026-04-16T10:42:20.002Z</time></trkpt><trkpt lat="43.44697144029163" lon="11.788276159254464"><ele>274.0</ele><time>2026-04-16T10:42:21.002Z</time></trkpt><trkpt lat="43.44696736107067" lon="11.78842317618271"><ele>273.0</ele><time>2026-04-16T10:42:22.002Z</time></trkpt><trkpt lat="43.446978870373435" lon="11.788579839041525"><ele>271.0</ele><time>2026-04-16T10:42:23.002Z</time></trkpt><trkpt lat="43.4469836993821" lon="11.788763881418925"><ele>269.0</ele><time>2026-04-16T10:42:24.002Z</time></trkpt><trkpt lat="43.44699354543056" lon="11.788914094660765"><ele>267.0</ele><time>2026-04-16T10:42:25.002Z</time></trkpt><trkpt lat="43.44700213885334" lon="11.789068635359092"><ele>265.0</ele><time>2026-04-16T10:42:26.002Z</time></trkpt><trkpt lat="43.44702075982615" lon="11.789223783585106"><ele>264.5</ele><time>2026-04-16T10:42:27.002Z</time></trkpt><trkpt lat="43.44704475275715" lon="11.789386932034471"><ele>264.0</ele><time>2026-04-16T10:42:28.002Z</time></trkpt><trkpt lat="43.4470779038836" lon="11.789535342526328"><ele>263.5</ele><time>2026-04-16T10:42:29.002Z</time></trkpt><trkpt lat="43.44713471627679" lon="11.789685590698378"><ele>263.0</ele><time>2026-04-16T10:42:30.002Z</time></trkpt><trkpt lat="43.447152388098274" lon="11.789845238362679"><ele>263.0</ele><time>2026-04-16T10:42:31.002Z</time></trkpt><trkpt lat="43.447138098984276" lon="11.790027880313154"><ele>263.0</ele><time>2026-04-16T10:42:32.002Z</time></trkpt><trkpt lat="43.44710059736351" lon="11.790242609055019"><ele>263.0</ele><time>2026-04-16T10:42:33.002Z</time></trkpt><trkpt lat="43.44707392971798" lon="11.790437341570504"><ele>263.0</ele><time>2026-04-16T10:42:34.002Z</time></trkpt><trkpt lat="43.44707110730039" lon="11.790620917658662"><ele>262.0</ele><time>2026-04-16T10:42:35.002Z</time></trkpt><trkpt lat="43.447072679897325" lon="11.790829848785942"><ele>261.0</ele><time>2026-04-16T10:42:36.002Z</time></trkpt><trkpt lat="43.44707881940877" lon="11.791026684175543"><ele>260.0</ele><time>2026-04-16T10:42:37.002Z</time></trkpt><trkpt lat="43.44708526314005" lon="11.791196209719963"><ele>259.0</ele><time>2026-04-16T10:42:38Z</time></trkpt><trkpt lat="43.44709460531033" lon="11.79134822497647"><ele>258.5</ele><time>2026-04-16T10:42:39Z</time></trkpt><trkpt lat="43.44709833701196" lon="11.791437517751094"><ele>258.0</ele><time>2026-04-16T10:42:40Z</time></trkpt><trkpt lat="43.447094037009684" lon="11.791564271303992"><ele>257.5</ele><time>2026-04-16T10:42:42Z</time></trkpt><trkpt lat="43.447335022731664" lon="11.791529283500616"><ele>257.0</ele><time>2026-04-16T10:42:45Z</time></trkpt><trkpt lat="43.447448561201604" lon="11.791551699312219"><ele>257.0</ele><time>2026-04-16T10:42:46Z</time></trkpt><trkpt lat="43.447574289730724" lon="11.7915706285566"><ele>257.0</ele><time>2026-04-16T10:42:47Z</time></trkpt><trkpt lat="43.44769794284598" lon="11.791579022349403"><ele>257.0</ele><time>2026-04-16T10:42:48Z</time></trkpt><trkpt lat="43.44779861969779" lon="11.791575124500822"><ele>257.0</ele><time>2026-04-16T10:42:49Z</time></trkpt><trkpt lat="43.44789542658493" lon="11.791556547237066"><ele>257.0</ele><time>2026-04-16T10:42:50Z</time></trkpt><trkpt lat="43.447969699001" lon="11.791512066150041"><ele>257.25</ele><time>2026-04-16T10:42:51Z</time></trkpt><trkpt lat="43.44803029440056" lon="11.791459490456642"><ele>257.5</ele><time>2026-04-16T10:42:52Z</time></trkpt><trkpt lat="43.44815884050298" lon="11.79166291757763"><ele>257.75</ele><time>2026-04-16T10:42:53Z</time></trkpt><trkpt lat="43.448261260735705" lon="11.791614729697546"><ele>258.0</ele><time>2026-04-16T10:42:55Z</time></trkpt><trkpt lat="43.44835116621318" lon="11.791506917406748"><ele>258.0</ele><time>2026-04-16T10:42:57Z</time></trkpt><trkpt lat="43.44844071570087" lon="11.791467588007446"><ele>258.0</ele><time>2026-04-16T10:42:58Z</time></trkpt><trkpt lat="43.44853720540145" lon="11.79144090594814"><ele>258.0</ele><time>2026-04-16T10:42:59Z</time></trkpt><trkpt lat="43.44861873486918" lon="11.791405016723704"><ele>258.0</ele><time>2026-04-16T10:43:00Z</time></trkpt><trkpt lat="43.44869932205579" lon="11.791356697332514"><ele>258.0</ele><time>2026-04-16T10:43:01Z</time></trkpt><trkpt lat="43.44876992582575" lon="11.79130510079001"><ele>258.0</ele><time>2026-04-16T10:43:02Z</time></trkpt><trkpt lat="43.44883023205027" lon="11.791264082242053"><ele>257.8</ele><time>2026-04-16T10:43:03Z</time></trkpt><trkpt lat="43.44890219177012" lon="11.791225984404987"><ele>257.6</ele><time>2026-04-16T10:43:05Z</time></trkpt><trkpt lat="43.44896544167348" lon="11.791183656891572"><ele>257.4</ele><time>2026-04-16T10:43:06Z</time></trkpt><trkpt lat="43.44906313216394" lon="11.791108087640012"><ele>257.2</ele><time>2026-04-16T10:43:07Z</time></trkpt><trkpt lat="43.44917153335736" lon="11.79101664394475"><ele>257.0</ele><time>2026-04-16T10:43:08Z</time></trkpt><trkpt lat="43.449279961175954" lon="11.790922890551869"><ele>256.8</ele><time>2026-04-16T10:43:09Z</time></trkpt><trkpt lat="43.44937240554322" lon="11.790843945524076"><ele>256.6</ele><time>2026-04-16T10:43:10Z</time></trkpt><trkpt lat="43.44945809178429" lon="11.79079498637314"><ele>256.40000000000003</ele><time>2026-04-16T10:43:11Z</time></trkpt><trkpt lat="43.44954661148561" lon="11.790765288811526"><ele>256.2</ele><time>2026-04-16T10:43:12Z</time></trkpt><trkpt lat="43.449629184824495" lon="11.790716696519043"><ele>256.0</ele><time>2026-04-16T10:43:13Z</time></trkpt><trkpt lat="43.44972759575941" lon="11.790616482955311"><ele>256.0</ele><time>2026-04-16T10:43:14Z</time></trkpt><trkpt lat="43.44982981362888" lon="11.790488349244082"><ele>256.0</ele><time>2026-04-16T10:43:15Z</time></trkpt><trkpt lat="43.44992050487268" lon="11.790382095862824"><ele>256.0</ele><time>2026-04-16T10:43:16Z</time></trkpt><trkpt lat="43.45000268579384" lon="11.790293135669698"><ele>256.0</ele><time>2026-04-16T10:43:17Z</time></trkpt><trkpt lat="43.45008710487997" lon="11.790204787719713"><ele>256.2</ele><time>2026-04-16T10:43:18Z</time></trkpt><trkpt lat="43.45017831785207" lon="11.79011513328521"><ele>256.40000000000003</ele><time>2026-04-16T10:43:19Z</time></trkpt><trkpt lat="43.45026432481716" lon="11.790026082864577"><ele>256.6</ele><time>2026-04-16T10:43:20Z</time></trkpt><trkpt lat="43.45034001909408" lon="11.789940985170627"><ele>256.8</ele><time>2026-04-16T10:43:21Z</time></trkpt><trkpt lat="43.450416321319956" lon="11.789863297351765"><ele>257.0</ele><time>2026-04-16T10:43:22Z</time></trkpt><trkpt lat="43.45048848957498" lon="11.789800881885006"><ele>257.0</ele><time>2026-04-16T10:43:23Z</time></trkpt><trkpt lat="43.45056478962683" lon="11.789751817525296"><ele>257.0</ele><time>2026-04-16T10:43:24Z</time></trkpt><trkpt lat="43.45064910618598" lon="11.78975220411227"><ele>257.0</ele><time>2026-04-16T10:43:25.001Z</time></trkpt><trkpt lat="43.45072665079097" lon="11.789764997762607"><ele>257.0</ele><time>2026-04-16T10:43:26.001Z</time></trkpt><trkpt lat="43.450804014608785" lon="11.789796226164182"><ele>257.0</ele><time>2026-04-16T10:43:27.001Z</time></trkpt><trkpt lat="43.45088782841084" lon="11.78982029678284"><ele>257.0</ele><time>2026-04-16T10:43:28.001Z</time></trkpt><trkpt lat="43.45095149795379" lon="11.789912164453032"><ele>257.0</ele><time>2026-04-16T10:43:29.001Z</time></trkpt><trkpt lat="43.451025480872424" lon="11.789955778686425"><ele>257.0</ele><time>2026-04-16T10:43:30.001Z</time></trkpt><trkpt lat="43.45106947104925" lon="11.790018876736049"><ele>257.0</ele><time>2026-04-16T10:43:31.001Z</time></trkpt><trkpt lat="43.45109042225219" lon="11.790105105876663"><ele>257.0</ele><time>2026-04-16T10:43:32.001Z</time></trkpt><trkpt lat="43.45105903424609" lon="11.7902237193787"><ele>257.0</ele><time>2026-04-16T10:43:33.001Z</time></trkpt><trkpt lat="43.45104175051747" lon="11.790402785214946"><ele>257.0</ele><time>2026-04-16T10:43:34.001Z</time></trkpt><trkpt lat="43.45103285441396" lon="11.790615854976654"><ele>256.75</ele><time>2026-04-16T10:43:35.001Z</time></trkpt><trkpt lat="43.45100830797495" lon="11.79080030891526"><ele>256.5</ele><time>2026-04-16T10:43:36.001Z</time></trkpt><trkpt lat="43.45100270223517" lon="11.790959803623373"><ele>256.25</ele><time>2026-04-16T10:43:37.001Z</time></trkpt><trkpt lat="43.45096587927911" lon="11.791096971648797"><ele>256.0</ele><time>2026-04-16T10:43:38.001Z</time></trkpt><trkpt lat="43.45096003305522" lon="11.791231178137053"><ele>255.8</ele><time>2026-04-16T10:43:39.001Z</time></trkpt><trkpt lat="43.45094191119968" lon="11.791333305102851"><ele>255.60000000000002</ele><time>2026-04-16T10:43:40.001Z</time></trkpt><trkpt lat="43.45092137591053" lon="11.79147312512231"><ele>255.4</ele><time>2026-04-16T10:43:42.001Z</time></trkpt><trkpt lat="43.450827073958905" lon="11.791547634422956"><ele>255.2</ele><time>2026-04-16T10:43:43.001Z</time></trkpt><trkpt lat="43.45074419453076" lon="11.791630675402237"><ele>255.0</ele><time>2026-04-16T10:43:44.001Z</time></trkpt><trkpt lat="43.450651837276524" lon="11.791729022445304"><ele>255.0</ele><time>2026-04-16T10:43:45.001Z</time></trkpt><trkpt lat="43.45055859566007" lon="11.791844776765185"><ele>255.0</ele><time>2026-04-16T10:43:46.001Z</time></trkpt><trkpt lat="43.450461418528256" lon="11.791981010600395"><ele>255.0</ele><time>2026-04-16T10:43:47.001Z</time></trkpt><trkpt lat="43.45036241410897" lon="11.792138847856867"><ele>255.0</ele><time>2026-04-16T10:43:48.001Z</time></trkpt><trkpt lat="43.45027450402809" lon="11.792332312635795"><ele>255.0</ele><time>2026-04-16T10:43:49.001Z</time></trkpt><trkpt lat="43.45019773157031" lon="11.792562774934959"><ele>255.0</ele><time>2026-04-16T10:43:50.001Z</time></trkpt><trkpt lat="43.45013937711942" lon="11.792821593762406"><ele>255.0</ele><time>2026-04-16T10:43:51.001Z</time></trkpt><trkpt lat="43.45008648668296" lon="11.79306312339154"><ele>255.66666666666669</ele><time>2026-04-16T10:43:52.001Z</time></trkpt><trkpt lat="43.45002661066364" lon="11.793304612904715"><ele>256.33333333333337</ele><time>2026-04-16T10:43:53.001Z</time></trkpt><trkpt lat="43.44996179751633" lon="11.793537763938412"><ele>257.0</ele><time>2026-04-16T10:43:54.001Z</time></trkpt><trkpt lat="43.44989420357615" lon="11.79375377959249"><ele>257.0</ele><time>2026-04-16T10:43:55.001Z</time></trkpt><trkpt lat="43.44984029648775" lon="11.793947556661129"><ele>257.0</ele><time>2026-04-16T10:43:56.001Z</time></trkpt><trkpt lat="43.44979542477811" lon="11.794119406919753"><ele>257.0</ele><time>2026-04-16T10:43:57.001Z</time></trkpt><trkpt lat="43.44974160902612" lon="11.794250775574175"><ele>257.0</ele><time>2026-04-16T10:43:58.001Z</time></trkpt><trkpt lat="43.44967065744775" lon="11.794382929790148"><ele>257.0</ele><time>2026-04-16T10:43:59.001Z</time></trkpt><trkpt lat="43.44958485793867" lon="11.794534516050394"><ele>257.0</ele><time>2026-04-16T10:44:00.001Z</time></trkpt><trkpt lat="43.44950437905068" lon="11.794681833827367"><ele>257.0</ele><time>2026-04-16T10:44:01.001Z</time></trkpt><trkpt lat="43.449414221250265" lon="11.79483638959798"><ele>257.0</ele><time>2026-04-16T10:44:02.001Z</time></trkpt><trkpt lat="43.449333629470715" lon="11.794983651586094"><ele>257.0</ele><time>2026-04-16T10:44:03.001Z</time></trkpt><trkpt lat="43.44925671292461" lon="11.795128371140875"><ele>257.0</ele><time>2026-04-16T10:44:04.001Z</time></trkpt><trkpt lat="43.449180710832174" lon="11.795272480551533"><ele>257.0</ele><time>2026-04-16T10:44:05.001Z</time></trkpt><trkpt lat="43.449102977482156" lon="11.795408825161998"><ele>257.0</ele><time>2026-04-16T10:44:06.001Z</time></trkpt><trkpt lat="43.449018290786576" lon="11.795530675061336"><ele>256.25</ele><time>2026-04-16T10:44:07.001Z</time></trkpt><trkpt lat="43.4489339636246" lon="11.795639501603675"><ele>255.5</ele><time>2026-04-16T10:44:08.001Z</time></trkpt><trkpt lat="43.44885158806274" lon="11.795742791378661"><ele>254.75</ele><time>2026-04-16T10:44:09.001Z</time></trkpt><trkpt lat="43.448769153327916" lon="11.795844253390772"><ele>254.0</ele><time>2026-04-16T10:44:10.001Z</time></trkpt><trkpt lat="43.44868882197188" lon="11.795955181425821"><ele>252.75</ele><time>2026-04-16T10:44:11.001Z</time></trkpt><trkpt lat="43.44860962052798" lon="11.796063580940071"><ele>251.5</ele><time>2026-04-16T10:44:12.001Z</time></trkpt><trkpt lat="43.44851825643714" lon="11.796174234186754"><ele>250.25</ele><time>2026-04-16T10:44:13.001Z</time></trkpt><trkpt lat="43.44843035189675" lon="11.796282817141147"><ele>249.0</ele><time>2026-04-16T10:44:14.001Z</time></trkpt><trkpt lat="43.448342465463874" lon="11.796390509612486"><ele>249.0</ele><time>2026-04-16T10:44:15.001Z</time></trkpt><trkpt lat="43.44825855215946" lon="11.796496584804096"><ele>249.0</ele><time>2026-04-16T10:44:16.002Z</time></trkpt><trkpt lat="43.44818241087585" lon="11.79659548399845"><ele>249.0</ele><time>2026-04-16T10:44:17.002Z</time></trkpt><trkpt lat="43.44811956751212" lon="11.79667492743206"><ele>249.0</ele><time>2026-04-16T10:44:18.002Z</time></trkpt><trkpt lat="43.44806416774082" lon="11.796729928846716"><ele>249.0</ele><time>2026-04-16T10:44:19.002Z</time></trkpt><trkpt lat="43.447999976716545" lon="11.796758199132249"><ele>249.0</ele><time>2026-04-16T10:44:21.002Z</time></trkpt><trkpt lat="43.447902751027065" lon="11.796794046939166"><ele>249.0</ele><time>2026-04-16T10:44:24.002Z</time></trkpt><trkpt lat="43.44783278921765" lon="11.796934482792658"><ele>249.0</ele><time>2026-04-16T10:44:26.002Z</time></trkpt><trkpt lat="43.447855500287176" lon="11.797017399310901"><ele>249.0</ele><time>2026-04-16T10:44:27.002Z</time></trkpt><trkpt lat="43.448019175758574" lon="11.797128968575251"><ele>249.0</ele><time>2026-04-16T10:44:29.002Z</time></trkpt><trkpt lat="43.44813239781539" lon="11.797138232701927"><ele>249.0</ele><time>2026-04-16T10:44:30.002Z</time></trkpt><trkpt lat="43.4482307523728" lon="11.797227701248932"><ele>249.0</ele><time>2026-04-16T10:44:31.002Z</time></trkpt><trkpt lat="43.44833784927324" lon="11.797323076092127"><ele>249.0</ele><time>2026-04-16T10:44:32.002Z</time></trkpt><trkpt lat="43.44844580979658" lon="11.79741035555018"><ele>249.0</ele><time>2026-04-16T10:44:33.002Z</time></trkpt><trkpt lat="43.44855869525243" lon="11.797506729495067"><ele>249.0</ele><time>2026-04-16T10:44:34.002Z</time></trkpt><trkpt lat="43.44866296519864" lon="11.797615445545695"><ele>249.0</ele><time>2026-04-16T10:44:35.002Z</time></trkpt><trkpt lat="43.44875530160376" lon="11.797742806148516"><ele>249.0</ele><time>2026-04-16T10:44:36.002Z</time></trkpt><trkpt lat="43.44882547688963" lon="11.79789595805198"><ele>249.0</ele><time>2026-04-16T10:44:37.002Z</time></trkpt><trkpt lat="43.44888324435897" lon="11.79806646984792"><ele>248.75</ele><time>2026-04-16T10:44:38.002Z</time></trkpt><trkpt lat="43.44894099428306" lon="11.798235268930517"><ele>248.5</ele><time>2026-04-16T10:44:39.002Z</time></trkpt><trkpt lat="43.449002268496635" lon="11.79839948290265"><ele>248.25</ele><time>2026-04-16T10:44:40.002Z</time></trkpt><trkpt lat="43.449060682181006" lon="11.798566299835821"><ele>248.0</ele><time>2026-04-16T10:44:41.002Z</time></trkpt><trkpt lat="43.44912770608151" lon="11.798727752357662"><ele>248.0</ele><time>2026-04-16T10:44:42.002Z</time></trkpt><trkpt lat="43.44919887246555" lon="11.798887747838352"><ele>248.0</ele><time>2026-04-16T10:44:43.002Z</time></trkpt><trkpt lat="43.44928298657044" lon="11.799040461079963"><ele>248.0</ele><time>2026-04-16T10:44:43.999Z</time></trkpt><trkpt lat="43.44937645784658" lon="11.799183390444956"><ele>248.0</ele><time>2026-04-16T10:44:44.999Z</time></trkpt><trkpt lat="43.449481754832895" lon="11.799313543024702"><ele>248.25</ele><time>2026-04-16T10:44:45.999Z</time></trkpt><trkpt lat="43.44959716136671" lon="11.799432588780213"><ele>248.5</ele><time>2026-04-16T10:44:46.999Z</time></trkpt><trkpt lat="43.44970996135426" lon="11.79954591333343"><ele>248.75</ele><time>2026-04-16T10:44:47.999Z</time></trkpt><trkpt lat="43.44981885087152" lon="11.799652265984832"><ele>249.0</ele><time>2026-04-16T10:44:48.999Z</time></trkpt><trkpt lat="43.44991576840617" lon="11.799757913274968"><ele>249.2</ele><time>2026-04-16T10:44:49.999Z</time></trkpt><trkpt lat="43.449999421463886" lon="11.799868661507105"><ele>249.39999999999998</ele><time>2026-04-16T10:44:50.999Z</time></trkpt><trkpt lat="43.45006823389546" lon="11.79999002427831"><ele>249.6</ele><time>2026-04-16T10:44:51.999Z</time></trkpt><trkpt lat="43.450128912428376" lon="11.800111615241054"><ele>249.8</ele><time>2026-04-16T10:44:52.999Z</time></trkpt><trkpt lat="43.45017184965519" lon="11.800226205426755"><ele>250.0</ele><time>2026-04-16T10:44:53.999Z</time></trkpt><trkpt lat="43.450218689485474" lon="11.80034034654037"><ele>250.0</ele><time>2026-04-16T10:44:54.999Z</time></trkpt><trkpt lat="43.450273640481356" lon="11.800460476060477"><ele>250.0</ele><time>2026-04-16T10:44:55.999Z</time></trkpt><trkpt lat="43.45033644668641" lon="11.800581383095718"><ele>250.0</ele><time>2026-04-16T10:44:56.999Z</time></trkpt><trkpt lat="43.45039281616392" lon="11.800701918328098"><ele>250.0</ele><time>2026-04-16T10:44:57.999Z</time></trkpt><trkpt lat="43.45043817922877" lon="11.800808354847355"><ele>250.0</ele><time>2026-04-16T10:44:58.999Z</time></trkpt><trkpt lat="43.45047470003565" lon="11.800906658490664"><ele>250.0</ele><time>2026-04-16T10:44:59.999Z</time></trkpt><trkpt lat="43.4505042519216" lon="11.80099099877363"><ele>250.0</ele><time>2026-04-16T10:45:00.999Z</time></trkpt><trkpt lat="43.45046740987865" lon="11.801173626302525"><ele>250.0</ele><time>2026-04-16T10:45:02.999Z</time></trkpt><trkpt lat="43.45036693784966" lon="11.801304479307937"><ele>250.0</ele><time>2026-04-16T10:45:03.999Z</time></trkpt><trkpt lat="43.45030735861693" lon="11.801440660978688"><ele>250.0</ele><time>2026-04-16T10:45:05Z</time></trkpt><trkpt lat="43.4502555165549" lon="11.801594545474336"><ele>250.0</ele><time>2026-04-16T10:45:06Z</time></trkpt><trkpt lat="43.45020036515603" lon="11.801746311679322"><ele>250.0</ele><time>2026-04-16T10:45:07Z</time></trkpt><trkpt lat="43.450146680873125" lon="11.801908289951008"><ele>250.0</ele><time>2026-04-16T10:45:08Z</time></trkpt><trkpt lat="43.45010395906266" lon="11.802069496591901"><ele>249.8</ele><time>2026-04-16T10:45:09Z</time></trkpt><trkpt lat="43.450067004878186" lon="11.802235142511694"><ele>249.6</ele><time>2026-04-16T10:45:10Z</time></trkpt><trkpt lat="43.4500332027547" lon="11.802387423190773"><ele>249.39999999999998</ele><time>2026-04-16T10:45:11Z</time></trkpt><trkpt lat="43.45000354043271" lon="11.80252843160528"><ele>249.2</ele><time>2026-04-16T10:45:12Z</time></trkpt><trkpt lat="43.44997665694416" lon="11.802658909476676"><ele>249.0</ele><time>2026-04-16T10:45:13Z</time></trkpt><trkpt lat="43.44994594343997" lon="11.80277560556228"><ele>248.66666666666666</ele><time>2026-04-16T10:45:14Z</time></trkpt><trkpt lat="43.44991280783958" lon="11.802867022555404"><ele>248.33333333333331</ele><time>2026-04-16T10:45:15Z</time></trkpt><trkpt lat="43.44986653319905" lon="11.802970823190499"><ele>248.0</ele><time>2026-04-16T10:45:17Z</time></trkpt><trkpt lat="43.44983076465662" lon="11.803073720183482"><ele>247.66666666666666</ele><time>2026-04-16T10:45:28Z</time></trkpt><trkpt lat="43.44981535495219" lon="11.803187824337503"><ele>247.33333333333331</ele><time>2026-04-16T10:45:29Z</time></trkpt><trkpt lat="43.4497945120907" lon="11.803330086806932"><ele>247.0</ele><time>2026-04-16T10:45:30Z</time></trkpt><trkpt lat="43.44974678103633" lon="11.803496716310606"><ele>247.0</ele><time>2026-04-16T10:45:31Z</time></trkpt><trkpt lat="43.44967456470569" lon="11.80366512568105"><ele>247.0</ele><time>2026-04-16T10:45:32Z</time></trkpt><trkpt lat="43.44958425148842" lon="11.803837370810395"><ele>247.0</ele><time>2026-04-16T10:45:33Z</time></trkpt><trkpt lat="43.449493363747976" lon="11.80399258285005"><ele>247.0</ele><time>2026-04-16T10:45:34Z</time></trkpt><trkpt lat="43.449401972404424" lon="11.804138685965706"><ele>247.0</ele><time>2026-04-16T10:45:35Z</time></trkpt><trkpt lat="43.44930468602143" lon="11.804286147856114"><ele>247.0</ele><time>2026-04-16T10:45:36Z</time></trkpt><trkpt lat="43.44918655962813" lon="11.804432077684822"><ele>247.0</ele><time>2026-04-16T10:45:37Z</time></trkpt><trkpt lat="43.449073343738405" lon="11.804584528030507"><ele>246.66666666666666</ele><time>2026-04-16T10:45:38Z</time></trkpt><trkpt lat="43.44894907682679" lon="11.804725166888947"><ele>246.33333333333331</ele><time>2026-04-16T10:45:39.001Z</time></trkpt><trkpt lat="43.44884095455055" lon="11.804885536192634"><ele>246.0</ele><time>2026-04-16T10:45:40.001Z</time></trkpt><trkpt lat="43.44874878632199" lon="11.805065823098763"><ele>246.0</ele><time>2026-04-16T10:45:41.001Z</time></trkpt><trkpt lat="43.44865873739104" lon="11.805251206882346"><ele>246.0</ele><time>2026-04-16T10:45:42.001Z</time></trkpt><trkpt lat="43.44858659336886" lon="11.805457758153922"><ele>246.0</ele><time>2026-04-16T10:45:43.001Z</time></trkpt><trkpt lat="43.44852297849926" lon="11.805663581196889"><ele>246.0</ele><time>2026-04-16T10:45:44.001Z</time></trkpt><trkpt lat="43.448467953067734" lon="11.805876702182472"><ele>246.0</ele><time>2026-04-16T10:45:45.001Z</time></trkpt><trkpt lat="43.44842418576838" lon="11.806108272894088"><ele>246.0</ele><time>2026-04-16T10:45:46.001Z</time></trkpt><trkpt lat="43.4483780252972" lon="11.806334122820536"><ele>245.33333333333331</ele><time>2026-04-16T10:45:47.001Z</time></trkpt><trkpt lat="43.44832426020321" lon="11.80655078517635"><ele>244.66666666666666</ele><time>2026-04-16T10:45:48.001Z</time></trkpt><trkpt lat="43.4482555889723" lon="11.806756157470073"><ele>244.0</ele><time>2026-04-16T10:45:49.001Z</time></trkpt><trkpt lat="43.448181551503474" lon="11.80696390432122"><ele>244.0</ele><time>2026-04-16T10:45:50.001Z</time></trkpt><trkpt lat="43.44811139652005" lon="11.807163935958354"><ele>244.0</ele><time>2026-04-16T10:45:51.001Z</time></trkpt><trkpt lat="43.448040497130016" lon="11.80735983111505"><ele>244.0</ele><time>2026-04-16T10:45:52.001Z</time></trkpt><trkpt lat="43.447965452255424" lon="11.807553822358383"><ele>244.66666666666666</ele><time>2026-04-16T10:45:53.001Z</time></trkpt><trkpt lat="43.4478748265852" lon="11.80774533873619"><ele>245.33333333333331</ele><time>2026-04-16T10:45:54.001Z</time></trkpt><trkpt lat="43.44777583332287" lon="11.807923890018852"><ele>246.0</ele><time>2026-04-16T10:45:55.001Z</time></trkpt><trkpt lat="43.447668495138274" lon="11.808096968430633"><ele>246.0</ele><time>2026-04-16T10:45:56.001Z</time></trkpt><trkpt lat="43.44755278257581" lon="11.808274385466564"><ele>246.0</ele><time>2026-04-16T10:45:57.001Z</time></trkpt><trkpt lat="43.447434756657415" lon="11.808451061961248"><ele>246.0</ele><time>2026-04-16T10:45:58.001Z</time></trkpt><trkpt lat="43.447310114398825" lon="11.808631052321081"><ele>246.0</ele><time>2026-04-16T10:45:59.001Z</time></trkpt><trkpt lat="43.44718240603661" lon="11.808804490212074"><ele>246.0</ele><time>2026-04-16T10:46:00.001Z</time></trkpt><trkpt lat="43.44705198095209" lon="11.808966844343036"><ele>246.0</ele><time>2026-04-16T10:46:01.001Z</time></trkpt><trkpt lat="43.4469174479872" lon="11.809115084601263"><ele>246.0</ele><time>2026-04-16T10:46:02.001Z</time></trkpt><trkpt lat="43.446771253049285" lon="11.809237412666421"><ele>246.0</ele><time>2026-04-16T10:46:03.001Z</time></trkpt><trkpt lat="43.446611498265725" lon="11.809326471793593"><ele>246.0</ele><time>2026-04-16T10:46:04.001Z</time></trkpt><trkpt lat="43.44643918581553" lon="11.809387036140189"><ele>246.0</ele><time>2026-04-16T10:46:05.001Z</time></trkpt><trkpt lat="43.446269419892275" lon="11.80945723196403"><ele>246.0</ele><time>2026-04-16T10:46:06.001Z</time></trkpt><trkpt lat="43.446113452799146" lon="11.80958012138587"><ele>246.0</ele><time>2026-04-16T10:46:07.001Z</time></trkpt><trkpt lat="43.445988615913755" lon="11.809752237212814"><ele>246.0</ele><time>2026-04-16T10:46:08.001Z</time></trkpt><trkpt lat="43.445890174121935" lon="11.809940588247569"><ele>246.0</ele><time>2026-04-16T10:46:09.001Z</time></trkpt><trkpt lat="43.44582342488722" lon="11.81012187964801"><ele>246.0</ele><time>2026-04-16T10:46:10.001Z</time></trkpt><trkpt lat="43.44577452197481" lon="11.81031123310815"><ele>246.0</ele><time>2026-04-16T10:46:11.001Z</time></trkpt><trkpt lat="43.4457457034502" lon="11.810480994950868"><ele>246.00000000000003</ele><time>2026-04-16T10:46:12.001Z</time></trkpt><trkpt lat="43.44572594069678" lon="11.8106163803892"><ele>246.00000000000003</ele><time>2026-04-16T10:46:13.001Z</time></trkpt><trkpt lat="43.4457037458385" lon="11.810747539101657"><ele>246.0</ele><time>2026-04-16T10:46:14.001Z</time></trkpt><trkpt lat="43.445689274624236" lon="11.810872654270705"><ele>246.0</ele><time>2026-04-16T10:46:15.001Z</time></trkpt><trkpt lat="43.445681364780675" lon="11.810961370116004"><ele>245.60000000000002</ele><time>2026-04-16T10:46:16.001Z</time></trkpt><trkpt lat="43.445784603350816" lon="11.811066765394331"><ele>245.20000000000002</ele><time>2026-04-16T10:46:21.001Z</time></trkpt><trkpt lat="43.445732524339824" lon="11.811006755590455"><ele>244.79999999999998</ele><time>2026-04-16T10:46:30.002Z</time></trkpt><trkpt lat="43.445666801266604" lon="11.811108180551154"><ele>244.39999999999998</ele><time>2026-04-16T10:46:40.002Z</time></trkpt><trkpt lat="43.445663771557776" lon="11.811215151858889"><ele>244.0</ele><time>2026-04-16T10:46:41.002Z</time></trkpt><trkpt lat="43.4456602332418" lon="11.81134319988838"><ele>244.0</ele><time>2026-04-16T10:46:42.002Z</time></trkpt><trkpt lat="43.44565764457847" lon="11.811487902954953"><ele>244.0</ele><time>2026-04-16T10:46:43.002Z</time></trkpt><trkpt lat="43.44565500052394" lon="11.811640780166801"><ele>244.0</ele><time>2026-04-16T10:46:44.002Z</time></trkpt><trkpt lat="43.445653613504966" lon="11.81180374442996"><ele>244.0</ele><time>2026-04-16T10:46:45.002Z</time></trkpt><trkpt lat="43.44565335543218" lon="11.811968866059095"><ele>244.0</ele><time>2026-04-16T10:46:46.002Z</time></trkpt><trkpt lat="43.445653794233294" lon="11.812119811852599"><ele>243.99999999999997</ele><time>2026-04-16T10:46:47.002Z</time></trkpt><trkpt lat="43.445654842370026" lon="11.812260165962622"><ele>243.99999999999997</ele><time>2026-04-16T10:46:48.002Z</time></trkpt><trkpt lat="43.44565507137059" lon="11.812397980651461"><ele>244.0</ele><time>2026-04-16T10:46:49.002Z</time></trkpt><trkpt lat="43.44565443486579" lon="11.812533051380793"><ele>244.0</ele><time>2026-04-16T10:46:49.999Z</time></trkpt><trkpt lat="43.445658560467194" lon="11.81265550751576"><ele>243.49999999999997</ele><time>2026-04-16T10:46:50.999Z</time></trkpt><trkpt lat="43.445654616719665" lon="11.812761688965649"><ele>243.0</ele><time>2026-04-16T10:46:51.999Z</time></trkpt><trkpt lat="43.44565657818347" lon="11.812862693919529"><ele>242.5</ele><time>2026-04-16T10:46:52.999Z</time></trkpt><trkpt lat="43.445658855302874" lon="11.812966600293823"><ele>242.0</ele><time>2026-04-16T10:46:53.999Z</time></trkpt><trkpt lat="43.44565394024345" lon="11.813088501607067"><ele>241.49999999999997</ele><time>2026-04-16T10:46:54.999Z</time></trkpt><trkpt lat="43.44564266956436" lon="11.813226115886394"><ele>241.0</ele><time>2026-04-16T10:46:55.999Z</time></trkpt><trkpt lat="43.44563076156398" lon="11.813361632331667"><ele>240.99999999999997</ele><time>2026-04-16T10:46:56.999Z</time></trkpt><trkpt lat="43.44562477068405" lon="11.813481551096908"><ele>241.0</ele><time>2026-04-16T10:46:57.999Z</time></trkpt><trkpt lat="43.4456160949513" lon="11.813595228632622"><ele>241.0</ele><time>2026-04-16T10:46:58.999Z</time></trkpt><trkpt lat="43.445610711729984" lon="11.813698022831497"><ele>241.0</ele><time>2026-04-16T10:46:59.999Z</time></trkpt><trkpt lat="43.44561058833318" lon="11.813784824732299"><ele>240.99999999999997</ele><time>2026-04-16T10:47:00.999Z</time></trkpt><trkpt lat="43.44559488173484" lon="11.813898052952865"><ele>241.0</ele><time>2026-04-16T10:47:02.999Z</time></trkpt><trkpt lat="43.44571842092738" lon="11.813931389844274"><ele>241.4</ele><time>2026-04-16T10:47:03.999Z</time></trkpt><trkpt lat="43.44579983189876" lon="11.813929922134976"><ele>241.8</ele><time>2026-04-16T10:47:05Z</time></trkpt><trkpt lat="43.445887983528294" lon="11.813965793365776"><ele>242.20000000000002</ele><time>2026-04-16T10:47:06Z</time></trkpt><trkpt lat="43.44598998851362" lon="11.813971094418038"><ele>242.60000000000002</ele><time>2026-04-16T10:47:07Z</time></trkpt><trkpt lat="43.446099903300556" lon="11.813998938270409"><ele>243.0</ele><time>2026-04-16T10:47:08Z</time></trkpt><trkpt lat="43.446213151625635" lon="11.814026659313798"><ele>242.25</ele><time>2026-04-16T10:47:09Z</time></trkpt><trkpt lat="43.44633581768618" lon="11.814049841676946"><ele>241.5</ele><time>2026-04-16T10:47:10Z</time></trkpt><trkpt lat="43.44646104433598" lon="11.8140778314271"><ele>240.75</ele><time>2026-04-16T10:47:11Z</time></trkpt><trkpt lat="43.44658457310395" lon="11.814115972578673"><ele>240.0</ele><time>2026-04-16T10:47:12Z</time></trkpt><trkpt lat="43.446694215302884" lon="11.814163200811597"><ele>240.0</ele><time>2026-04-16T10:47:13Z</time></trkpt><trkpt lat="43.4468150545294" lon="11.814183087779114"><ele>240.0</ele><time>2026-04-16T10:47:14Z</time></trkpt><trkpt lat="43.44693623658102" lon="11.814236480579693"><ele>240.0</ele><time>2026-04-16T10:47:15Z</time></trkpt><trkpt lat="43.44705694023904" lon="11.814280436670856"><ele>240.0</ele><time>2026-04-16T10:47:16Z</time></trkpt><trkpt lat="43.447177449777556" lon="11.814328969701576"><ele>241.5</ele><time>2026-04-16T10:47:17Z</time></trkpt><trkpt lat="43.44728955444609" lon="11.814406624020235"><ele>243.0</ele><time>2026-04-16T10:47:18Z</time></trkpt><trkpt lat="43.447414367904614" lon="11.814455940345269"><ele>244.5</ele><time>2026-04-16T10:47:19Z</time></trkpt><trkpt lat="43.447530752134476" lon="11.814519522161874"><ele>246.0</ele><time>2026-04-16T10:47:20Z</time></trkpt><trkpt lat="43.44764751938999" lon="11.814582281276307"><ele>246.0</ele><time>2026-04-16T10:47:21Z</time></trkpt><trkpt lat="43.447765673398315" lon="11.8146455478165"><ele>246.0</ele><time>2026-04-16T10:47:22Z</time></trkpt><trkpt lat="43.447881931081554" lon="11.814702237187568"><ele>246.0</ele><time>2026-04-16T10:47:23Z</time></trkpt><trkpt lat="43.44800287659065" lon="11.814758095797805"><ele>246.0</ele><time>2026-04-16T10:47:24Z</time></trkpt><trkpt lat="43.448130998455696" lon="11.81483057429427"><ele>244.25</ele><time>2026-04-16T10:47:25Z</time></trkpt><trkpt lat="43.44825304063376" lon="11.814913436435564"><ele>242.5</ele><time>2026-04-16T10:47:26Z</time></trkpt><trkpt lat="43.44838233766026" lon="11.814985316203757"><ele>240.75</ele><time>2026-04-16T10:47:27Z</time></trkpt><trkpt lat="43.448514404754036" lon="11.815060805652388"><ele>239.0</ele><time>2026-04-16T10:47:28Z</time></trkpt><trkpt lat="43.44864302705936" lon="11.815139211622833"><ele>239.39999999999998</ele><time>2026-04-16T10:47:29Z</time></trkpt><trkpt lat="43.448755594337236" lon="11.815204874915162"><ele>239.79999999999998</ele><time>2026-04-16T10:47:30Z</time></trkpt><trkpt lat="43.44882516683412" lon="11.815243910439818"><ele>240.20000000000002</ele><time>2026-04-16T10:47:31Z</time></trkpt><trkpt lat="43.448888931493464" lon="11.815322999663296"><ele>240.60000000000002</ele><time>2026-04-16T10:47:34Z</time></trkpt><trkpt lat="43.448841396911654" lon="11.815492021245744"><ele>241.0</ele><time>2026-04-16T10:47:35Z</time></trkpt><trkpt lat="43.4488384690088" lon="11.815610167033528"><ele>241.0</ele><time>2026-04-16T10:47:36Z</time></trkpt><trkpt lat="43.4488289147385" lon="11.815745155674216"><ele>241.00000000000003</ele><time>2026-04-16T10:47:37Z</time></trkpt><trkpt lat="43.448837132771864" lon="11.815890022675418"><ele>241.00000000000003</ele><time>2026-04-16T10:47:38Z</time></trkpt><trkpt lat="43.44886312469461" lon="11.816032981359799"><ele>241.0</ele><time>2026-04-16T10:47:39Z</time></trkpt><trkpt lat="43.44887792503312" lon="11.816175038330886"><ele>241.0</ele><time>2026-04-16T10:47:40Z</time></trkpt><trkpt lat="43.44890485356181" lon="11.816316998406487"><ele>242.0</ele><time>2026-04-16T10:47:41.001Z</time></trkpt><trkpt lat="43.44894179227697" lon="11.816460417380524"><ele>243.00000000000003</ele><time>2026-04-16T10:47:42.001Z</time></trkpt><trkpt lat="43.44898215684188" lon="11.816599681647427"><ele>244.00000000000003</ele><time>2026-04-16T10:47:43.001Z</time></trkpt><trkpt lat="43.44901963444616" lon="11.81672685413216"><ele>245.0</ele><time>2026-04-16T10:47:44.001Z</time></trkpt><trkpt lat="43.449057889375" lon="11.816841638902632"><ele>246.0</ele><time>2026-04-16T10:47:45.001Z</time></trkpt><trkpt lat="43.44909237261419" lon="11.816945238251078"><ele>246.20000000000002</ele><time>2026-04-16T10:47:46.001Z</time></trkpt><trkpt lat="43.44911773735887" lon="11.81704412738233"><ele>246.40000000000003</ele><time>2026-04-16T10:47:47.001Z</time></trkpt><trkpt lat="43.44912147100138" lon="11.817134846568093"><ele>246.6</ele><time>2026-04-16T10:47:48.001Z</time></trkpt><trkpt lat="43.449061633847386" lon="11.817332955230873"><ele>246.8</ele><time>2026-04-16T10:47:50.001Z</time></trkpt><trkpt lat="43.4490152284847" lon="11.817443349654573"><ele>247.0</ele><time>2026-04-16T10:47:51.001Z</time></trkpt><trkpt lat="43.44896887211329" lon="11.817563240925788"><ele>247.99999999999997</ele><time>2026-04-16T10:47:52.001Z</time></trkpt><trkpt lat="43.44891789941306" lon="11.817668056053222"><ele>249.0</ele><time>2026-04-16T10:47:53.001Z</time></trkpt><trkpt lat="43.44888653090889" lon="11.817787638462093"><ele>250.0</ele><time>2026-04-16T10:47:54.001Z</time></trkpt><trkpt lat="43.44887356598914" lon="11.817897019133508"><ele>251.0</ele><time>2026-04-16T10:47:55.001Z</time></trkpt><trkpt lat="43.448869473624384" lon="11.817990010836338"><ele>251.99999999999997</ele><time>2026-04-16T10:47:56.001Z</time></trkpt><trkpt lat="43.44888319444792" lon="11.818093399113868"><ele>253.0</ele><time>2026-04-16T10:47:58.001Z</time></trkpt><trkpt lat="43.44895312425608" lon="11.81829229648424"><ele>253.0</ele><time>2026-04-16T10:48:23.002Z</time></trkpt><trkpt lat="43.44901330032467" lon="11.818412140568515"><ele>253.0</ele><time>2026-04-16T10:48:24.002Z</time></trkpt><trkpt lat="43.44908161607288" lon="11.818520409588782"><ele>253.0</ele><time>2026-04-16T10:48:25.002Z</time></trkpt><trkpt lat="43.449145670336364" lon="11.818601463526099"><ele>253.0</ele><time>2026-04-16T10:48:26.002Z</time></trkpt><trkpt lat="43.44921403923663" lon="11.818689541013743"><ele>253.0</ele><time>2026-04-16T10:48:27.002Z</time></trkpt><trkpt lat="43.449292637831434" lon="11.818754490122696"><ele>256.0</ele><time>2026-04-16T10:48:28.002Z</time></trkpt><trkpt lat="43.44937514280516" lon="11.81879310003486"><ele>259.0</ele><time>2026-04-16T10:48:29.002Z</time></trkpt><trkpt lat="43.44944298700882" lon="11.818809406328642"><ele>262.0</ele><time>2026-04-16T10:48:30.002Z</time></trkpt><trkpt lat="43.449472787695335" lon="11.81916599680596"><ele>265.0</ele><time>2026-04-16T10:48:32.002Z</time></trkpt><trkpt lat="43.44947819464809" lon="11.819297627952745"><ele>263.2</ele><time>2026-04-16T10:48:33.002Z</time></trkpt><trkpt lat="43.44948280132174" lon="11.819423841589558"><ele>261.4</ele><time>2026-04-16T10:48:34.002Z</time></trkpt><trkpt lat="43.44948012075027" lon="11.819554885620974"><ele>259.6</ele><time>2026-04-16T10:48:35.002Z</time></trkpt><trkpt lat="43.449492511205946" lon="11.819642298014964"><ele>257.8</ele><time>2026-04-16T10:48:36.002Z</time></trkpt><trkpt lat="43.44957013378849" lon="11.819763128821783"><ele>256.0</ele><time>2026-04-16T10:48:38.002Z</time></trkpt><trkpt lat="43.44964257276765" lon="11.819836677565684"><ele>256.0</ele><time>2026-04-16T10:48:39.002Z</time></trkpt><trkpt lat="43.44972190284204" lon="11.819934613867945"><ele>256.0</ele><time>2026-04-16T10:48:40.002Z</time></trkpt><trkpt lat="43.449794032127436" lon="11.820031238176874"><ele>256.0</ele><time>2026-04-16T10:48:41.002Z</time></trkpt><trkpt lat="43.44985786518412" lon="11.8201373284225"><ele>256.0</ele><time>2026-04-16T10:48:42.002Z</time></trkpt><trkpt lat="43.44988974379533" lon="11.820249789843963"><ele>256.0</ele><time>2026-04-16T10:48:43.002Z</time></trkpt><trkpt lat="43.44991614433813" lon="11.820380979658534"><ele>259.40000000000003</ele><time>2026-04-16T10:48:44.002Z</time></trkpt><trkpt lat="43.449929294126804" lon="11.820520643698147"><ele>262.8</ele><time>2026-04-16T10:48:45.002Z</time></trkpt><trkpt lat="43.449943636583484" lon="11.820662566426845"><ele>266.20000000000005</ele><time>2026-04-16T10:48:46.002Z</time></trkpt><trkpt lat="43.449985337099335" lon="11.820799167097455"><ele>269.6</ele><time>2026-04-16T10:48:47.002Z</time></trkpt><trkpt lat="43.45003299230087" lon="11.820917826014533"><ele>273.0</ele><time>2026-04-16T10:48:48.002Z</time></trkpt><trkpt lat="43.45008292545712" lon="11.821030713700303"><ele>276.2</ele><time>2026-04-16T10:48:49.002Z</time></trkpt><trkpt lat="43.45012196150277" lon="11.821152909597178"><ele>279.4</ele><time>2026-04-16T10:48:50.002Z</time></trkpt><trkpt lat="43.450164817212" lon="11.821262183808196"><ele>282.59999999999997</ele><time>2026-04-16T10:48:51.002Z</time></trkpt><trkpt lat="43.450195026200916" lon="11.82136887653053"><ele>285.8</ele><time>2026-04-16T10:48:52.002Z</time></trkpt><trkpt lat="43.45024160672041" lon="11.821477830448957"><ele>289.0</ele><time>2026-04-16T10:48:53.002Z</time></trkpt><trkpt lat="43.450306178461396" lon="11.821591046095316"><ele>289.0</ele><time>2026-04-16T10:48:54.002Z</time></trkpt><trkpt lat="43.45036851529139" lon="11.8217024133484"><ele>289.0</ele><time>2026-04-16T10:48:55.002Z</time></trkpt><trkpt lat="43.45041062901082" lon="11.821803288172932"><ele>289.0</ele><time>2026-04-16T10:48:55.999Z</time></trkpt><trkpt lat="43.4504700517394" lon="11.821881303528343"><ele>289.0</ele><time>2026-04-16T10:48:56.999Z</time></trkpt><trkpt lat="43.45055225467085" lon="11.82193666427142"><ele>289.0</ele><time>2026-04-16T10:48:57.999Z</time></trkpt><trkpt lat="43.45063622350912" lon="11.82198914899379"><ele>286.2</ele><time>2026-04-16T10:48:58.999Z</time></trkpt><trkpt lat="43.450694292653324" lon="11.822064675864263"><ele>283.4</ele><time>2026-04-16T10:48:59.999Z</time></trkpt><trkpt lat="43.450746642027404" lon="11.822163409725594"><ele>280.6</ele><time>2026-04-16T10:49:01Z</time></trkpt><trkpt lat="43.450801736474055" lon="11.822278008316168"><ele>277.8</ele><time>2026-04-16T10:49:02Z</time></trkpt><trkpt lat="43.45087184568847" lon="11.822378644307696"><ele>275.0</ele><time>2026-04-16T10:49:03Z</time></trkpt><trkpt lat="43.45092741629685" lon="11.822467707376333"><ele>275.0</ele><time>2026-04-16T10:49:04Z</time></trkpt><trkpt lat="43.45098528544633" lon="11.822567075289399"><ele>275.0</ele><time>2026-04-16T10:49:05Z</time></trkpt><trkpt lat="43.45104807406346" lon="11.822667470518217"><ele>275.0</ele><time>2026-04-16T10:49:06Z</time></trkpt><trkpt lat="43.45112888095561" lon="11.82275240125809"><ele>275.0</ele><time>2026-04-16T10:49:07Z</time></trkpt><trkpt lat="43.45120910823233" lon="11.822836008268874"><ele>275.0</ele><time>2026-04-16T10:49:08Z</time></trkpt><trkpt lat="43.45129497652353" lon="11.822900883357113"><ele>272.8</ele><time>2026-04-16T10:49:09Z</time></trkpt><trkpt lat="43.45134901445683" lon="11.822985576918208"><ele>270.6</ele><time>2026-04-16T10:49:10Z</time></trkpt><trkpt lat="43.451416490278746" lon="11.823104601835018"><ele>268.4</ele><time>2026-04-16T10:49:11Z</time></trkpt><trkpt lat="43.45149769791022" lon="11.823228471153433"><ele>266.2</ele><time>2026-04-16T10:49:12Z</time></trkpt><trkpt lat="43.451570355442904" lon="11.823334511785987"><ele>264.0</ele><time>2026-04-16T10:49:13Z</time></trkpt><trkpt lat="43.45162784644666" lon="11.823439121909454"><ele>265.1666666666667</ele><time>2026-04-16T10:49:14Z</time></trkpt><trkpt lat="43.45167607018587" lon="11.823529044244756"><ele>266.3333333333333</ele><time>2026-04-16T10:49:15Z</time></trkpt><trkpt lat="43.45170187213983" lon="11.82362457953485"><ele>267.5</ele><time>2026-04-16T10:49:16Z</time></trkpt><trkpt lat="43.45172220690654" lon="11.82371853667376"><ele>268.66666666666663</ele><time>2026-04-16T10:49:17Z</time></trkpt><trkpt lat="43.451709624906556" lon="11.823832443941393"><ele>269.8333333333333</ele><time>2026-04-16T10:49:18Z</time></trkpt><trkpt lat="43.45168262642947" lon="11.823972278734018"><ele>271.0</ele><time>2026-04-16T10:49:19Z</time></trkpt><trkpt lat="43.451664846191335" lon="11.824107304576534"><ele>271.0</ele><time>2026-04-16T10:49:20Z</time></trkpt><trkpt lat="43.451666094519766" lon="11.824236018153501"><ele>271.0</ele><time>2026-04-16T10:49:21Z</time></trkpt><trkpt lat="43.45168006986882" lon="11.824362870473477"><ele>271.0</ele><time>2026-04-16T10:49:22Z</time></trkpt><trkpt lat="43.451710225518234" lon="11.824468654627173"><ele>271.0</ele><time>2026-04-16T10:49:23Z</time></trkpt><trkpt lat="43.45174165835314" lon="11.82457199670409"><ele>271.0</ele><time>2026-04-16T10:49:24Z</time></trkpt><trkpt lat="43.451755089644685" lon="11.824687204692443"><ele>271.0</ele><time>2026-04-16T10:49:25Z</time></trkpt><trkpt lat="43.45174995147704" lon="11.824829885591637"><ele>270.8333333333333</ele><time>2026-04-16T10:49:26Z</time></trkpt><trkpt lat="43.451747798631004" lon="11.824979250170284"><ele>270.66666666666663</ele><time>2026-04-16T10:49:27Z</time></trkpt><trkpt lat="43.4517416444464" lon="11.825122060379222"><ele>270.5</ele><time>2026-04-16T10:49:28Z</time></trkpt><trkpt lat="43.451736366524585" lon="11.825234405444053"><ele>270.3333333333333</ele><time>2026-04-16T10:49:29Z</time></trkpt><trkpt lat="43.45172877828419" lon="11.825335463328685"><ele>270.1666666666667</ele><time>2026-04-16T10:49:30Z</time></trkpt><trkpt lat="43.451708029961054" lon="11.82542416149634"><ele>270.0</ele><time>2026-04-16T10:49:31Z</time></trkpt><trkpt lat="43.45166868247484" lon="11.82550367956817"><ele>270.0</ele><time>2026-04-16T10:49:32Z</time></trkpt><trkpt lat="43.45161613838176" lon="11.825578014742877"><ele>270.0</ele><time>2026-04-16T10:49:33Z</time></trkpt><trkpt lat="43.45155695356262" lon="11.825628887954364"><ele>270.0</ele><time>2026-04-16T10:49:34Z</time></trkpt><trkpt lat="43.45149492361424" lon="11.825661011241348"><ele>270.0</ele><time>2026-04-16T10:49:35Z</time></trkpt><trkpt lat="43.45139272690722" lon="11.825713331045074"><ele>270.0</ele><time>2026-04-16T10:49:37Z</time></trkpt><trkpt lat="43.4512987861171" lon="11.82572809206646"><ele>270.0</ele><time>2026-04-16T10:49:39.001Z</time></trkpt><trkpt lat="43.451275144348685" lon="11.825647538378812"><ele>270.2</ele><time>2026-04-16T10:49:40.001Z</time></trkpt><trkpt lat="43.45126420722255" lon="11.825521992017375"><ele>270.4</ele><time>2026-04-16T10:49:41.001Z</time></trkpt><trkpt lat="43.45126050356823" lon="11.82539136035684"><ele>270.6</ele><time>2026-04-16T10:49:42.001Z</time></trkpt><trkpt lat="43.45125132330341" lon="11.825284284807504"><ele>270.8</ele><time>2026-04-16T10:49:43.001Z</time></trkpt><trkpt lat="43.45123537346161" lon="11.825192906489107"><ele>271.0</ele><time>2026-04-16T10:49:44.001Z</time></trkpt><trkpt lat="43.4512530876641" lon="11.82502994240664"><ele>273.5</ele><time>2026-04-16T10:49:46.001Z</time></trkpt><trkpt lat="43.45128235438864" lon="11.824944646372352"><ele>276.0</ele><time>2026-04-16T10:49:47.001Z</time></trkpt><trkpt lat="43.4511949746029" lon="11.824826024181649"><ele>278.5</ele><time>2026-04-16T10:49:49.001Z</time></trkpt><trkpt lat="43.45112773448306" lon="11.824776500119592"><ele>281.0</ele><time>2026-04-16T10:49:50.001Z</time></trkpt><trkpt lat="43.45108261845582" lon="11.824701629766244"><ele>283.5</ele><time>2026-04-16T10:49:51.001Z</time></trkpt><trkpt lat="43.45110828741195" lon="11.824615124868746"><ele>286.0</ele><time>2026-04-16T10:49:52.001Z</time></trkpt><trkpt lat="43.45107741308252" lon="11.824513196191711"><ele>286.0</ele><time>2026-04-16T10:49:53.001Z</time></trkpt><trkpt lat="43.45106431477757" lon="11.824391724202515"><ele>286.0</ele><time>2026-04-16T10:49:54.001Z</time></trkpt><trkpt lat="43.45103474841083" lon="11.824262710606936"><ele>286.0</ele><time>2026-04-16T10:49:55.001Z</time></trkpt><trkpt lat="43.450956106023455" lon="11.824108269218334"><ele>286.0</ele><time>2026-04-16T10:49:56.001Z</time></trkpt><trkpt lat="43.45089460871784" lon="11.823967810892395"><ele>286.0</ele><time>2026-04-16T10:49:57.001Z</time></trkpt><trkpt lat="43.45083048505255" lon="11.823826348406651"><ele>287.40000000000003</ele><time>2026-04-16T10:49:58.001Z</time></trkpt><trkpt lat="43.45077488001831" lon="11.82371421351869"><ele>288.8</ele><time>2026-04-16T10:49:59.001Z</time></trkpt><trkpt lat="43.45072840901045" lon="11.823644240626699"><ele>290.20000000000005</ele><time>2026-04-16T10:50:00.001Z</time></trkpt><trkpt lat="43.45057897640989" lon="11.823584316368725"><ele>291.6</ele><time>2026-04-16T10:50:02.001Z</time></trkpt><trkpt lat="43.450476324894865" lon="11.823563240973764"><ele>293.0</ele><time>2026-04-16T10:50:03.001Z</time></trkpt><trkpt lat="43.4503883786067" lon="11.82352637762259"><ele>295.6</ele><time>2026-04-16T10:50:04.001Z</time></trkpt><trkpt lat="43.45033108144872" lon="11.823477076109546"><ele>298.20000000000005</ele><time>2026-04-16T10:50:05.001Z</time></trkpt><trkpt lat="43.450321972976404" lon="11.823353905629077"><ele>300.8</ele><time>2026-04-16T10:50:06.001Z</time></trkpt><trkpt lat="43.450264621514485" lon="11.823239268645787"><ele>303.40000000000003</ele><time>2026-04-16T10:50:07.001Z</time></trkpt><trkpt lat="43.45018878016772" lon="11.823119464250395"><ele>306.0</ele><time>2026-04-16T10:50:08.001Z</time></trkpt><trkpt lat="43.450077851587714" lon="11.82304179786183"><ele>306.0</ele><time>2026-04-16T10:50:09.001Z</time></trkpt><trkpt lat="43.44996584014179" lon="11.8229689362477"><ele>306.0</ele><time>2026-04-16T10:50:10.001Z</time></trkpt><trkpt lat="43.449840145025725" lon="11.822917332210212"><ele>306.0</ele><time>2026-04-16T10:50:11.001Z</time></trkpt><trkpt lat="43.449728422645016" lon="11.822853648149927"><ele>306.0</ele><time>2026-04-16T10:50:12.001Z</time></trkpt><trkpt lat="43.449638233512715" lon="11.822787435142253"><ele>309.0</ele><time>2026-04-16T10:50:13.001Z</time></trkpt><trkpt lat="43.449557671725664" lon="11.822753014080389"><ele>312.0</ele><time>2026-04-16T10:50:14.001Z</time></trkpt><trkpt lat="43.44947840495527" lon="11.822785593697109"><ele>315.0</ele><time>2026-04-16T10:50:15.001Z</time></trkpt><trkpt lat="43.449411594177654" lon="11.8228679251878"><ele>318.0</ele><time>2026-04-16T10:50:16.002Z</time></trkpt><trkpt lat="43.449322613409464" lon="11.822920361973095"><ele>321.0</ele><time>2026-04-16T10:50:17.002Z</time></trkpt><trkpt lat="43.44923286551793" lon="11.8228685668927"><ele>321.0</ele><time>2026-04-16T10:50:18.002Z</time></trkpt><trkpt lat="43.449146166012355" lon="11.822786569805691"><ele>321.0</ele><time>2026-04-16T10:50:19.002Z</time></trkpt><trkpt lat="43.449066663216804" lon="11.822691682277242"><ele>321.0</ele><time>2026-04-16T10:50:20.002Z</time></trkpt><trkpt lat="43.44902666718782" lon="11.822561183695633"><ele>321.0</ele><time>2026-04-16T10:50:21.002Z</time></trkpt><trkpt lat="43.449002992923575" lon="11.822417434700212"><ele>321.0</ele><time>2026-04-16T10:50:22.002Z</time></trkpt><trkpt lat="43.44897941728552" lon="11.822266463541624"><ele>322.4</ele><time>2026-04-16T10:50:23.002Z</time></trkpt><trkpt lat="43.44895528265478" lon="11.822128691712377"><ele>323.8</ele><time>2026-04-16T10:50:24.002Z</time></trkpt><trkpt lat="43.448913230555114" lon="11.822035949533245"><ele>325.2</ele><time>2026-04-16T10:50:25.002Z</time></trkpt><trkpt lat="43.44881727100688" lon="11.821970891583627"><ele>326.59999999999997</ele><time>2026-04-16T10:50:26.002Z</time></trkpt><trkpt lat="43.448704332981315" lon="11.821913898242242"><ele>328.0</ele><time>2026-04-16T10:50:27.002Z</time></trkpt><trkpt lat="43.44858032338247" lon="11.821864904623483"><ele>331.4</ele><time>2026-04-16T10:50:28.002Z</time></trkpt><trkpt lat="43.448480311505286" lon="11.821770607320223"><ele>334.79999999999995</ele><time>2026-04-16T10:50:29.002Z</time></trkpt><trkpt lat="43.44838948252921" lon="11.821698007539519"><ele>338.2</ele><time>2026-04-16T10:50:30.002Z</time></trkpt><trkpt lat="43.44831196012403" lon="11.821620617043187"><ele>341.6</ele><time>2026-04-16T10:50:31.002Z</time></trkpt><trkpt lat="43.448230617824514" lon="11.821532106560696"><ele>345.0</ele><time>2026-04-16T10:50:32.002Z</time></trkpt><trkpt lat="43.44814243494067" lon="11.821432977194803"><ele>345.0</ele><time>2026-04-16T10:50:33.002Z</time></trkpt><trkpt lat="43.44805160024812" lon="11.821325860576449"><ele>345.0</ele><time>2026-04-16T10:50:34.002Z</time></trkpt><trkpt lat="43.447958143150984" lon="11.821215102115564"><ele>345.0</ele><time>2026-04-16T10:50:35.002Z</time></trkpt><trkpt lat="43.447862166390145" lon="11.821102990628187"><ele>345.0</ele><time>2026-04-16T10:50:36.002Z</time></trkpt><trkpt lat="43.44776069527431" lon="11.82098516660412"><ele>346.25</ele><time>2026-04-16T10:50:37.002Z</time></trkpt><trkpt lat="43.44765935602892" lon="11.820871567849544"><ele>347.5</ele><time>2026-04-16T10:50:38.002Z</time></trkpt><trkpt lat="43.447557263006246" lon="11.820769465359312"><ele>348.75</ele><time>2026-04-16T10:50:39.002Z</time></trkpt><trkpt lat="43.44745133945085" lon="11.820695830376135"><ele>350.0</ele><time>2026-04-16T10:50:40.002Z</time></trkpt><trkpt lat="43.44734718426151" lon="11.820612629245652"><ele>350.0</ele><time>2026-04-16T10:50:41.002Z</time></trkpt><trkpt lat="43.44725432500349" lon="11.82050969885461"><ele>350.0</ele><time>2026-04-16T10:50:42.002Z</time></trkpt><trkpt lat="43.44715033670903" lon="11.820435877142401"><ele>350.0</ele><time>2026-04-16T10:50:43.002Z</time></trkpt><trkpt lat="43.447042405890784" lon="11.82039654626593"><ele>350.0</ele><time>2026-04-16T10:50:44.002Z</time></trkpt><trkpt lat="43.446938737063014" lon="11.820343399217876"><ele>351.5</ele><time>2026-04-16T10:50:45.002Z</time></trkpt><trkpt lat="43.44684201365957" lon="11.820270592743059"><ele>353.0</ele><time>2026-04-16T10:50:46.002Z</time></trkpt><trkpt lat="43.44673521908168" lon="11.820211291910578"><ele>354.5</ele><time>2026-04-16T10:50:47.002Z</time></trkpt><trkpt lat="43.446624276606464" lon="11.820151133264012"><ele>356.0</ele><time>2026-04-16T10:50:48.002Z</time></trkpt><trkpt lat="43.44649857144751" lon="11.820116120395094"><ele>352.20000000000005</ele><time>2026-04-16T10:50:49.002Z</time></trkpt><trkpt lat="43.44637421777731" lon="11.820064042404994"><ele>348.40000000000003</ele><time>2026-04-16T10:50:50.002Z</time></trkpt><trkpt lat="43.44625882401315" lon="11.82002445406535"><ele>344.6</ele><time>2026-04-16T10:50:51.002Z</time></trkpt><trkpt lat="43.446162374969795" lon="11.819974153764116"><ele>340.8</ele><time>2026-04-16T10:50:52.002Z</time></trkpt><trkpt lat="43.44607236136547" lon="11.820004215637088"><ele>337.0</ele><time>2026-04-16T10:50:53.002Z</time></trkpt><trkpt lat="43.446005683456555" lon="11.82004188868414"><ele>336.6</ele><time>2026-04-16T10:50:54.002Z</time></trkpt><trkpt lat="43.445972681998775" lon="11.82013181214697"><ele>336.20000000000005</ele><time>2026-04-16T10:50:55.002Z</time></trkpt><trkpt lat="43.44597905523321" lon="11.820250616868313"><ele>335.8</ele><time>2026-04-16T10:50:56.003Z</time></trkpt><trkpt lat="43.44603921217259" lon="11.82039921404629"><ele>335.4</ele><time>2026-04-16T10:50:57.003Z</time></trkpt><trkpt lat="43.44605730771942" lon="11.820534628941214"><ele>335.0</ele><time>2026-04-16T10:50:58.003Z</time></trkpt><trkpt lat="43.44609369519046" lon="11.820685790240328"><ele>336.75</ele><time>2026-04-16T10:50:59.003Z</time></trkpt><trkpt lat="43.44611853515404" lon="11.820844566948235"><ele>338.5</ele><time>2026-04-16T10:51:00.003Z</time></trkpt><trkpt lat="43.44612777304606" lon="11.821003928340653"><ele>340.25</ele><time>2026-04-16T10:51:01.003Z</time></trkpt><trkpt lat="43.4460966837259" lon="11.82116358378751"><ele>342.0</ele><time>2026-04-16T10:51:02Z</time></trkpt><trkpt lat="43.446058413220996" lon="11.82133495763256"><ele>344.40000000000003</ele><time>2026-04-16T10:51:03Z</time></trkpt><trkpt lat="43.446030700276836" lon="11.821501708857486"><ele>346.8</ele><time>2026-04-16T10:51:04Z</time></trkpt><trkpt lat="43.4460137681576" lon="11.821651877895416"><ele>349.2</ele><time>2026-04-16T10:51:05Z</time></trkpt><trkpt lat="43.44597879507521" lon="11.821773186530208"><ele>351.6</ele><time>2026-04-16T10:51:06Z</time></trkpt><trkpt lat="43.44596010622178" lon="11.82189256525305"><ele>354.0</ele><time>2026-04-16T10:51:07Z</time></trkpt><trkpt lat="43.44589646468045" lon="11.821983268492735"><ele>354.4</ele><time>2026-04-16T10:51:08Z</time></trkpt><trkpt lat="43.44583536615691" lon="11.822094474325791"><ele>354.79999999999995</ele><time>2026-04-16T10:51:09Z</time></trkpt><trkpt lat="43.445778273202734" lon="11.822227371107067"><ele>355.20000000000005</ele><time>2026-04-16T10:51:10Z</time></trkpt><trkpt lat="43.445716325934534" lon="11.822352845212572"><ele>355.6</ele><time>2026-04-16T10:51:11Z</time></trkpt><trkpt lat="43.44564842068866" lon="11.822464474202322"><ele>356.0</ele><time>2026-04-16T10:51:12Z</time></trkpt><trkpt lat="43.44557330313576" lon="11.822537694594226"><ele>355.0</ele><time>2026-04-16T10:51:13Z</time></trkpt><trkpt lat="43.4454615938519" lon="11.822636414029386"><ele>354.0</ele><time>2026-04-16T10:51:15Z</time></trkpt><trkpt lat="43.44537820798869" lon="11.822658625359601"><ele>353.0</ele><time>2026-04-16T10:51:16Z</time></trkpt><trkpt lat="43.4452872283052" lon="11.822713297293152"><ele>352.0</ele><time>2026-04-16T10:51:17Z</time></trkpt><trkpt lat="43.445215399846454" lon="11.822796671980969"><ele>351.0</ele><time>2026-04-16T10:51:18Z</time></trkpt><trkpt lat="43.44516484215679" lon="11.822908612016832"><ele>350.0</ele><time>2026-04-16T10:51:19Z</time></trkpt><trkpt lat="43.445133588618944" lon="11.82305526331079"><ele>349.0</ele><time>2026-04-16T10:51:20Z</time></trkpt><trkpt lat="43.44505862732959" lon="11.823198319315228"><ele>348.0</ele><time>2026-04-16T10:51:21.001Z</time></trkpt><trkpt lat="43.44500507221102" lon="11.82335565165964"><ele>347.0</ele><time>2026-04-16T10:51:22.001Z</time></trkpt><trkpt lat="43.44491285358086" lon="11.823500864969661"><ele>346.75</ele><time>2026-04-16T10:51:23.001Z</time></trkpt><trkpt lat="43.44482705686963" lon="11.823645736177392"><ele>346.5</ele><time>2026-04-16T10:51:24.001Z</time></trkpt><trkpt lat="43.4447507466256" lon="11.823784113714495"><ele>346.25</ele><time>2026-04-16T10:51:25.001Z</time></trkpt><trkpt lat="43.444679181659176" lon="11.823911588160968"><ele>346.0</ele><time>2026-04-16T10:51:26.001Z</time></trkpt><trkpt lat="43.44457758872324" lon="11.824011418847867"><ele>346.0</ele><time>2026-04-16T10:51:27.001Z</time></trkpt><trkpt lat="43.44449078402627" lon="11.82412893822929"><ele>346.0</ele><time>2026-04-16T10:51:28.001Z</time></trkpt><trkpt lat="43.44440323386786" lon="11.824221286392445"><ele>346.0</ele><time>2026-04-16T10:51:29.001Z</time></trkpt><trkpt lat="43.44433177255333" lon="11.824341590671972"><ele>346.0</ele><time>2026-04-16T10:51:30.001Z</time></trkpt><trkpt lat="43.44429166440841" lon="11.824498726017822"><ele>346.25</ele><time>2026-04-16T10:51:31.001Z</time></trkpt><trkpt lat="43.444273131604554" lon="11.824670877833299"><ele>346.5</ele><time>2026-04-16T10:51:32.001Z</time></trkpt><trkpt lat="43.444246093069374" lon="11.82485696033301"><ele>346.75</ele><time>2026-04-16T10:51:33.001Z</time></trkpt><trkpt lat="43.44417357798756" lon="11.825022159962824"><ele>347.0</ele><time>2026-04-16T10:51:34.001Z</time></trkpt><trkpt lat="43.444065978666615" lon="11.825168930209596"><ele>347.25</ele><time>2026-04-16T10:51:35.001Z</time></trkpt><trkpt lat="43.44396150354343" lon="11.82531370965794"><ele>347.5</ele><time>2026-04-16T10:51:36.001Z</time></trkpt><trkpt lat="43.4438493263539" lon="11.825444957454565"><ele>347.75</ele><time>2026-04-16T10:51:37.001Z</time></trkpt><trkpt lat="43.44373272600995" lon="11.825562024552278"><ele>348.0</ele><time>2026-04-16T10:51:38.001Z</time></trkpt><trkpt lat="43.443623201942266" lon="11.825703136931274"><ele>348.0</ele><time>2026-04-16T10:51:39.001Z</time></trkpt><trkpt lat="43.44352331689811" lon="11.825854228229698"><ele>348.0</ele><time>2026-04-16T10:51:40.001Z</time></trkpt><trkpt lat="43.44343710354576" lon="11.826022479872076"><ele>348.0</ele><time>2026-04-16T10:51:41.001Z</time></trkpt><trkpt lat="43.44334362613729" lon="11.826188739603149"><ele>349.75</ele><time>2026-04-16T10:51:42.001Z</time></trkpt><trkpt lat="43.44324897991249" lon="11.826325167482883"><ele>351.5</ele><time>2026-04-16T10:51:43.001Z</time></trkpt><trkpt lat="43.4431505030009" lon="11.826444838629614"><ele>353.25</ele><time>2026-04-16T10:51:44.001Z</time></trkpt><trkpt lat="43.443041125800946" lon="11.82655102234226"><ele>355.0</ele><time>2026-04-16T10:51:45.001Z</time></trkpt><trkpt lat="43.44292743918557" lon="11.826654668188821"><ele>355.4</ele><time>2026-04-16T10:51:46.001Z</time></trkpt><trkpt lat="43.44281116384939" lon="11.826767567931062"><ele>355.8</ele><time>2026-04-16T10:51:47.001Z</time></trkpt><trkpt lat="43.44271614396748" lon="11.826863941481536"><ele>356.20000000000005</ele><time>2026-04-16T10:51:48.001Z</time></trkpt><trkpt lat="43.44264141867027" lon="11.826939734579787"><ele>356.6</ele><time>2026-04-16T10:51:49.001Z</time></trkpt><trkpt lat="43.44255720430834" lon="11.826982347284245"><ele>357.0</ele><time>2026-04-16T10:51:50.001Z</time></trkpt><trkpt lat="43.442433785733904" lon="11.82702282303308"><ele>357.0</ele><time>2026-04-16T10:51:51.001Z</time></trkpt><trkpt lat="43.4423110062564" lon="11.82707060020041"><ele>357.0</ele><time>2026-04-16T10:51:52.001Z</time></trkpt><trkpt lat="43.44219470899557" lon="11.827126558230526"><ele>357.0</ele><time>2026-04-16T10:51:53.001Z</time></trkpt><trkpt lat="43.44208822417849" lon="11.827182860542834"><ele>357.0</ele><time>2026-04-16T10:51:54.001Z</time></trkpt><trkpt lat="43.44199312294376" lon="11.827240393883127"><ele>357.6</ele><time>2026-04-16T10:51:55.001Z</time></trkpt><trkpt lat="43.441907468023224" lon="11.82730091292583"><ele>358.20000000000005</ele><time>2026-04-16T10:51:56.001Z</time></trkpt><trkpt lat="43.44182596171926" lon="11.827386484176856"><ele>358.8</ele><time>2026-04-16T10:51:57.001Z</time></trkpt><trkpt lat="43.4417423294814" lon="11.827473706891066"><ele>359.4</ele><time>2026-04-16T10:51:58.001Z</time></trkpt><trkpt lat="43.44165981522614" lon="11.82754357171156"><ele>360.0</ele><time>2026-04-16T10:51:59.001Z</time></trkpt><trkpt lat="43.44159373133619" lon="11.827615182624289"><ele>358.6</ele><time>2026-04-16T10:52:00.001Z</time></trkpt><trkpt lat="43.44154282123395" lon="11.827751676038938"><ele>357.2</ele><time>2026-04-16T10:52:01.001Z</time></trkpt><trkpt lat="43.4414813939852" lon="11.82783187895743"><ele>355.79999999999995</ele><time>2026-04-16T10:52:02.001Z</time></trkpt><trkpt lat="43.44140621470723" lon="11.827917807739643"><ele>354.4</ele><time>2026-04-16T10:52:03.001Z</time></trkpt><trkpt lat="43.44136655141481" lon="11.828003219633326"><ele>353.0</ele><time>2026-04-16T10:52:04.001Z</time></trkpt><trkpt lat="43.44132558921973" lon="11.828112812423628"><ele>352.83333333333337</ele><time>2026-04-16T10:52:05.001Z</time></trkpt><trkpt lat="43.44127044527333" lon="11.828209583503767"><ele>352.6666666666667</ele><time>2026-04-16T10:52:06.001Z</time></trkpt><trkpt lat="43.44119273940042" lon="11.828295491188275"><ele>352.5</ele><time>2026-04-16T10:52:07.001Z</time></trkpt><trkpt lat="43.44113037477753" lon="11.828352747066381"><ele>352.3333333333333</ele><time>2026-04-16T10:52:08.001Z</time></trkpt><trkpt lat="43.44106081015265" lon="11.828377433217117"><ele>352.16666666666663</ele><time>2026-04-16T10:52:10.002Z</time></trkpt><trkpt lat="43.440966726623024" lon="11.828395072651514"><ele>352.0</ele><time>2026-04-16T10:52:12.002Z</time></trkpt><trkpt lat="43.44091627158151" lon="11.828472809995652"><ele>353.0</ele><time>2026-04-16T10:52:13.002Z</time></trkpt><trkpt lat="43.440859020762296" lon="11.828570398724482"><ele>354.0</ele><time>2026-04-16T10:52:14.002Z</time></trkpt><trkpt lat="43.440809204201834" lon="11.828649770466217"><ele>355.0</ele><time>2026-04-16T10:52:15.002Z</time></trkpt><trkpt lat="43.44078095422695" lon="11.828734109963499"><ele>356.0</ele><time>2026-04-16T10:52:16.002Z</time></trkpt><trkpt lat="43.440766024850305" lon="11.828828564349065"><ele>357.0</ele><time>2026-04-16T10:52:17.002Z</time></trkpt><trkpt lat="43.440775684299645" lon="11.82899075372108"><ele>358.0</ele><time>2026-04-16T10:52:19.002Z</time></trkpt><trkpt lat="43.44079349002491" lon="11.829092963079155"><ele>358.0</ele><time>2026-04-16T10:52:20.002Z</time></trkpt><trkpt lat="43.44079602604533" lon="11.829200084561723"><ele>358.0</ele><time>2026-04-16T10:52:21.002Z</time></trkpt><trkpt lat="43.44080224550415" lon="11.829367444349696"><ele>358.0</ele><time>2026-04-16T10:52:23.002Z</time></trkpt><trkpt lat="43.44079987530498" lon="11.829455367829658"><ele>358.0</ele><time>2026-04-16T10:52:24.002Z</time></trkpt><trkpt lat="43.440848063022365" lon="11.829596490290113"><ele>358.0</ele><time>2026-04-16T10:52:26.002Z</time></trkpt><trkpt lat="43.440820177399274" lon="11.829743150140736"><ele>358.66666666666663</ele><time>2026-04-16T10:52:28.002Z</time></trkpt><trkpt lat="43.44078287482129" lon="11.829816792234432"><ele>359.3333333333333</ele><time>2026-04-16T10:52:29.002Z</time></trkpt><trkpt lat="43.440786159461844" lon="11.829923201169727"><ele>360.0</ele><time>2026-04-16T10:52:30.002Z</time></trkpt><trkpt lat="43.44079201215364" lon="11.830035765252257"><ele>360.6666666666667</ele><time>2026-04-16T10:52:31.002Z</time></trkpt><trkpt lat="43.440775679604606" lon="11.830121482746982"><ele>361.33333333333337</ele><time>2026-04-16T10:52:32.002Z</time></trkpt><trkpt lat="43.4407490725345" lon="11.830213024250897"><ele>362.0</ele><time>2026-04-16T10:52:33.002Z</time></trkpt><trkpt lat="43.440720967818734" lon="11.830394393506937"><ele>362.1666666666667</ele><time>2026-04-16T10:52:35.002Z</time></trkpt><trkpt lat="43.440697173210616" lon="11.83050154062108"><ele>362.33333333333337</ele><time>2026-04-16T10:52:36.002Z</time></trkpt><trkpt lat="43.44068983767409" lon="11.830596815551448"><ele>362.5</ele><time>2026-04-16T10:52:37.002Z</time></trkpt><trkpt lat="43.440680683882164" lon="11.830706996447867"><ele>362.6666666666667</ele><time>2026-04-16T10:52:38.002Z</time></trkpt><trkpt lat="43.44068948139942" lon="11.830807391690108"><ele>362.8333333333333</ele><time>2026-04-16T10:52:39.002Z</time></trkpt><trkpt lat="43.44070161494163" lon="11.830915590666619"><ele>363.0</ele><time>2026-04-16T10:52:40.002Z</time></trkpt><trkpt lat="43.440715438154385" lon="11.831013923566681"><ele>363.79999999999995</ele><time>2026-04-16T10:52:41.002Z</time></trkpt><trkpt lat="43.440723806044346" lon="11.831104933744522"><ele>364.6</ele><time>2026-04-16T10:52:42.002Z</time></trkpt><trkpt lat="43.44074615742549" lon="11.831188480513193"><ele>365.4</ele><time>2026-04-16T10:52:43.002Z</time></trkpt><trkpt lat="43.44076613473569" lon="11.83135589611028"><ele>366.20000000000005</ele><time>2026-04-16T10:52:45.002Z</time></trkpt><trkpt lat="43.44080300611613" lon="11.831531296190436"><ele>367.0</ele><time>2026-04-16T10:52:47.002Z</time></trkpt><trkpt lat="43.440823222912606" lon="11.831630495611506"><ele>367.0</ele><time>2026-04-16T10:52:48.002Z</time></trkpt><trkpt lat="43.44085235702093" lon="11.831716156331197"><ele>367.0</ele><time>2026-04-16T10:52:49.002Z</time></trkpt><trkpt lat="43.440898015851445" lon="11.831849181670542"><ele>367.0</ele><time>2026-04-16T10:52:51.003Z</time></trkpt><trkpt lat="43.440920552059076" lon="11.831960910915187"><ele>367.0</ele><time>2026-04-16T10:52:53.003Z</time></trkpt><trkpt lat="43.440945756349244" lon="11.832113032062864"><ele>367.0</ele><time>2026-04-16T10:52:56.003Z</time></trkpt><trkpt lat="43.44097871821369" lon="11.83221392773924"><ele>368.66666666666663</ele><time>2026-04-16T10:52:58.003Z</time></trkpt><trkpt lat="43.44100002575645" lon="11.832296936420281"><ele>370.3333333333333</ele><time>2026-04-16T10:53:01.003Z</time></trkpt><trkpt lat="43.44100666534016" lon="11.83238803482495"><ele>372.0</ele><time>2026-04-16T10:55:38.002Z</time></trkpt><trkpt lat="43.44098257325838" lon="11.832469271641083"><ele>373.6666666666667</ele><time>2026-04-16T10:56:06.001Z</time></trkpt><trkpt lat="43.44098043085906" lon="11.83259545236553"><ele>375.33333333333337</ele><time>2026-04-16T10:56:08.001Z</time></trkpt><trkpt lat="43.44097238783002" lon="11.83271570960885"><ele>377.0</ele><time>2026-04-16T10:56:10.002Z</time></trkpt><trkpt lat="43.440964575961914" lon="11.83285176684529"><ele>377.83333333333337</ele><time>2026-04-16T10:56:12.002Z</time></trkpt><trkpt lat="43.440994640543586" lon="11.832966667243943"><ele>378.6666666666667</ele><time>2026-04-16T10:56:15.002Z</time></trkpt><trkpt lat="43.44094975492011" lon="11.833051883652349"><ele>379.5</ele><time>2026-04-16T10:56:17.002Z</time></trkpt><trkpt lat="43.44094049558945" lon="11.83314275876788"><ele>380.3333333333333</ele><time>2026-04-16T10:56:19.002Z</time></trkpt><trkpt lat="43.44091646000943" lon="11.8332570142092"><ele>381.16666666666663</ele><time>2026-04-16T10:56:22.002Z</time></trkpt><trkpt lat="43.44088089423378" lon="11.833393209023892"><ele>382.0</ele><time>2026-04-16T10:56:24.002Z</time></trkpt><trkpt lat="43.440879986157235" lon="11.833530960385612"><ele>383.66666666666663</ele><time>2026-04-16T10:56:26.002Z</time></trkpt><trkpt lat="43.4408674795848" lon="11.833677555254813"><ele>385.3333333333333</ele><time>2026-04-16T10:56:28.002Z</time></trkpt><trkpt lat="43.44086594075509" lon="11.833772544574348"><ele>387.0</ele><time>2026-04-16T10:56:30.002Z</time></trkpt><trkpt lat="43.44089247963456" lon="11.833897573134697"><ele>388.66666666666663</ele><time>2026-04-16T10:56:33.002Z</time></trkpt><trkpt lat="43.44086216881487" lon="11.833991218689713"><ele>390.3333333333333</ele><time>2026-04-16T10:56:36.002Z</time></trkpt><trkpt lat="43.440829441798854" lon="11.834097232824218"><ele>392.0</ele><time>2026-04-16T10:56:38.002Z</time></trkpt><trkpt lat="43.440822586871874" lon="11.834247837013834"><ele>393.40000000000003</ele><time>2026-04-16T10:56:40.002Z</time></trkpt><trkpt lat="43.44079360648318" lon="11.834332709147509"><ele>394.8</ele><time>2026-04-16T10:56:41.002Z</time></trkpt><trkpt lat="43.44078861152567" lon="11.834478631658502"><ele>396.2</ele><time>2026-04-16T10:56:43.002Z</time></trkpt><trkpt lat="43.44076313820681" lon="11.83462796928915"><ele>397.6</ele><time>2026-04-16T10:56:45.002Z</time></trkpt><trkpt lat="43.4407426725979" lon="11.834838184970788"><ele>399.0</ele><time>2026-04-16T10:56:47.002Z</time></trkpt><trkpt lat="43.44073069563211" lon="11.83494200632629"><ele>399.0</ele><time>2026-04-16T10:56:48.002Z</time></trkpt><trkpt lat="43.4407060238231" lon="11.835041064550825"><ele>399.0</ele><time>2026-04-16T10:56:49.002Z</time></trkpt><trkpt lat="43.440681183058615" lon="11.835225789327076"><ele>399.0</ele><time>2026-04-16T10:56:51.002Z</time></trkpt><trkpt lat="43.4406441028643" lon="11.835418639763876"><ele>399.0</ele><time>2026-04-16T10:56:53.002Z</time></trkpt><trkpt lat="43.44061638163242" lon="11.835502337796868"><ele>399.0</ele><time>2026-04-16T10:56:54.002Z</time></trkpt><trkpt lat="43.44056847740143" lon="11.835584708651279"><ele>398.79999999999995</ele><time>2026-04-16T10:56:55.002Z</time></trkpt><trkpt lat="43.440515386323064" lon="11.83568605672294"><ele>398.59999999999997</ele><time>2026-04-16T10:56:56.002Z</time></trkpt><trkpt lat="43.440467327673865" lon="11.835824593131374"><ele>398.4</ele><time>2026-04-16T10:56:57.002Z</time></trkpt><trkpt lat="43.44042781726159" lon="11.835937882492866"><ele>398.2</ele><time>2026-04-16T10:56:58.002Z</time></trkpt><trkpt lat="43.44039228271686" lon="11.836042004093224"><ele>398.0</ele><time>2026-04-16T10:56:59.002Z</time></trkpt><trkpt lat="43.44037314969037" lon="11.836138631455862"><ele>400.3333333333333</ele><time>2026-04-16T10:57:00.002Z</time></trkpt><trkpt lat="43.440364224110574" lon="11.836241091768963"><ele>402.66666666666663</ele><time>2026-04-16T10:57:01.002Z</time></trkpt><trkpt lat="43.440351447492816" lon="11.836366329327355"><ele>405.0</ele><time>2026-04-16T10:57:02.002Z</time></trkpt><trkpt lat="43.44033850907536" lon="11.83648524252309"><ele>407.33333333333337</ele><time>2026-04-16T10:57:03.002Z</time></trkpt><trkpt lat="43.440316158056255" lon="11.836586088396828"><ele>409.6666666666667</ele><time>2026-04-16T10:57:04.002Z</time></trkpt><trkpt lat="43.4402736983413" lon="11.83668461463521"><ele>412.0</ele><time>2026-04-16T10:57:05.002Z</time></trkpt><trkpt lat="43.440187560829685" lon="11.836727993133914"><ele>412.00000000000006</ele><time>2026-04-16T10:57:06.002Z</time></trkpt><trkpt lat="43.440117771400445" lon="11.836802611875841"><ele>412.0</ele><time>2026-04-16T10:57:07.002Z</time></trkpt><trkpt lat="43.44003693233867" lon="11.836873191626731"><ele>412.0</ele><time>2026-04-16T10:57:08.002Z</time></trkpt><trkpt lat="43.43997195065633" lon="11.836934209834503"><ele>412.0</ele><time>2026-04-16T10:57:09.002Z</time></trkpt><trkpt lat="43.43991334961451" lon="11.83698113035355"><ele>412.00000000000006</ele><time>2026-04-16T10:57:10.002Z</time></trkpt><trkpt lat="43.43984144723083" lon="11.837044242363403"><ele>412.0</ele><time>2026-04-16T10:57:11.002Z</time></trkpt><trkpt lat="43.43977537165378" lon="11.837102552245282"><ele>408.50000000000006</ele><time>2026-04-16T10:57:12.002Z</time></trkpt><trkpt lat="43.43971165566962" lon="11.837160658131623"><ele>405.0</ele><time>2026-04-16T10:57:13.002Z</time></trkpt><trkpt lat="43.439646171604565" lon="11.837217872286166"><ele>401.5</ele><time>2026-04-16T10:57:14.002Z</time></trkpt><trkpt lat="43.439588695527696" lon="11.837273770345952"><ele>398.0</ele><time>2026-04-16T10:57:15.002Z</time></trkpt><trkpt lat="43.43952497326548" lon="11.8373609376874"><ele>394.50000000000006</ele><time>2026-04-16T10:57:16.002Z</time></trkpt><trkpt lat="43.43946643802541" lon="11.837454961372925"><ele>391.0</ele><time>2026-04-16T10:57:17.002Z</time></trkpt><trkpt lat="43.43937374543447" lon="11.837523339848532"><ele>391.0</ele><time>2026-04-16T10:57:18.002Z</time></trkpt><trkpt lat="43.43928137386043" lon="11.837611918602537"><ele>391.0</ele><time>2026-04-16T10:57:19.002Z</time></trkpt><trkpt lat="43.4392083012004" lon="11.837707504261125"><ele>391.0</ele><time>2026-04-16T10:57:20.002Z</time></trkpt><trkpt lat="43.43913491180321" lon="11.837828107813122"><ele>391.0</ele><time>2026-04-16T10:57:21.002Z</time></trkpt><trkpt lat="43.43906951083023" lon="11.837950830841605"><ele>391.0</ele><time>2026-04-16T10:57:22.002Z</time></trkpt><trkpt lat="43.439007819063264" lon="11.83805366285595"><ele>388.6</ele><time>2026-04-16T10:57:23.002Z</time></trkpt><trkpt lat="43.43893451095784" lon="11.838141178572616"><ele>386.20000000000005</ele><time>2026-04-16T10:57:24.002Z</time></trkpt><trkpt lat="43.43885551827536" lon="11.838194269482011"><ele>383.79999999999995</ele><time>2026-04-16T10:57:25.002Z</time></trkpt><trkpt lat="43.438778795672995" lon="11.838316554402484"><ele>381.4</ele><time>2026-04-16T10:57:27.002Z</time></trkpt><trkpt lat="43.43881843596927" lon="11.83847975495734"><ele>379.0</ele><time>2026-04-16T10:57:29.002Z</time></trkpt><trkpt lat="43.43887170156445" lon="11.838560499002556"><ele>379.0</ele><time>2026-04-16T10:57:30.001Z</time></trkpt><trkpt lat="43.43891482426403" lon="11.838642856421208"><ele>379.0</ele><time>2026-04-16T10:57:31.001Z</time></trkpt><trkpt lat="43.43896510755771" lon="11.838703093216514"><ele>379.0</ele><time>2026-04-16T10:57:32.001Z</time></trkpt><trkpt lat="43.43902578364885" lon="11.838786638904852"><ele>379.0</ele><time>2026-04-16T10:57:33.001Z</time></trkpt><trkpt lat="43.43907339032101" lon="11.838872409594634"><ele>379.0</ele><time>2026-04-16T10:57:34.001Z</time></trkpt><trkpt lat="43.43910710648214" lon="11.838962855798883"><ele>379.0</ele><time>2026-04-16T10:57:35.001Z</time></trkpt><trkpt lat="43.439135881038666" lon="11.839059629669102"><ele>379.0</ele><time>2026-04-16T10:57:36.001Z</time></trkpt><trkpt lat="43.439173728209376" lon="11.839168531990582"><ele>379.0</ele><time>2026-04-16T10:57:37.001Z</time></trkpt><trkpt lat="43.43921193178932" lon="11.839257428021188"><ele>379.0</ele><time>2026-04-16T10:57:38.001Z</time></trkpt><trkpt lat="43.43923684174225" lon="11.839356140829052"><ele>379.0</ele><time>2026-04-16T10:57:39.001Z</time></trkpt><trkpt lat="43.43927226432825" lon="11.839447154403896"><ele>379.0</ele><time>2026-04-16T10:57:40.001Z</time></trkpt><trkpt lat="43.439321103504994" lon="11.83952638001524"><ele>379.0</ele><time>2026-04-16T10:57:42.001Z</time></trkpt><trkpt lat="43.439392919593004" lon="11.83957286677198"><ele>378.79999999999995</ele><time>2026-04-16T10:57:45.001Z</time></trkpt><trkpt lat="43.43945432547119" lon="11.839600274613957"><ele>378.59999999999997</ele><time>2026-04-16T10:57:46.001Z</time></trkpt><trkpt lat="43.43952911749741" lon="11.839646915221337"><ele>378.4</ele><time>2026-04-16T10:57:47.001Z</time></trkpt><trkpt lat="43.43963138753164" lon="11.83970233695729"><ele>378.2</ele><time>2026-04-16T10:57:48.001Z</time></trkpt><trkpt lat="43.439736197586775" lon="11.83975807394297"><ele>378.0</ele><time>2026-04-16T10:57:49.001Z</time></trkpt><trkpt lat="43.43981508744588" lon="11.839830901256303"><ele>378.0</ele><time>2026-04-16T10:57:50.001Z</time></trkpt><trkpt lat="43.439879408855234" lon="11.839907981950642"><ele>378.0</ele><time>2026-04-16T10:57:51.001Z</time></trkpt><trkpt lat="43.43995411533773" lon="11.840035958469594"><ele>378.0</ele><time>2026-04-16T10:57:53.001Z</time></trkpt><trkpt lat="43.44004485217699" lon="11.840125099915015"><ele>378.0</ele><time>2026-04-16T10:57:55.001Z</time></trkpt><trkpt lat="43.440142376622845" lon="11.840174083202884"><ele>378.0</ele><time>2026-04-16T10:57:56.001Z</time></trkpt><trkpt lat="43.44024049388206" lon="11.840255963016599"><ele>376.1666666666667</ele><time>2026-04-16T10:57:57.001Z</time></trkpt><trkpt lat="43.44030987911622" lon="11.840306574358234"><ele>374.3333333333333</ele><time>2026-04-16T10:57:58.001Z</time></trkpt><trkpt lat="43.440359269612046" lon="11.8403620917292"><ele>372.5</ele><time>2026-04-16T10:57:59.001Z</time></trkpt><trkpt lat="43.440442082098826" lon="11.840460243002685"><ele>370.66666666666663</ele><time>2026-04-16T10:58:01.001Z</time></trkpt><trkpt lat="43.44047673538702" lon="11.840534058006254"><ele>368.8333333333333</ele><time>2026-04-16T10:58:02.001Z</time></trkpt><trkpt lat="43.440520576568304" lon="11.84061141731989"><ele>367.0</ele><time>2026-04-16T10:58:03.001Z</time></trkpt><trkpt lat="43.44054921839584" lon="11.84069044237904"><ele>367.0</ele><time>2026-04-16T10:58:05.001Z</time></trkpt><trkpt lat="43.44052829319199" lon="11.840809302708859"><ele>367.0</ele><time>2026-04-16T10:58:08.001Z</time></trkpt><trkpt lat="43.44055300370443" lon="11.84096368149998"><ele>367.0</ele><time>2026-04-16T10:58:10.001Z</time></trkpt><trkpt lat="43.44055942207624" lon="11.841058561040445"><ele>367.0</ele><time>2026-04-16T10:58:11.001Z</time></trkpt><trkpt lat="43.440559326523754" lon="11.841165812614195"><ele>367.0</ele><time>2026-04-16T10:58:12.001Z</time></trkpt><trkpt lat="43.4405506771169" lon="11.841273379262509"><ele>367.0</ele><time>2026-04-16T10:58:13.001Z</time></trkpt><trkpt lat="43.44053904005969" lon="11.841363147783456"><ele>366.40000000000003</ele><time>2026-04-16T10:58:14.001Z</time></trkpt><trkpt lat="43.440491366404366" lon="11.84149697390378"><ele>365.8</ele><time>2026-04-16T10:58:16.001Z</time></trkpt><trkpt lat="43.440418653170916" lon="11.841563696303007"><ele>365.2</ele><time>2026-04-16T10:58:17.001Z</time></trkpt><trkpt lat="43.44035749114139" lon="11.841661768632626"><ele>364.6</ele><time>2026-04-16T10:58:18.001Z</time></trkpt><trkpt lat="43.44030020572791" lon="11.84176610377355"><ele>364.0</ele><time>2026-04-16T10:58:19.001Z</time></trkpt><trkpt lat="43.4402349152875" lon="11.84183921060435"><ele>364.0</ele><time>2026-04-16T10:58:20.001Z</time></trkpt><trkpt lat="43.440170862406525" lon="11.841931778780479"><ele>364.0</ele><time>2026-04-16T10:58:21.001Z</time></trkpt><trkpt lat="43.44013630446815" lon="11.84204745872778"><ele>364.0</ele><time>2026-04-16T10:58:22.001Z</time></trkpt><trkpt lat="43.44009077320817" lon="11.842133870635124"><ele>364.0</ele><time>2026-04-16T10:58:23.001Z</time></trkpt><trkpt lat="43.44005191740838" lon="11.842220185638979"><ele>364.0</ele><time>2026-04-16T10:58:24.001Z</time></trkpt><trkpt lat="43.439987136796624" lon="11.842309026298258"><ele>364.0</ele><time>2026-04-16T10:58:25.001Z</time></trkpt><trkpt lat="43.43991965217242" lon="11.842381698257183"><ele>364.0</ele><time>2026-04-16T10:58:26.001Z</time></trkpt><trkpt lat="43.43984271487668" lon="11.842447454522173"><ele>364.0</ele><time>2026-04-16T10:58:27.001Z</time></trkpt><trkpt lat="43.43977231465535" lon="11.84253230411182"><ele>364.0</ele><time>2026-04-16T10:58:28.001Z</time></trkpt><trkpt lat="43.43971718201389" lon="11.842633691834676"><ele>364.0</ele><time>2026-04-16T10:58:29.001Z</time></trkpt><trkpt lat="43.43964970111859" lon="11.84271960334882"><ele>364.0</ele><time>2026-04-16T10:58:30.001Z</time></trkpt><trkpt lat="43.43957803244516" lon="11.842773275385447"><ele>363.0</ele><time>2026-04-16T10:58:31.001Z</time></trkpt><trkpt lat="43.439503544874206" lon="11.84281760913693"><ele>362.0</ele><time>2026-04-16T10:58:32.001Z</time></trkpt><trkpt lat="43.43941124736269" lon="11.8428490940937"><ele>361.0</ele><time>2026-04-16T10:58:33.001Z</time></trkpt><trkpt lat="43.43933101578339" lon="11.842921863449945"><ele>360.0</ele><time>2026-04-16T10:58:34.001Z</time></trkpt><trkpt lat="43.43923830064662" lon="11.843002725570578"><ele>359.0</ele><time>2026-04-16T10:58:35.001Z</time></trkpt><trkpt lat="43.43916238635643" lon="11.84308851785998"><ele>359.0</ele><time>2026-04-16T10:58:36.001Z</time></trkpt><trkpt lat="43.43908281978917" lon="11.843148636848241"><ele>359.0</ele><time>2026-04-16T10:58:37.001Z</time></trkpt><trkpt lat="43.438996795373164" lon="11.843217826356161"><ele>359.0</ele><time>2026-04-16T10:58:38.001Z</time></trkpt><trkpt lat="43.43888801152984" lon="11.843294507941936"><ele>359.0</ele><time>2026-04-16T10:58:39.001Z</time></trkpt><trkpt lat="43.43881547389193" lon="11.843363666645299"><ele>359.0</ele><time>2026-04-16T10:58:40.001Z</time></trkpt><trkpt lat="43.438758175610815" lon="11.843432848129986"><ele>358.4</ele><time>2026-04-16T10:58:41.001Z</time></trkpt><trkpt lat="43.43869655202161" lon="11.843510028991203"><ele>357.79999999999995</ele><time>2026-04-16T10:58:42.001Z</time></trkpt><trkpt lat="43.43861762332034" lon="11.843598902751117"><ele>357.20000000000005</ele><time>2026-04-16T10:58:43.001Z</time></trkpt><trkpt lat="43.43857480128333" lon="11.843694291866086"><ele>356.6</ele><time>2026-04-16T10:58:44.001Z</time></trkpt><trkpt lat="43.43852703586527" lon="11.843822788050034"><ele>356.0</ele><time>2026-04-16T10:58:45.001Z</time></trkpt><trkpt lat="43.43850567608111" lon="11.843937993008446"><ele>356.0</ele><time>2026-04-16T10:58:46.001Z</time></trkpt><trkpt lat="43.43850265685076" lon="11.844062895265612"><ele>356.0</ele><time>2026-04-16T10:58:47.001Z</time></trkpt><trkpt lat="43.43848763625558" lon="11.844193211582787"><ele>356.0</ele><time>2026-04-16T10:58:48.001Z</time></trkpt><trkpt lat="43.43845828085288" lon="11.844293189935787"><ele>356.0</ele><time>2026-04-16T10:58:49.001Z</time></trkpt><trkpt lat="43.43840242296796" lon="11.844437375760982"><ele>356.0</ele><time>2026-04-16T10:58:50.001Z</time></trkpt><trkpt lat="43.438336919556164" lon="11.844513433846034"><ele>356.0</ele><time>2026-04-16T10:58:51.001Z</time></trkpt><trkpt lat="43.43828791457188" lon="11.844578135063335"><ele>356.0</ele><time>2026-04-16T10:58:52.001Z</time></trkpt><trkpt lat="43.43825908556759" lon="11.844668814461"><ele>356.0</ele><time>2026-04-16T10:58:53.001Z</time></trkpt><trkpt lat="43.438295303579736" lon="11.844751039723121"><ele>356.0</ele><time>2026-04-16T10:58:56.001Z</time></trkpt><trkpt lat="43.438330912226" lon="11.844826060731137"><ele>356.0</ele><time>2026-04-16T10:58:57.001Z</time></trkpt><trkpt lat="43.438372132492646" lon="11.844922736290867"><ele>356.0</ele><time>2026-04-16T10:58:58.001Z</time></trkpt><trkpt lat="43.43841235771303" lon="11.845041216016302"><ele>356.1666666666667</ele><time>2026-04-16T10:58:59.001Z</time></trkpt><trkpt lat="43.438420296588184" lon="11.845151190556138"><ele>356.33333333333337</ele><time>2026-04-16T10:59:00.001Z</time></trkpt><trkpt lat="43.43846187909918" lon="11.845253562201473"><ele>356.5</ele><time>2026-04-16T10:59:01.001Z</time></trkpt><trkpt lat="43.438499667415854" lon="11.845348035488207"><ele>356.6666666666667</ele><time>2026-04-16T10:59:02.001Z</time></trkpt><trkpt lat="43.438532375457804" lon="11.845438613248335"><ele>356.8333333333333</ele><time>2026-04-16T10:59:03.001Z</time></trkpt><trkpt lat="43.43857122335407" lon="11.845565846136697"><ele>357.0</ele><time>2026-04-16T10:59:05.001Z</time></trkpt><trkpt lat="43.43855412473507" lon="11.845691519887696"><ele>357.0</ele><time>2026-04-16T10:59:07.001Z</time></trkpt><trkpt lat="43.438568470949036" lon="11.845789117580079"><ele>357.0</ele><time>2026-04-16T10:59:08.001Z</time></trkpt><trkpt lat="43.43857364779524" lon="11.845964514513058"><ele>357.0</ele><time>2026-04-16T10:59:09.002Z</time></trkpt><trkpt lat="43.43855188729743" lon="11.846135546218504"><ele>357.0</ele><time>2026-04-16T10:59:10.002Z</time></trkpt><trkpt lat="43.438548938401496" lon="11.846294760001511"><ele>357.0</ele><time>2026-04-16T10:59:11.002Z</time></trkpt><trkpt lat="43.43854408047241" lon="11.846407107295054"><ele>357.20000000000005</ele><time>2026-04-16T10:59:12.002Z</time></trkpt><trkpt lat="43.4385474050441" lon="11.846504880100952"><ele>357.4</ele><time>2026-04-16T10:59:13.002Z</time></trkpt><trkpt lat="43.438593690000815" lon="11.846664427167765"><ele>357.6</ele><time>2026-04-16T10:59:15.002Z</time></trkpt><trkpt lat="43.43865468922501" lon="11.84674384591321"><ele>357.79999999999995</ele><time>2026-04-16T10:59:16.002Z</time></trkpt><trkpt lat="43.43874983087684" lon="11.84685527481981"><ele>358.0</ele><time>2026-04-16T10:59:17.002Z</time></trkpt><trkpt lat="43.43882268650526" lon="11.846924304203322"><ele>356.0</ele><time>2026-04-16T10:59:18.002Z</time></trkpt><trkpt lat="43.43887823526333" lon="11.84699492320034"><ele>354.0</ele><time>2026-04-16T10:59:19.002Z</time></trkpt><trkpt lat="43.43893177876779" lon="11.847098574299341"><ele>352.0</ele><time>2026-04-16T10:59:21.002Z</time></trkpt><trkpt lat="43.43896676994243" lon="11.847271216270874"><ele>350.0</ele><time>2026-04-16T10:59:23.002Z</time></trkpt><trkpt lat="43.43895997207964" lon="11.847441741764651"><ele>348.0</ele><time>2026-04-16T10:59:24.002Z</time></trkpt><trkpt lat="43.43894480363614" lon="11.847578157939523"><ele>347.5</ele><time>2026-04-16T10:59:25.002Z</time></trkpt><trkpt lat="43.438914234390495" lon="11.847682859945357"><ele>347.0</ele><time>2026-04-16T10:59:26.001Z</time></trkpt><trkpt lat="43.438881054783195" lon="11.847783216290173"><ele>346.5</ele><time>2026-04-16T10:59:27.001Z</time></trkpt><trkpt lat="43.43882181251913" lon="11.847902692131552"><ele>346.0</ele><time>2026-04-16T10:59:28.001Z</time></trkpt><trkpt lat="43.43877983647775" lon="11.848013874390038"><ele>345.5</ele><time>2026-04-16T10:59:29.001Z</time></trkpt><trkpt lat="43.43874617999074" lon="11.848107234200725"><ele>345.0</ele><time>2026-04-16T10:59:30.001Z</time></trkpt><trkpt lat="43.438728458551616" lon="11.84820288449443"><ele>344.6</ele><time>2026-04-16T10:59:31.001Z</time></trkpt><trkpt lat="43.438732676671435" lon="11.84832949431287"><ele>344.2</ele><time>2026-04-16T10:59:32.001Z</time></trkpt><trkpt lat="43.43874238179976" lon="11.848462616154086"><ele>343.79999999999995</ele><time>2026-04-16T10:59:33.001Z</time></trkpt><trkpt lat="43.43872663141571" lon="11.84860573285095"><ele>343.4</ele><time>2026-04-16T10:59:34.001Z</time></trkpt><trkpt lat="43.4386928114353" lon="11.848740296122685"><ele>343.0</ele><time>2026-04-16T10:59:35.001Z</time></trkpt><trkpt lat="43.438629925123706" lon="11.84886392095543"><ele>341.0</ele><time>2026-04-16T10:59:36.001Z</time></trkpt><trkpt lat="43.43857432726318" lon="11.848990045542928"><ele>339.0</ele><time>2026-04-16T10:59:37.001Z</time></trkpt><trkpt lat="43.43852001318803" lon="11.849130769301354"><ele>337.0</ele><time>2026-04-16T10:59:38.001Z</time></trkpt><trkpt lat="43.438486783966844" lon="11.849243856379383"><ele>335.0</ele><time>2026-04-16T10:59:39.001Z</time></trkpt><trkpt lat="43.43846417759711" lon="11.849360238460847"><ele>333.0</ele><time>2026-04-16T10:59:40.001Z</time></trkpt><trkpt lat="43.43848057526439" lon="11.849511360469991"><ele>330.4</ele><time>2026-04-16T10:59:41.001Z</time></trkpt><trkpt lat="43.43851282949378" lon="11.849660331036555"><ele>327.79999999999995</ele><time>2026-04-16T10:59:42.001Z</time></trkpt><trkpt lat="43.43855898625793" lon="11.849797069027044"><ele>325.2</ele><time>2026-04-16T10:59:43.001Z</time></trkpt><trkpt lat="43.43861511715022" lon="11.849930161215537"><ele>322.6</ele><time>2026-04-16T10:59:44.001Z</time></trkpt><trkpt lat="43.43868773111778" lon="11.850050790194029"><ele>320.0</ele><time>2026-04-16T10:59:45.001Z</time></trkpt><trkpt lat="43.43876525888495" lon="11.850162405379578"><ele>319.0</ele><time>2026-04-16T10:59:46.001Z</time></trkpt><trkpt lat="43.43884147601369" lon="11.850267862550647"><ele>318.0</ele><time>2026-04-16T10:59:47.001Z</time></trkpt><trkpt lat="43.438928591620055" lon="11.850357838626351"><ele>317.0</ele><time>2026-04-16T10:59:48.001Z</time></trkpt><trkpt lat="43.43899807350272" lon="11.850464603620951"><ele>316.0</ele><time>2026-04-16T10:59:49.001Z</time></trkpt><trkpt lat="43.43907574837795" lon="11.850567950794245"><ele>315.0</ele><time>2026-04-16T10:59:50.001Z</time></trkpt><trkpt lat="43.43914042843822" lon="11.850659139496985"><ele>315.0</ele><time>2026-04-16T10:59:51.001Z</time></trkpt><trkpt lat="43.43921791746169" lon="11.850752920774491"><ele>315.0</ele><time>2026-04-16T10:59:53.001Z</time></trkpt><trkpt lat="43.439264587081276" lon="11.850832871110471"><ele>315.0</ele><time>2026-04-16T10:59:54.001Z</time></trkpt><trkpt lat="43.43932356143244" lon="11.850896396262403"><ele>315.0</ele><time>2026-04-16T10:59:55.001Z</time></trkpt><trkpt lat="43.4394144407125" lon="11.850932623672817"><ele>315.0</ele><time>2026-04-16T10:59:56.001Z</time></trkpt><trkpt lat="43.43950257703421" lon="11.850958451709689"><ele>315.0</ele><time>2026-04-16T10:59:57.001Z</time></trkpt><trkpt lat="43.439593286869936" lon="11.850982007255283"><ele>310.2</ele><time>2026-04-16T10:59:58.001Z</time></trkpt><trkpt lat="43.43969492194748" lon="11.851008059959163"><ele>305.4</ele><time>2026-04-16T10:59:59.001Z</time></trkpt><trkpt lat="43.43980161538947" lon="11.851033296367238"><ele>300.6</ele><time>2026-04-16T11:00:00.001Z</time></trkpt><trkpt lat="43.43991082400563" lon="11.851033954557726"><ele>295.8</ele><time>2026-04-16T11:00:01.001Z</time></trkpt><trkpt lat="43.440015452032824" lon="11.85103044897634"><ele>291.0</ele><time>2026-04-16T11:00:02.001Z</time></trkpt><trkpt lat="43.44012267719518" lon="11.851039246260937"><ele>291.0</ele><time>2026-04-16T11:00:03.001Z</time></trkpt><trkpt lat="43.44023678488021" lon="11.851039049924491"><ele>291.0</ele><time>2026-04-16T11:00:04.001Z</time></trkpt><trkpt lat="43.44035800057267" lon="11.85097912349445"><ele>291.0</ele><time>2026-04-16T11:00:05.001Z</time></trkpt><trkpt lat="43.44046655714743" lon="11.850917410090199"><ele>291.0</ele><time>2026-04-16T11:00:06.001Z</time></trkpt><trkpt lat="43.44057401159963" lon="11.850872221355194"><ele>293.0</ele><time>2026-04-16T11:00:07.001Z</time></trkpt><trkpt lat="43.44068602765538" lon="11.850846532144748"><ele>295.0</ele><time>2026-04-16T11:00:08.001Z</time></trkpt><trkpt lat="43.440787669146594" lon="11.85084204630894"><ele>297.0</ele><time>2026-04-16T11:00:09.001Z</time></trkpt><trkpt lat="43.440889760203646" lon="11.850833159951014"><ele>299.0</ele><time>2026-04-16T11:00:10.001Z</time></trkpt><trkpt lat="43.44099060313376" lon="11.85088240020722"><ele>301.0</ele><time>2026-04-16T11:00:11.001Z</time></trkpt><trkpt lat="43.44109128227601" lon="11.850951033883355"><ele>297.6</ele><time>2026-04-16T11:00:12.001Z</time></trkpt><trkpt lat="43.44118380000169" lon="11.851030577213269"><ele>294.20000000000005</ele><time>2026-04-16T11:00:13.001Z</time></trkpt><trkpt lat="43.44127921699143" lon="11.851115525018788"><ele>290.79999999999995</ele><time>2026-04-16T11:00:14.001Z</time></trkpt><trkpt lat="43.44136429842204" lon="11.851213444774169"><ele>287.4</ele><time>2026-04-16T11:00:15.001Z</time></trkpt><trkpt lat="43.441464619667435" lon="11.851288915467402"><ele>284.0</ele><time>2026-04-16T11:00:16.001Z</time></trkpt><trkpt lat="43.441565604560246" lon="11.851356019015158"><ele>284.0</ele><time>2026-04-16T11:00:17.001Z</time></trkpt><trkpt lat="43.441634252700354" lon="11.851473072452725"><ele>284.0</ele><time>2026-04-16T11:00:18.001Z</time></trkpt><trkpt lat="43.44172272421974" lon="11.8515791571134"><ele>284.0</ele><time>2026-04-16T11:00:19.001Z</time></trkpt><trkpt lat="43.44183047846152" lon="11.851658257256098"><ele>284.0</ele><time>2026-04-16T11:00:20.001Z</time></trkpt><trkpt lat="43.44193430503533" lon="11.85170624013871"><ele>284.0</ele><time>2026-04-16T11:00:21.001Z</time></trkpt><trkpt lat="43.442010982127954" lon="11.851745337037158"><ele>284.0</ele><time>2026-04-16T11:00:22.001Z</time></trkpt><trkpt lat="43.44208609406333" lon="11.851776821916365"><ele>284.0</ele><time>2026-04-16T11:00:23.001Z</time></trkpt><trkpt lat="43.44214791577578" lon="11.851866555496466"><ele>284.0</ele><time>2026-04-16T11:00:24.001Z</time></trkpt><trkpt lat="43.442202705189125" lon="11.851963728049046"><ele>284.0</ele><time>2026-04-16T11:00:25.001Z</time></trkpt><trkpt lat="43.44224937759776" lon="11.852067950414305"><ele>284.0</ele><time>2026-04-16T11:00:26.001Z</time></trkpt><trkpt lat="43.442288780927136" lon="11.852155781801134"><ele>282.5</ele><time>2026-04-16T11:00:27.001Z</time></trkpt><trkpt lat="43.44232835071394" lon="11.85224278384252"><ele>281.0</ele><time>2026-04-16T11:00:28.001Z</time></trkpt><trkpt lat="43.44236847205235" lon="11.852323289430068"><ele>279.5</ele><time>2026-04-16T11:00:29.001Z</time></trkpt><trkpt lat="43.44242328476434" lon="11.852428671588717"><ele>278.0</ele><time>2026-04-16T11:00:31.001Z</time></trkpt><trkpt lat="43.4424699533945" lon="11.852508171311937"><ele>276.5</ele><time>2026-04-16T11:00:33.001Z</time></trkpt><trkpt lat="43.44251887211243" lon="11.852602239554905"><ele>275.0</ele><time>2026-04-16T11:00:35.001Z</time></trkpt><trkpt lat="43.44255295627785" lon="11.852707321130975"><ele>272.4</ele><time>2026-04-16T11:00:37.001Z</time></trkpt><trkpt lat="43.44260414677382" lon="11.85282358493387"><ele>269.8</ele><time>2026-04-16T11:00:39.001Z</time></trkpt><trkpt lat="43.442650842989856" lon="11.852930812403677"><ele>267.2</ele><time>2026-04-16T11:00:41.001Z</time></trkpt><trkpt lat="43.44266525993509" lon="11.853079703547834"><ele>264.6</ele><time>2026-04-16T11:00:43.001Z</time></trkpt><trkpt lat="43.442649255879" lon="11.853229690507822"><ele>262.0</ele><time>2026-04-16T11:00:45.001Z</time></trkpt><trkpt lat="43.44262879219303" lon="11.85334046389983"><ele>262.0</ele><time>2026-04-16T11:00:47.001Z</time></trkpt><trkpt lat="43.44262404563114" lon="11.853450382417664"><ele>262.0</ele><time>2026-04-16T11:00:50.001Z</time></trkpt><trkpt lat="43.44261264543405" lon="11.853548040079932"><ele>262.0</ele><time>2026-04-16T11:00:52.001Z</time></trkpt><trkpt lat="43.44261577000836" lon="11.853694004131755"><ele>262.0</ele><time>2026-04-16T11:00:54.001Z</time></trkpt><trkpt lat="43.44262298121232" lon="11.853869785386362"><ele>262.0</ele><time>2026-04-16T11:00:56.001Z</time></trkpt><trkpt lat="43.44251716707607" lon="11.853998583570075"><ele>261.2</ele><time>2026-04-16T11:00:57.001Z</time></trkpt><trkpt lat="43.44248244768991" lon="11.854134971456519"><ele>260.4</ele><time>2026-04-16T11:00:58.001Z</time></trkpt><trkpt lat="43.44246189639401" lon="11.85427390347422"><ele>259.6</ele><time>2026-04-16T11:00:59.001Z</time></trkpt><trkpt lat="43.44245243228159" lon="11.854410031424758"><ele>258.8</ele><time>2026-04-16T11:01:00.001Z</time></trkpt><trkpt lat="43.442446649283845" lon="11.854533189354939"><ele>258.0</ele><time>2026-04-16T11:01:01.001Z</time></trkpt><trkpt lat="43.44243873427264" lon="11.854637354918255"><ele>258.0</ele><time>2026-04-16T11:01:02.001Z</time></trkpt><trkpt lat="43.442402587739195" lon="11.854749583685756"><ele>258.0</ele><time>2026-04-16T11:01:04.001Z</time></trkpt><trkpt lat="43.442372020532154" lon="11.85483736904933"><ele>258.0</ele><time>2026-04-16T11:01:12.001Z</time></trkpt><trkpt lat="43.44246309300745" lon="11.855004259848004"><ele>258.0</ele><time>2026-04-16T11:01:14.001Z</time></trkpt><trkpt lat="43.442543770731504" lon="11.855132558667172"><ele>258.0</ele><time>2026-04-16T11:01:15.001Z</time></trkpt><trkpt lat="43.44264448856223" lon="11.85525652653608"><ele>258.0</ele><time>2026-04-16T11:01:16.001Z</time></trkpt><trkpt lat="43.44276571643691" lon="11.855377084127559"><ele>258.0</ele><time>2026-04-16T11:01:17.001Z</time></trkpt><trkpt lat="43.44287657347126" lon="11.855518646815852"><ele>258.0</ele><time>2026-04-16T11:01:18.001Z</time></trkpt><trkpt lat="43.44298293173107" lon="11.85564841776019"><ele>258.0</ele><time>2026-04-16T11:01:19.001Z</time></trkpt><trkpt lat="43.44308777159924" lon="11.855785537757729"><ele>256.6666666666667</ele><time>2026-04-16T11:01:20.001Z</time></trkpt><trkpt lat="43.44319921674374" lon="11.855935467042782"><ele>255.33333333333334</ele><time>2026-04-16T11:01:21.001Z</time></trkpt><trkpt lat="43.44331757043659" lon="11.856084204005983"><ele>254.0</ele><time>2026-04-16T11:01:22.001Z</time></trkpt><trkpt lat="43.44343551864719" lon="11.856230630374087"><ele>254.0</ele><time>2026-04-16T11:01:23.001Z</time></trkpt><trkpt lat="43.44353912802862" lon="11.85638848989295"><ele>254.0</ele><time>2026-04-16T11:01:24.001Z</time></trkpt><trkpt lat="43.443654433396674" lon="11.856533612508944"><ele>254.0</ele><time>2026-04-16T11:01:25.001Z</time></trkpt><trkpt lat="43.443775055255635" lon="11.856655057243763"><ele>253.75</ele><time>2026-04-16T11:01:26.001Z</time></trkpt><trkpt lat="43.443871349829074" lon="11.856803109066364"><ele>253.5</ele><time>2026-04-16T11:01:27.001Z</time></trkpt><trkpt lat="43.44398832102712" lon="11.85692155950179"><ele>253.25</ele><time>2026-04-16T11:01:28.001Z</time></trkpt><trkpt lat="43.44408941006721" lon="11.85704652898583"><ele>253.0</ele><time>2026-04-16T11:01:29.001Z</time></trkpt><trkpt lat="43.44418981522313" lon="11.857172839230504"><ele>253.0</ele><time>2026-04-16T11:01:30.001Z</time></trkpt><trkpt lat="43.444288951657136" lon="11.857306425899104"><ele>253.0</ele><time>2026-04-16T11:01:31.001Z</time></trkpt><trkpt lat="43.44438415083475" lon="11.857419817103459"><ele>253.0</ele><time>2026-04-16T11:01:32Z</time></trkpt><trkpt lat="43.44447028440594" lon="11.857517222232984"><ele>253.0</ele><time>2026-04-16T11:01:33Z</time></trkpt><trkpt lat="43.44456330580265" lon="11.857640085507985"><ele>253.25</ele><time>2026-04-16T11:01:34Z</time></trkpt><trkpt lat="43.44465582817232" lon="11.85775175719073"><ele>253.5</ele><time>2026-04-16T11:01:35Z</time></trkpt><trkpt lat="43.444751583340974" lon="11.857874534931517"><ele>253.75</ele><time>2026-04-16T11:01:36Z</time></trkpt><trkpt lat="43.44484563728964" lon="11.857986105273264"><ele>254.0</ele><time>2026-04-16T11:01:37Z</time></trkpt><trkpt lat="43.444933955889276" lon="11.858099131639685"><ele>254.0</ele><time>2026-04-16T11:01:38Z</time></trkpt><trkpt lat="43.445008011344456" lon="11.858192311087882"><ele>254.0</ele><time>2026-04-16T11:01:39Z</time></trkpt><trkpt lat="43.44509475074079" lon="11.85830244690231"><ele>254.0</ele><time>2026-04-16T11:01:40Z</time></trkpt><trkpt lat="43.445187167860986" lon="11.858425735883628"><ele>254.0</ele><time>2026-04-16T11:01:41Z</time></trkpt><trkpt lat="43.44527424942747" lon="11.858527047378919"><ele>254.0</ele><time>2026-04-16T11:01:42Z</time></trkpt><trkpt lat="43.4453641895568" lon="11.858633623230462"><ele>253.99999999999997</ele><time>2026-04-16T11:01:43Z</time></trkpt><trkpt lat="43.445454449797815" lon="11.858728739170623"><ele>253.99999999999997</ele><time>2026-04-16T11:01:44Z</time></trkpt><trkpt lat="43.445538390308855" lon="11.858831919749893"><ele>254.0</ele><time>2026-04-16T11:01:45Z</time></trkpt><trkpt lat="43.44561694772618" lon="11.858925626306311"><ele>254.0</ele><time>2026-04-16T11:01:46Z</time></trkpt><trkpt lat="43.44570410831166" lon="11.859024640567428"><ele>254.0</ele><time>2026-04-16T11:01:47Z</time></trkpt><trkpt lat="43.44579456933852" lon="11.859127417095669"><ele>253.99999999999997</ele><time>2026-04-16T11:01:48Z</time></trkpt><trkpt lat="43.44587386045213" lon="11.859219667689041"><ele>253.99999999999997</ele><time>2026-04-16T11:01:49Z</time></trkpt><trkpt lat="43.445954752916826" lon="11.859316608670706"><ele>254.0</ele><time>2026-04-16T11:01:50Z</time></trkpt><trkpt lat="43.44603874116161" lon="11.859412993640401"><ele>254.0</ele><time>2026-04-16T11:01:51Z</time></trkpt><trkpt lat="43.44612181881518" lon="11.859510600346013"><ele>254.0</ele><time>2026-04-16T11:01:52Z</time></trkpt><trkpt lat="43.44620280564439" lon="11.859609236879683"><ele>253.99999999999997</ele><time>2026-04-16T11:01:53Z</time></trkpt><trkpt lat="43.446278932700764" lon="11.859700039889999"><ele>253.99999999999997</ele><time>2026-04-16T11:01:54Z</time></trkpt><trkpt lat="43.44635581771892" lon="11.85980122727215"><ele>254.0</ele><time>2026-04-16T11:01:55Z</time></trkpt><trkpt lat="43.44642853924311" lon="11.859893570011074"><ele>254.0</ele><time>2026-04-16T11:01:56Z</time></trkpt><trkpt lat="43.44650123821834" lon="11.859986474537909"><ele>254.0</ele><time>2026-04-16T11:01:57Z</time></trkpt><trkpt lat="43.44656971228784" lon="11.86007607959263"><ele>253.99999999999997</ele><time>2026-04-16T11:01:58Z</time></trkpt><trkpt lat="43.44663556778056" lon="11.860167101640258"><ele>253.99999999999997</ele><time>2026-04-16T11:01:59Z</time></trkpt><trkpt lat="43.44670490937475" lon="11.860254356766031"><ele>254.0</ele><time>2026-04-16T11:02:00Z</time></trkpt><trkpt lat="43.446778550769835" lon="11.860345188028253"><ele>254.0</ele><time>2026-04-16T11:02:01Z</time></trkpt><trkpt lat="43.44685270209866" lon="11.86043729887066"><ele>254.0</ele><time>2026-04-16T11:02:02Z</time></trkpt><trkpt lat="43.4469226592426" lon="11.860526702031358"><ele>253.99999999999997</ele><time>2026-04-16T11:02:03Z</time></trkpt><trkpt lat="43.446993924884374" lon="11.860616260104281"><ele>253.99999999999997</ele><time>2026-04-16T11:02:04Z</time></trkpt><trkpt lat="43.447067567619506" lon="11.860705331256833"><ele>254.0</ele><time>2026-04-16T11:02:05Z</time></trkpt><trkpt lat="43.44714653937481" lon="11.86079708116815"><ele>254.0</ele><time>2026-04-16T11:02:06Z</time></trkpt><trkpt lat="43.44721887087011" lon="11.860881388722028"><ele>254.00000000000003</ele><time>2026-04-16T11:02:07Z</time></trkpt><trkpt lat="43.4472903871137" lon="11.860969058054097"><ele>254.0</ele><time>2026-04-16T11:02:08Z</time></trkpt><trkpt lat="43.447346852074666" lon="11.861044239822515"><ele>254.0</ele><time>2026-04-16T11:02:09Z</time></trkpt><trkpt lat="43.44739338622326" lon="11.861148567827454"><ele>254.0</ele><time>2026-04-16T11:02:10Z</time></trkpt><trkpt lat="43.4474090903099" lon="11.861251902896022"><ele>254.00000000000003</ele><time>2026-04-16T11:02:11Z</time></trkpt><trkpt lat="43.44741617092706" lon="11.861369153296803"><ele>254.0</ele><time>2026-04-16T11:02:12Z</time></trkpt><trkpt lat="43.44745839144774" lon="11.861453076378087"><ele>254.00000000000003</ele><time>2026-04-16T11:02:13Z</time></trkpt><trkpt lat="43.44752049944699" lon="11.861523893881154"><ele>254.0</ele><time>2026-04-16T11:02:14Z</time></trkpt><trkpt lat="43.44758736076684" lon="11.861563311416898"><ele>254.0</ele><time>2026-04-16T11:02:15Z</time></trkpt><trkpt lat="43.44766637807032" lon="11.861569164471238"><ele>254.0</ele><time>2026-04-16T11:02:16Z</time></trkpt><trkpt lat="43.44774745448209" lon="11.861565375601295"><ele>254.00000000000003</ele><time>2026-04-16T11:02:17Z</time></trkpt><trkpt lat="43.44783669646382" lon="11.861616314382625"><ele>254.0</ele><time>2026-04-16T11:02:18Z</time></trkpt><trkpt lat="43.44792227886771" lon="11.861724924539613"><ele>254.75</ele><time>2026-04-16T11:02:19Z</time></trkpt><trkpt lat="43.44801056660879" lon="11.861846313567057"><ele>255.5</ele><time>2026-04-16T11:02:20Z</time></trkpt><trkpt lat="43.44810109974024" lon="11.861959337737542"><ele>256.25</ele><time>2026-04-16T11:02:21Z</time></trkpt><trkpt lat="43.44819894938389" lon="11.862082084507366"><ele>257.0</ele><time>2026-04-16T11:02:22Z</time></trkpt><trkpt lat="43.448290308647195" lon="11.86220742421488"><ele>257.0</ele><time>2026-04-16T11:02:23Z</time></trkpt><trkpt lat="43.44837850785871" lon="11.862323387586937"><ele>257.0</ele><time>2026-04-16T11:02:24Z</time></trkpt><trkpt lat="43.44846047103948" lon="11.862419109310423"><ele>257.0</ele><time>2026-04-16T11:02:25Z</time></trkpt><trkpt lat="43.4485453710052" lon="11.862529169025185"><ele>257.0</ele><time>2026-04-16T11:02:26Z</time></trkpt><trkpt lat="43.44861816988772" lon="11.862630128811082"><ele>257.0</ele><time>2026-04-16T11:02:27Z</time></trkpt><trkpt lat="43.44869368284458" lon="11.862728755065765"><ele>256.8</ele><time>2026-04-16T11:02:28Z</time></trkpt><trkpt lat="43.44876199303533" lon="11.86281921293038"><ele>256.6</ele><time>2026-04-16T11:02:29Z</time></trkpt><trkpt lat="43.44883537786608" lon="11.862902395493832"><ele>256.40000000000003</ele><time>2026-04-16T11:02:30Z</time></trkpt><trkpt lat="43.448893032655974" lon="11.862984510273192"><ele>256.2</ele><time>2026-04-16T11:02:31Z</time></trkpt><trkpt lat="43.448944075040444" lon="11.863062847684033"><ele>256.0</ele><time>2026-04-16T11:02:32Z</time></trkpt><trkpt lat="43.449021331073375" lon="11.863197149074363"><ele>255.60000000000002</ele><time>2026-04-16T11:02:34Z</time></trkpt><trkpt lat="43.44901250402801" lon="11.863340344088138"><ele>255.20000000000002</ele><time>2026-04-16T11:02:36Z</time></trkpt><trkpt lat="43.448990634920676" lon="11.863471530645173"><ele>254.79999999999998</ele><time>2026-04-16T11:02:38Z</time></trkpt><trkpt lat="43.448939190511254" lon="11.863675476812185"><ele>254.39999999999998</ele><time>2026-04-16T11:04:12Z</time></trkpt><trkpt lat="43.44898133157764" lon="11.863608996155719"><ele>254.0</ele><time>2026-04-16T11:04:31Z</time></trkpt><trkpt lat="43.449024056909124" lon="11.863674675236574"><ele>254.0</ele><time>2026-04-16T11:06:51.027Z</time></trkpt><trkpt lat="43.44907292015108" lon="11.863765741421354"><ele>254.0</ele><time>2026-04-16T11:06:56.022Z</time></trkpt><trkpt lat="43.449083270280354" lon="11.863387276288956"><ele>254.0</ele><time>2026-04-16T11:07:02.047Z</time></trkpt><trkpt lat="43.448720360215475" lon="11.86333361082884"><ele>254.0</ele><time>2026-04-16T11:07:29.001Z</time></trkpt><trkpt lat="43.4490058478375" lon="11.863540224742017"><ele>254.0</ele><time>2026-04-16T11:07:34.001Z</time></trkpt><trkpt lat="43.44894130613963" lon="11.863551346177793"><ele>254.0</ele><time>2026-04-16T11:08:06Z</time></trkpt><trkpt lat="43.44889968309635" lon="11.863629259653349"><ele>254.00000000000003</ele><time>2026-04-16T11:10:24Z</time></trkpt><trkpt lat="43.44885481028312" lon="11.863733483150224"><ele>254.0</ele><time>2026-04-16T11:10:30Z</time></trkpt><trkpt lat="43.44884479534702" lon="11.8636233817336"><ele>254.0</ele><time>2026-04-16T11:10:35Z</time></trkpt><trkpt lat="43.44881103593795" lon="11.863696572143196"><ele>254.0</ele><time>2026-04-16T11:10:40Z</time></trkpt><trkpt lat="43.44891413747858" lon="11.863594545644817"><ele>254.00000000000003</ele><time>2026-04-16T11:10:48Z</time></trkpt><trkpt lat="43.44886198612777" lon="11.863692188111669"><ele>254.0</ele><time>2026-04-16T11:10:51Z</time></trkpt><trkpt lat="43.448851922573226" lon="11.863593646604638"><ele>254.0</ele><time>2026-04-16T11:11:09.001Z</time></trkpt></trkseg></trk></gpx>